<?xml version="1.0" encoding="utf-8"?>
<gpx xmlns:xsi="http://www.w3.org/2001/XMLSchema-instance" xmlns:xsd="http://www.w3.org/2001/XMLSchema" version="1.1" creator="Shapelink.com" xmlns="http://www.topografix.com/GPX/1/1" xmlns:gpxtpx="http://www.garmin.com/xmlschemas/TrackPointExtension/v1">
  <metadata>
    <name>Löpning 10.60 km, 2018-03-29</name>
    <desc></desc>
    <author><name>Bengt-Åke Forslund</name></author> 
    <time>2018-03-29T10:40:33Z</time>
  </metadata>
  <trk>
    <name>Löpning 10.60 km, 2018-03-29</name>
    <trkseg>
      <trkpt lat="62.641640230859" lon="17.899176550925">
        <ele>46.4</ele>
        <time>2018-03-29T10:40:33Z</time>
      </trkpt>
      <trkpt lat="62.641676356848" lon="17.898787044032">
        <ele>46</ele>
        <time>2018-03-29T10:40:42Z</time>
      </trkpt>
      <trkpt lat="62.641684235834" lon="17.898726945809">
        <ele>46</ele>
        <time>2018-03-29T10:40:43Z</time>
      </trkpt>
      <trkpt lat="62.64168624749" lon="17.898651005795">
        <ele>46</ele>
        <time>2018-03-29T10:40:44Z</time>
      </trkpt>
      <trkpt lat="62.641694713209" lon="17.898577161256">
        <ele>46</ele>
        <time>2018-03-29T10:40:45Z</time>
      </trkpt>
      <trkpt lat="62.641698987978" lon="17.898497114111">
        <ele>45.8</ele>
        <time>2018-03-29T10:40:46Z</time>
      </trkpt>
      <trkpt lat="62.641702592195" lon="17.89841170255">
        <ele>45.6</ele>
        <time>2018-03-29T10:40:47Z</time>
      </trkpt>
      <trkpt lat="62.641709213896" lon="17.898337522735">
        <ele>45.4</ele>
        <time>2018-03-29T10:40:48Z</time>
      </trkpt>
      <trkpt lat="62.64171809871" lon="17.898243142541">
        <ele>45.2</ele>
        <time>2018-03-29T10:40:49Z</time>
      </trkpt>
      <trkpt lat="62.641727067343" lon="17.898158317713">
        <ele>45</ele>
        <time>2018-03-29T10:40:50Z</time>
      </trkpt>
      <trkpt lat="62.641737125623" lon="17.898076929464">
        <ele>45</ele>
        <time>2018-03-29T10:40:51Z</time>
      </trkpt>
      <trkpt lat="62.64174324441" lon="17.89798422565">
        <ele>44.8</ele>
        <time>2018-03-29T10:40:52Z</time>
      </trkpt>
      <trkpt lat="62.641747854455" lon="17.897885570687">
        <ele>44.4</ele>
        <time>2018-03-29T10:40:53Z</time>
      </trkpt>
      <trkpt lat="62.641740143107" lon="17.897779036738">
        <ele>44.2</ele>
        <time>2018-03-29T10:40:54Z</time>
      </trkpt>
      <trkpt lat="62.641722457298" lon="17.897693625177">
        <ele>44</ele>
        <time>2018-03-29T10:40:55Z</time>
      </trkpt>
      <trkpt lat="62.641695802856" lon="17.897637969361">
        <ele>43.8</ele>
        <time>2018-03-29T10:40:56Z</time>
      </trkpt>
      <trkpt lat="62.641669399871" lon="17.897623636312">
        <ele>43.6</ele>
        <time>2018-03-29T10:40:57Z</time>
      </trkpt>
      <trkpt lat="62.641644673266" lon="17.89763050947">
        <ele>43.6</ele>
        <time>2018-03-29T10:40:58Z</time>
      </trkpt>
      <trkpt lat="62.6416183541" lon="17.89765649336">
        <ele>43.6</ele>
        <time>2018-03-29T10:40:59Z</time>
      </trkpt>
      <trkpt lat="62.641589939459" lon="17.897690272417">
        <ele>43.6</ele>
        <time>2018-03-29T10:41:00Z</time>
      </trkpt>
      <trkpt lat="62.641565883406" lon="17.897729332071">
        <ele>43.4</ele>
        <time>2018-03-29T10:41:01Z</time>
      </trkpt>
      <trkpt lat="62.641540905344" lon="17.89776126711">
        <ele>43.4</ele>
        <time>2018-03-29T10:41:02Z</time>
      </trkpt>
      <trkpt lat="62.641523554811" lon="17.897800242945">
        <ele>43.4</ele>
        <time>2018-03-29T10:41:03Z</time>
      </trkpt>
      <trkpt lat="62.641492877057" lon="17.897835614563">
        <ele>43.2</ele>
        <time>2018-03-29T10:41:04Z</time>
      </trkpt>
      <trkpt lat="62.641467563719" lon="17.897866711412">
        <ele>43.2</ele>
        <time>2018-03-29T10:41:05Z</time>
      </trkpt>
      <trkpt lat="62.641445603141" lon="17.897894958415">
        <ele>43.2</ele>
        <time>2018-03-29T10:41:06Z</time>
      </trkpt>
      <trkpt lat="62.641422385278" lon="17.897918176278">
        <ele>43.2</ele>
        <time>2018-03-29T10:41:07Z</time>
      </trkpt>
      <trkpt lat="62.641405118564" lon="17.897946674738">
        <ele>43.4</ele>
        <time>2018-03-29T10:41:08Z</time>
      </trkpt>
      <trkpt lat="62.641390617877" lon="17.897970395515">
        <ele>43.4</ele>
        <time>2018-03-29T10:41:09Z</time>
      </trkpt>
      <trkpt lat="62.641368657299" lon="17.897983303641">
        <ele>43.6</ele>
        <time>2018-03-29T10:41:10Z</time>
      </trkpt>
      <trkpt lat="62.641355413897" lon="17.898000402717">
        <ele>44</ele>
        <time>2018-03-29T10:41:11Z</time>
      </trkpt>
      <trkpt lat="62.641343176323" lon="17.898017501793">
        <ele>44</ele>
        <time>2018-03-29T10:41:12Z</time>
      </trkpt>
      <trkpt lat="62.641326244885" lon="17.898040971113">
        <ele>44.2</ele>
        <time>2018-03-29T10:41:13Z</time>
      </trkpt>
      <trkpt lat="62.641311995655" lon="17.898059578931">
        <ele>44.2</ele>
        <time>2018-03-29T10:41:14Z</time>
      </trkpt>
      <trkpt lat="62.641298249339" lon="17.898073828161">
        <ele>44.4</ele>
        <time>2018-03-29T10:41:15Z</time>
      </trkpt>
      <trkpt lat="62.641275199114" lon="17.898095202006">
        <ele>44.4</ele>
        <time>2018-03-29T10:41:16Z</time>
      </trkpt>
      <trkpt lat="62.641254831097" lon="17.898115570023">
        <ele>44.8</ele>
        <time>2018-03-29T10:41:17Z</time>
      </trkpt>
      <trkpt lat="62.641235636546" lon="17.898132166185">
        <ele>45</ele>
        <time>2018-03-29T10:41:18Z</time>
      </trkpt>
      <trkpt lat="62.641215268529" lon="17.898144236121">
        <ele>45.4</ele>
        <time>2018-03-29T10:41:19Z</time>
      </trkpt>
      <trkpt lat="62.641193224132" lon="17.898158652989">
        <ele>45.6</ele>
        <time>2018-03-29T10:41:20Z</time>
      </trkpt>
      <trkpt lat="62.641172856115" lon="17.898172064029">
        <ele>46</ele>
        <time>2018-03-29T10:41:21Z</time>
      </trkpt>
      <trkpt lat="62.64114310037" lon="17.898176757893">
        <ele>45.8</ele>
        <time>2018-03-29T10:41:22Z</time>
      </trkpt>
      <trkpt lat="62.641121977982" lon="17.898177260807">
        <ele>46</ele>
        <time>2018-03-29T10:41:23Z</time>
      </trkpt>
      <trkpt lat="62.641098257205" lon="17.898177763721">
        <ele>46</ele>
        <time>2018-03-29T10:41:24Z</time>
      </trkpt>
      <trkpt lat="62.641073279143" lon="17.898167621622">
        <ele>46</ele>
        <time>2018-03-29T10:41:25Z</time>
      </trkpt>
      <trkpt lat="62.641051150927" lon="17.898150774003">
        <ele>46.2</ele>
        <time>2018-03-29T10:41:26Z</time>
      </trkpt>
      <trkpt lat="62.641033213661" lon="17.898131076538">
        <ele>46.2</ele>
        <time>2018-03-29T10:41:27Z</time>
      </trkpt>
      <trkpt lat="62.641018461517" lon="17.898107020485">
        <ele>46.4</ele>
        <time>2018-03-29T10:41:28Z</time>
      </trkpt>
      <trkpt lat="62.641004547563" lon="17.898077097102">
        <ele>46.6</ele>
        <time>2018-03-29T10:41:29Z</time>
      </trkpt>
      <trkpt lat="62.64099054979" lon="17.898044407692">
        <ele>46.6</ele>
        <time>2018-03-29T10:41:30Z</time>
      </trkpt>
      <trkpt lat="62.640980742967" lon="17.89801942963">
        <ele>46.8</ele>
        <time>2018-03-29T10:41:31Z</time>
      </trkpt>
      <trkpt lat="62.640971187601" lon="17.897983890374">
        <ele>47</ele>
        <time>2018-03-29T10:41:32Z</time>
      </trkpt>
      <trkpt lat="62.640964230624" lon="17.897954889">
        <ele>47.2</ele>
        <time>2018-03-29T10:41:33Z</time>
      </trkpt>
      <trkpt lat="62.640955848724" lon="17.89792387597">
        <ele>47.2</ele>
        <time>2018-03-29T10:41:34Z</time>
      </trkpt>
      <trkpt lat="62.640947885919" lon="17.897890851284">
        <ele>47.4</ele>
        <time>2018-03-29T10:41:35Z</time>
      </trkpt>
      <trkpt lat="62.640939671657" lon="17.897857742779">
        <ele>47.6</ele>
        <time>2018-03-29T10:41:36Z</time>
      </trkpt>
      <trkpt lat="62.640932044128" lon="17.897827903215">
        <ele>47.6</ele>
        <time>2018-03-29T10:41:37Z</time>
      </trkpt>
      <trkpt lat="62.640926931169" lon="17.897797225461">
        <ele>47.8</ele>
        <time>2018-03-29T10:41:38Z</time>
      </trkpt>
      <trkpt lat="62.640919974192" lon="17.897767218259">
        <ele>48</ele>
        <time>2018-03-29T10:41:39Z</time>
      </trkpt>
      <trkpt lat="62.640913855405" lon="17.897732517193">
        <ele>48.2</ele>
        <time>2018-03-29T10:41:40Z</time>
      </trkpt>
      <trkpt lat="62.640908826265" lon="17.897693876634">
        <ele>48.4</ele>
        <time>2018-03-29T10:41:41Z</time>
      </trkpt>
      <trkpt lat="62.64090421622" lon="17.897655487532">
        <ele>48.6</ele>
        <time>2018-03-29T10:41:42Z</time>
      </trkpt>
      <trkpt lat="62.640897845976" lon="17.897626989072">
        <ele>48.8</ele>
        <time>2018-03-29T10:41:43Z</time>
      </trkpt>
      <trkpt lat="62.640890888999" lon="17.897589605798">
        <ele>49</ele>
        <time>2018-03-29T10:41:44Z</time>
      </trkpt>
      <trkpt lat="62.640883345289" lon="17.89755171961">
        <ele>49.2</ele>
        <time>2018-03-29T10:41:45Z</time>
      </trkpt>
      <trkpt lat="62.64087571776" lon="17.897516767087">
        <ele>49.4</ele>
        <time>2018-03-29T10:41:46Z</time>
      </trkpt>
      <trkpt lat="62.640868425507" lon="17.897480222003">
        <ele>49.6</ele>
        <time>2018-03-29T10:41:47Z</time>
      </trkpt>
      <trkpt lat="62.640859708331" lon="17.897448370783">
        <ele>49.8</ele>
        <time>2018-03-29T10:41:48Z</time>
      </trkpt>
      <trkpt lat="62.640850907336" lon="17.897411490423">
        <ele>49.8</ele>
        <time>2018-03-29T10:41:49Z</time>
      </trkpt>
      <trkpt lat="62.640845710558" lon="17.897375615891">
        <ele>49.8</ele>
        <time>2018-03-29T10:41:50Z</time>
      </trkpt>
      <trkpt lat="62.640838250667" lon="17.897351056924">
        <ele>50</ele>
        <time>2018-03-29T10:41:51Z</time>
      </trkpt>
      <trkpt lat="62.640829701129" lon="17.897314260383">
        <ele>50</ele>
        <time>2018-03-29T10:41:52Z</time>
      </trkpt>
      <trkpt lat="62.640822492695" lon="17.897279643136">
        <ele>50.2</ele>
        <time>2018-03-29T10:41:53Z</time>
      </trkpt>
      <trkpt lat="62.640814613709" lon="17.897247875735">
        <ele>50.4</ele>
        <time>2018-03-29T10:41:54Z</time>
      </trkpt>
      <trkpt lat="62.640807656732" lon="17.897217784714">
        <ele>50.4</ele>
        <time>2018-03-29T10:41:55Z</time>
      </trkpt>
      <trkpt lat="62.640798185185" lon="17.897192219919">
        <ele>50.6</ele>
        <time>2018-03-29T10:41:56Z</time>
      </trkpt>
      <trkpt lat="62.640789719466" lon="17.897162967088">
        <ele>50.8</ele>
        <time>2018-03-29T10:41:57Z</time>
      </trkpt>
      <trkpt lat="62.640782846308" lon="17.897127344013">
        <ele>50.8</ele>
        <time>2018-03-29T10:41:58Z</time>
      </trkpt>
      <trkpt lat="62.640775051141" lon="17.897096750078">
        <ele>51</ele>
        <time>2018-03-29T10:41:59Z</time>
      </trkpt>
      <trkpt lat="62.640767004517" lon="17.897066239962">
        <ele>51.2</ele>
        <time>2018-03-29T10:42:00Z</time>
      </trkpt>
      <trkpt lat="62.640759712264" lon="17.89703790914">
        <ele>51.2</ele>
        <time>2018-03-29T10:42:01Z</time>
      </trkpt>
      <trkpt lat="62.640750659812" lon="17.897018127856">
        <ele>51.6</ele>
        <time>2018-03-29T10:42:02Z</time>
      </trkpt>
      <trkpt lat="62.640745379215" lon="17.896994490898">
        <ele>51.6</ele>
        <time>2018-03-29T10:42:03Z</time>
      </trkpt>
      <trkpt lat="62.64073741641" lon="17.896964399877">
        <ele>51.8</ele>
        <time>2018-03-29T10:42:04Z</time>
      </trkpt>
      <trkpt lat="62.640728447777" lon="17.896942439299">
        <ele>52</ele>
        <time>2018-03-29T10:42:05Z</time>
      </trkpt>
      <trkpt lat="62.640718557135" lon="17.896915617219">
        <ele>52</ele>
        <time>2018-03-29T10:42:06Z</time>
      </trkpt>
      <trkpt lat="62.640710929606" lon="17.896888962777">
        <ele>52.2</ele>
        <time>2018-03-29T10:42:07Z</time>
      </trkpt>
      <trkpt lat="62.640702547706" lon="17.896865325819">
        <ele>52.4</ele>
        <time>2018-03-29T10:42:08Z</time>
      </trkpt>
      <trkpt lat="62.640694333444" lon="17.896841856499">
        <ele>52.6</ele>
        <time>2018-03-29T10:42:09Z</time>
      </trkpt>
      <trkpt lat="62.640684526621" lon="17.896813525677">
        <ele>52.8</ele>
        <time>2018-03-29T10:42:10Z</time>
      </trkpt>
      <trkpt lat="62.640675725626" lon="17.896787206511">
        <ele>53.2</ele>
        <time>2018-03-29T10:42:11Z</time>
      </trkpt>
      <trkpt lat="62.64066617026" lon="17.896766670856">
        <ele>53.4</ele>
        <time>2018-03-29T10:42:12Z</time>
      </trkpt>
      <trkpt lat="62.640657033989" lon="17.896740938423">
        <ele>53.6</ele>
        <time>2018-03-29T10:42:13Z</time>
      </trkpt>
      <trkpt lat="62.640644712596" lon="17.896713781067">
        <ele>53.8</ele>
        <time>2018-03-29T10:42:14Z</time>
      </trkpt>
      <trkpt lat="62.640633816126" lon="17.896687126625">
        <ele>54</ele>
        <time>2018-03-29T10:42:15Z</time>
      </trkpt>
      <trkpt lat="62.640625769502" lon="17.896648486066">
        <ele>54.2</ele>
        <time>2018-03-29T10:42:16Z</time>
      </trkpt>
      <trkpt lat="62.640614705394" lon="17.896618478864">
        <ele>54.2</ele>
        <time>2018-03-29T10:42:17Z</time>
      </trkpt>
      <trkpt lat="62.640607413141" lon="17.896589561309">
        <ele>54.6</ele>
        <time>2018-03-29T10:42:18Z</time>
      </trkpt>
      <trkpt lat="62.640601881087" lon="17.896549495827">
        <ele>54.6</ele>
        <time>2018-03-29T10:42:19Z</time>
      </trkpt>
      <trkpt lat="62.640592325721" lon="17.896517225512">
        <ele>54.6</ele>
        <time>2018-03-29T10:42:20Z</time>
      </trkpt>
      <trkpt lat="62.640582015984" lon="17.896488224138">
        <ele>54.8</ele>
        <time>2018-03-29T10:42:21Z</time>
      </trkpt>
      <trkpt lat="62.64057816031" lon="17.896441285498">
        <ele>54.8</ele>
        <time>2018-03-29T10:42:22Z</time>
      </trkpt>
      <trkpt lat="62.640571035695" lon="17.896408512269">
        <ele>55</ele>
        <time>2018-03-29T10:42:23Z</time>
      </trkpt>
      <trkpt lat="62.640562486157" lon="17.89636987171">
        <ele>55</ele>
        <time>2018-03-29T10:42:24Z</time>
      </trkpt>
      <trkpt lat="62.640554523352" lon="17.896327794572">
        <ele>55.2</ele>
        <time>2018-03-29T10:42:25Z</time>
      </trkpt>
      <trkpt lat="62.640548236927" lon="17.89629024366">
        <ele>55.4</ele>
        <time>2018-03-29T10:42:26Z</time>
      </trkpt>
      <trkpt lat="62.640541866683" lon="17.896252441291">
        <ele>55.4</ele>
        <time>2018-03-29T10:42:27Z</time>
      </trkpt>
      <trkpt lat="62.640536166991" lon="17.896215896207">
        <ele>55.6</ele>
        <time>2018-03-29T10:42:28Z</time>
      </trkpt>
      <trkpt lat="62.640530802575" lon="17.896172645603">
        <ele>55.6</ele>
        <time>2018-03-29T10:42:29Z</time>
      </trkpt>
      <trkpt lat="62.640525857254" lon="17.896129394999">
        <ele>55.8</ele>
        <time>2018-03-29T10:42:30Z</time>
      </trkpt>
      <trkpt lat="62.6405203252" lon="17.896090838259">
        <ele>56</ele>
        <time>2018-03-29T10:42:31Z</time>
      </trkpt>
      <trkpt lat="62.640515379879" lon="17.896057394478">
        <ele>56.2</ele>
        <time>2018-03-29T10:42:32Z</time>
      </trkpt>
      <trkpt lat="62.640510937472" lon="17.896021436127">
        <ele>56.4</ele>
        <time>2018-03-29T10:42:33Z</time>
      </trkpt>
      <trkpt lat="62.640507249436" lon="17.89597340784">
        <ele>56.6</ele>
        <time>2018-03-29T10:42:34Z</time>
      </trkpt>
      <trkpt lat="62.640502555572" lon="17.895931749797">
        <ele>56.8</ele>
        <time>2018-03-29T10:42:35Z</time>
      </trkpt>
      <trkpt lat="62.640500627735" lon="17.895893276876">
        <ele>57</ele>
        <time>2018-03-29T10:42:36Z</time>
      </trkpt>
      <trkpt lat="62.640497274975" lon="17.895855055412">
        <ele>57.2</ele>
        <time>2018-03-29T10:42:37Z</time>
      </trkpt>
      <trkpt lat="62.640496688242" lon="17.895809290238">
        <ele>57.2</ele>
        <time>2018-03-29T10:42:38Z</time>
      </trkpt>
      <trkpt lat="62.640492748749" lon="17.895763441245">
        <ele>57.2</ele>
        <time>2018-03-29T10:42:39Z</time>
      </trkpt>
      <trkpt lat="62.640490234179" lon="17.895720861193">
        <ele>57.4</ele>
        <time>2018-03-29T10:42:40Z</time>
      </trkpt>
      <trkpt lat="62.640487049057" lon="17.89567082125">
        <ele>57.6</ele>
        <time>2018-03-29T10:42:41Z</time>
      </trkpt>
      <trkpt lat="62.640482439012" lon="17.895635365813">
        <ele>57.6</ele>
        <time>2018-03-29T10:42:42Z</time>
      </trkpt>
      <trkpt lat="62.640479589166" lon="17.895590271191">
        <ele>57.6</ele>
        <time>2018-03-29T10:42:43Z</time>
      </trkpt>
      <trkpt lat="62.640475230578" lon="17.895538806325">
        <ele>57.8</ele>
        <time>2018-03-29T10:42:44Z</time>
      </trkpt>
      <trkpt lat="62.640475733492" lon="17.895487173821">
        <ele>57.8</ele>
        <time>2018-03-29T10:42:45Z</time>
      </trkpt>
      <trkpt lat="62.640470201438" lon="17.895426740322">
        <ele>57.6</ele>
        <time>2018-03-29T10:42:46Z</time>
      </trkpt>
      <trkpt lat="62.640462909185" lon="17.895371922696">
        <ele>57.6</ele>
        <time>2018-03-29T10:42:47Z</time>
      </trkpt>
      <trkpt lat="62.640467603049" lon="17.895288438972">
        <ele>57.6</ele>
        <time>2018-03-29T10:42:48Z</time>
      </trkpt>
      <trkpt lat="62.640467016316" lon="17.895215181166">
        <ele>57.6</ele>
        <time>2018-03-29T10:42:49Z</time>
      </trkpt>
      <trkpt lat="62.640459556425" lon="17.895148545061">
        <ele>57.4</ele>
        <time>2018-03-29T10:42:50Z</time>
      </trkpt>
      <trkpt lat="62.640456203665" lon="17.895097247833">
        <ele>57.4</ele>
        <time>2018-03-29T10:42:51Z</time>
      </trkpt>
      <trkpt lat="62.640449498145" lon="17.895028851529">
        <ele>57.2</ele>
        <time>2018-03-29T10:42:52Z</time>
      </trkpt>
      <trkpt lat="62.640446229204" lon="17.894982583441">
        <ele>57.2</ele>
        <time>2018-03-29T10:42:53Z</time>
      </trkpt>
      <trkpt lat="62.640443714634" lon="17.894917707535">
        <ele>57</ele>
        <time>2018-03-29T10:42:54Z</time>
      </trkpt>
      <trkpt lat="62.640437260571" lon="17.894870517438">
        <ele>57</ele>
        <time>2018-03-29T10:42:55Z</time>
      </trkpt>
      <trkpt lat="62.640434075449" lon="17.894811257405">
        <ele>57</ele>
        <time>2018-03-29T10:42:56Z</time>
      </trkpt>
      <trkpt lat="62.640431728517" lon="17.89475970872">
        <ele>57</ele>
        <time>2018-03-29T10:42:57Z</time>
      </trkpt>
      <trkpt lat="62.640428291938" lon="17.894703298533">
        <ele>57.2</ele>
        <time>2018-03-29T10:42:58Z</time>
      </trkpt>
      <trkpt lat="62.640419407124" lon="17.894659712653">
        <ele>57.4</ele>
        <time>2018-03-29T10:42:59Z</time>
      </trkpt>
      <trkpt lat="62.640416222002" lon="17.894607744873">
        <ele>57.4</ele>
        <time>2018-03-29T10:43:00Z</time>
      </trkpt>
      <trkpt lat="62.6404113605" lon="17.894561979699">
        <ele>57.4</ele>
        <time>2018-03-29T10:43:01Z</time>
      </trkpt>
      <trkpt lat="62.640406918093" lon="17.894527194814">
        <ele>57.4</ele>
        <time>2018-03-29T10:43:02Z</time>
      </trkpt>
      <trkpt lat="62.640401553677" lon="17.894487548427">
        <ele>57.4</ele>
        <time>2018-03-29T10:43:03Z</time>
      </trkpt>
      <trkpt lat="62.640394009967" lon="17.894440945063">
        <ele>57.6</ele>
        <time>2018-03-29T10:43:04Z</time>
      </trkpt>
      <trkpt lat="62.640388058818" lon="17.894400711943">
        <ele>57.6</ele>
        <time>2018-03-29T10:43:05Z</time>
      </trkpt>
      <trkpt lat="62.640379928375" lon="17.894362909574">
        <ele>57.8</ele>
        <time>2018-03-29T10:43:06Z</time>
      </trkpt>
      <trkpt lat="62.640369115724" lon="17.894321670626">
        <ele>58</ele>
        <time>2018-03-29T10:43:07Z</time>
      </trkpt>
      <trkpt lat="62.640361404376" lon="17.89427942585">
        <ele>58</ele>
        <time>2018-03-29T10:43:08Z</time>
      </trkpt>
      <trkpt lat="62.640346400775" lon="17.894243886594">
        <ele>58</ele>
        <time>2018-03-29T10:43:09Z</time>
      </trkpt>
      <trkpt lat="62.640336007219" lon="17.894197031773">
        <ele>58.4</ele>
        <time>2018-03-29T10:43:10Z</time>
      </trkpt>
      <trkpt lat="62.640326787129" lon="17.8941578883">
        <ele>58.4</ele>
        <time>2018-03-29T10:43:11Z</time>
      </trkpt>
      <trkpt lat="62.640316896487" lon="17.894107932176">
        <ele>58.6</ele>
        <time>2018-03-29T10:43:12Z</time>
      </trkpt>
      <trkpt lat="62.640304658913" lon="17.894069459255">
        <ele>58.8</ele>
        <time>2018-03-29T10:43:13Z</time>
      </trkpt>
      <trkpt lat="62.640294516814" lon="17.894022604434">
        <ele>59</ele>
        <time>2018-03-29T10:43:14Z</time>
      </trkpt>
      <trkpt lat="62.640284626172" lon="17.893983293323">
        <ele>59</ele>
        <time>2018-03-29T10:43:15Z</time>
      </trkpt>
      <trkpt lat="62.640272640055" lon="17.893947167334">
        <ele>59</ele>
        <time>2018-03-29T10:43:16Z</time>
      </trkpt>
      <trkpt lat="62.640261575947" lon="17.893909029689">
        <ele>59.2</ele>
        <time>2018-03-29T10:43:17Z</time>
      </trkpt>
      <trkpt lat="62.640253026409" lon="17.893873825709">
        <ele>59.2</ele>
        <time>2018-03-29T10:43:18Z</time>
      </trkpt>
      <trkpt lat="62.640243554862" lon="17.893839459919">
        <ele>59.4</ele>
        <time>2018-03-29T10:43:19Z</time>
      </trkpt>
      <trkpt lat="62.640237771351" lon="17.893808865984">
        <ele>59.6</ele>
        <time>2018-03-29T10:43:20Z</time>
      </trkpt>
      <trkpt lat="62.640234418591" lon="17.893764944828">
        <ele>59.6</ele>
        <time>2018-03-29T10:43:21Z</time>
      </trkpt>
      <trkpt lat="62.640230227641" lon="17.89372538226">
        <ele>59.8</ele>
        <time>2018-03-29T10:43:22Z</time>
      </trkpt>
      <trkpt lat="62.640226874881" lon="17.893693614859">
        <ele>60</ele>
        <time>2018-03-29T10:43:23Z</time>
      </trkpt>
      <trkpt lat="62.640223941216" lon="17.893663272381">
        <ele>60.2</ele>
        <time>2018-03-29T10:43:24Z</time>
      </trkpt>
      <trkpt lat="62.640223689759" lon="17.89362563765">
        <ele>60.4</ele>
        <time>2018-03-29T10:43:25Z</time>
      </trkpt>
      <trkpt lat="62.640225449958" lon="17.893586158901">
        <ele>60.8</ele>
        <time>2018-03-29T10:43:26Z</time>
      </trkpt>
      <trkpt lat="62.6402269587" lon="17.893549278541">
        <ele>60.8</ele>
        <time>2018-03-29T10:43:27Z</time>
      </trkpt>
      <trkpt lat="62.640231233469" lon="17.893516170036">
        <ele>61</ele>
        <time>2018-03-29T10:43:28Z</time>
      </trkpt>
      <trkpt lat="62.640233077487" lon="17.89346805793">
        <ele>61.2</ele>
        <time>2018-03-29T10:43:29Z</time>
      </trkpt>
      <trkpt lat="62.640234167134" lon="17.893423466222">
        <ele>61.4</ele>
        <time>2018-03-29T10:43:30Z</time>
      </trkpt>
      <trkpt lat="62.640235172962" lon="17.893383736016">
        <ele>61.6</ele>
        <time>2018-03-29T10:43:31Z</time>
      </trkpt>
      <trkpt lat="62.640238860998" lon="17.893341994154">
        <ele>61.8</ele>
        <time>2018-03-29T10:43:32Z</time>
      </trkpt>
      <trkpt lat="62.640239112455" lon="17.893307712183">
        <ele>62</ele>
        <time>2018-03-29T10:43:33Z</time>
      </trkpt>
      <trkpt lat="62.640239028636" lon="17.893268317253">
        <ele>62</ele>
        <time>2018-03-29T10:43:34Z</time>
      </trkpt>
      <trkpt lat="62.640241375568" lon="17.893236633671">
        <ele>62.2</ele>
        <time>2018-03-29T10:43:35Z</time>
      </trkpt>
      <trkpt lat="62.640240285921" lon="17.893206626469">
        <ele>62.4</ele>
        <time>2018-03-29T10:43:36Z</time>
      </trkpt>
      <trkpt lat="62.640238860998" lon="17.893175194344">
        <ele>62.6</ele>
        <time>2018-03-29T10:43:37Z</time>
      </trkpt>
      <trkpt lat="62.640240621197" lon="17.893137224337">
        <ele>62.8</ele>
        <time>2018-03-29T10:43:38Z</time>
      </trkpt>
      <trkpt lat="62.64024120793" lon="17.893103277642">
        <ele>63</ele>
        <time>2018-03-29T10:43:39Z</time>
      </trkpt>
      <trkpt lat="62.640238022808" lon="17.893066145825">
        <ele>63.2</ele>
        <time>2018-03-29T10:43:40Z</time>
      </trkpt>
      <trkpt lat="62.640234837686" lon="17.893032785863">
        <ele>63.4</ele>
        <time>2018-03-29T10:43:41Z</time>
      </trkpt>
      <trkpt lat="62.640233915677" lon="17.892996408417">
        <ele>63.8</ele>
        <time>2018-03-29T10:43:42Z</time>
      </trkpt>
      <trkpt lat="62.64022863508" lon="17.892963048455">
        <ele>64</ele>
        <time>2018-03-29T10:43:43Z</time>
      </trkpt>
      <trkpt lat="62.640223186845" lon="17.892925665181">
        <ele>64.2</ele>
        <time>2018-03-29T10:43:44Z</time>
      </trkpt>
      <trkpt lat="62.640219834085" lon="17.892886689346">
        <ele>64.4</ele>
        <time>2018-03-29T10:43:45Z</time>
      </trkpt>
      <trkpt lat="62.640208769977" lon="17.89284360638">
        <ele>64.6</ele>
        <time>2018-03-29T10:43:46Z</time>
      </trkpt>
      <trkpt lat="62.640203657018" lon="17.892803037984">
        <ele>64.8</ele>
        <time>2018-03-29T10:43:47Z</time>
      </trkpt>
      <trkpt lat="62.64020013662" lon="17.892759452104">
        <ele>64.8</ele>
        <time>2018-03-29T10:43:48Z</time>
      </trkpt>
      <trkpt lat="62.640191838539" lon="17.892712932559">
        <ele>65</ele>
        <time>2018-03-29T10:43:49Z</time>
      </trkpt>
      <trkpt lat="62.640187228494" lon="17.892668676127">
        <ele>65.2</ele>
        <time>2018-03-29T10:43:50Z</time>
      </trkpt>
      <trkpt lat="62.640183289001" lon="17.89263322069">
        <ele>65.2</ele>
        <time>2018-03-29T10:43:51Z</time>
      </trkpt>
      <trkpt lat="62.640175996748" lon="17.892590556819">
        <ele>65.4</ele>
        <time>2018-03-29T10:43:52Z</time>
      </trkpt>
      <trkpt lat="62.640171721979" lon="17.892554598468">
        <ele>65.6</ele>
        <time>2018-03-29T10:43:53Z</time>
      </trkpt>
      <trkpt lat="62.640168788314" lon="17.892512102235">
        <ele>65.8</ele>
        <time>2018-03-29T10:43:54Z</time>
      </trkpt>
      <trkpt lat="62.640164597364" lon="17.892474299866">
        <ele>66</ele>
        <time>2018-03-29T10:43:55Z</time>
      </trkpt>
      <trkpt lat="62.640167279572" lon="17.892422499724">
        <ele>66.2</ele>
        <time>2018-03-29T10:43:56Z</time>
      </trkpt>
      <trkpt lat="62.640162501889" lon="17.892373633247">
        <ele>66.2</ele>
        <time>2018-03-29T10:43:57Z</time>
      </trkpt>
      <trkpt lat="62.640161998975" lon="17.892316887784">
        <ele>66.4</ele>
        <time>2018-03-29T10:43:58Z</time>
      </trkpt>
      <trkpt lat="62.640160825509" lon="17.892262153977">
        <ele>66.4</ele>
        <time>2018-03-29T10:43:59Z</time>
      </trkpt>
      <trkpt lat="62.640167363391" lon="17.892211778758">
        <ele>66.2</ele>
        <time>2018-03-29T10:44:00Z</time>
      </trkpt>
      <trkpt lat="62.640171051427" lon="17.89216215791">
        <ele>66.2</ele>
        <time>2018-03-29T10:44:01Z</time>
      </trkpt>
      <trkpt lat="62.640178427499" lon="17.892114967813">
        <ele>66.2</ele>
        <time>2018-03-29T10:44:02Z</time>
      </trkpt>
      <trkpt lat="62.640189072512" lon="17.892070627562">
        <ele>66.2</ele>
        <time>2018-03-29T10:44:03Z</time>
      </trkpt>
      <trkpt lat="62.64020768033" lon="17.89201463647">
        <ele>66.2</ele>
        <time>2018-03-29T10:44:04Z</time>
      </trkpt>
      <trkpt lat="62.640231401107" lon="17.89196518326">
        <ele>66.2</ele>
        <time>2018-03-29T10:44:05Z</time>
      </trkpt>
      <trkpt lat="62.640259312834" lon="17.891923106122">
        <ele>66</ele>
        <time>2018-03-29T10:44:06Z</time>
      </trkpt>
      <trkpt lat="62.640291750787" lon="17.891886561038">
        <ele>66</ele>
        <time>2018-03-29T10:44:07Z</time>
      </trkpt>
      <trkpt lat="62.640318237591" lon="17.891871138342">
        <ele>65.8</ele>
        <time>2018-03-29T10:44:08Z</time>
      </trkpt>
      <trkpt lat="62.64034681987" lon="17.891863007899">
        <ele>65.6</ele>
        <time>2018-03-29T10:44:09Z</time>
      </trkpt>
      <trkpt lat="62.640374228683" lon="17.89186208589">
        <ele>65.4</ele>
        <time>2018-03-29T10:44:10Z</time>
      </trkpt>
      <trkpt lat="62.640401972772" lon="17.891861918252">
        <ele>65.4</ele>
        <time>2018-03-29T10:44:11Z</time>
      </trkpt>
      <trkpt lat="62.640436925295" lon="17.891859068406">
        <ele>65.4</ele>
        <time>2018-03-29T10:44:12Z</time>
      </trkpt>
      <trkpt lat="62.640484618306" lon="17.891864935736">
        <ele>65.4</ele>
        <time>2018-03-29T10:44:13Z</time>
      </trkpt>
      <trkpt lat="62.640553433705" lon="17.891861499157">
        <ele>65.2</ele>
        <time>2018-03-29T10:44:14Z</time>
      </trkpt>
      <trkpt lat="62.640612861376" lon="17.891865773926">
        <ele>64.6</ele>
        <time>2018-03-29T10:44:15Z</time>
      </trkpt>
      <trkpt lat="62.640676899092" lon="17.891883459735">
        <ele>63.4</ele>
        <time>2018-03-29T10:44:16Z</time>
      </trkpt>
      <trkpt lat="62.64073490184" lon="17.891919753362">
        <ele>62.4</ele>
        <time>2018-03-29T10:44:17Z</time>
      </trkpt>
      <trkpt lat="62.640787204896" lon="17.89197105059">
        <ele>61.2</ele>
        <time>2018-03-29T10:44:18Z</time>
      </trkpt>
      <trkpt lat="62.640841687246" lon="17.892042464378">
        <ele>60.2</ele>
        <time>2018-03-29T10:44:19Z</time>
      </trkpt>
      <trkpt lat="62.640889715533" lon="17.892108932845">
        <ele>59.8</ele>
        <time>2018-03-29T10:44:20Z</time>
      </trkpt>
      <trkpt lat="62.640927350264" lon="17.892174060208">
        <ele>59.8</ele>
        <time>2018-03-29T10:44:21Z</time>
      </trkpt>
      <trkpt lat="62.640975881465" lon="17.892249916403">
        <ele>59.8</ele>
        <time>2018-03-29T10:44:22Z</time>
      </trkpt>
      <trkpt lat="62.641019634983" lon="17.892296016853">
        <ele>59.8</ele>
        <time>2018-03-29T10:44:23Z</time>
      </trkpt>
      <trkpt lat="62.641068166184" lon="17.892320492001">
        <ele>59.8</ele>
        <time>2018-03-29T10:44:24Z</time>
      </trkpt>
      <trkpt lat="62.641110997693" lon="17.892329544453">
        <ele>60</ele>
        <time>2018-03-29T10:44:25Z</time>
      </trkpt>
      <trkpt lat="62.641153745383" lon="17.892323593304">
        <ele>60.2</ele>
        <time>2018-03-29T10:44:26Z</time>
      </trkpt>
      <trkpt lat="62.641181992386" lon="17.892308924979">
        <ele>60</ele>
        <time>2018-03-29T10:44:27Z</time>
      </trkpt>
      <trkpt lat="62.641209736475" lon="17.892297777052">
        <ele>60</ele>
        <time>2018-03-29T10:44:28Z</time>
      </trkpt>
      <trkpt lat="62.641239659858" lon="17.892285623297">
        <ele>60</ele>
        <time>2018-03-29T10:44:29Z</time>
      </trkpt>
      <trkpt lat="62.641271678716" lon="17.892271206429">
        <ele>60.2</ele>
        <time>2018-03-29T10:44:30Z</time>
      </trkpt>
      <trkpt lat="62.641305290135" lon="17.892254945543">
        <ele>60</ele>
        <time>2018-03-29T10:44:31Z</time>
      </trkpt>
      <trkpt lat="62.641341667581" lon="17.892235583354">
        <ele>59.8</ele>
        <time>2018-03-29T10:44:32Z</time>
      </trkpt>
      <trkpt lat="62.641372429154" lon="17.892217143174">
        <ele>59.8</ele>
        <time>2018-03-29T10:44:33Z</time>
      </trkpt>
      <trkpt lat="62.641403526003" lon="17.892197948623">
        <ele>59.6</ele>
        <time>2018-03-29T10:44:34Z</time>
      </trkpt>
      <trkpt lat="62.641426911504" lon="17.892186884515">
        <ele>59.4</ele>
        <time>2018-03-29T10:44:35Z</time>
      </trkpt>
      <trkpt lat="62.641451470471" lon="17.892174479303">
        <ele>59.2</ele>
        <time>2018-03-29T10:44:36Z</time>
      </trkpt>
      <trkpt lat="62.641479130741" lon="17.892158302236">
        <ele>59</ele>
        <time>2018-03-29T10:44:37Z</time>
      </trkpt>
      <trkpt lat="62.641508802667" lon="17.892138772409">
        <ele>58.8</ele>
        <time>2018-03-29T10:44:38Z</time>
      </trkpt>
      <trkpt lat="62.641549371063" lon="17.892120080772">
        <ele>58.6</ele>
        <time>2018-03-29T10:44:39Z</time>
      </trkpt>
      <trkpt lat="62.641593459857" lon="17.892102394963">
        <ele>58.2</ele>
        <time>2018-03-29T10:44:40Z</time>
      </trkpt>
      <trkpt lat="62.641633609158" lon="17.892086553172">
        <ele>57.8</ele>
        <time>2018-03-29T10:44:41Z</time>
      </trkpt>
      <trkpt lat="62.641669735147" lon="17.892075991978">
        <ele>57</ele>
        <time>2018-03-29T10:44:42Z</time>
      </trkpt>
      <trkpt lat="62.641701418729" lon="17.892064508775">
        <ele>56.4</ele>
        <time>2018-03-29T10:44:43Z</time>
      </trkpt>
      <trkpt lat="62.641737712356" lon="17.89204900226">
        <ele>55.8</ele>
        <time>2018-03-29T10:44:44Z</time>
      </trkpt>
      <trkpt lat="62.64177258106" lon="17.892032657555">
        <ele>55</ele>
        <time>2018-03-29T10:44:45Z</time>
      </trkpt>
      <trkpt lat="62.641814322922" lon="17.892007344217">
        <ele>54.6</ele>
        <time>2018-03-29T10:44:46Z</time>
      </trkpt>
      <trkpt lat="62.641860339553" lon="17.891981444146">
        <ele>54.2</ele>
        <time>2018-03-29T10:44:47Z</time>
      </trkpt>
      <trkpt lat="62.641908535478" lon="17.8919534486">
        <ele>53.8</ele>
        <time>2018-03-29T10:44:48Z</time>
      </trkpt>
      <trkpt lat="62.641963185466" lon="17.891913383118">
        <ele>53.4</ele>
        <time>2018-03-29T10:44:49Z</time>
      </trkpt>
      <trkpt lat="62.642018338368" lon="17.891879436423">
        <ele>52.8</ele>
        <time>2018-03-29T10:44:50Z</time>
      </trkpt>
      <trkpt lat="62.642074664736" lon="17.89185118942">
        <ele>52.4</ele>
        <time>2018-03-29T10:44:51Z</time>
      </trkpt>
      <trkpt lat="62.642153873691" lon="17.891788492808">
        <ele>51.6</ele>
        <time>2018-03-29T10:44:52Z</time>
      </trkpt>
      <trkpt lat="62.642224616927" lon="17.891719425952">
        <ele>50.4</ele>
        <time>2018-03-29T10:44:53Z</time>
      </trkpt>
      <trkpt lat="62.6423056699" lon="17.891631751278">
        <ele>49.2</ele>
        <time>2018-03-29T10:44:54Z</time>
      </trkpt>
      <trkpt lat="62.642375910222" lon="17.89153938274">
        <ele>47.8</ele>
        <time>2018-03-29T10:44:55Z</time>
      </trkpt>
      <trkpt lat="62.642431063124" lon="17.891446259831">
        <ele>46.4</ele>
        <time>2018-03-29T10:44:56Z</time>
      </trkpt>
      <trkpt lat="62.642482863266" lon="17.891356070587">
        <ele>46.2</ele>
        <time>2018-03-29T10:44:57Z</time>
      </trkpt>
      <trkpt lat="62.64248504256" lon="17.891268144456">
        <ele>45.8</ele>
        <time>2018-03-29T10:44:58Z</time>
      </trkpt>
      <trkpt lat="62.642492670089" lon="17.891166639647">
        <ele>45.6</ele>
        <time>2018-03-29T10:44:59Z</time>
      </trkpt>
      <trkpt lat="62.642485629293" lon="17.891084999941">
        <ele>45.8</ele>
        <time>2018-03-29T10:45:00Z</time>
      </trkpt>
      <trkpt lat="62.64246744057" lon="17.891009562841">
        <ele>46.2</ele>
        <time>2018-03-29T10:45:01Z</time>
      </trkpt>
      <trkpt lat="62.642441037585" lon="17.890944351659">
        <ele>46.6</ele>
        <time>2018-03-29T10:45:02Z</time>
      </trkpt>
      <trkpt lat="62.642407007071" lon="17.890895569001">
        <ele>47.2</ele>
        <time>2018-03-29T10:45:03Z</time>
      </trkpt>
      <trkpt lat="62.642353362911" lon="17.890846702524">
        <ele>47.4</ele>
        <time>2018-03-29T10:45:04Z</time>
      </trkpt>
      <trkpt lat="62.642298293828" lon="17.890809235431">
        <ele>47</ele>
        <time>2018-03-29T10:45:05Z</time>
      </trkpt>
      <trkpt lat="62.642248170066" lon="17.890781072247">
        <ele>46.8</ele>
        <time>2018-03-29T10:45:06Z</time>
      </trkpt>
      <trkpt lat="62.642197878666" lon="17.890750310674">
        <ele>46.2</ele>
        <time>2018-03-29T10:45:07Z</time>
      </trkpt>
      <trkpt lat="62.642161333582" lon="17.890727344268">
        <ele>45.4</ele>
        <time>2018-03-29T10:45:08Z</time>
      </trkpt>
      <trkpt lat="62.642125542869" lon="17.890708317355">
        <ele>45.2</ele>
        <time>2018-03-29T10:45:09Z</time>
      </trkpt>
      <trkpt lat="62.64209109326" lon="17.890691218279">
        <ele>45</ele>
        <time>2018-03-29T10:45:10Z</time>
      </trkpt>
      <trkpt lat="62.642062678619" lon="17.890682668741">
        <ele>45</ele>
        <time>2018-03-29T10:45:11Z</time>
      </trkpt>
      <trkpt lat="62.642040885679" lon="17.890680908542">
        <ele>45.4</ele>
        <time>2018-03-29T10:45:12Z</time>
      </trkpt>
      <trkpt lat="62.642023618965" lon="17.890674286841">
        <ele>45.8</ele>
        <time>2018-03-29T10:45:13Z</time>
      </trkpt>
      <trkpt lat="62.642009202097" lon="17.890667329864">
        <ele>46</ele>
        <time>2018-03-29T10:45:14Z</time>
      </trkpt>
      <trkpt lat="62.641993695582" lon="17.890659199421">
        <ele>46.4</ele>
        <time>2018-03-29T10:45:15Z</time>
      </trkpt>
      <trkpt lat="62.641977350877" lon="17.890646542752">
        <ele>46.6</ele>
        <time>2018-03-29T10:45:16Z</time>
      </trkpt>
      <trkpt lat="62.641962934009" lon="17.890633215531">
        <ele>47.2</ele>
        <time>2018-03-29T10:45:17Z</time>
      </trkpt>
      <trkpt lat="62.64195195372" lon="17.890624414536">
        <ele>47.4</ele>
        <time>2018-03-29T10:45:18Z</time>
      </trkpt>
      <trkpt lat="62.641936782481" lon="17.890614523894">
        <ele>47.8</ele>
        <time>2018-03-29T10:45:19Z</time>
      </trkpt>
      <trkpt lat="62.641921527423" lon="17.89060144813">
        <ele>48.2</ele>
        <time>2018-03-29T10:45:20Z</time>
      </trkpt>
      <trkpt lat="62.641908284021" lon="17.890592060402">
        <ele>48.4</ele>
        <time>2018-03-29T10:45:21Z</time>
      </trkpt>
      <trkpt lat="62.641893867153" lon="17.890580325742">
        <ele>48.6</ele>
        <time>2018-03-29T10:45:22Z</time>
      </trkpt>
      <trkpt lat="62.641881964855" lon="17.8905704351">
        <ele>49</ele>
        <time>2018-03-29T10:45:23Z</time>
      </trkpt>
      <trkpt lat="62.641867631806" lon="17.890562388476">
        <ele>49.2</ele>
        <time>2018-03-29T10:45:24Z</time>
      </trkpt>
      <trkpt lat="62.641853131119" lon="17.89055199492">
        <ele>49.6</ele>
        <time>2018-03-29T10:45:25Z</time>
      </trkpt>
      <trkpt lat="62.641838295156" lon="17.890543110106">
        <ele>50</ele>
        <time>2018-03-29T10:45:26Z</time>
      </trkpt>
      <trkpt lat="62.641825973763" lon="17.89053523112">
        <ele>50.2</ele>
        <time>2018-03-29T10:45:27Z</time>
      </trkpt>
      <trkpt lat="62.641811221619" lon="17.890520646614">
        <ele>50.4</ele>
        <time>2018-03-29T10:45:28Z</time>
      </trkpt>
      <trkpt lat="62.641794206362" lon="17.890506648841">
        <ele>50.8</ele>
        <time>2018-03-29T10:45:29Z</time>
      </trkpt>
      <trkpt lat="62.641780879141" lon="17.890499859502">
        <ele>51</ele>
        <time>2018-03-29T10:45:30Z</time>
      </trkpt>
      <trkpt lat="62.64176503735" lon="17.890483850073">
        <ele>51.4</ele>
        <time>2018-03-29T10:45:31Z</time>
      </trkpt>
      <trkpt lat="62.641749195559" lon="17.890464487884">
        <ele>51.6</ele>
        <time>2018-03-29T10:45:32Z</time>
      </trkpt>
      <trkpt lat="62.641736874166" lon="17.890451579758">
        <ele>51.8</ele>
        <time>2018-03-29T10:45:33Z</time>
      </trkpt>
      <trkpt lat="62.64172145147" lon="17.890429451542">
        <ele>52</ele>
        <time>2018-03-29T10:45:34Z</time>
      </trkpt>
      <trkpt lat="62.641707956611" lon="17.890413525932">
        <ele>52.4</ele>
        <time>2018-03-29T10:45:35Z</time>
      </trkpt>
      <trkpt lat="62.641696054313" lon="17.890388212594">
        <ele>52.4</ele>
        <time>2018-03-29T10:45:36Z</time>
      </trkpt>
      <trkpt lat="62.641680547798" lon="17.890360384686">
        <ele>52.8</ele>
        <time>2018-03-29T10:45:37Z</time>
      </trkpt>
      <trkpt lat="62.6416686455" lon="17.890338927022">
        <ele>52.8</ele>
        <time>2018-03-29T10:45:38Z</time>
      </trkpt>
      <trkpt lat="62.64165607265" lon="17.890307913992">
        <ele>53</ele>
        <time>2018-03-29T10:45:39Z</time>
      </trkpt>
      <trkpt lat="62.641640649954" lon="17.890280169903">
        <ele>53.2</ele>
        <time>2018-03-29T10:45:40Z</time>
      </trkpt>
      <trkpt lat="62.641627406552" lon="17.890245049742">
        <ele>53.2</ele>
        <time>2018-03-29T10:45:41Z</time>
      </trkpt>
      <trkpt lat="62.641615504254" lon="17.890206241545">
        <ele>53.4</ele>
        <time>2018-03-29T10:45:42Z</time>
      </trkpt>
      <trkpt lat="62.641606116526" lon="17.890172797764">
        <ele>53.6</ele>
        <time>2018-03-29T10:45:43Z</time>
      </trkpt>
      <trkpt lat="62.64159739935" lon="17.890128541332">
        <ele>53.8</ele>
        <time>2018-03-29T10:45:44Z</time>
      </trkpt>
      <trkpt lat="62.641591615839" lon="17.890085877461">
        <ele>53.8</ele>
        <time>2018-03-29T10:45:45Z</time>
      </trkpt>
      <trkpt lat="62.641586586699" lon="17.890041285753">
        <ele>54</ele>
        <time>2018-03-29T10:45:46Z</time>
      </trkpt>
      <trkpt lat="62.64158147374" lon="17.889998621882">
        <ele>54</ele>
        <time>2018-03-29T10:45:47Z</time>
      </trkpt>
      <trkpt lat="62.641576779876" lon="17.889956293287">
        <ele>54</ele>
        <time>2018-03-29T10:45:48Z</time>
      </trkpt>
      <trkpt lat="62.64157057727" lon="17.889912204493">
        <ele>54</ele>
        <time>2018-03-29T10:45:49Z</time>
      </trkpt>
      <trkpt lat="62.641565967225" lon="17.889876916694">
        <ele>54</ele>
        <time>2018-03-29T10:45:50Z</time>
      </trkpt>
      <trkpt lat="62.641564039388" lon="17.889850178433">
        <ele>53.8</ele>
        <time>2018-03-29T10:45:51Z</time>
      </trkpt>
      <trkpt lat="62.641561524818" lon="17.889820171231">
        <ele>53.6</ele>
        <time>2018-03-29T10:45:52Z</time>
      </trkpt>
      <trkpt lat="62.641559513162" lon="17.889794103522">
        <ele>53.2</ele>
        <time>2018-03-29T10:45:53Z</time>
      </trkpt>
      <trkpt lat="62.64155716623" lon="17.889760575922">
        <ele>52.8</ele>
        <time>2018-03-29T10:45:54Z</time>
      </trkpt>
      <trkpt lat="62.641554400203" lon="17.889726964503">
        <ele>52.4</ele>
        <time>2018-03-29T10:45:55Z</time>
      </trkpt>
      <trkpt lat="62.641555238393" lon="17.889693855998">
        <ele>52.2</ele>
        <time>2018-03-29T10:45:56Z</time>
      </trkpt>
      <trkpt lat="62.64155465166" lon="17.889655383077">
        <ele>51.8</ele>
        <time>2018-03-29T10:45:57Z</time>
      </trkpt>
      <trkpt lat="62.641554400203" lon="17.88961154574">
        <ele>51.6</ele>
        <time>2018-03-29T10:45:58Z</time>
      </trkpt>
      <trkpt lat="62.64155381347" lon="17.889564774738">
        <ele>51.4</ele>
        <time>2018-03-29T10:45:59Z</time>
      </trkpt>
      <trkpt lat="62.641554735479" lon="17.889518003736">
        <ele>51.2</ele>
        <time>2018-03-29T10:46:00Z</time>
      </trkpt>
      <trkpt lat="62.641556579497" lon="17.889467879974">
        <ele>50.8</ele>
        <time>2018-03-29T10:46:01Z</time>
      </trkpt>
      <trkpt lat="62.641559345524" lon="17.88941540928">
        <ele>50</ele>
        <time>2018-03-29T10:46:02Z</time>
      </trkpt>
      <trkpt lat="62.641562865922" lon="17.889368135364">
        <ele>49.6</ele>
        <time>2018-03-29T10:46:03Z</time>
      </trkpt>
      <trkpt lat="62.641571164003" lon="17.88929387173">
        <ele>49</ele>
        <time>2018-03-29T10:46:04Z</time>
      </trkpt>
      <trkpt lat="62.641582982482" lon="17.889203598667">
        <ele>48.4</ele>
        <time>2018-03-29T10:46:05Z</time>
      </trkpt>
      <trkpt lat="62.641600500653" lon="17.889087090257">
        <ele>47.8</ele>
        <time>2018-03-29T10:46:06Z</time>
      </trkpt>
      <trkpt lat="62.641627658009" lon="17.888927498881">
        <ele>47.2</ele>
        <time>2018-03-29T10:46:07Z</time>
      </trkpt>
      <trkpt lat="62.641658084306" lon="17.888769835342">
        <ele>46</ele>
        <time>2018-03-29T10:46:08Z</time>
      </trkpt>
      <trkpt lat="62.64169630577" lon="17.888594150718">
        <ele>45</ele>
        <time>2018-03-29T10:46:09Z</time>
      </trkpt>
      <trkpt lat="62.641739388736" lon="17.888421818854">
        <ele>43.8</ele>
        <time>2018-03-29T10:46:10Z</time>
      </trkpt>
      <trkpt lat="62.641780292408" lon="17.888280164744">
        <ele>42.4</ele>
        <time>2018-03-29T10:46:11Z</time>
      </trkpt>
      <trkpt lat="62.6418195197" lon="17.888162734325">
        <ele>41</ele>
        <time>2018-03-29T10:46:12Z</time>
      </trkpt>
      <trkpt lat="62.641856483879" lon="17.88806592338">
        <ele>40.2</ele>
        <time>2018-03-29T10:46:13Z</time>
      </trkpt>
      <trkpt lat="62.6418949568" lon="17.887970202082">
        <ele>39.6</ele>
        <time>2018-03-29T10:46:14Z</time>
      </trkpt>
      <trkpt lat="62.641922281794" lon="17.887904320348">
        <ele>39.4</ele>
        <time>2018-03-29T10:46:15Z</time>
      </trkpt>
      <trkpt lat="62.641954133014" lon="17.887827458325">
        <ele>39.4</ele>
        <time>2018-03-29T10:46:16Z</time>
      </trkpt>
      <trkpt lat="62.641988750261" lon="17.88776585136">
        <ele>39.4</ele>
        <time>2018-03-29T10:46:17Z</time>
      </trkpt>
      <trkpt lat="62.642018254549" lon="17.887716481969">
        <ele>39.8</ele>
        <time>2018-03-29T10:46:18Z</time>
      </trkpt>
      <trkpt lat="62.642055973099" lon="17.887658814497">
        <ele>40.2</ele>
        <time>2018-03-29T10:46:19Z</time>
      </trkpt>
      <trkpt lat="62.642087656681" lon="17.887599470645">
        <ele>40.6</ele>
        <time>2018-03-29T10:46:20Z</time>
      </trkpt>
      <trkpt lat="62.642115484589" lon="17.887547838141">
        <ele>40.6</ele>
        <time>2018-03-29T10:46:21Z</time>
      </trkpt>
      <trkpt lat="62.642145407972" lon="17.887498384931">
        <ele>40.8</ele>
        <time>2018-03-29T10:46:22Z</time>
      </trkpt>
      <trkpt lat="62.642166027446" lon="17.887453122671">
        <ele>40.8</ele>
        <time>2018-03-29T10:46:23Z</time>
      </trkpt>
      <trkpt lat="62.642182958884" lon="17.887409033877">
        <ele>41</ele>
        <time>2018-03-29T10:46:24Z</time>
      </trkpt>
      <trkpt lat="62.642194693544" lon="17.887373494621">
        <ele>41</ele>
        <time>2018-03-29T10:46:25Z</time>
      </trkpt>
      <trkpt lat="62.642203326901" lon="17.88733250713">
        <ele>41.4</ele>
        <time>2018-03-29T10:46:26Z</time>
      </trkpt>
      <trkpt lat="62.642208775136" lon="17.887293447476">
        <ele>41.6</ele>
        <time>2018-03-29T10:46:27Z</time>
      </trkpt>
      <trkpt lat="62.642212044077" lon="17.887246508836">
        <ele>42</ele>
        <time>2018-03-29T10:46:28Z</time>
      </trkpt>
      <trkpt lat="62.642213385181" lon="17.887197893816">
        <ele>42.2</ele>
        <time>2018-03-29T10:46:29Z</time>
      </trkpt>
      <trkpt lat="62.642215396837" lon="17.887155397583">
        <ele>42.4</ele>
        <time>2018-03-29T10:46:30Z</time>
      </trkpt>
      <trkpt lat="62.642214810104" lon="17.887118517223">
        <ele>42.4</ele>
        <time>2018-03-29T10:46:31Z</time>
      </trkpt>
      <trkpt lat="62.642213888095" lon="17.887075266619">
        <ele>42.6</ele>
        <time>2018-03-29T10:46:32Z</time>
      </trkpt>
      <trkpt lat="62.642211205887" lon="17.887036206965">
        <ele>42.8</ele>
        <time>2018-03-29T10:46:33Z</time>
      </trkpt>
      <trkpt lat="62.642207350213" lon="17.886985747927">
        <ele>42.8</ele>
        <time>2018-03-29T10:46:34Z</time>
      </trkpt>
      <trkpt lat="62.642202991625" lon="17.886949873395">
        <ele>43.2</ele>
        <time>2018-03-29T10:46:35Z</time>
      </trkpt>
      <trkpt lat="62.642198884494" lon="17.886910478465">
        <ele>43.2</ele>
        <time>2018-03-29T10:46:36Z</time>
      </trkpt>
      <trkpt lat="62.642193603897" lon="17.88686228254">
        <ele>43.4</ele>
        <time>2018-03-29T10:46:37Z</time>
      </trkpt>
      <trkpt lat="62.642187820386" lon="17.886824983085">
        <ele>43.4</ele>
        <time>2018-03-29T10:46:38Z</time>
      </trkpt>
      <trkpt lat="62.642180947228" lon="17.886793383322">
        <ele>43.6</ele>
        <time>2018-03-29T10:46:39Z</time>
      </trkpt>
      <trkpt lat="62.642172816785" lon="17.886753401659">
        <ele>43.8</ele>
        <time>2018-03-29T10:46:40Z</time>
      </trkpt>
      <trkpt lat="62.642162926143" lon="17.886714006729">
        <ele>44</ele>
        <time>2018-03-29T10:46:41Z</time>
      </trkpt>
      <trkpt lat="62.642151359121" lon="17.886686095002">
        <ele>44.2</ele>
        <time>2018-03-29T10:46:42Z</time>
      </trkpt>
      <trkpt lat="62.642140630289" lon="17.886660362569">
        <ele>44.4</ele>
        <time>2018-03-29T10:46:43Z</time>
      </trkpt>
      <trkpt lat="62.642128308896" lon="17.886624571856">
        <ele>44.6</ele>
        <time>2018-03-29T10:46:44Z</time>
      </trkpt>
      <trkpt lat="62.642119088806" lon="17.886601018717">
        <ele>44.8</ele>
        <time>2018-03-29T10:46:45Z</time>
      </trkpt>
      <trkpt lat="62.642108779069" lon="17.886576878845">
        <ele>45</ele>
        <time>2018-03-29T10:46:46Z</time>
      </trkpt>
      <trkpt lat="62.642100229531" lon="17.886552571335">
        <ele>45.2</ele>
        <time>2018-03-29T10:46:47Z</time>
      </trkpt>
      <trkpt lat="62.642093021097" lon="17.886532622413">
        <ele>45.4</ele>
        <time>2018-03-29T10:46:48Z</time>
      </trkpt>
      <trkpt lat="62.642085561206" lon="17.88651443369">
        <ele>45.6</ele>
        <time>2018-03-29T10:46:49Z</time>
      </trkpt>
      <trkpt lat="62.642075000012" lon="17.886492724569">
        <ele>45.8</ele>
        <time>2018-03-29T10:46:50Z</time>
      </trkpt>
      <trkpt lat="62.642065277008" lon="17.886476882778">
        <ele>46</ele>
        <time>2018-03-29T10:46:51Z</time>
      </trkpt>
      <trkpt lat="62.642054045262" lon="17.886455844209">
        <ele>46.2</ele>
        <time>2018-03-29T10:46:52Z</time>
      </trkpt>
      <trkpt lat="62.642044825172" lon="17.886435224735">
        <ele>46.4</ele>
        <time>2018-03-29T10:46:53Z</time>
      </trkpt>
      <trkpt lat="62.642029737752" lon="17.886418460935">
        <ele>46.8</ele>
        <time>2018-03-29T10:46:54Z</time>
      </trkpt>
      <trkpt lat="62.642017500178" lon="17.886395829805">
        <ele>47.2</ele>
        <time>2018-03-29T10:46:55Z</time>
      </trkpt>
      <trkpt lat="62.642005430242" lon="17.886369929734">
        <ele>47.4</ele>
        <time>2018-03-29T10:46:56Z</time>
      </trkpt>
      <trkpt lat="62.641992605935" lon="17.886350483726">
        <ele>47.8</ele>
        <time>2018-03-29T10:46:57Z</time>
      </trkpt>
      <trkpt lat="62.6419787758" lon="17.886329612795">
        <ele>48</ele>
        <time>2018-03-29T10:46:58Z</time>
      </trkpt>
      <trkpt lat="62.641964778027" lon="17.886297677756">
        <ele>48.2</ele>
        <time>2018-03-29T10:46:59Z</time>
      </trkpt>
      <trkpt lat="62.641952456634" lon="17.886267754373">
        <ele>48.4</ele>
        <time>2018-03-29T10:47:00Z</time>
      </trkpt>
      <trkpt lat="62.641940470517" lon="17.886242692492">
        <ele>48.4</ele>
        <time>2018-03-29T10:47:01Z</time>
      </trkpt>
      <trkpt lat="62.641929741685" lon="17.886213020566">
        <ele>48.6</ele>
        <time>2018-03-29T10:47:02Z</time>
      </trkpt>
      <trkpt lat="62.641918929034" lon="17.886195670033">
        <ele>48.8</ele>
        <time>2018-03-29T10:47:03Z</time>
      </trkpt>
      <trkpt lat="62.641903925433" lon="17.886160549872">
        <ele>48.8</ele>
        <time>2018-03-29T10:47:04Z</time>
      </trkpt>
      <trkpt lat="62.641892106954" lon="17.886138673113">
        <ele>48.8</ele>
        <time>2018-03-29T10:47:05Z</time>
      </trkpt>
      <trkpt lat="62.641879366466" lon="17.886105816065">
        <ele>48.8</ele>
        <time>2018-03-29T10:47:06Z</time>
      </trkpt>
      <trkpt lat="62.641863440856" lon="17.886070779723">
        <ele>49</ele>
        <time>2018-03-29T10:47:07Z</time>
      </trkpt>
      <trkpt lat="62.64185053273" lon="17.886039347598">
        <ele>49.2</ele>
        <time>2018-03-29T10:47:08Z</time>
      </trkpt>
      <trkpt lat="62.641833433654" lon="17.886002886333">
        <ele>49.2</ele>
        <time>2018-03-29T10:47:09Z</time>
      </trkpt>
      <trkpt lat="62.641815496388" lon="17.885970699837">
        <ele>49.4</ele>
        <time>2018-03-29T10:47:10Z</time>
      </trkpt>
      <trkpt lat="62.641799989873" lon="17.885937088418">
        <ele>49.4</ele>
        <time>2018-03-29T10:47:11Z</time>
      </trkpt>
      <trkpt lat="62.64178263934" lon="17.885911188347">
        <ele>49.4</ele>
        <time>2018-03-29T10:47:12Z</time>
      </trkpt>
      <trkpt lat="62.641762438961" lon="17.885873385978">
        <ele>49.4</ele>
        <time>2018-03-29T10:47:13Z</time>
      </trkpt>
      <trkpt lat="62.641742070944" lon="17.885840612749">
        <ele>49.4</ele>
        <time>2018-03-29T10:47:14Z</time>
      </trkpt>
      <trkpt lat="62.641722038203" lon="17.885800379629">
        <ele>49.4</ele>
        <time>2018-03-29T10:47:15Z</time>
      </trkpt>
      <trkpt lat="62.641696892503" lon="17.885758470129">
        <ele>49.4</ele>
        <time>2018-03-29T10:47:16Z</time>
      </trkpt>
      <trkpt lat="62.641678284685" lon="17.885723266149">
        <ele>49.4</ele>
        <time>2018-03-29T10:47:17Z</time>
      </trkpt>
      <trkpt lat="62.641662694351" lon="17.885690912015">
        <ele>49.4</ele>
        <time>2018-03-29T10:47:18Z</time>
      </trkpt>
      <trkpt lat="62.641645008542" lon="17.885670124903">
        <ele>49.2</ele>
        <time>2018-03-29T10:47:19Z</time>
      </trkpt>
      <trkpt lat="62.641629921122" lon="17.885636094389">
        <ele>49.4</ele>
        <time>2018-03-29T10:47:20Z</time>
      </trkpt>
      <trkpt lat="62.64161667772" lon="17.885606925377">
        <ele>49.2</ele>
        <time>2018-03-29T10:47:21Z</time>
      </trkpt>
      <trkpt lat="62.641603015223" lon="17.885579265107">
        <ele>49.4</ele>
        <time>2018-03-29T10:47:22Z</time>
      </trkpt>
      <trkpt lat="62.641589352726" lon="17.88555302976">
        <ele>49.4</ele>
        <time>2018-03-29T10:47:23Z</time>
      </trkpt>
      <trkpt lat="62.641573594754" lon="17.885525118033">
        <ele>49.8</ele>
        <time>2018-03-29T10:47:24Z</time>
      </trkpt>
      <trkpt lat="62.641560602809" lon="17.885504833835">
        <ele>50</ele>
        <time>2018-03-29T10:47:25Z</time>
      </trkpt>
      <trkpt lat="62.64154626976" lon="17.885483292352">
        <ele>50.2</ele>
        <time>2018-03-29T10:47:26Z</time>
      </trkpt>
      <trkpt lat="62.641533780729" lon="17.885458481928">
        <ele>50.4</ele>
        <time>2018-03-29T10:47:27Z</time>
      </trkpt>
      <trkpt lat="62.641521878431" lon="17.885432833314">
        <ele>50.8</ele>
        <time>2018-03-29T10:47:28Z</time>
      </trkpt>
      <trkpt lat="62.641507629201" lon="17.885413303487">
        <ele>50.8</ele>
        <time>2018-03-29T10:47:29Z</time>
      </trkpt>
      <trkpt lat="62.64149430198" lon="17.885389079796">
        <ele>51.2</ele>
        <time>2018-03-29T10:47:30Z</time>
      </trkpt>
      <trkpt lat="62.641481393854" lon="17.885365359019">
        <ele>51.4</ele>
        <time>2018-03-29T10:47:31Z</time>
      </trkpt>
      <trkpt lat="62.641467982814" lon="17.885341219147">
        <ele>51.8</ele>
        <time>2018-03-29T10:47:32Z</time>
      </trkpt>
      <trkpt lat="62.641457673077" lon="17.88531582199">
        <ele>51.8</ele>
        <time>2018-03-29T10:47:33Z</time>
      </trkpt>
      <trkpt lat="62.641441747467" lon="17.885288664634">
        <ele>52</ele>
        <time>2018-03-29T10:47:34Z</time>
      </trkpt>
      <trkpt lat="62.641426911504" lon="17.885261172002">
        <ele>52.2</ele>
        <time>2018-03-29T10:47:35Z</time>
      </trkpt>
      <trkpt lat="62.641414590111" lon="17.885243234736">
        <ele>52.2</ele>
        <time>2018-03-29T10:47:36Z</time>
      </trkpt>
      <trkpt lat="62.641398832139" lon="17.885213059896">
        <ele>52.4</ele>
        <time>2018-03-29T10:47:37Z</time>
      </trkpt>
      <trkpt lat="62.641385421099" lon="17.885184477617">
        <ele>52.6</ele>
        <time>2018-03-29T10:47:38Z</time>
      </trkpt>
      <trkpt lat="62.641372345335" lon="17.885164277238">
        <ele>52.6</ele>
        <time>2018-03-29T10:47:39Z</time>
      </trkpt>
      <trkpt lat="62.641358263743" lon="17.88513225838">
        <ele>52.8</ele>
        <time>2018-03-29T10:47:40Z</time>
      </trkpt>
      <trkpt lat="62.641342254314" lon="17.885110884535">
        <ele>52.8</ele>
        <time>2018-03-29T10:47:41Z</time>
      </trkpt>
      <trkpt lat="62.64132834036" lon="17.885081799342">
        <ele>53</ele>
        <time>2018-03-29T10:47:42Z</time>
      </trkpt>
      <trkpt lat="62.641311073646" lon="17.88506268861">
        <ele>53</ele>
        <time>2018-03-29T10:47:43Z</time>
      </trkpt>
      <trkpt lat="62.641297578787" lon="17.885032429951">
        <ele>53</ele>
        <time>2018-03-29T10:47:44Z</time>
      </trkpt>
      <trkpt lat="62.641286095584" lon="17.885011391382">
        <ele>53</ele>
        <time>2018-03-29T10:47:45Z</time>
      </trkpt>
      <trkpt lat="62.641269750879" lon="17.884978785791">
        <ele>53.4</ele>
        <time>2018-03-29T10:47:46Z</time>
      </trkpt>
      <trkpt lat="62.64125541783" lon="17.884952382806">
        <ele>53.6</ele>
        <time>2018-03-29T10:47:47Z</time>
      </trkpt>
      <trkpt lat="62.641242174428" lon="17.884924471079">
        <ele>53.8</ele>
        <time>2018-03-29T10:47:48Z</time>
      </trkpt>
      <trkpt lat="62.641226667913" lon="17.884898822465">
        <ele>53.8</ele>
        <time>2018-03-29T10:47:49Z</time>
      </trkpt>
      <trkpt lat="62.641211412855" lon="17.88487241948">
        <ele>54</ele>
        <time>2018-03-29T10:47:50Z</time>
      </trkpt>
      <trkpt lat="62.641199762014" lon="17.884849201617">
        <ele>54.2</ele>
        <time>2018-03-29T10:47:51Z</time>
      </trkpt>
      <trkpt lat="62.641184255499" lon="17.884813243266">
        <ele>54.2</ele>
        <time>2018-03-29T10:47:52Z</time>
      </trkpt>
      <trkpt lat="62.641171431192" lon="17.884786588824">
        <ele>54.4</ele>
        <time>2018-03-29T10:47:53Z</time>
      </trkpt>
      <trkpt lat="62.641157768695" lon="17.884757419812">
        <ele>54.6</ele>
        <time>2018-03-29T10:47:54Z</time>
      </trkpt>
      <trkpt lat="62.641141675447" lon="17.884727831705">
        <ele>54.8</ele>
        <time>2018-03-29T10:47:55Z</time>
      </trkpt>
      <trkpt lat="62.641126755665" lon="17.884698495055">
        <ele>55</ele>
        <time>2018-03-29T10:47:56Z</time>
      </trkpt>
      <trkpt lat="62.64111292553" lon="17.884669828957">
        <ele>55.4</ele>
        <time>2018-03-29T10:47:57Z</time>
      </trkpt>
      <trkpt lat="62.641101609965" lon="17.884647365465">
        <ele>55.4</ele>
        <time>2018-03-29T10:47:58Z</time>
      </trkpt>
      <trkpt lat="62.641085013803" lon="17.884611826209">
        <ele>55.6</ele>
        <time>2018-03-29T10:47:59Z</time>
      </trkpt>
      <trkpt lat="62.641071351306" lon="17.884578298609">
        <ele>55.8</ele>
        <time>2018-03-29T10:48:00Z</time>
      </trkpt>
      <trkpt lat="62.641058694637" lon="17.884555499841">
        <ele>56</ele>
        <time>2018-03-29T10:48:01Z</time>
      </trkpt>
      <trkpt lat="62.641045115959" lon="17.884522726612">
        <ele>56</ele>
        <time>2018-03-29T10:48:02Z</time>
      </trkpt>
      <trkpt lat="62.641034219489" lon="17.884490791573">
        <ele>56</ele>
        <time>2018-03-29T10:48:03Z</time>
      </trkpt>
      <trkpt lat="62.641020221716" lon="17.884454665584">
        <ele>56.4</ele>
        <time>2018-03-29T10:48:04Z</time>
      </trkpt>
      <trkpt lat="62.641008487056" lon="17.884417114672">
        <ele>56.6</ele>
        <time>2018-03-29T10:48:05Z</time>
      </trkpt>
      <trkpt lat="62.640997506767" lon="17.884377635923">
        <ele>56.8</ele>
        <time>2018-03-29T10:48:06Z</time>
      </trkpt>
      <trkpt lat="62.640982335528" lon="17.88434435978">
        <ele>57</ele>
        <time>2018-03-29T10:48:07Z</time>
      </trkpt>
      <trkpt lat="62.640969511221" lon="17.884306389773">
        <ele>57</ele>
        <time>2018-03-29T10:48:08Z</time>
      </trkpt>
      <trkpt lat="62.640956519276" lon="17.884268168309">
        <ele>57</ele>
        <time>2018-03-29T10:48:09Z</time>
      </trkpt>
      <trkpt lat="62.640943694969" lon="17.88423455689">
        <ele>57.2</ele>
        <time>2018-03-29T10:48:10Z</time>
      </trkpt>
      <trkpt lat="62.640927517902" lon="17.884199436729">
        <ele>57.2</ele>
        <time>2018-03-29T10:48:11Z</time>
      </trkpt>
      <trkpt lat="62.640914190681" lon="17.884162724007">
        <ele>57.2</ele>
        <time>2018-03-29T10:48:12Z</time>
      </trkpt>
      <trkpt lat="62.640901031098" lon="17.884126933294">
        <ele>57.2</ele>
        <time>2018-03-29T10:48:13Z</time>
      </trkpt>
      <trkpt lat="62.640886446592" lon="17.884079659378">
        <ele>57.4</ele>
        <time>2018-03-29T10:48:14Z</time>
      </trkpt>
      <trkpt lat="62.640876807407" lon="17.884038085154">
        <ele>57.4</ele>
        <time>2018-03-29T10:48:15Z</time>
      </trkpt>
      <trkpt lat="62.640866330032" lon="17.88398477627">
        <ele>57.4</ele>
        <time>2018-03-29T10:48:16Z</time>
      </trkpt>
      <trkpt lat="62.640856774666" lon="17.883938927277">
        <ele>57.6</ele>
        <time>2018-03-29T10:48:17Z</time>
      </trkpt>
      <trkpt lat="62.640849314775" lon="17.883903974754">
        <ele>57.6</ele>
        <time>2018-03-29T10:48:18Z</time>
      </trkpt>
      <trkpt lat="62.64084386654" lon="17.883860305055">
        <ele>57.6</ele>
        <time>2018-03-29T10:48:19Z</time>
      </trkpt>
      <trkpt lat="62.640839759409" lon="17.883815964804">
        <ele>57.8</ele>
        <time>2018-03-29T10:48:20Z</time>
      </trkpt>
      <trkpt lat="62.640837747753" lon="17.883777156607">
        <ele>57.8</ele>
        <time>2018-03-29T10:48:21Z</time>
      </trkpt>
      <trkpt lat="62.640833640622" lon="17.883738432229">
        <ele>58</ele>
        <time>2018-03-29T10:48:22Z</time>
      </trkpt>
      <trkpt lat="62.640830287862" lon="17.883704066439">
        <ele>58.2</ele>
        <time>2018-03-29T10:48:23Z</time>
      </trkpt>
      <trkpt lat="62.640829449672" lon="17.883661067292">
        <ele>58.2</ele>
        <time>2018-03-29T10:48:24Z</time>
      </trkpt>
      <trkpt lat="62.640827605654" lon="17.883626366226">
        <ele>58.4</ele>
        <time>2018-03-29T10:48:25Z</time>
      </trkpt>
      <trkpt lat="62.640822241238" lon="17.883597364852">
        <ele>58.8</ele>
        <time>2018-03-29T10:48:26Z</time>
      </trkpt>
      <trkpt lat="62.640818553202" lon="17.883563501976">
        <ele>59</ele>
        <time>2018-03-29T10:48:27Z</time>
      </trkpt>
      <trkpt lat="62.64081536808" lon="17.883526956892">
        <ele>59.2</ele>
        <time>2018-03-29T10:48:28Z</time>
      </trkpt>
      <trkpt lat="62.640811596225" lon="17.883484879754">
        <ele>59.4</ele>
        <time>2018-03-29T10:48:29Z</time>
      </trkpt>
      <trkpt lat="62.64080698618" lon="17.883450346326">
        <ele>59.6</ele>
        <time>2018-03-29T10:48:30Z</time>
      </trkpt>
      <trkpt lat="62.640804220153" lon="17.883411286672">
        <ele>59.8</ele>
        <time>2018-03-29T10:48:31Z</time>
      </trkpt>
      <trkpt lat="62.640804220153" lon="17.883373903398">
        <ele>60</ele>
        <time>2018-03-29T10:48:32Z</time>
      </trkpt>
      <trkpt lat="62.640800532117" lon="17.88334775187">
        <ele>60.2</ele>
        <time>2018-03-29T10:48:33Z</time>
      </trkpt>
      <trkpt lat="62.640793826597" lon="17.883309027492">
        <ele>60.4</ele>
        <time>2018-03-29T10:48:34Z</time>
      </trkpt>
      <trkpt lat="62.640792234036" lon="17.883271979494">
        <ele>60.8</ele>
        <time>2018-03-29T10:48:35Z</time>
      </trkpt>
      <trkpt lat="62.640791144389" lon="17.883237613704">
        <ele>61</ele>
        <time>2018-03-29T10:48:36Z</time>
      </trkpt>
      <trkpt lat="62.640791144389" lon="17.883205427208">
        <ele>61.2</ele>
        <time>2018-03-29T10:48:37Z</time>
      </trkpt>
      <trkpt lat="62.64079273695" lon="17.883171815789">
        <ele>61.4</ele>
        <time>2018-03-29T10:48:38Z</time>
      </trkpt>
      <trkpt lat="62.640792485493" lon="17.883130493022">
        <ele>61.6</ele>
        <time>2018-03-29T10:48:39Z</time>
      </trkpt>
      <trkpt lat="62.64079776609" lon="17.883082548554">
        <ele>61.6</ele>
        <time>2018-03-29T10:48:40Z</time>
      </trkpt>
      <trkpt lat="62.640800867393" lon="17.883042483072">
        <ele>61.8</ele>
        <time>2018-03-29T10:48:41Z</time>
      </trkpt>
      <trkpt lat="62.640803298144" lon="17.883000908848">
        <ele>62</ele>
        <time>2018-03-29T10:48:42Z</time>
      </trkpt>
      <trkpt lat="62.640808830198" lon="17.88296218447">
        <ele>62</ele>
        <time>2018-03-29T10:48:43Z</time>
      </trkpt>
      <trkpt lat="62.640818972297" lon="17.88291608402">
        <ele>62.2</ele>
        <time>2018-03-29T10:48:44Z</time>
      </trkpt>
      <trkpt lat="62.640823833799" lon="17.882877359642">
        <ele>62.4</ele>
        <time>2018-03-29T10:48:45Z</time>
      </trkpt>
      <trkpt lat="62.64083799921" lon="17.88282472131">
        <ele>62.6</ele>
        <time>2018-03-29T10:48:46Z</time>
      </trkpt>
      <trkpt lat="62.640844956187" lon="17.88276772439">
        <ele>62.6</ele>
        <time>2018-03-29T10:48:47Z</time>
      </trkpt>
      <trkpt lat="62.640857696675" lon="17.882705865968">
        <ele>62.6</ele>
        <time>2018-03-29T10:48:48Z</time>
      </trkpt>
      <trkpt lat="62.640869096059" lon="17.882631602334">
        <ele>62.6</ele>
        <time>2018-03-29T10:48:49Z</time>
      </trkpt>
      <trkpt lat="62.640873370828" lon="17.882568654265">
        <ele>62.6</ele>
        <time>2018-03-29T10:48:50Z</time>
      </trkpt>
      <trkpt lat="62.640874209018" lon="17.882512411716">
        <ele>62.4</ele>
        <time>2018-03-29T10:48:51Z</time>
      </trkpt>
      <trkpt lat="62.640872867914" lon="17.882449966561">
        <ele>62.6</ele>
        <time>2018-03-29T10:48:52Z</time>
      </trkpt>
      <trkpt lat="62.640869431335" lon="17.882404201387">
        <ele>62.6</ele>
        <time>2018-03-29T10:48:53Z</time>
      </trkpt>
      <trkpt lat="62.640863480186" lon="17.882359022946">
        <ele>62.6</ele>
        <time>2018-03-29T10:48:54Z</time>
      </trkpt>
      <trkpt lat="62.640857109942" lon="17.882317448722">
        <ele>62.8</ele>
        <time>2018-03-29T10:48:55Z</time>
      </trkpt>
      <trkpt lat="62.640849650051" lon="17.882282580018">
        <ele>63</ele>
        <time>2018-03-29T10:48:56Z</time>
      </trkpt>
      <trkpt lat="62.640843447445" lon="17.882244107097">
        <ele>63</ele>
        <time>2018-03-29T10:48:57Z</time>
      </trkpt>
      <trkpt lat="62.640834562631" lon="17.882203957796">
        <ele>63.2</ele>
        <time>2018-03-29T10:48:58Z</time>
      </trkpt>
      <trkpt lat="62.640825258722" lon="17.882157354432">
        <ele>63.4</ele>
        <time>2018-03-29T10:48:59Z</time>
      </trkpt>
      <trkpt lat="62.64081285351" lon="17.882125251755">
        <ele>63.6</ele>
        <time>2018-03-29T10:49:00Z</time>
      </trkpt>
      <trkpt lat="62.64079944247" lon="17.882085270092">
        <ele>63.8</ele>
        <time>2018-03-29T10:49:01Z</time>
      </trkpt>
      <trkpt lat="62.640791814941" lon="17.88204269004">
        <ele>64</ele>
        <time>2018-03-29T10:49:02Z</time>
      </trkpt>
      <trkpt lat="62.640774212951" lon="17.882024166041">
        <ele>64</ele>
        <time>2018-03-29T10:49:03Z</time>
      </trkpt>
      <trkpt lat="62.640762729748" lon="17.881989381156">
        <ele>64.2</ele>
        <time>2018-03-29T10:49:04Z</time>
      </trkpt>
      <trkpt lat="62.640756275685" lon="17.88195132733">
        <ele>64.4</ele>
        <time>2018-03-29T10:49:05Z</time>
      </trkpt>
      <trkpt lat="62.640748480518" lon="17.881923164146">
        <ele>64.8</ele>
        <time>2018-03-29T10:49:06Z</time>
      </trkpt>
      <trkpt lat="62.640742277912" lon="17.881883936854">
        <ele>64.8</ele>
        <time>2018-03-29T10:49:07Z</time>
      </trkpt>
      <trkpt lat="62.640731884356" lon="17.881844458105">
        <ele>65</ele>
        <time>2018-03-29T10:49:08Z</time>
      </trkpt>
      <trkpt lat="62.640722831904" lon="17.881807661564">
        <ele>65.2</ele>
        <time>2018-03-29T10:49:09Z</time>
      </trkpt>
      <trkpt lat="62.640713025081" lon="17.881766674073">
        <ele>65.4</ele>
        <time>2018-03-29T10:49:10Z</time>
      </trkpt>
      <trkpt lat="62.64070305062" lon="17.881739013803">
        <ele>65.4</ele>
        <time>2018-03-29T10:49:11Z</time>
      </trkpt>
      <trkpt lat="62.64069383053" lon="17.88169987033">
        <ele>65.6</ele>
        <time>2018-03-29T10:49:12Z</time>
      </trkpt>
      <trkpt lat="62.640682347327" lon="17.881667767653">
        <ele>65.8</ele>
        <time>2018-03-29T10:49:13Z</time>
      </trkpt>
      <trkpt lat="62.640672791961" lon="17.881628372723">
        <ele>66</ele>
        <time>2018-03-29T10:49:14Z</time>
      </trkpt>
      <trkpt lat="62.640664326242" lon="17.881587888146">
        <ele>66</ele>
        <time>2018-03-29T10:49:15Z</time>
      </trkpt>
      <trkpt lat="62.640652256306" lon="17.88154983432">
        <ele>66.2</ele>
        <time>2018-03-29T10:49:16Z</time>
      </trkpt>
      <trkpt lat="62.640642784759" lon="17.881502979499">
        <ele>66.2</ele>
        <time>2018-03-29T10:49:17Z</time>
      </trkpt>
      <trkpt lat="62.640633983764" lon="17.881465344768">
        <ele>66.4</ele>
        <time>2018-03-29T10:49:18Z</time>
      </trkpt>
      <trkpt lat="62.640624093122" lon="17.881420585422">
        <ele>66.6</ele>
        <time>2018-03-29T10:49:19Z</time>
      </trkpt>
      <trkpt lat="62.640617303783" lon="17.881378173008">
        <ele>66.8</ele>
        <time>2018-03-29T10:49:20Z</time>
      </trkpt>
      <trkpt lat="62.640609676254" lon="17.881343304304">
        <ele>66.8</ele>
        <time>2018-03-29T10:49:21Z</time>
      </trkpt>
      <trkpt lat="62.640603138372" lon="17.881293096723">
        <ele>67</ele>
        <time>2018-03-29T10:49:22Z</time>
      </trkpt>
      <trkpt lat="62.640595175567" lon="17.881252947422">
        <ele>67</ele>
        <time>2018-03-29T10:49:23Z</time>
      </trkpt>
      <trkpt lat="62.640587715676" lon="17.881204583859">
        <ele>67.2</ele>
        <time>2018-03-29T10:49:24Z</time>
      </trkpt>
      <trkpt lat="62.640585368744" lon="17.881156471753">
        <ele>67.2</ele>
        <time>2018-03-29T10:49:25Z</time>
      </trkpt>
      <trkpt lat="62.640585368744" lon="17.881110036027">
        <ele>67.2</ele>
        <time>2018-03-29T10:49:26Z</time>
      </trkpt>
      <trkpt lat="62.640584614373" lon="17.881069970545">
        <ele>67.4</ele>
        <time>2018-03-29T10:49:27Z</time>
      </trkpt>
      <trkpt lat="62.640588889142" lon="17.881018170403">
        <ele>67.6</ele>
        <time>2018-03-29T10:49:28Z</time>
      </trkpt>
      <trkpt lat="62.640593834463" lon="17.880964526243">
        <ele>67.8</ele>
        <time>2018-03-29T10:49:29Z</time>
      </trkpt>
      <trkpt lat="62.640595594662" lon="17.880920437449">
        <ele>68</ele>
        <time>2018-03-29T10:49:30Z</time>
      </trkpt>
      <trkpt lat="62.640605401485" lon="17.88087676775">
        <ele>68.2</ele>
        <time>2018-03-29T10:49:31Z</time>
      </trkpt>
      <trkpt lat="62.640610346806" lon="17.880828739463">
        <ele>68.4</ele>
        <time>2018-03-29T10:49:32Z</time>
      </trkpt>
      <trkpt lat="62.640619818353" lon="17.880788338705">
        <ele>68.4</ele>
        <time>2018-03-29T10:49:33Z</time>
      </trkpt>
      <trkpt lat="62.640632475022" lon="17.880733772536">
        <ele>68.4</ele>
        <time>2018-03-29T10:49:34Z</time>
      </trkpt>
      <trkpt lat="62.640643036216" lon="17.880691360122">
        <ele>68.4</ele>
        <time>2018-03-29T10:49:35Z</time>
      </trkpt>
      <trkpt lat="62.640655692885" lon="17.880651797554">
        <ele>68.4</ele>
        <time>2018-03-29T10:49:36Z</time>
      </trkpt>
      <trkpt lat="62.640669606839" lon="17.880606283837">
        <ele>68.4</ele>
        <time>2018-03-29T10:49:37Z</time>
      </trkpt>
      <trkpt lat="62.640682431146" lon="17.8805708284">
        <ele>68.6</ele>
        <time>2018-03-29T10:49:38Z</time>
      </trkpt>
      <trkpt lat="62.640694584901" lon="17.880540485922">
        <ele>68.6</ele>
        <time>2018-03-29T10:49:39Z</time>
      </trkpt>
      <trkpt lat="62.640713025081" lon="17.880489859246">
        <ele>68.8</ele>
        <time>2018-03-29T10:49:40Z</time>
      </trkpt>
      <trkpt lat="62.640725765569" lon="17.880453062705">
        <ele>69</ele>
        <time>2018-03-29T10:49:41Z</time>
      </trkpt>
      <trkpt lat="62.640738589876" lon="17.880415176517">
        <ele>69</ele>
        <time>2018-03-29T10:49:42Z</time>
      </trkpt>
      <trkpt lat="62.640750659812" lon="17.880378128519">
        <ele>69.2</ele>
        <time>2018-03-29T10:49:43Z</time>
      </trkpt>
      <trkpt lat="62.64076591487" lon="17.880338733589">
        <ele>69.4</ele>
        <time>2018-03-29T10:49:44Z</time>
      </trkpt>
      <trkpt lat="62.640778739177" lon="17.880297913736">
        <ele>69.4</ele>
        <time>2018-03-29T10:49:45Z</time>
      </trkpt>
      <trkpt lat="62.640796592624" lon="17.880247622336">
        <ele>69.4</ele>
        <time>2018-03-29T10:49:46Z</time>
      </trkpt>
      <trkpt lat="62.640810171302" lon="17.880201940981">
        <ele>69.6</ele>
        <time>2018-03-29T10:49:47Z</time>
      </trkpt>
      <trkpt lat="62.640826180731" lon="17.880161707861">
        <ele>69.6</ele>
        <time>2018-03-29T10:49:48Z</time>
      </trkpt>
      <trkpt lat="62.640840429961" lon="17.880112003194">
        <ele>69.6</ele>
        <time>2018-03-29T10:49:49Z</time>
      </trkpt>
      <trkpt lat="62.640853338087" lon="17.880064477821">
        <ele>69.8</ele>
        <time>2018-03-29T10:49:50Z</time>
      </trkpt>
      <trkpt lat="62.64086733586" lon="17.880017371543">
        <ele>69.8</ele>
        <time>2018-03-29T10:49:51Z</time>
      </trkpt>
      <trkpt lat="62.640878986701" lon="17.879965990496">
        <ele>70</ele>
        <time>2018-03-29T10:49:52Z</time>
      </trkpt>
      <trkpt lat="62.640892733017" lon="17.879919973865">
        <ele>70</ele>
        <time>2018-03-29T10:49:53Z</time>
      </trkpt>
      <trkpt lat="62.640904132401" lon="17.879869933922">
        <ele>70</ele>
        <time>2018-03-29T10:49:54Z</time>
      </trkpt>
      <trkpt lat="62.640915615604" lon="17.879827186232">
        <ele>70.2</ele>
        <time>2018-03-29T10:49:55Z</time>
      </trkpt>
      <trkpt lat="62.640926176798" lon="17.879789300044">
        <ele>70.4</ele>
        <time>2018-03-29T10:49:56Z</time>
      </trkpt>
      <trkpt lat="62.640934474879" lon="17.879750659485">
        <ele>70.4</ele>
        <time>2018-03-29T10:49:57Z</time>
      </trkpt>
      <trkpt lat="62.640946293358" lon="17.879711096917">
        <ele>70.6</ele>
        <time>2018-03-29T10:49:58Z</time>
      </trkpt>
      <trkpt lat="62.640955513448" lon="17.879663823001">
        <ele>70.6</ele>
        <time>2018-03-29T10:49:59Z</time>
      </trkpt>
      <trkpt lat="62.640968673031" lon="17.879623086967">
        <ele>70.8</ele>
        <time>2018-03-29T10:50:00Z</time>
      </trkpt>
      <trkpt lat="62.640979318044" lon="17.879573633757">
        <ele>70.8</ele>
        <time>2018-03-29T10:50:01Z</time>
      </trkpt>
      <trkpt lat="62.640988202858" lon="17.879526862755">
        <ele>70.8</ele>
        <time>2018-03-29T10:50:02Z</time>
      </trkpt>
      <trkpt lat="62.64099976988" lon="17.879480091753">
        <ele>71</ele>
        <time>2018-03-29T10:50:03Z</time>
      </trkpt>
      <trkpt lat="62.64101066635" lon="17.879432147285">
        <ele>71.2</ele>
        <time>2018-03-29T10:50:04Z</time>
      </trkpt>
      <trkpt lat="62.641024328847" lon="17.879384873369">
        <ele>71.2</ele>
        <time>2018-03-29T10:50:05Z</time>
      </trkpt>
      <trkpt lat="62.641036314964" lon="17.879341371308">
        <ele>71.4</ele>
        <time>2018-03-29T10:50:06Z</time>
      </trkpt>
      <trkpt lat="62.641045367416" lon="17.87929342684">
        <ele>71.4</ele>
        <time>2018-03-29T10:50:07Z</time>
      </trkpt>
      <trkpt lat="62.641055174239" lon="17.87925738467">
        <ele>71.4</ele>
        <time>2018-03-29T10:50:08Z</time>
      </trkpt>
      <trkpt lat="62.641066238347" lon="17.879220001396">
        <ele>71.6</ele>
        <time>2018-03-29T10:50:09Z</time>
      </trkpt>
      <trkpt lat="62.641075542256" lon="17.879181696113">
        <ele>71.4</ele>
        <time>2018-03-29T10:50:10Z</time>
      </trkpt>
      <trkpt lat="62.641089120934" lon="17.87914841997">
        <ele>71.6</ele>
        <time>2018-03-29T10:50:11Z</time>
      </trkpt>
      <trkpt lat="62.641099011576" lon="17.879103409167">
        <ele>71.8</ele>
        <time>2018-03-29T10:50:12Z</time>
      </trkpt>
      <trkpt lat="62.641110327141" lon="17.879067702273">
        <ele>72</ele>
        <time>2018-03-29T10:50:13Z</time>
      </trkpt>
      <trkpt lat="62.641122397077" lon="17.87902352966">
        <ele>72.4</ele>
        <time>2018-03-29T10:50:14Z</time>
      </trkpt>
      <trkpt lat="62.641136730126" lon="17.878986984576">
        <ele>72.6</ele>
        <time>2018-03-29T10:50:15Z</time>
      </trkpt>
      <trkpt lat="62.64114980589" lon="17.878943482515">
        <ele>72.6</ele>
        <time>2018-03-29T10:50:16Z</time>
      </trkpt>
      <trkpt lat="62.641164390396" lon="17.878904255223">
        <ele>72.6</ele>
        <time>2018-03-29T10:50:17Z</time>
      </trkpt>
      <trkpt lat="62.641176292694" lon="17.878864525017">
        <ele>72.6</ele>
        <time>2018-03-29T10:50:18Z</time>
      </trkpt>
      <trkpt lat="62.641186267155" lon="17.878824962449">
        <ele>72.8</ele>
        <time>2018-03-29T10:50:19Z</time>
      </trkpt>
      <trkpt lat="62.641198001815" lon="17.87878632189">
        <ele>73</ele>
        <time>2018-03-29T10:50:20Z</time>
      </trkpt>
      <trkpt lat="62.641209065923" lon="17.878746507865">
        <ele>73.2</ele>
        <time>2018-03-29T10:50:21Z</time>
      </trkpt>
      <trkpt lat="62.64121937566" lon="17.878707364392">
        <ele>73.2</ele>
        <time>2018-03-29T10:50:22Z</time>
      </trkpt>
      <trkpt lat="62.641232367605" lon="17.878670819308">
        <ele>73.4</ele>
        <time>2018-03-29T10:50:23Z</time>
      </trkpt>
      <trkpt lat="62.641246700654" lon="17.878631675835">
        <ele>73.6</ele>
        <time>2018-03-29T10:50:24Z</time>
      </trkpt>
      <trkpt lat="62.641258100038" lon="17.878592113267">
        <ele>73.8</ele>
        <time>2018-03-29T10:50:25Z</time>
      </trkpt>
      <trkpt lat="62.641273606553" lon="17.878555149088">
        <ele>73.8</ele>
        <time>2018-03-29T10:50:26Z</time>
      </trkpt>
      <trkpt lat="62.641284335385" lon="17.878515837977">
        <ele>73.8</ele>
        <time>2018-03-29T10:50:27Z</time>
      </trkpt>
      <trkpt lat="62.641300093357" lon="17.878476862142">
        <ele>73.8</ele>
        <time>2018-03-29T10:50:28Z</time>
      </trkpt>
      <trkpt lat="62.641319623184" lon="17.878432689529">
        <ele>74</ele>
        <time>2018-03-29T10:50:29Z</time>
      </trkpt>
      <trkpt lat="62.641334710604" lon="17.878396312083">
        <ele>74</ele>
        <time>2018-03-29T10:50:30Z</time>
      </trkpt>
      <trkpt lat="62.64135180968" lon="17.878355240773">
        <ele>74</ele>
        <time>2018-03-29T10:50:31Z</time>
      </trkpt>
      <trkpt lat="62.641364131073" lon="17.878318528051">
        <ele>74.2</ele>
        <time>2018-03-29T10:50:32Z</time>
      </trkpt>
      <trkpt lat="62.641378380303" lon="17.878283994623">
        <ele>74.2</ele>
        <time>2018-03-29T10:50:33Z</time>
      </trkpt>
      <trkpt lat="62.641392461895" lon="17.878233200309">
        <ele>74.2</ele>
        <time>2018-03-29T10:50:34Z</time>
      </trkpt>
      <trkpt lat="62.641407716953" lon="17.878189195334">
        <ele>74.4</ele>
        <time>2018-03-29T10:50:35Z</time>
      </trkpt>
      <trkpt lat="62.641422469097" lon="17.878151225327">
        <ele>74.6</ele>
        <time>2018-03-29T10:50:36Z</time>
      </trkpt>
      <trkpt lat="62.64143562868" lon="17.878111495121">
        <ele>74.6</ele>
        <time>2018-03-29T10:50:37Z</time>
      </trkpt>
      <trkpt lat="62.641450129367" lon="17.878075369132">
        <ele>75</ele>
        <time>2018-03-29T10:50:38Z</time>
      </trkpt>
      <trkpt lat="62.641464294778" lon="17.878040919523">
        <ele>75</ele>
        <time>2018-03-29T10:50:39Z</time>
      </trkpt>
      <trkpt lat="62.641475275067" lon="17.877994651435">
        <ele>75.4</ele>
        <time>2018-03-29T10:50:40Z</time>
      </trkpt>
      <trkpt lat="62.641489691935" lon="17.877955507962">
        <ele>75.4</ele>
        <time>2018-03-29T10:50:41Z</time>
      </trkpt>
      <trkpt lat="62.641504946993" lon="17.877916113032">
        <ele>75.6</ele>
        <time>2018-03-29T10:50:42Z</time>
      </trkpt>
      <trkpt lat="62.641516346377" lon="17.877879232672">
        <ele>75.8</ele>
        <time>2018-03-29T10:50:43Z</time>
      </trkpt>
      <trkpt lat="62.641530260331" lon="17.877837406991">
        <ele>75.8</ele>
        <time>2018-03-29T10:50:44Z</time>
      </trkpt>
      <trkpt lat="62.641541324439" lon="17.877810165816">
        <ele>76</ele>
        <time>2018-03-29T10:50:45Z</time>
      </trkpt>
      <trkpt lat="62.641557585325" lon="17.877763394814">
        <ele>76</ele>
        <time>2018-03-29T10:50:46Z</time>
      </trkpt>
      <trkpt lat="62.641570074356" lon="17.877731543594">
        <ele>76.2</ele>
        <time>2018-03-29T10:50:47Z</time>
      </trkpt>
      <trkpt lat="62.641583485396" lon="17.87770338041">
        <ele>76.2</ele>
        <time>2018-03-29T10:50:48Z</time>
      </trkpt>
      <trkpt lat="62.641596728798" lon="17.877668595525">
        <ele>76.4</ele>
        <time>2018-03-29T10:50:49Z</time>
      </trkpt>
      <trkpt lat="62.641608714915" lon="17.877634565011">
        <ele>76.6</ele>
        <time>2018-03-29T10:50:50Z</time>
      </trkpt>
      <trkpt lat="62.641620198118" lon="17.877601875601">
        <ele>76.8</ele>
        <time>2018-03-29T10:50:51Z</time>
      </trkpt>
      <trkpt lat="62.641621120127" lon="17.877600953592">
        <ele>76.8</ele>
        <time>2018-03-29T10:50:52Z</time>
      </trkpt>
      <trkpt lat="62.641642745429" lon="17.877537502609">
        <ele>77</ele>
        <time>2018-03-29T10:50:53Z</time>
      </trkpt>
      <trkpt lat="62.641654815365" lon="17.877507076312">
        <ele>77.2</ele>
        <time>2018-03-29T10:50:54Z</time>
      </trkpt>
      <trkpt lat="62.641662359075" lon="17.87747958368">
        <ele>77.4</ele>
        <time>2018-03-29T10:50:55Z</time>
      </trkpt>
      <trkpt lat="62.64167535102" lon="17.877447983917">
        <ele>77.6</ele>
        <time>2018-03-29T10:50:56Z</time>
      </trkpt>
      <trkpt lat="62.64168876206" lon="17.877416216516">
        <ele>78</ele>
        <time>2018-03-29T10:50:57Z</time>
      </trkpt>
      <trkpt lat="62.641698904159" lon="17.877382269821">
        <ele>78.2</ele>
        <time>2018-03-29T10:50:58Z</time>
      </trkpt>
      <trkpt lat="62.641715081226" lon="17.877341617606">
        <ele>78.4</ele>
        <time>2018-03-29T10:50:59Z</time>
      </trkpt>
      <trkpt lat="62.641726564429" lon="17.877299624287">
        <ele>78.6</ele>
        <time>2018-03-29T10:51:00Z</time>
      </trkpt>
      <trkpt lat="62.64173821527" lon="17.877267353972">
        <ele>78.8</ele>
        <time>2018-03-29T10:51:01Z</time>
      </trkpt>
      <trkpt lat="62.641752045405" lon="17.87723399401">
        <ele>78.8</ele>
        <time>2018-03-29T10:51:02Z</time>
      </trkpt>
      <trkpt lat="62.641763025694" lon="17.877204741179">
        <ele>79</ele>
        <time>2018-03-29T10:51:03Z</time>
      </trkpt>
      <trkpt lat="62.641774927992" lon="17.877158389272">
        <ele>79</ele>
        <time>2018-03-29T10:51:04Z</time>
      </trkpt>
      <trkpt lat="62.641789931593" lon="17.877118910523">
        <ele>79</ele>
        <time>2018-03-29T10:51:05Z</time>
      </trkpt>
      <trkpt lat="62.641807030669" lon="17.877075827557">
        <ele>79.2</ele>
        <time>2018-03-29T10:51:06Z</time>
      </trkpt>
      <trkpt lat="62.641823207736" lon="17.877033498962">
        <ele>79.4</ele>
        <time>2018-03-29T10:51:07Z</time>
      </trkpt>
      <trkpt lat="62.64183460712" lon="17.877001228647">
        <ele>79.6</ele>
        <time>2018-03-29T10:51:08Z</time>
      </trkpt>
      <trkpt lat="62.641850700368" lon="17.876961749898">
        <ele>79.6</ele>
        <time>2018-03-29T10:51:09Z</time>
      </trkpt>
      <trkpt lat="62.641866039245" lon="17.876919253665">
        <ele>79.8</ele>
        <time>2018-03-29T10:51:10Z</time>
      </trkpt>
      <trkpt lat="62.641881797217" lon="17.876880864563">
        <ele>79.8</ele>
        <time>2018-03-29T10:51:11Z</time>
      </trkpt>
      <trkpt lat="62.641896297904" lon="17.876838033054">
        <ele>80</ele>
        <time>2018-03-29T10:51:12Z</time>
      </trkpt>
      <trkpt lat="62.641912055876" lon="17.87679981159">
        <ele>80</ele>
        <time>2018-03-29T10:51:13Z</time>
      </trkpt>
      <trkpt lat="62.641927897667" lon="17.876747173258">
        <ele>80.2</ele>
        <time>2018-03-29T10:51:14Z</time>
      </trkpt>
      <trkpt lat="62.64194021906" lon="17.876698977333">
        <ele>80.2</ele>
        <time>2018-03-29T10:51:15Z</time>
      </trkpt>
      <trkpt lat="62.641965532398" lon="17.876664611543">
        <ele>80.4</ele>
        <time>2018-03-29T10:51:16Z</time>
      </trkpt>
      <trkpt lat="62.641979027257" lon="17.87662882083">
        <ele>80.6</ele>
        <time>2018-03-29T10:51:17Z</time>
      </trkpt>
      <trkpt lat="62.641997467437" lon="17.876586659873">
        <ele>80.6</ele>
        <time>2018-03-29T10:51:18Z</time>
      </trkpt>
      <trkpt lat="62.642014482694" lon="17.876533853903">
        <ele>80.8</ele>
        <time>2018-03-29T10:51:19Z</time>
      </trkpt>
      <trkpt lat="62.642035269806" lon="17.876490268023">
        <ele>80.8</ele>
        <time>2018-03-29T10:51:20Z</time>
      </trkpt>
      <trkpt lat="62.642046082457" lon="17.876452381835">
        <ele>81</ele>
        <time>2018-03-29T10:51:21Z</time>
      </trkpt>
      <trkpt lat="62.642064522637" lon="17.87640753867">
        <ele>81</ele>
        <time>2018-03-29T10:51:22Z</time>
      </trkpt>
      <trkpt lat="62.642077346944" lon="17.876359426564">
        <ele>81</ele>
        <time>2018-03-29T10:51:23Z</time>
      </trkpt>
      <trkpt lat="62.642094278382" lon="17.876313745209">
        <ele>81</ele>
        <time>2018-03-29T10:51:24Z</time>
      </trkpt>
      <trkpt lat="62.642109030526" lon="17.876269488777">
        <ele>81.2</ele>
        <time>2018-03-29T10:51:25Z</time>
      </trkpt>
      <trkpt lat="62.642127303068" lon="17.876231351132">
        <ele>81.4</ele>
        <time>2018-03-29T10:51:26Z</time>
      </trkpt>
      <trkpt lat="62.642142809583" lon="17.876199835188">
        <ele>81.4</ele>
        <time>2018-03-29T10:51:27Z</time>
      </trkpt>
      <trkpt lat="62.64215814846" lon="17.876167061959">
        <ele>81.6</ele>
        <time>2018-03-29T10:51:28Z</time>
      </trkpt>
      <trkpt lat="62.64218161778" lon="17.876134875463">
        <ele>81.8</ele>
        <time>2018-03-29T10:51:29Z</time>
      </trkpt>
      <trkpt lat="62.642204919462" lon="17.876109562125">
        <ele>82</ele>
        <time>2018-03-29T10:51:30Z</time>
      </trkpt>
      <trkpt lat="62.64224615841" lon="17.876015601026">
        <ele>82</ele>
        <time>2018-03-29T10:51:32Z</time>
      </trkpt>
      <trkpt lat="62.642264933866" lon="17.875991042059">
        <ele>82.2</ele>
        <time>2018-03-29T10:51:33Z</time>
      </trkpt>
      <trkpt lat="62.642290331023" lon="17.875959274658">
        <ele>82.4</ele>
        <time>2018-03-29T10:51:34Z</time>
      </trkpt>
      <trkpt lat="62.642309944669" lon="17.875935302424">
        <ele>82.4</ele>
        <time>2018-03-29T10:51:35Z</time>
      </trkpt>
      <trkpt lat="62.642334252179" lon="17.875910156724">
        <ele>82.4</ele>
        <time>2018-03-29T10:51:36Z</time>
      </trkpt>
      <trkpt lat="62.642355039291" lon="17.875875539477">
        <ele>82.6</ele>
        <time>2018-03-29T10:51:37Z</time>
      </trkpt>
      <trkpt lat="62.642375742584" lon="17.875849387949">
        <ele>82.6</ele>
        <time>2018-03-29T10:51:38Z</time>
      </trkpt>
      <trkpt lat="62.642399211904" lon="17.875818207281">
        <ele>82.6</ele>
        <time>2018-03-29T10:51:39Z</time>
      </trkpt>
      <trkpt lat="62.642424525242" lon="17.875783003301">
        <ele>82.6</ele>
        <time>2018-03-29T10:51:40Z</time>
      </trkpt>
      <trkpt lat="62.642448329838" lon="17.875754923936">
        <ele>82.8</ele>
        <time>2018-03-29T10:51:41Z</time>
      </trkpt>
      <trkpt lat="62.642475403375" lon="17.875722485983">
        <ele>82.8</ele>
        <time>2018-03-29T10:51:42Z</time>
      </trkpt>
      <trkpt lat="62.642501890179" lon="17.875683091053">
        <ele>83</ele>
        <time>2018-03-29T10:51:43Z</time>
      </trkpt>
      <trkpt lat="62.642538351444" lon="17.875625842676">
        <ele>83</ele>
        <time>2018-03-29T10:51:44Z</time>
      </trkpt>
      <trkpt lat="62.642570705578" lon="17.875577898208">
        <ele>83</ele>
        <time>2018-03-29T10:51:45Z</time>
      </trkpt>
      <trkpt lat="62.642606244834" lon="17.87552408641">
        <ele>83</ele>
        <time>2018-03-29T10:51:46Z</time>
      </trkpt>
      <trkpt lat="62.642641616452" lon="17.87547128044">
        <ele>82.8</ele>
        <time>2018-03-29T10:51:47Z</time>
      </trkpt>
      <trkpt lat="62.642669779636" lon="17.875425599085">
        <ele>82.4</ele>
        <time>2018-03-29T10:51:48Z</time>
      </trkpt>
      <trkpt lat="62.642703223417" lon="17.875371871106">
        <ele>82</ele>
        <time>2018-03-29T10:51:49Z</time>
      </trkpt>
      <trkpt lat="62.642737673026" lon="17.875326189751">
        <ele>81.6</ele>
        <time>2018-03-29T10:51:50Z</time>
      </trkpt>
      <trkpt lat="62.64276918897" lon="17.875275227799">
        <ele>81.4</ele>
        <time>2018-03-29T10:51:51Z</time>
      </trkpt>
      <trkpt lat="62.642803470941" lon="17.875223092381">
        <ele>81.4</ele>
        <time>2018-03-29T10:51:52Z</time>
      </trkpt>
      <trkpt lat="62.642836747084" lon="17.875170034954">
        <ele>81</ele>
        <time>2018-03-29T10:51:53Z</time>
      </trkpt>
      <trkpt lat="62.642871783426" lon="17.875103482668">
        <ele>81.2</ele>
        <time>2018-03-29T10:51:54Z</time>
      </trkpt>
      <trkpt lat="62.642903467008" lon="17.875038690581">
        <ele>81.4</ele>
        <time>2018-03-29T10:51:55Z</time>
      </trkpt>
      <trkpt lat="62.642997260469" lon="17.874917907402">
        <ele>81</ele>
        <time>2018-03-29T10:51:57Z</time>
      </trkpt>
      <trkpt lat="62.643045037299" lon="17.874849511098">
        <ele>80.4</ele>
        <time>2018-03-29T10:51:58Z</time>
      </trkpt>
      <trkpt lat="62.643101363667" lon="17.874763093709">
        <ele>79.8</ele>
        <time>2018-03-29T10:51:59Z</time>
      </trkpt>
      <trkpt lat="62.643152660895" lon="17.874680196718">
        <ele>78.8</ele>
        <time>2018-03-29T10:52:00Z</time>
      </trkpt>
      <trkpt lat="62.643202952295" lon="17.874598389374">
        <ele>78.2</ele>
        <time>2018-03-29T10:52:01Z</time>
      </trkpt>
      <trkpt lat="62.643250226211" lon="17.874521778808">
        <ele>77.4</ele>
        <time>2018-03-29T10:52:02Z</time>
      </trkpt>
      <trkpt lat="62.643292638625" lon="17.874451370848">
        <ele>76.6</ele>
        <time>2018-03-29T10:52:03Z</time>
      </trkpt>
      <trkpt lat="62.643339912541" lon="17.874372329531">
        <ele>76.2</ele>
        <time>2018-03-29T10:52:04Z</time>
      </trkpt>
      <trkpt lat="62.64337771491" lon="17.874313991507">
        <ele>75.8</ele>
        <time>2018-03-29T10:52:05Z</time>
      </trkpt>
      <trkpt lat="62.643415014365" lon="17.874249702334">
        <ele>75.6</ele>
        <time>2018-03-29T10:52:06Z</time>
      </trkpt>
      <trkpt lat="62.643450218345" lon="17.874189771749">
        <ele>75.8</ele>
        <time>2018-03-29T10:52:07Z</time>
      </trkpt>
      <trkpt lat="62.643476034597" lon="17.874142665471">
        <ele>76</ele>
        <time>2018-03-29T10:52:08Z</time>
      </trkpt>
      <trkpt lat="62.643507382903" lon="17.874091284424">
        <ele>76.2</ele>
        <time>2018-03-29T10:52:09Z</time>
      </trkpt>
      <trkpt lat="62.643542251607" lon="17.874037053531">
        <ele>76.4</ele>
        <time>2018-03-29T10:52:10Z</time>
      </trkpt>
      <trkpt lat="62.643572426447" lon="17.873992042728">
        <ele>76.6</ele>
        <time>2018-03-29T10:52:11Z</time>
      </trkpt>
      <trkpt lat="62.643595476672" lon="17.873952563979">
        <ele>76.8</ele>
        <time>2018-03-29T10:52:12Z</time>
      </trkpt>
      <trkpt lat="62.643619365087" lon="17.873913755782">
        <ele>77</ele>
        <time>2018-03-29T10:52:13Z</time>
      </trkpt>
      <trkpt lat="62.643646019529" lon="17.873865727495">
        <ele>77</ele>
        <time>2018-03-29T10:52:14Z</time>
      </trkpt>
      <trkpt lat="62.643662615691" lon="17.873831026429">
        <ele>77.2</ele>
        <time>2018-03-29T10:52:15Z</time>
      </trkpt>
      <trkpt lat="62.643686085011" lon="17.873786686178">
        <ele>77.4</ele>
        <time>2018-03-29T10:52:16Z</time>
      </trkpt>
      <trkpt lat="62.643706788304" lon="17.873743267936">
        <ele>77.6</ele>
        <time>2018-03-29T10:52:17Z</time>
      </trkpt>
      <trkpt lat="62.643722043362" lon="17.873705717024">
        <ele>77.8</ele>
        <time>2018-03-29T10:52:18Z</time>
      </trkpt>
      <trkpt lat="62.643740734999" lon="17.873665148628">
        <ele>78</ele>
        <time>2018-03-29T10:52:19Z</time>
      </trkpt>
      <trkpt lat="62.643758588446" lon="17.873621898024">
        <ele>78.2</ele>
        <time>2018-03-29T10:52:20Z</time>
      </trkpt>
      <trkpt lat="62.643772334762" lon="17.873573953556">
        <ele>78.2</ele>
        <time>2018-03-29T10:52:21Z</time>
      </trkpt>
      <trkpt lat="62.643786164897" lon="17.873524919441">
        <ele>78.2</ele>
        <time>2018-03-29T10:52:22Z</time>
      </trkpt>
      <trkpt lat="62.643803850706" lon="17.873483009941">
        <ele>78.2</ele>
        <time>2018-03-29T10:52:23Z</time>
      </trkpt>
      <trkpt lat="62.643820782144" lon="17.873435484568">
        <ele>78.4</ele>
        <time>2018-03-29T10:52:24Z</time>
      </trkpt>
      <trkpt lat="62.643839473781" lon="17.873390725222">
        <ele>78.4</ele>
        <time>2018-03-29T10:52:25Z</time>
      </trkpt>
      <trkpt lat="62.643855399391" lon="17.87333808689">
        <ele>78.4</ele>
        <time>2018-03-29T10:52:26Z</time>
      </trkpt>
      <trkpt lat="62.643870402992" lon="17.873294165734">
        <ele>78.4</ele>
        <time>2018-03-29T10:52:27Z</time>
      </trkpt>
      <trkpt lat="62.643887837344" lon="17.873245969809">
        <ele>78.6</ele>
        <time>2018-03-29T10:52:28Z</time>
      </trkpt>
      <trkpt lat="62.643902002755" lon="17.873190146355">
        <ele>78.6</ele>
        <time>2018-03-29T10:52:29Z</time>
      </trkpt>
      <trkpt lat="62.64391667108" lon="17.873148488312">
        <ele>78.6</ele>
        <time>2018-03-29T10:52:30Z</time>
      </trkpt>
      <trkpt lat="62.643923963333" lon="17.873102723138">
        <ele>78.8</ele>
        <time>2018-03-29T10:52:31Z</time>
      </trkpt>
      <trkpt lat="62.643938380201" lon="17.873060562181">
        <ele>79</ele>
        <time>2018-03-29T10:52:32Z</time>
      </trkpt>
      <trkpt lat="62.643948187024" lon="17.873025777296">
        <ele>79</ele>
        <time>2018-03-29T10:52:33Z</time>
      </trkpt>
      <trkpt lat="62.643962939168" lon="17.872980598855">
        <ele>79.2</ele>
        <time>2018-03-29T10:52:34Z</time>
      </trkpt>
      <trkpt lat="62.643969560869" lon="17.872939192269">
        <ele>79.4</ele>
        <time>2018-03-29T10:52:35Z</time>
      </trkpt>
      <trkpt lat="62.643979200054" lon="17.872896276941">
        <ele>79.6</ele>
        <time>2018-03-29T10:52:36Z</time>
      </trkpt>
      <trkpt lat="62.64398540266" lon="17.872854032165">
        <ele>79.8</ele>
        <time>2018-03-29T10:52:37Z</time>
      </trkpt>
      <trkpt lat="62.643989677429" lon="17.872819079642">
        <ele>79.8</ele>
        <time>2018-03-29T10:52:38Z</time>
      </trkpt>
      <trkpt lat="62.643995880035" lon="17.872774655572">
        <ele>80</ele>
        <time>2018-03-29T10:52:39Z</time>
      </trkpt>
      <trkpt lat="62.644001244451" lon="17.872725118543">
        <ele>80.2</ele>
        <time>2018-03-29T10:52:40Z</time>
      </trkpt>
      <trkpt lat="62.644004178116" lon="17.872681867939">
        <ele>80.4</ele>
        <time>2018-03-29T10:52:41Z</time>
      </trkpt>
      <trkpt lat="62.64400635741" lon="17.872636773317">
        <ele>80.6</ele>
        <time>2018-03-29T10:52:42Z</time>
      </trkpt>
      <trkpt lat="62.64400803379" lon="17.87259461236">
        <ele>80.8</ele>
        <time>2018-03-29T10:52:43Z</time>
      </trkpt>
      <trkpt lat="62.644008704342" lon="17.872545745883">
        <ele>81</ele>
        <time>2018-03-29T10:52:44Z</time>
      </trkpt>
      <trkpt lat="62.644012308559" lon="17.872498639605">
        <ele>81.4</ele>
        <time>2018-03-29T10:52:45Z</time>
      </trkpt>
      <trkpt lat="62.644013817301" lon="17.872439211934">
        <ele>81.4</ele>
        <time>2018-03-29T10:52:46Z</time>
      </trkpt>
      <trkpt lat="62.644011889464" lon="17.872385148679">
        <ele>81.6</ele>
        <time>2018-03-29T10:52:47Z</time>
      </trkpt>
      <trkpt lat="62.644013984939" lon="17.872324798999">
        <ele>81.6</ele>
        <time>2018-03-29T10:52:48Z</time>
      </trkpt>
      <trkpt lat="62.644011051274" lon="17.872260090731">
        <ele>81.8</ele>
        <time>2018-03-29T10:52:49Z</time>
      </trkpt>
      <trkpt lat="62.644008536704" lon="17.87220485401">
        <ele>81.8</ele>
        <time>2018-03-29T10:52:50Z</time>
      </trkpt>
      <trkpt lat="62.644008369066" lon="17.872149617289">
        <ele>81.6</ele>
        <time>2018-03-29T10:52:51Z</time>
      </trkpt>
      <trkpt lat="62.644009374894" lon="17.872083651736">
        <ele>81.6</ele>
        <time>2018-03-29T10:52:52Z</time>
      </trkpt>
      <trkpt lat="62.644004513392" lon="17.872028582653">
        <ele>81.6</ele>
        <time>2018-03-29T10:52:53Z</time>
      </trkpt>
      <trkpt lat="62.64399797551" lon="17.87194836787">
        <ele>81.6</ele>
        <time>2018-03-29T10:52:54Z</time>
      </trkpt>
      <trkpt lat="62.643988839239" lon="17.871878546643">
        <ele>81.8</ele>
        <time>2018-03-29T10:52:55Z</time>
      </trkpt>
      <trkpt lat="62.64397785895" lon="17.871816688221">
        <ele>81.8</ele>
        <time>2018-03-29T10:52:56Z</time>
      </trkpt>
      <trkpt lat="62.643964531729" lon="17.871752901962">
        <ele>81.8</ele>
        <time>2018-03-29T10:52:57Z</time>
      </trkpt>
      <trkpt lat="62.64395271325" lon="17.871691965549">
        <ele>81.6</ele>
        <time>2018-03-29T10:52:58Z</time>
      </trkpt>
      <trkpt lat="62.643939805124" lon="17.87162817929">
        <ele>81.6</ele>
        <time>2018-03-29T10:52:59Z</time>
      </trkpt>
      <trkpt lat="62.643926813179" lon="17.87157537332">
        <ele>81.4</ele>
        <time>2018-03-29T10:53:00Z</time>
      </trkpt>
      <trkpt lat="62.643910133198" lon="17.871526423024">
        <ele>81.2</ele>
        <time>2018-03-29T10:53:01Z</time>
      </trkpt>
      <trkpt lat="62.643895464873" lon="17.871466576258">
        <ele>81.2</ele>
        <time>2018-03-29T10:53:02Z</time>
      </trkpt>
      <trkpt lat="62.643882556747" lon="17.871419972894">
        <ele>81.2</ele>
        <time>2018-03-29T10:53:03Z</time>
      </trkpt>
      <trkpt lat="62.643866631137" lon="17.871366831648">
        <ele>81.2</ele>
        <time>2018-03-29T10:53:04Z</time>
      </trkpt>
      <trkpt lat="62.643850537889" lon="17.871304302674">
        <ele>81.2</ele>
        <time>2018-03-29T10:53:05Z</time>
      </trkpt>
      <trkpt lat="62.643832181528" lon="17.871250574695">
        <ele>81.2</ele>
        <time>2018-03-29T10:53:06Z</time>
      </trkpt>
      <trkpt lat="62.643820027773" lon="17.871200115657">
        <ele>81.2</ele>
        <time>2018-03-29T10:53:07Z</time>
      </trkpt>
      <trkpt lat="62.643807035828" lon="17.871142280547">
        <ele>81.2</ele>
        <time>2018-03-29T10:53:08Z</time>
      </trkpt>
      <trkpt lat="62.643792367503" lon="17.871091486233">
        <ele>81.2</ele>
        <time>2018-03-29T10:53:09Z</time>
      </trkpt>
      <trkpt lat="62.64378172249" lon="17.871033483485">
        <ele>81</ele>
        <time>2018-03-29T10:53:10Z</time>
      </trkpt>
      <trkpt lat="62.643769065821" lon="17.870982186257">
        <ele>81</ele>
        <time>2018-03-29T10:53:11Z</time>
      </trkpt>
      <trkpt lat="62.643756912066" lon="17.87093415797">
        <ele>81.2</ele>
        <time>2018-03-29T10:53:12Z</time>
      </trkpt>
      <trkpt lat="62.643745345044" lon="17.870874478842">
        <ele>81.2</ele>
        <time>2018-03-29T10:53:13Z</time>
      </trkpt>
      <trkpt lat="62.643736627868" lon="17.870807507461">
        <ele>81.2</ele>
        <time>2018-03-29T10:53:14Z</time>
      </trkpt>
      <trkpt lat="62.643731598728" lon="17.870754114758">
        <ele>81.4</ele>
        <time>2018-03-29T10:53:15Z</time>
      </trkpt>
      <trkpt lat="62.643721205172" lon="17.870690579956">
        <ele>81.4</ele>
        <time>2018-03-29T10:53:16Z</time>
      </trkpt>
      <trkpt lat="62.64370796177" lon="17.870629811181">
        <ele>81.4</ele>
        <time>2018-03-29T10:53:17Z</time>
      </trkpt>
      <trkpt lat="62.643697987309" lon="17.870553787348">
        <ele>81.4</ele>
        <time>2018-03-29T10:53:18Z</time>
      </trkpt>
      <trkpt lat="62.643686085011" lon="17.870466112674">
        <ele>81.4</ele>
        <time>2018-03-29T10:53:19Z</time>
      </trkpt>
      <trkpt lat="62.643678960396" lon="17.870399560388">
        <ele>81.4</ele>
        <time>2018-03-29T10:53:20Z</time>
      </trkpt>
      <trkpt lat="62.643677116378" lon="17.870332086093">
        <ele>81.2</ele>
        <time>2018-03-29T10:53:21Z</time>
      </trkpt>
      <trkpt lat="62.643668483021" lon="17.870257487183">
        <ele>81.2</ele>
        <time>2018-03-29T10:53:22Z</time>
      </trkpt>
      <trkpt lat="62.643663789157" lon="17.870189342336">
        <ele>81.2</ele>
        <time>2018-03-29T10:53:23Z</time>
      </trkpt>
      <trkpt lat="62.64366186132" lon="17.870109965743">
        <ele>81.2</ele>
        <time>2018-03-29T10:53:24Z</time>
      </trkpt>
      <trkpt lat="62.643659011474" lon="17.870048023502">
        <ele>81</ele>
        <time>2018-03-29T10:53:25Z</time>
      </trkpt>
      <trkpt lat="62.643662867148" lon="17.869990188392">
        <ele>81</ele>
        <time>2018-03-29T10:53:26Z</time>
      </trkpt>
      <trkpt lat="62.643670494677" lon="17.869920115708">
        <ele>80.8</ele>
        <time>2018-03-29T10:53:27Z</time>
      </trkpt>
      <trkpt lat="62.643672506333" lon="17.869863286426">
        <ele>80.8</ele>
        <time>2018-03-29T10:53:28Z</time>
      </trkpt>
      <trkpt lat="62.64367946331" lon="17.869795225398">
        <ele>81</ele>
        <time>2018-03-29T10:53:29Z</time>
      </trkpt>
      <trkpt lat="62.643688767219" lon="17.869723057239">
        <ele>81</ele>
        <time>2018-03-29T10:53:30Z</time>
      </trkpt>
      <trkpt lat="62.64369790349" lon="17.86965088908">
        <ele>81</ele>
        <time>2018-03-29T10:53:31Z</time>
      </trkpt>
      <trkpt lat="62.643706033933" lon="17.869585845536">
        <ele>81.2</ele>
        <time>2018-03-29T10:53:32Z</time>
      </trkpt>
      <trkpt lat="62.643714834928" lon="17.869517365413">
        <ele>81.2</ele>
        <time>2018-03-29T10:53:33Z</time>
      </trkpt>
      <trkpt lat="62.643715337842" lon="17.869437653544">
        <ele>81.2</ele>
        <time>2018-03-29T10:53:34Z</time>
      </trkpt>
      <trkpt lat="62.643716846584" lon="17.869376884769">
        <ele>81</ele>
        <time>2018-03-29T10:53:35Z</time>
      </trkpt>
      <trkpt lat="62.643719444973" lon="17.869305219524">
        <ele>81</ele>
        <time>2018-03-29T10:53:36Z</time>
      </trkpt>
      <trkpt lat="62.643720115525" lon="17.86924185236">
        <ele>81</ele>
        <time>2018-03-29T10:53:37Z</time>
      </trkpt>
      <trkpt lat="62.643717936231" lon="17.869189968399">
        <ele>81</ele>
        <time>2018-03-29T10:53:38Z</time>
      </trkpt>
      <trkpt lat="62.64371718186" lon="17.869135066954">
        <ele>81.2</ele>
        <time>2018-03-29T10:53:39Z</time>
      </trkpt>
      <trkpt lat="62.643716930403" lon="17.869072621799">
        <ele>81.2</ele>
        <time>2018-03-29T10:53:40Z</time>
      </trkpt>
      <trkpt lat="62.643714248195" lon="17.869017971811">
        <ele>81.2</ele>
        <time>2018-03-29T10:53:41Z</time>
      </trkpt>
      <trkpt lat="62.643708045589" lon="17.868962148357">
        <ele>81.2</ele>
        <time>2018-03-29T10:53:42Z</time>
      </trkpt>
      <trkpt lat="62.643702681173" lon="17.868898948831">
        <ele>81.4</ele>
        <time>2018-03-29T10:53:43Z</time>
      </trkpt>
      <trkpt lat="62.643695808015" lon="17.868830049613">
        <ele>81.6</ele>
        <time>2018-03-29T10:53:44Z</time>
      </trkpt>
      <trkpt lat="62.64368784521" lon="17.868771543951">
        <ele>81.8</ele>
        <time>2018-03-29T10:53:45Z</time>
      </trkpt>
      <trkpt lat="62.643674517989" lon="17.86869283791">
        <ele>81.8</ele>
        <time>2018-03-29T10:53:46Z</time>
      </trkpt>
      <trkpt lat="62.643660101121" lon="17.868621843217">
        <ele>81.8</ele>
        <time>2018-03-29T10:53:47Z</time>
      </trkpt>
      <trkpt lat="62.643649875203" lon="17.868547076669">
        <ele>81.8</ele>
        <time>2018-03-29T10:53:48Z</time>
      </trkpt>
      <trkpt lat="62.643642834407" lon="17.868468622085">
        <ele>81.8</ele>
        <time>2018-03-29T10:53:49Z</time>
      </trkpt>
      <trkpt lat="62.643631937937" lon="17.868399555229">
        <ele>81.6</ele>
        <time>2018-03-29T10:53:50Z</time>
      </trkpt>
      <trkpt lat="62.643625567693" lon="17.868342809766">
        <ele>81.4</ele>
        <time>2018-03-29T10:53:51Z</time>
      </trkpt>
      <trkpt lat="62.6436216282" lon="17.868257649662">
        <ele>81.2</ele>
        <time>2018-03-29T10:53:52Z</time>
      </trkpt>
      <trkpt lat="62.643617856345" lon="17.868176848146">
        <ele>81.2</ele>
        <time>2018-03-29T10:53:53Z</time>
      </trkpt>
      <trkpt lat="62.643621041467" lon="17.868095795173">
        <ele>81</ele>
        <time>2018-03-29T10:53:54Z</time>
      </trkpt>
      <trkpt lat="62.643623807494" lon="17.868005689748">
        <ele>80.8</ele>
        <time>2018-03-29T10:53:55Z</time>
      </trkpt>
      <trkpt lat="62.643620706191" lon="17.867922373662">
        <ele>80.6</ele>
        <time>2018-03-29T10:53:56Z</time>
      </trkpt>
      <trkpt lat="62.643606708418" lon="17.867857246299">
        <ele>80.6</ele>
        <time>2018-03-29T10:53:57Z</time>
      </trkpt>
      <trkpt lat="62.643591537179" lon="17.867789017633">
        <ele>80.6</ele>
        <time>2018-03-29T10:53:58Z</time>
      </trkpt>
      <trkpt lat="62.643568486954" lon="17.867708299936">
        <ele>80.4</ele>
        <time>2018-03-29T10:53:59Z</time>
      </trkpt>
      <trkpt lat="62.643548202756" lon="17.867640155089">
        <ele>80.4</ele>
        <time>2018-03-29T10:54:00Z</time>
      </trkpt>
      <trkpt lat="62.643531019861" lon="17.867577458477">
        <ele>80.2</ele>
        <time>2018-03-29T10:54:01Z</time>
      </trkpt>
      <trkpt lat="62.643519788115" lon="17.867519791005">
        <ele>80.2</ele>
        <time>2018-03-29T10:54:02Z</time>
      </trkpt>
      <trkpt lat="62.643513166414" lon="17.867463296999">
        <ele>80.2</ele>
        <time>2018-03-29T10:54:03Z</time>
      </trkpt>
      <trkpt lat="62.643513166414" lon="17.867383333673">
        <ele>80.2</ele>
        <time>2018-03-29T10:54:04Z</time>
      </trkpt>
      <trkpt lat="62.643520123391" lon="17.867298257388">
        <ele>80.2</ele>
        <time>2018-03-29T10:54:05Z</time>
      </trkpt>
      <trkpt lat="62.643536803372" lon="17.867206475583">
        <ele>80.2</ele>
        <time>2018-03-29T10:54:06Z</time>
      </trkpt>
      <trkpt lat="62.64356630766" lon="17.867113185036">
        <ele>80.2</ele>
        <time>2018-03-29T10:54:07Z</time>
      </trkpt>
      <trkpt lat="62.643601092545" lon="17.867032132063">
        <ele>80</ele>
        <time>2018-03-29T10:54:08Z</time>
      </trkpt>
      <trkpt lat="62.643641828579" lon="17.866948396882">
        <ele>79.6</ele>
        <time>2018-03-29T10:54:09Z</time>
      </trkpt>
      <trkpt lat="62.643684073355" lon="17.866868182099">
        <ele>79</ele>
        <time>2018-03-29T10:54:10Z</time>
      </trkpt>
      <trkpt lat="62.643724390294" lon="17.866796600673">
        <ele>78.4</ele>
        <time>2018-03-29T10:54:11Z</time>
      </trkpt>
      <trkpt lat="62.643763533767" lon="17.866726527989">
        <ele>77.8</ele>
        <time>2018-03-29T10:54:12Z</time>
      </trkpt>
      <trkpt lat="62.643790858761" lon="17.866675985132">
        <ele>77.4</ele>
        <time>2018-03-29T10:54:13Z</time>
      </trkpt>
      <trkpt lat="62.643813908986" lon="17.866621921877">
        <ele>77.2</ele>
        <time>2018-03-29T10:54:14Z</time>
      </trkpt>
      <trkpt lat="62.643831762433" lon="17.86657976092">
        <ele>77.2</ele>
        <time>2018-03-29T10:54:15Z</time>
      </trkpt>
      <trkpt lat="62.64384374855" lon="17.866546317139">
        <ele>77.4</ele>
        <time>2018-03-29T10:54:16Z</time>
      </trkpt>
      <trkpt lat="62.643854896477" lon="17.8665143821">
        <ele>77.8</ele>
        <time>2018-03-29T10:54:17Z</time>
      </trkpt>
      <trkpt lat="62.64386805606" lon="17.866486470373">
        <ele>78.2</ele>
        <time>2018-03-29T10:54:18Z</time>
      </trkpt>
      <trkpt lat="62.643881383281" lon="17.866461827587">
        <ele>78.8</ele>
        <time>2018-03-29T10:54:19Z</time>
      </trkpt>
      <trkpt lat="62.643892782665" lon="17.866433580584">
        <ele>79.2</ele>
        <time>2018-03-29T10:54:20Z</time>
      </trkpt>
      <trkpt lat="62.643903092402" lon="17.866406004133">
        <ele>79.6</ele>
        <time>2018-03-29T10:54:21Z</time>
      </trkpt>
      <trkpt lat="62.64391415651" lon="17.866375661655">
        <ele>79.8</ele>
        <time>2018-03-29T10:54:22Z</time>
      </trkpt>
      <trkpt lat="62.643920778211" lon="17.866339954761">
        <ele>80</ele>
        <time>2018-03-29T10:54:23Z</time>
      </trkpt>
      <trkpt lat="62.643927986645" lon="17.866305337514">
        <ele>80.2</ele>
        <time>2018-03-29T10:54:24Z</time>
      </trkpt>
      <trkpt lat="62.643938380201" lon="17.866270720267">
        <ele>80.4</ele>
        <time>2018-03-29T10:54:25Z</time>
      </trkpt>
      <trkpt lat="62.643956317467" lon="17.866239036685">
        <ele>80.6</ele>
        <time>2018-03-29T10:54:26Z</time>
      </trkpt>
      <trkpt lat="62.643961346607" lon="17.866206095818">
        <ele>81</ele>
        <time>2018-03-29T10:54:27Z</time>
      </trkpt>
      <trkpt lat="62.643967549213" lon="17.866171897666">
        <ele>81.4</ele>
        <time>2018-03-29T10:54:28Z</time>
      </trkpt>
      <trkpt lat="62.643976769303" lon="17.866135268763">
        <ele>81.8</ele>
        <time>2018-03-29T10:54:29Z</time>
      </trkpt>
      <trkpt lat="62.643979786787" lon="17.866099980964">
        <ele>82.2</ele>
        <time>2018-03-29T10:54:30Z</time>
      </trkpt>
      <trkpt lat="62.643987749592" lon="17.866065447536">
        <ele>82.6</ele>
        <time>2018-03-29T10:54:31Z</time>
      </trkpt>
      <trkpt lat="62.64399462275" lon="17.866027812805">
        <ele>82.8</ele>
        <time>2018-03-29T10:54:32Z</time>
      </trkpt>
      <trkpt lat="62.644000573899" lon="17.865995039576">
        <ele>83</ele>
        <time>2018-03-29T10:54:33Z</time>
      </trkpt>
      <trkpt lat="62.644010464541" lon="17.865950950782">
        <ele>83.2</ele>
        <time>2018-03-29T10:54:34Z</time>
      </trkpt>
      <trkpt lat="62.6440155775" lon="17.865910214748">
        <ele>83.4</ele>
        <time>2018-03-29T10:54:35Z</time>
      </trkpt>
      <trkpt lat="62.644026809246" lon="17.865864030479">
        <ele>83.6</ele>
        <time>2018-03-29T10:54:36Z</time>
      </trkpt>
      <trkpt lat="62.644040304105" lon="17.865817930029">
        <ele>83.8</ele>
        <time>2018-03-29T10:54:37Z</time>
      </trkpt>
      <trkpt lat="62.644047847815" lon="17.865777193995">
        <ele>84</ele>
        <time>2018-03-29T10:54:38Z</time>
      </trkpt>
      <trkpt lat="62.644061091217" lon="17.865732769925">
        <ele>84</ele>
        <time>2018-03-29T10:54:39Z</time>
      </trkpt>
      <trkpt lat="62.644075508085" lon="17.865686082742">
        <ele>84</ele>
        <time>2018-03-29T10:54:40Z</time>
      </trkpt>
      <trkpt lat="62.644085063451" lon="17.865643083595">
        <ele>84.2</ele>
        <time>2018-03-29T10:54:41Z</time>
      </trkpt>
      <trkpt lat="62.644100318509" lon="17.86560410776">
        <ele>84.2</ele>
        <time>2018-03-29T10:54:42Z</time>
      </trkpt>
      <trkpt lat="62.644116076481" lon="17.865565634839">
        <ele>84.4</ele>
        <time>2018-03-29T10:54:43Z</time>
      </trkpt>
      <trkpt lat="62.644137869421" lon="17.865527329556">
        <ele>84.4</ele>
        <time>2018-03-29T10:54:44Z</time>
      </trkpt>
      <trkpt lat="62.644157566886" lon="17.865497909087">
        <ele>84.4</ele>
        <time>2018-03-29T10:54:45Z</time>
      </trkpt>
      <trkpt lat="62.644182293491" lon="17.865450886628">
        <ele>84.6</ele>
        <time>2018-03-29T10:54:46Z</time>
      </trkpt>
      <trkpt lat="62.644202912965" lon="17.865408390395">
        <ele>84.8</ele>
        <time>2018-03-29T10:54:47Z</time>
      </trkpt>
      <trkpt lat="62.644224202991" lon="17.865374024605">
        <ele>84.6</ele>
        <time>2018-03-29T10:54:48Z</time>
      </trkpt>
      <trkpt lat="62.644246498845" lon="17.865328762345">
        <ele>84.8</ele>
        <time>2018-03-29T10:54:49Z</time>
      </trkpt>
      <trkpt lat="62.644268040328" lon="17.865289535053">
        <ele>84.8</ele>
        <time>2018-03-29T10:54:50Z</time>
      </trkpt>
      <trkpt lat="62.644288240707" lon="17.865249637209">
        <ele>84.8</ele>
        <time>2018-03-29T10:54:51Z</time>
      </trkpt>
      <trkpt lat="62.644304501593" lon="17.865208901175">
        <ele>84.8</ele>
        <time>2018-03-29T10:54:52Z</time>
      </trkpt>
      <trkpt lat="62.644320427203" lon="17.865172607548">
        <ele>85</ele>
        <time>2018-03-29T10:54:53Z</time>
      </trkpt>
      <trkpt lat="62.644332161863" lon="17.86512969222">
        <ele>85</ele>
        <time>2018-03-29T10:54:54Z</time>
      </trkpt>
      <trkpt lat="62.644340543763" lon="17.865084597598">
        <ele>85</ele>
        <time>2018-03-29T10:54:55Z</time>
      </trkpt>
      <trkpt lat="62.644343980342" lon="17.86503497675">
        <ele>85.2</ele>
        <time>2018-03-29T10:54:56Z</time>
      </trkpt>
      <trkpt lat="62.644343896523" lon="17.864992899612">
        <ele>85.4</ele>
        <time>2018-03-29T10:54:57Z</time>
      </trkpt>
      <trkpt lat="62.644343812704" lon="17.864948056447">
        <ele>85.4</ele>
        <time>2018-03-29T10:54:58Z</time>
      </trkpt>
      <trkpt lat="62.64433995703" lon="17.864893071183">
        <ele>85.4</ele>
        <time>2018-03-29T10:54:59Z</time>
      </trkpt>
      <trkpt lat="62.644332497139" lon="17.864859711221">
        <ele>85.6</ele>
        <time>2018-03-29T10:55:00Z</time>
      </trkpt>
      <trkpt lat="62.64432403142" lon="17.864825848345">
        <ele>85.6</ele>
        <time>2018-03-29T10:55:01Z</time>
      </trkpt>
      <trkpt lat="62.644314308416" lon="17.864783855026">
        <ele>85.6</ele>
        <time>2018-03-29T10:55:02Z</time>
      </trkpt>
      <trkpt lat="62.644307016163" lon="17.864745885019">
        <ele>85.6</ele>
        <time>2018-03-29T10:55:03Z</time>
      </trkpt>
      <trkpt lat="62.644298466625" lon="17.864684780968">
        <ele>85.6</ele>
        <time>2018-03-29T10:55:04Z</time>
      </trkpt>
      <trkpt lat="62.64429385658" lon="17.864631974998">
        <ele>85.6</ele>
        <time>2018-03-29T10:55:05Z</time>
      </trkpt>
      <trkpt lat="62.644292012562" lon="17.864570703309">
        <ele>85.6</ele>
        <time>2018-03-29T10:55:06Z</time>
      </trkpt>
      <trkpt lat="62.644293269847" lon="17.864514125484">
        <ele>85.4</ele>
        <time>2018-03-29T10:55:07Z</time>
      </trkpt>
      <trkpt lat="62.644296874064" lon="17.864470455785">
        <ele>85.4</ele>
        <time>2018-03-29T10:55:08Z</time>
      </trkpt>
      <trkpt lat="62.64430391486" lon="17.864429468294">
        <ele>85.4</ele>
        <time>2018-03-29T10:55:09Z</time>
      </trkpt>
      <trkpt lat="62.644317074443" lon="17.864393677581">
        <ele>85.4</ele>
        <time>2018-03-29T10:55:10Z</time>
      </trkpt>
      <trkpt lat="62.644330066388" lon="17.864360317619">
        <ele>85.4</ele>
        <time>2018-03-29T10:55:11Z</time>
      </trkpt>
      <trkpt lat="62.64434079522" lon="17.864327209114">
        <ele>85.6</ele>
        <time>2018-03-29T10:55:12Z</time>
      </trkpt>
      <trkpt lat="62.644353284251" lon="17.864298291559">
        <ele>85.8</ele>
        <time>2018-03-29T10:55:13Z</time>
      </trkpt>
      <trkpt lat="62.644371305336" lon="17.864272978221">
        <ele>86</ele>
        <time>2018-03-29T10:55:14Z</time>
      </trkpt>
      <trkpt lat="62.644385051652" lon="17.864248167797">
        <ele>86.2</ele>
        <time>2018-03-29T10:55:15Z</time>
      </trkpt>
      <trkpt lat="62.644400390529" lon="17.86422277064">
        <ele>86.4</ele>
        <time>2018-03-29T10:55:16Z</time>
      </trkpt>
      <trkpt lat="62.644412963379" lon="17.86419846313">
        <ele>86.6</ele>
        <time>2018-03-29T10:55:17Z</time>
      </trkpt>
      <trkpt lat="62.64442461422" lon="17.864180274407">
        <ele>86.6</ele>
        <time>2018-03-29T10:55:18Z</time>
      </trkpt>
      <trkpt lat="62.644436181242" lon="17.86416325915">
        <ele>86.8</ele>
        <time>2018-03-29T10:55:19Z</time>
      </trkpt>
      <trkpt lat="62.644445904246" lon="17.864143729323">
        <ele>86.8</ele>
        <time>2018-03-29T10:55:20Z</time>
      </trkpt>
      <trkpt lat="62.644457387449" lon="17.864124870048">
        <ele>87</ele>
        <time>2018-03-29T10:55:21Z</time>
      </trkpt>
      <trkpt lat="62.64446903829" lon="17.864111794284">
        <ele>87.2</ele>
        <time>2018-03-29T10:55:22Z</time>
      </trkpt>
      <trkpt lat="62.64447825838" lon="17.864101736004">
        <ele>87.4</ele>
        <time>2018-03-29T10:55:23Z</time>
      </trkpt>
      <trkpt lat="62.644488484298" lon="17.864088827878">
        <ele>87.6</ele>
        <time>2018-03-29T10:55:24Z</time>
      </trkpt>
      <trkpt lat="62.644497955845" lon="17.864082289996">
        <ele>88</ele>
        <time>2018-03-29T10:55:25Z</time>
      </trkpt>
      <trkpt lat="62.64450759503" lon="17.864075333019">
        <ele>88.2</ele>
        <time>2018-03-29T10:55:26Z</time>
      </trkpt>
      <trkpt lat="62.644517318034" lon="17.864065442377">
        <ele>88.6</ele>
        <time>2018-03-29T10:55:27Z</time>
      </trkpt>
      <trkpt lat="62.644527963047" lon="17.864057144296">
        <ele>89</ele>
        <time>2018-03-29T10:55:28Z</time>
      </trkpt>
      <trkpt lat="62.644537350775" lon="17.864046080188">
        <ele>89.4</ele>
        <time>2018-03-29T10:55:29Z</time>
      </trkpt>
      <trkpt lat="62.644547995788" lon="17.864036273365">
        <ele>89.8</ele>
        <time>2018-03-29T10:55:30Z</time>
      </trkpt>
      <trkpt lat="62.644560149543" lon="17.864028897293">
        <ele>90</ele>
        <time>2018-03-29T10:55:31Z</time>
      </trkpt>
      <trkpt lat="62.644570878375" lon="17.86402160504">
        <ele>90.4</ele>
        <time>2018-03-29T10:55:32Z</time>
      </trkpt>
      <trkpt lat="62.644579008818" lon="17.864012049674">
        <ele>90.6</ele>
        <time>2018-03-29T10:55:33Z</time>
      </trkpt>
      <trkpt lat="62.64458889946" lon="17.864007104353">
        <ele>91</ele>
        <time>2018-03-29T10:55:34Z</time>
      </trkpt>
      <trkpt lat="62.644596191713" lon="17.863998890091">
        <ele>91</ele>
        <time>2018-03-29T10:55:35Z</time>
      </trkpt>
      <trkpt lat="62.644610273305" lon="17.863987574526">
        <ele>91.4</ele>
        <time>2018-03-29T10:55:36Z</time>
      </trkpt>
      <trkpt lat="62.644623600526" lon="17.863981204282">
        <ele>91.6</ele>
        <time>2018-03-29T10:55:37Z</time>
      </trkpt>
      <trkpt lat="62.644634748453" lon="17.863974750219">
        <ele>91.6</ele>
        <time>2018-03-29T10:55:38Z</time>
      </trkpt>
      <trkpt lat="62.644646986027" lon="17.863969385803">
        <ele>91.8</ele>
        <time>2018-03-29T10:55:39Z</time>
      </trkpt>
      <trkpt lat="62.644660229429" lon="17.86395957898">
        <ele>92.2</ele>
        <time>2018-03-29T10:55:40Z</time>
      </trkpt>
      <trkpt lat="62.644674478659" lon="17.863943821008">
        <ele>92.4</ele>
        <time>2018-03-29T10:55:41Z</time>
      </trkpt>
      <trkpt lat="62.644687470604" lon="17.863932505443">
        <ele>92.6</ele>
        <time>2018-03-29T10:55:42Z</time>
      </trkpt>
      <trkpt lat="62.644699205264" lon="17.863923872086">
        <ele>92.8</ele>
        <time>2018-03-29T10:55:43Z</time>
      </trkpt>
      <trkpt lat="62.644713035399" lon="17.863913310892">
        <ele>93.2</ele>
        <time>2018-03-29T10:55:44Z</time>
      </trkpt>
      <trkpt lat="62.644725775887" lon="17.863900151309">
        <ele>93.2</ele>
        <time>2018-03-29T10:55:45Z</time>
      </trkpt>
      <trkpt lat="62.644738348737" lon="17.863889087201">
        <ele>93.4</ele>
        <time>2018-03-29T10:55:46Z</time>
      </trkpt>
      <trkpt lat="62.644754274347" lon="17.863881543491">
        <ele>93.6</ele>
        <time>2018-03-29T10:55:47Z</time>
      </trkpt>
      <trkpt lat="62.644767769206" lon="17.86387659817">
        <ele>93.8</ele>
        <time>2018-03-29T10:55:48Z</time>
      </trkpt>
      <trkpt lat="62.644781264065" lon="17.863864360596">
        <ele>93.8</ele>
        <time>2018-03-29T10:55:49Z</time>
      </trkpt>
      <trkpt lat="62.644795178019" lon="17.863856313972">
        <ele>94</ele>
        <time>2018-03-29T10:55:50Z</time>
      </trkpt>
      <trkpt lat="62.644809427249" lon="17.863848434986">
        <ele>94.2</ele>
        <time>2018-03-29T10:55:51Z</time>
      </trkpt>
      <trkpt lat="62.644822922108" lon="17.863835778317">
        <ele>94.6</ele>
        <time>2018-03-29T10:55:52Z</time>
      </trkpt>
      <trkpt lat="62.644836500786" lon="17.863828318426">
        <ele>94.8</ele>
        <time>2018-03-29T10:55:53Z</time>
      </trkpt>
      <trkpt lat="62.644851420568" lon="17.863813901558">
        <ele>95</ele>
        <time>2018-03-29T10:55:54Z</time>
      </trkpt>
      <trkpt lat="62.644865083065" lon="17.863801328708">
        <ele>95.2</ele>
        <time>2018-03-29T10:55:55Z</time>
      </trkpt>
      <trkpt lat="62.644877823553" lon="17.863790516057">
        <ele>95.4</ele>
        <time>2018-03-29T10:55:56Z</time>
      </trkpt>
      <trkpt lat="62.644888468566" lon="17.863777859388">
        <ele>95.6</ele>
        <time>2018-03-29T10:55:57Z</time>
      </trkpt>
      <trkpt lat="62.644900454683" lon="17.863766208547">
        <ele>95.8</ele>
        <time>2018-03-29T10:55:58Z</time>
      </trkpt>
      <trkpt lat="62.64491411718" lon="17.863754138611">
        <ele>96</ele>
        <time>2018-03-29T10:55:59Z</time>
      </trkpt>
      <trkpt lat="62.644927779677" lon="17.863745924349">
        <ele>96.2</ele>
        <time>2018-03-29T10:56:00Z</time>
      </trkpt>
      <trkpt lat="62.644941609812" lon="17.863730501653">
        <ele>96.4</ele>
        <time>2018-03-29T10:56:01Z</time>
      </trkpt>
      <trkpt lat="62.64495267392" lon="17.863715414233">
        <ele>96.4</ele>
        <time>2018-03-29T10:56:02Z</time>
      </trkpt>
      <trkpt lat="62.644966001141" lon="17.863702003193">
        <ele>96.6</ele>
        <time>2018-03-29T10:56:03Z</time>
      </trkpt>
      <trkpt lat="62.644979915095" lon="17.863688927429">
        <ele>97</ele>
        <time>2018-03-29T10:56:04Z</time>
      </trkpt>
      <trkpt lat="62.64499123066" lon="17.863676438398">
        <ele>97</ele>
        <time>2018-03-29T10:56:05Z</time>
      </trkpt>
      <trkpt lat="62.645001456578" lon="17.863662692082">
        <ele>97.2</ele>
        <time>2018-03-29T10:56:06Z</time>
      </trkpt>
      <trkpt lat="62.645012520686" lon="17.863653471992">
        <ele>97.4</ele>
        <time>2018-03-29T10:56:07Z</time>
      </trkpt>
      <trkpt lat="62.645024087708" lon="17.863649616318">
        <ele>97.6</ele>
        <time>2018-03-29T10:56:08Z</time>
      </trkpt>
      <trkpt lat="62.6450381693" lon="17.863643162255">
        <ele>98</ele>
        <time>2018-03-29T10:56:09Z</time>
      </trkpt>
      <trkpt lat="62.645052083254" lon="17.863628326292">
        <ele>98.4</ele>
        <time>2018-03-29T10:56:10Z</time>
      </trkpt>
      <trkpt lat="62.645066081027" lon="17.863611897768">
        <ele>99</ele>
        <time>2018-03-29T10:56:11Z</time>
      </trkpt>
      <trkpt lat="62.645081838999" lon="17.86359915728">
        <ele>99.2</ele>
        <time>2018-03-29T10:56:12Z</time>
      </trkpt>
      <trkpt lat="62.645095836772" lon="17.863579711272">
        <ele>99.8</ele>
        <time>2018-03-29T10:56:13Z</time>
      </trkpt>
      <trkpt lat="62.645112935848" lon="17.86356562968">
        <ele>100</ele>
        <time>2018-03-29T10:56:14Z</time>
      </trkpt>
      <trkpt lat="62.645130454019" lon="17.863561857825">
        <ele>100.2</ele>
        <time>2018-03-29T10:56:15Z</time>
      </trkpt>
      <trkpt lat="62.645151157312" lon="17.863551045174">
        <ele>100.4</ele>
        <time>2018-03-29T10:56:16Z</time>
      </trkpt>
      <trkpt lat="62.645171944424" lon="17.863540316342">
        <ele>100.4</ele>
        <time>2018-03-29T10:56:17Z</time>
      </trkpt>
      <trkpt lat="62.645189378776" lon="17.863538220867">
        <ele>100.4</ele>
        <time>2018-03-29T10:56:18Z</time>
      </trkpt>
      <trkpt lat="62.645208489508" lon="17.863529336053">
        <ele>100.6</ele>
        <time>2018-03-29T10:56:19Z</time>
      </trkpt>
      <trkpt lat="62.645224415118" lon="17.863517182298">
        <ele>100.8</ele>
        <time>2018-03-29T10:56:20Z</time>
      </trkpt>
      <trkpt lat="62.645245034592" lon="17.863507375475">
        <ele>101</ele>
        <time>2018-03-29T10:56:21Z</time>
      </trkpt>
      <trkpt lat="62.645265570247" lon="17.863494132073">
        <ele>101.2</ele>
        <time>2018-03-29T10:56:22Z</time>
      </trkpt>
      <trkpt lat="62.645278646011" lon="17.863467226174">
        <ele>101.2</ele>
        <time>2018-03-29T10:56:23Z</time>
      </trkpt>
      <trkpt lat="62.645294152526" lon="17.863438895352">
        <ele>101.4</ele>
        <time>2018-03-29T10:56:24Z</time>
      </trkpt>
      <trkpt lat="62.645310748688" lon="17.863416599498">
        <ele>101.6</ele>
        <time>2018-03-29T10:56:25Z</time>
      </trkpt>
      <trkpt lat="62.645322399529" lon="17.863382149889">
        <ele>101.8</ele>
        <time>2018-03-29T10:56:26Z</time>
      </trkpt>
      <trkpt lat="62.645333715094" lon="17.863348119375">
        <ele>102</ele>
        <time>2018-03-29T10:56:27Z</time>
      </trkpt>
      <trkpt lat="62.645342767546" lon="17.863308472988">
        <ele>102.2</ele>
        <time>2018-03-29T10:56:28Z</time>
      </trkpt>
      <trkpt lat="62.645351987636" lon="17.863273520465">
        <ele>102.2</ele>
        <time>2018-03-29T10:56:29Z</time>
      </trkpt>
      <trkpt lat="62.645361626821" lon="17.863226246549">
        <ele>102.4</ele>
        <time>2018-03-29T10:56:30Z</time>
      </trkpt>
      <trkpt lat="62.645366572142" lon="17.863182073936">
        <ele>102.6</ele>
        <time>2018-03-29T10:56:31Z</time>
      </trkpt>
      <trkpt lat="62.645375792232" lon="17.863132536907">
        <ele>102.6</ele>
        <time>2018-03-29T10:56:32Z</time>
      </trkpt>
      <trkpt lat="62.645380067001" lon="17.863088867208">
        <ele>102.8</ele>
        <time>2018-03-29T10:56:33Z</time>
      </trkpt>
      <trkpt lat="62.645389790005" lon="17.863029942451">
        <ele>102.8</ele>
        <time>2018-03-29T10:56:34Z</time>
      </trkpt>
      <trkpt lat="62.645398842457" lon="17.862973616083">
        <ele>102.8</ele>
        <time>2018-03-29T10:56:35Z</time>
      </trkpt>
      <trkpt lat="62.645409571289" lon="17.862913434041">
        <ele>102.8</ele>
        <time>2018-03-29T10:56:36Z</time>
      </trkpt>
      <trkpt lat="62.64542541308" lon="17.862861885356">
        <ele>102.8</ele>
        <time>2018-03-29T10:56:37Z</time>
      </trkpt>
      <trkpt lat="62.645435890455" lon="17.862816623096">
        <ele>102.8</ele>
        <time>2018-03-29T10:56:38Z</time>
      </trkpt>
      <trkpt lat="62.645451061694" lon="17.862778820727">
        <ele>102.8</ele>
        <time>2018-03-29T10:56:39Z</time>
      </trkpt>
      <trkpt lat="62.645470926797" lon="17.862739844892">
        <ele>102.8</ele>
        <time>2018-03-29T10:56:40Z</time>
      </trkpt>
      <trkpt lat="62.645488528787" lon="17.862701120514">
        <ele>102.8</ele>
        <time>2018-03-29T10:56:41Z</time>
      </trkpt>
      <trkpt lat="62.645504119121" lon="17.862665832715">
        <ele>102.8</ele>
        <time>2018-03-29T10:56:42Z</time>
      </trkpt>
      <trkpt lat="62.645521218197" lon="17.86263188602">
        <ele>103</ele>
        <time>2018-03-29T10:56:43Z</time>
      </trkpt>
      <trkpt lat="62.645536640893" lon="17.862588970692">
        <ele>103.2</ele>
        <time>2018-03-29T10:56:44Z</time>
      </trkpt>
      <trkpt lat="62.645550387209" lon="17.862555023997">
        <ele>103.4</ele>
        <time>2018-03-29T10:56:45Z</time>
      </trkpt>
      <trkpt lat="62.645565474629" lon="17.862514204144">
        <ele>103.4</ele>
        <time>2018-03-29T10:56:46Z</time>
      </trkpt>
      <trkpt lat="62.645573605072" lon="17.862475060671">
        <ele>103.6</ele>
        <time>2018-03-29T10:56:47Z</time>
      </trkpt>
      <trkpt lat="62.645579723859" lon="17.862435330465">
        <ele>103.8</ele>
        <time>2018-03-29T10:56:48Z</time>
      </trkpt>
      <trkpt lat="62.645589614501" lon="17.862393169508">
        <ele>104</ele>
        <time>2018-03-29T10:56:49Z</time>
      </trkpt>
      <trkpt lat="62.645597158211" lon="17.86234690142">
        <ele>104.2</ele>
        <time>2018-03-29T10:56:50Z</time>
      </trkpt>
      <trkpt lat="62.645599505143" lon="17.862294430726">
        <ele>104.4</ele>
        <time>2018-03-29T10:56:51Z</time>
      </trkpt>
      <trkpt lat="62.645604618102" lon="17.86224045129">
        <ele>104.6</ele>
        <time>2018-03-29T10:56:52Z</time>
      </trkpt>
      <trkpt lat="62.645607970862" lon="17.862199212342">
        <ele>104.6</ele>
        <time>2018-03-29T10:56:53Z</time>
      </trkpt>
      <trkpt lat="62.645615263115" lon="17.862154369177">
        <ele>104.8</ele>
        <time>2018-03-29T10:56:54Z</time>
      </trkpt>
      <trkpt lat="62.645625991947" lon="17.862117153541">
        <ele>104.8</ele>
        <time>2018-03-29T10:56:55Z</time>
      </trkpt>
      <trkpt lat="62.645638648616" lon="17.862081949561">
        <ele>105</ele>
        <time>2018-03-29T10:56:56Z</time>
      </trkpt>
      <trkpt lat="62.645656334425" lon="17.862055630395">
        <ele>105.2</ele>
        <time>2018-03-29T10:56:57Z</time>
      </trkpt>
      <trkpt lat="62.645680725754" lon="17.862040375337">
        <ele>105.4</ele>
        <time>2018-03-29T10:56:58Z</time>
      </trkpt>
      <trkpt lat="62.64570536854" lon="17.862028305401">
        <ele>105.4</ele>
        <time>2018-03-29T10:56:59Z</time>
      </trkpt>
      <trkpt lat="62.64573135243" lon="17.862023862994">
        <ele>105.6</ele>
        <time>2018-03-29T10:57:00Z</time>
      </trkpt>
      <trkpt lat="62.645756665768" lon="17.862020342596">
        <ele>105.8</ele>
        <time>2018-03-29T10:57:01Z</time>
      </trkpt>
      <trkpt lat="62.645792791757" lon="17.862034675645">
        <ele>105.8</ele>
        <time>2018-03-29T10:57:03Z</time>
      </trkpt>
      <trkpt lat="62.64581684781" lon="17.862023611537">
        <ele>106</ele>
        <time>2018-03-29T10:57:04Z</time>
      </trkpt>
      <trkpt lat="62.645840233311" lon="17.862000058398">
        <ele>106.2</ele>
        <time>2018-03-29T10:57:05Z</time>
      </trkpt>
      <trkpt lat="62.645866720115" lon="17.861960998744">
        <ele>106.2</ele>
        <time>2018-03-29T10:57:06Z</time>
      </trkpt>
      <trkpt lat="62.645889854159" lon="17.86192529185">
        <ele>106.2</ele>
        <time>2018-03-29T10:57:07Z</time>
      </trkpt>
      <trkpt lat="62.645907623787" lon="17.8618875733">
        <ele>106.4</ele>
        <time>2018-03-29T10:57:08Z</time>
      </trkpt>
      <trkpt lat="62.645923130302" lon="17.86184901656">
        <ele>106.4</ele>
        <time>2018-03-29T10:57:09Z</time>
      </trkpt>
      <trkpt lat="62.645939642645" lon="17.861807023241">
        <ele>106.4</ele>
        <time>2018-03-29T10:57:10Z</time>
      </trkpt>
      <trkpt lat="62.645954646246" lon="17.86176016842">
        <ele>106.4</ele>
        <time>2018-03-29T10:57:11Z</time>
      </trkpt>
      <trkpt lat="62.645971745322" lon="17.861725299716">
        <ele>106.4</ele>
        <time>2018-03-29T10:57:12Z</time>
      </trkpt>
      <trkpt lat="62.645986916561" lon="17.861676517058">
        <ele>106.4</ele>
        <time>2018-03-29T10:57:13Z</time>
      </trkpt>
      <trkpt lat="62.64600711694" lon="17.861623459631">
        <ele>106.6</ele>
        <time>2018-03-29T10:57:14Z</time>
      </trkpt>
      <trkpt lat="62.646026060034" lon="17.861575179887">
        <ele>106.6</ele>
        <time>2018-03-29T10:57:15Z</time>
      </trkpt>
      <trkpt lat="62.646042404739" lon="17.861527822152">
        <ele>106.8</ele>
        <time>2018-03-29T10:57:16Z</time>
      </trkpt>
      <trkpt lat="62.646056486331" lon="17.861483146625">
        <ele>106.8</ele>
        <time>2018-03-29T10:57:17Z</time>
      </trkpt>
      <trkpt lat="62.646068137172" lon="17.861440650392">
        <ele>106.8</ele>
        <time>2018-03-29T10:57:18Z</time>
      </trkpt>
      <trkpt lat="62.646086409714" lon="17.861396226322">
        <ele>107</ele>
        <time>2018-03-29T10:57:19Z</time>
      </trkpt>
      <trkpt lat="62.646103760247" lon="17.861358507772">
        <ele>107.4</ele>
        <time>2018-03-29T10:57:20Z</time>
      </trkpt>
      <trkpt lat="62.646118512391" lon="17.861325315448">
        <ele>107.6</ele>
        <time>2018-03-29T10:57:21Z</time>
      </trkpt>
      <trkpt lat="62.646138377494" lon="17.861299750653">
        <ele>107.8</ele>
        <time>2018-03-29T10:57:22Z</time>
      </trkpt>
      <trkpt lat="62.646160589529" lon="17.861278795903">
        <ele>108</ele>
        <time>2018-03-29T10:57:23Z</time>
      </trkpt>
      <trkpt lat="62.646187076333" lon="17.861248537244">
        <ele>108</ele>
        <time>2018-03-29T10:57:24Z</time>
      </trkpt>
      <trkpt lat="62.646216245345" lon="17.861204196993">
        <ele>108</ele>
        <time>2018-03-29T10:57:25Z</time>
      </trkpt>
      <trkpt lat="62.646251114049" lon="17.861157342172">
        <ele>108.2</ele>
        <time>2018-03-29T10:57:26Z</time>
      </trkpt>
      <trkpt lat="62.646293358825" lon="17.861114343025">
        <ele>108.2</ele>
        <time>2018-03-29T10:57:27Z</time>
      </trkpt>
      <trkpt lat="62.646338118171" lon="17.861060615046">
        <ele>108</ele>
        <time>2018-03-29T10:57:28Z</time>
      </trkpt>
      <trkpt lat="62.646382458422" lon="17.861003618126">
        <ele>107.8</ele>
        <time>2018-03-29T10:57:29Z</time>
      </trkpt>
      <trkpt lat="62.646422104809" lon="17.860954751649">
        <ele>107.2</ele>
        <time>2018-03-29T10:57:30Z</time>
      </trkpt>
      <trkpt lat="62.646460661549" lon="17.860923738619">
        <ele>106.8</ele>
        <time>2018-03-29T10:57:31Z</time>
      </trkpt>
      <trkpt lat="62.646501397583" lon="17.860886942078">
        <ele>106.2</ele>
        <time>2018-03-29T10:57:32Z</time>
      </trkpt>
      <trkpt lat="62.646534422269" lon="17.860845116397">
        <ele>105.6</ele>
        <time>2018-03-29T10:57:33Z</time>
      </trkpt>
      <trkpt lat="62.646573398104" lon="17.860798513033">
        <ele>105.4</ele>
        <time>2018-03-29T10:57:34Z</time>
      </trkpt>
      <trkpt lat="62.646612541577" lon="17.860752328764">
        <ele>105.2</ele>
        <time>2018-03-29T10:57:35Z</time>
      </trkpt>
      <trkpt lat="62.646652020326" lon="17.860703378468">
        <ele>105.6</ele>
        <time>2018-03-29T10:57:36Z</time>
      </trkpt>
      <trkpt lat="62.646684039184" lon="17.86066465409">
        <ele>105.8</ele>
        <time>2018-03-29T10:57:37Z</time>
      </trkpt>
      <trkpt lat="62.646717650603" lon="17.860624001875">
        <ele>105.8</ele>
        <time>2018-03-29T10:57:38Z</time>
      </trkpt>
      <trkpt lat="62.646748244538" lon="17.860584858402">
        <ele>105.6</ele>
        <time>2018-03-29T10:57:39Z</time>
      </trkpt>
      <trkpt lat="62.64677657536" lon="17.860550827888">
        <ele>105.8</ele>
        <time>2018-03-29T10:57:40Z</time>
      </trkpt>
      <trkpt lat="62.64680926477" lon="17.860520317772">
        <ele>105.6</ele>
        <time>2018-03-29T10:57:41Z</time>
      </trkpt>
      <trkpt lat="62.64684195418" lon="17.860493160416">
        <ele>105.8</ele>
        <time>2018-03-29T10:57:42Z</time>
      </trkpt>
      <trkpt lat="62.646869698269" lon="17.860471535114">
        <ele>105.8</ele>
        <time>2018-03-29T10:57:43Z</time>
      </trkpt>
      <trkpt lat="62.646897777634" lon="17.860446305595">
        <ele>105.8</ele>
        <time>2018-03-29T10:57:44Z</time>
      </trkpt>
      <trkpt lat="62.646925270266" lon="17.860421746628">
        <ele>105.8</ele>
        <time>2018-03-29T10:57:45Z</time>
      </trkpt>
      <trkpt lat="62.646951086518" lon="17.860397020023">
        <ele>106</ele>
        <time>2018-03-29T10:57:46Z</time>
      </trkpt>
      <trkpt lat="62.646980674625" lon="17.860359217654">
        <ele>106</ele>
        <time>2018-03-29T10:57:47Z</time>
      </trkpt>
      <trkpt lat="62.647012442026" lon="17.860313284842">
        <ele>106.2</ele>
        <time>2018-03-29T10:57:48Z</time>
      </trkpt>
      <trkpt lat="62.64704228159" lon="17.860255952646">
        <ele>106</ele>
        <time>2018-03-29T10:57:49Z</time>
      </trkpt>
      <trkpt lat="62.647065415634" lon="17.860203984866">
        <ele>106.2</ele>
        <time>2018-03-29T10:57:50Z</time>
      </trkpt>
      <trkpt lat="62.647094081732" lon="17.860146568851">
        <ele>106</ele>
        <time>2018-03-29T10:57:51Z</time>
      </trkpt>
      <trkpt lat="62.647117970147" lon="17.860097870012">
        <ele>106.2</ele>
        <time>2018-03-29T10:57:52Z</time>
      </trkpt>
      <trkpt lat="62.647134063395" lon="17.860055541417">
        <ele>106</ele>
        <time>2018-03-29T10:57:53Z</time>
      </trkpt>
      <trkpt lat="62.647154766688" lon="17.860004663284">
        <ele>105.8</ele>
        <time>2018-03-29T10:57:54Z</time>
      </trkpt>
      <trkpt lat="62.647173206868" lon="17.859954958617">
        <ele>105.6</ele>
        <time>2018-03-29T10:57:55Z</time>
      </trkpt>
      <trkpt lat="62.64719147941" lon="17.859904080484">
        <ele>105.6</ele>
        <time>2018-03-29T10:57:56Z</time>
      </trkpt>
      <trkpt lat="62.647210506323" lon="17.859852196523">
        <ele>105.6</ele>
        <time>2018-03-29T10:57:57Z</time>
      </trkpt>
      <trkpt lat="62.647229952331" lon="17.859795115784">
        <ele>105.6</ele>
        <time>2018-03-29T10:57:58Z</time>
      </trkpt>
      <trkpt lat="62.647262138827" lon="17.859721271245">
        <ele>105.8</ele>
        <time>2018-03-29T10:57:59Z</time>
      </trkpt>
      <trkpt lat="62.647288960907" lon="17.859655892425">
        <ele>106</ele>
        <time>2018-03-29T10:58:00Z</time>
      </trkpt>
      <trkpt lat="62.647308155458" lon="17.859595458926">
        <ele>106</ele>
        <time>2018-03-29T10:58:01Z</time>
      </trkpt>
      <trkpt lat="62.647327601466" lon="17.859526894984">
        <ele>105.8</ele>
        <time>2018-03-29T10:58:02Z</time>
      </trkpt>
      <trkpt lat="62.64734151542" lon="17.859465288019">
        <ele>105.8</ele>
        <time>2018-03-29T10:58:03Z</time>
      </trkpt>
      <trkpt lat="62.647358027763" lon="17.859375601689">
        <ele>105.8</ele>
        <time>2018-03-29T10:58:04Z</time>
      </trkpt>
      <trkpt lat="62.647364649464" lon="17.859307792118">
        <ele>105.6</ele>
        <time>2018-03-29T10:58:05Z</time>
      </trkpt>
      <trkpt lat="62.647370684432" lon="17.859220285082">
        <ele>105.6</ele>
        <time>2018-03-29T10:58:06Z</time>
      </trkpt>
      <trkpt lat="62.64737588121" lon="17.859146524362">
        <ele>105.6</ele>
        <time>2018-03-29T10:58:07Z</time>
      </trkpt>
      <trkpt lat="62.647383173463" lon="17.859073350375">
        <ele>105.2</ele>
        <time>2018-03-29T10:58:08Z</time>
      </trkpt>
      <trkpt lat="62.64739096863" lon="17.858994392877">
        <ele>105.2</ele>
        <time>2018-03-29T10:58:09Z</time>
      </trkpt>
      <trkpt lat="62.647398679978" lon="17.858918788139">
        <ele>105</ele>
        <time>2018-03-29T10:58:10Z</time>
      </trkpt>
      <trkpt lat="62.647407061878" lon="17.85884075265">
        <ele>104.8</ele>
        <time>2018-03-29T10:58:11Z</time>
      </trkpt>
      <trkpt lat="62.647412593932" lon="17.858762046609">
        <ele>104.6</ele>
        <time>2018-03-29T10:58:12Z</time>
      </trkpt>
      <trkpt lat="62.647412258656" lon="17.858691890106">
        <ele>104.4</ele>
        <time>2018-03-29T10:58:13Z</time>
      </trkpt>
      <trkpt lat="62.64741276157" lon="17.858600443577">
        <ele>104.6</ele>
        <time>2018-03-29T10:58:14Z</time>
      </trkpt>
      <trkpt lat="62.647408822077" lon="17.858525509391">
        <ele>104.4</ele>
        <time>2018-03-29T10:58:15Z</time>
      </trkpt>
      <trkpt lat="62.647407900068" lon="17.858450826662">
        <ele>104.4</ele>
        <time>2018-03-29T10:58:16Z</time>
      </trkpt>
      <trkpt lat="62.647408989715" lon="17.858375641019">
        <ele>104.4</ele>
        <time>2018-03-29T10:58:17Z</time>
      </trkpt>
      <trkpt lat="62.647408905896" lon="17.858313279683">
        <ele>104.6</ele>
        <time>2018-03-29T10:58:18Z</time>
      </trkpt>
      <trkpt lat="62.647412091018" lon="17.858246895035">
        <ele>104.4</ele>
        <time>2018-03-29T10:58:19Z</time>
      </trkpt>
      <trkpt lat="62.647422065479" lon="17.858172044668">
        <ele>104.4</ele>
        <time>2018-03-29T10:58:20Z</time>
      </trkpt>
      <trkpt lat="62.64743036356" lon="17.858093841541">
        <ele>104.6</ele>
        <time>2018-03-29T10:58:21Z</time>
      </trkpt>
      <trkpt lat="62.64743958365" lon="17.858004909582">
        <ele>104.6</ele>
        <time>2018-03-29T10:58:22Z</time>
      </trkpt>
      <trkpt lat="62.647448971378" lon="17.857927544645">
        <ele>104.6</ele>
        <time>2018-03-29T10:58:23Z</time>
      </trkpt>
      <trkpt lat="62.647455257803" lon="17.857851436993">
        <ele>104.6</ele>
        <time>2018-03-29T10:58:24Z</time>
      </trkpt>
      <trkpt lat="62.647458442925" lon="17.85776786945">
        <ele>104.6</ele>
        <time>2018-03-29T10:58:25Z</time>
      </trkpt>
      <trkpt lat="62.647462382418" lon="17.857685056278">
        <ele>104.6</ele>
        <time>2018-03-29T10:58:26Z</time>
      </trkpt>
      <trkpt lat="62.647467746834" lon="17.857612217567">
        <ele>104.6</ele>
        <time>2018-03-29T10:58:27Z</time>
      </trkpt>
      <trkpt lat="62.647479146218" lon="17.8575289853">
        <ele>104.4</ele>
        <time>2018-03-29T10:58:28Z</time>
      </trkpt>
      <trkpt lat="62.647492305801" lon="17.857452374734">
        <ele>104.4</ele>
        <time>2018-03-29T10:58:29Z</time>
      </trkpt>
      <trkpt lat="62.647507728497" lon="17.857375261254">
        <ele>104.4</ele>
        <time>2018-03-29T10:58:30Z</time>
      </trkpt>
      <trkpt lat="62.647518708786" lon="17.857305272389">
        <ele>104.4</ele>
        <time>2018-03-29T10:58:31Z</time>
      </trkpt>
      <trkpt lat="62.647528012695" lon="17.857242827234">
        <ele>104.4</ele>
        <time>2018-03-29T10:58:32Z</time>
      </trkpt>
      <trkpt lat="62.647537484242" lon="17.857183148106">
        <ele>104.4</ele>
        <time>2018-03-29T10:58:33Z</time>
      </trkpt>
      <trkpt lat="62.647549721816" lon="17.857114667983">
        <ele>104.6</ele>
        <time>2018-03-29T10:58:34Z</time>
      </trkpt>
      <trkpt lat="62.647557852259" lon="17.857055072674">
        <ele>104.6</ele>
        <time>2018-03-29T10:58:35Z</time>
      </trkpt>
      <trkpt lat="62.64756531215" lon="17.856991789329">
        <ele>104.6</ele>
        <time>2018-03-29T10:58:36Z</time>
      </trkpt>
      <trkpt lat="62.647573945507" lon="17.856929930907">
        <ele>104.6</ele>
        <time>2018-03-29T10:58:37Z</time>
      </trkpt>
      <trkpt lat="62.647579812837" lon="17.856871257607">
        <ele>104.8</ele>
        <time>2018-03-29T10:58:38Z</time>
      </trkpt>
      <trkpt lat="62.647584841977" lon="17.856815853248">
        <ele>104.8</ele>
        <time>2018-03-29T10:58:39Z</time>
      </trkpt>
      <trkpt lat="62.647584758158" lon="17.856764220744">
        <ele>105.2</ele>
        <time>2018-03-29T10:58:40Z</time>
      </trkpt>
      <trkpt lat="62.647585931624" lon="17.856710408946">
        <ele>105.4</ele>
        <time>2018-03-29T10:58:41Z</time>
      </trkpt>
      <trkpt lat="62.647588446194" lon="17.856647125601">
        <ele>105.6</ele>
        <time>2018-03-29T10:58:42Z</time>
      </trkpt>
      <trkpt lat="62.647591128402" lon="17.85659188888">
        <ele>105.8</ele>
        <time>2018-03-29T10:58:43Z</time>
      </trkpt>
      <trkpt lat="62.647596911913" lon="17.856526426241">
        <ele>105.8</ele>
        <time>2018-03-29T10:58:44Z</time>
      </trkpt>
      <trkpt lat="62.647604623261" lon="17.856464400181">
        <ele>105.8</ele>
        <time>2018-03-29T10:58:45Z</time>
      </trkpt>
      <trkpt lat="62.647617699025" lon="17.85638150319">
        <ele>106</ele>
        <time>2018-03-29T10:58:46Z</time>
      </trkpt>
      <trkpt lat="62.647634630463" lon="17.856291397765">
        <ele>105.8</ele>
        <time>2018-03-29T10:58:47Z</time>
      </trkpt>
      <trkpt lat="62.64765416029" lon="17.856205986204">
        <ele>105.8</ele>
        <time>2018-03-29T10:58:48Z</time>
      </trkpt>
      <trkpt lat="62.647678132524" lon="17.856102972653">
        <ele>105.4</ele>
        <time>2018-03-29T10:58:49Z</time>
      </trkpt>
      <trkpt lat="62.647702607672" lon="17.856014627427">
        <ele>105</ele>
        <time>2018-03-29T10:58:50Z</time>
      </trkpt>
      <trkpt lat="62.647730016485" lon="17.855927371848">
        <ele>104.6</ele>
        <time>2018-03-29T10:58:51Z</time>
      </trkpt>
      <trkpt lat="62.647764549913" lon="17.855832069645">
        <ele>104.2</ele>
        <time>2018-03-29T10:58:52Z</time>
      </trkpt>
      <trkpt lat="62.647798999522" lon="17.855745903713">
        <ele>103.8</ele>
        <time>2018-03-29T10:58:53Z</time>
      </trkpt>
      <trkpt lat="62.647843926506" lon="17.855651104424">
        <ele>103.6</ele>
        <time>2018-03-29T10:58:54Z</time>
      </trkpt>
      <trkpt lat="62.647890446051" lon="17.855571057279">
        <ele>103.2</ele>
        <time>2018-03-29T10:58:55Z</time>
      </trkpt>
      <trkpt lat="62.647939815442" lon="17.855488747021">
        <ele>102.6</ele>
        <time>2018-03-29T10:58:56Z</time>
      </trkpt>
      <trkpt lat="62.648061604449" lon="17.855436192508">
        <ele>101.8</ele>
        <time>2018-03-29T10:58:58Z</time>
      </trkpt>
      <trkpt lat="62.648124720156" lon="17.855440383458">
        <ele>101</ele>
        <time>2018-03-29T10:58:59Z</time>
      </trkpt>
      <trkpt lat="62.648181046524" lon="17.855446334607">
        <ele>99.8</ele>
        <time>2018-03-29T10:59:00Z</time>
      </trkpt>
      <trkpt lat="62.648237037616" lon="17.855455470878">
        <ele>98.6</ele>
        <time>2018-03-29T10:59:01Z</time>
      </trkpt>
      <trkpt lat="62.648290514138" lon="17.855450441738">
        <ele>98</ele>
        <time>2018-03-29T10:59:02Z</time>
      </trkpt>
      <trkpt lat="62.648332088362" lon="17.855430576635">
        <ele>98</ele>
        <time>2018-03-29T10:59:03Z</time>
      </trkpt>
      <trkpt lat="62.648380200468" lon="17.855396965216">
        <ele>98.4</ele>
        <time>2018-03-29T10:59:04Z</time>
      </trkpt>
      <trkpt lat="62.648409872394" lon="17.85535304406">
        <ele>98.6</ele>
        <time>2018-03-29T10:59:05Z</time>
      </trkpt>
      <trkpt lat="62.648444824917" lon="17.855310799284">
        <ele>98.8</ele>
        <time>2018-03-29T10:59:06Z</time>
      </trkpt>
      <trkpt lat="62.648483465476" lon="17.855268638327">
        <ele>99.2</ele>
        <time>2018-03-29T10:59:07Z</time>
      </trkpt>
      <trkpt lat="62.648516154886" lon="17.855244749912">
        <ele>99.4</ele>
        <time>2018-03-29T10:59:08Z</time>
      </trkpt>
      <trkpt lat="62.648545659174" lon="17.855212982511">
        <ele>99.2</ele>
        <time>2018-03-29T10:59:09Z</time>
      </trkpt>
      <trkpt lat="62.648578935317" lon="17.855169648088">
        <ele>99.4</ele>
        <time>2018-03-29T10:59:10Z</time>
      </trkpt>
      <trkpt lat="62.648606763225" lon="17.855131594262">
        <ele>99.6</ele>
        <time>2018-03-29T10:59:11Z</time>
      </trkpt>
      <trkpt lat="62.648630903097" lon="17.855090439133">
        <ele>99.6</ele>
        <time>2018-03-29T10:59:12Z</time>
      </trkpt>
      <trkpt lat="62.648652109304" lon="17.855053894049">
        <ele>99.6</ele>
        <time>2018-03-29T10:59:13Z</time>
      </trkpt>
      <trkpt lat="62.648672142045" lon="17.855002596821">
        <ele>99.8</ele>
        <time>2018-03-29T10:59:14Z</time>
      </trkpt>
      <trkpt lat="62.648688989664" lon="17.854950377584">
        <ele>100</ele>
        <time>2018-03-29T10:59:15Z</time>
      </trkpt>
      <trkpt lat="62.648705585826" lon="17.854873347923">
        <ele>100</ele>
        <time>2018-03-29T10:59:16Z</time>
      </trkpt>
      <trkpt lat="62.648718745409" lon="17.854787098172">
        <ele>100.2</ele>
        <time>2018-03-29T10:59:17Z</time>
      </trkpt>
      <trkpt lat="62.648725953843" lon="17.854697328023">
        <ele>100.2</ele>
        <time>2018-03-29T10:59:18Z</time>
      </trkpt>
      <trkpt lat="62.648726456757" lon="17.85457939469">
        <ele>100.2</ele>
        <time>2018-03-29T10:59:19Z</time>
      </trkpt>
      <trkpt lat="62.64872704349" lon="17.854470346171">
        <ele>99.8</ele>
        <time>2018-03-29T10:59:20Z</time>
      </trkpt>
      <trkpt lat="62.648736012123" lon="17.854361381471">
        <ele>99.2</ele>
        <time>2018-03-29T10:59:21Z</time>
      </trkpt>
      <trkpt lat="62.648757385968" lon="17.854265408716">
        <ele>98</ele>
        <time>2018-03-29T10:59:22Z</time>
      </trkpt>
      <trkpt lat="62.648784794781" lon="17.854205059036">
        <ele>97.4</ele>
        <time>2018-03-29T10:59:23Z</time>
      </trkpt>
      <trkpt lat="62.648824944082" lon="17.854174046006">
        <ele>97</ele>
        <time>2018-03-29T10:59:24Z</time>
      </trkpt>
      <trkpt lat="62.648864925745" lon="17.854178907508">
        <ele>97</ele>
        <time>2018-03-29T10:59:25Z</time>
      </trkpt>
      <trkpt lat="62.648902644295" lon="17.85421059109">
        <ele>97</ele>
        <time>2018-03-29T10:59:26Z</time>
      </trkpt>
      <trkpt lat="62.648932148583" lon="17.854258451739">
        <ele>97.2</ele>
        <time>2018-03-29T10:59:27Z</time>
      </trkpt>
      <trkpt lat="62.648961485233" lon="17.85432542312">
        <ele>97</ele>
        <time>2018-03-29T10:59:28Z</time>
      </trkpt>
      <trkpt lat="62.648988391132" lon="17.854402620419">
        <ele>96.8</ele>
        <time>2018-03-29T10:59:29Z</time>
      </trkpt>
      <trkpt lat="62.649012950099" lon="17.854478895709">
        <ele>96.4</ele>
        <time>2018-03-29T10:59:30Z</time>
      </trkpt>
      <trkpt lat="62.649039269265" lon="17.854559445768">
        <ele>96</ele>
        <time>2018-03-29T10:59:31Z</time>
      </trkpt>
      <trkpt lat="62.64906483406" lon="17.854618957258">
        <ele>95.8</ele>
        <time>2018-03-29T10:59:32Z</time>
      </trkpt>
      <trkpt lat="62.649091320864" lon="17.854681570051">
        <ele>95.6</ele>
        <time>2018-03-29T10:59:33Z</time>
      </trkpt>
      <trkpt lat="62.649121160428" lon="17.854760108454">
        <ele>95.4</ele>
        <time>2018-03-29T10:59:34Z</time>
      </trkpt>
      <trkpt lat="62.649140019703" lon="17.854822385971">
        <ele>95.4</ele>
        <time>2018-03-29T10:59:35Z</time>
      </trkpt>
      <trkpt lat="62.649160639177" lon="17.854883573841">
        <ele>95.4</ele>
        <time>2018-03-29T10:59:36Z</time>
      </trkpt>
      <trkpt lat="62.649187293619" lon="17.854939145838">
        <ele>95.4</ele>
        <time>2018-03-29T10:59:37Z</time>
      </trkpt>
      <trkpt lat="62.649215037708" lon="17.854984911012">
        <ele>95.4</ele>
        <time>2018-03-29T10:59:38Z</time>
      </trkpt>
      <trkpt lat="62.64924672129" lon="17.855022378105">
        <ele>95.6</ele>
        <time>2018-03-29T10:59:39Z</time>
      </trkpt>
      <trkpt lat="62.649283936926" lon="17.855052385307">
        <ele>95.6</ele>
        <time>2018-03-29T10:59:40Z</time>
      </trkpt>
      <trkpt lat="62.649323750951" lon="17.855063365596">
        <ele>95.4</ele>
        <time>2018-03-29T10:59:41Z</time>
      </trkpt>
      <trkpt lat="62.649363984071" lon="17.855055151334">
        <ele>95.2</ele>
        <time>2018-03-29T10:59:42Z</time>
      </trkpt>
      <trkpt lat="62.649403630458" lon="17.855033190756">
        <ele>95.2</ele>
        <time>2018-03-29T10:59:43Z</time>
      </trkpt>
      <trkpt lat="62.649448473623" lon="17.855002429183">
        <ele>95</ele>
        <time>2018-03-29T10:59:44Z</time>
      </trkpt>
      <trkpt lat="62.649487700915" lon="17.854973427809">
        <ele>94.6</ele>
        <time>2018-03-29T10:59:45Z</time>
      </trkpt>
      <trkpt lat="62.649532795537" lon="17.854938223829">
        <ele>94.2</ele>
        <time>2018-03-29T10:59:46Z</time>
      </trkpt>
      <trkpt lat="62.649574872675" lon="17.854907378437">
        <ele>93.8</ele>
        <time>2018-03-29T10:59:47Z</time>
      </trkpt>
      <trkpt lat="62.649620637849" lon="17.854879718167">
        <ele>93.2</ele>
        <time>2018-03-29T10:59:48Z</time>
      </trkpt>
      <trkpt lat="62.649677383312" lon="17.854853734277">
        <ele>92.4</ele>
        <time>2018-03-29T10:59:49Z</time>
      </trkpt>
      <trkpt lat="62.649735972793" lon="17.854836886658">
        <ele>91.8</ele>
        <time>2018-03-29T10:59:50Z</time>
      </trkpt>
      <trkpt lat="62.649794813731" lon="17.854832108975">
        <ele>91</ele>
        <time>2018-03-29T10:59:51Z</time>
      </trkpt>
      <trkpt lat="62.649858683809" lon="17.854829929681">
        <ele>90.2</ele>
        <time>2018-03-29T10:59:52Z</time>
      </trkpt>
      <trkpt lat="62.649916938014" lon="17.854822888885">
        <ele>89.2</ele>
        <time>2018-03-29T10:59:53Z</time>
      </trkpt>
      <trkpt lat="62.649983574119" lon="17.854798665194">
        <ele>88.4</ele>
        <time>2018-03-29T10:59:54Z</time>
      </trkpt>
      <trkpt lat="62.650045348722" lon="17.854745859224">
        <ele>88</ele>
        <time>2018-03-29T10:59:55Z</time>
      </trkpt>
      <trkpt lat="62.650093377009" lon="17.854657430179">
        <ele>88.2</ele>
        <time>2018-03-29T10:59:56Z</time>
      </trkpt>
      <trkpt lat="62.650125731143" lon="17.854564726365">
        <ele>88</ele>
        <time>2018-03-29T10:59:57Z</time>
      </trkpt>
      <trkpt lat="62.650155822164" lon="17.854443356453">
        <ele>87.8</ele>
        <time>2018-03-29T10:59:58Z</time>
      </trkpt>
      <trkpt lat="62.650180884045" lon="17.854319807247">
        <ele>88</ele>
        <time>2018-03-29T10:59:59Z</time>
      </trkpt>
      <trkpt lat="62.650200497691" lon="17.854212602746">
        <ele>87.6</ele>
        <time>2018-03-29T11:00:00Z</time>
      </trkpt>
      <trkpt lat="62.650210891247" lon="17.854123167873">
        <ele>87.4</ele>
        <time>2018-03-29T11:00:01Z</time>
      </trkpt>
      <trkpt lat="62.650218602595" lon="17.854059800709">
        <ele>86.6</ele>
        <time>2018-03-29T11:00:02Z</time>
      </trkpt>
      <trkpt lat="62.650222625907" lon="17.854013700259">
        <ele>86</ele>
        <time>2018-03-29T11:00:03Z</time>
      </trkpt>
      <trkpt lat="62.650230253436" lon="17.853959469366">
        <ele>85.8</ele>
        <time>2018-03-29T11:00:04Z</time>
      </trkpt>
      <trkpt lat="62.650243496838" lon="17.853916470219">
        <ele>85.8</ele>
        <time>2018-03-29T11:00:05Z</time>
      </trkpt>
      <trkpt lat="62.650254812403" lon="17.853869363941">
        <ele>86.4</ele>
        <time>2018-03-29T11:00:06Z</time>
      </trkpt>
      <trkpt lat="62.650274174592" lon="17.853827789717">
        <ele>87</ele>
        <time>2018-03-29T11:00:07Z</time>
      </trkpt>
      <trkpt lat="62.65029026784" lon="17.853770373702">
        <ele>87.4</ele>
        <time>2018-03-29T11:00:08Z</time>
      </trkpt>
      <trkpt lat="62.65030870802" lon="17.853713292963">
        <ele>87.6</ele>
        <time>2018-03-29T11:00:09Z</time>
      </trkpt>
      <trkpt lat="62.650334775729" lon="17.853664761762">
        <ele>87.8</ele>
        <time>2018-03-29T11:00:10Z</time>
      </trkpt>
      <trkpt lat="62.650359502334" lon="17.853619415683">
        <ele>87.8</ele>
        <time>2018-03-29T11:00:11Z</time>
      </trkpt>
      <trkpt lat="62.650382049645" lon="17.8535811104">
        <ele>87.8</ele>
        <time>2018-03-29T11:00:12Z</time>
      </trkpt>
      <trkpt lat="62.650408368811" lon="17.85353752452">
        <ele>88</ele>
        <time>2018-03-29T11:00:13Z</time>
      </trkpt>
      <trkpt lat="62.650437118728" lon="17.853497123762">
        <ele>88</ele>
        <time>2018-03-29T11:00:14Z</time>
      </trkpt>
      <trkpt lat="62.6504612586" lon="17.853467284198">
        <ele>88.2</ele>
        <time>2018-03-29T11:00:15Z</time>
      </trkpt>
      <trkpt lat="62.650487829223" lon="17.853434091874">
        <ele>88.2</ele>
        <time>2018-03-29T11:00:16Z</time>
      </trkpt>
      <trkpt lat="62.650514148389" lon="17.85340257593">
        <ele>88.4</ele>
        <time>2018-03-29T11:00:17Z</time>
      </trkpt>
      <trkpt lat="62.650538120623" lon="17.853371395262">
        <ele>88.6</ele>
        <time>2018-03-29T11:00:18Z</time>
      </trkpt>
      <trkpt lat="62.650563182504" lon="17.853337113291">
        <ele>88.6</ele>
        <time>2018-03-29T11:00:19Z</time>
      </trkpt>
      <trkpt lat="62.650584891625" lon="17.85330534589">
        <ele>88.8</ele>
        <time>2018-03-29T11:00:20Z</time>
      </trkpt>
      <trkpt lat="62.650602577434" lon="17.853276428335">
        <ele>88.8</ele>
        <time>2018-03-29T11:00:21Z</time>
      </trkpt>
      <trkpt lat="62.650622107261" lon="17.853242314002">
        <ele>88.8</ele>
        <time>2018-03-29T11:00:22Z</time>
      </trkpt>
      <trkpt lat="62.650635685939" lon="17.853207864393">
        <ele>89</ele>
        <time>2018-03-29T11:00:23Z</time>
      </trkpt>
      <trkpt lat="62.650651108635" lon="17.853173247146">
        <ele>89.2</ele>
        <time>2018-03-29T11:00:24Z</time>
      </trkpt>
      <trkpt lat="62.650667956254" lon="17.853135780053">
        <ele>89.4</ele>
        <time>2018-03-29T11:00:25Z</time>
      </trkpt>
      <trkpt lat="62.650682037846" lon="17.853092361811">
        <ele>89.8</ele>
        <time>2018-03-29T11:00:26Z</time>
      </trkpt>
      <trkpt lat="62.650697209085" lon="17.853057157831">
        <ele>90.2</ele>
        <time>2018-03-29T11:00:27Z</time>
      </trkpt>
      <trkpt lat="62.65071942112" lon="17.853014745417">
        <ele>90.4</ele>
        <time>2018-03-29T11:00:28Z</time>
      </trkpt>
      <trkpt lat="62.650739453861" lon="17.852976523953">
        <ele>90.6</ele>
        <time>2018-03-29T11:00:29Z</time>
      </trkpt>
      <trkpt lat="62.650760324792" lon="17.852938134851">
        <ele>90.6</ele>
        <time>2018-03-29T11:00:30Z</time>
      </trkpt>
      <trkpt lat="62.650779854619" lon="17.852898572283">
        <ele>90.6</ele>
        <time>2018-03-29T11:00:31Z</time>
      </trkpt>
      <trkpt lat="62.650798713894" lon="17.85287116347">
        <ele>90.8</ele>
        <time>2018-03-29T11:00:32Z</time>
      </trkpt>
      <trkpt lat="62.650817824626" lon="17.852842078277">
        <ele>91</ele>
        <time>2018-03-29T11:00:33Z</time>
      </trkpt>
      <trkpt lat="62.65084766419" lon="17.852806203745">
        <ele>91</ele>
        <time>2018-03-29T11:00:34Z</time>
      </trkpt>
      <trkpt lat="62.650879347772" lon="17.852776028905">
        <ele>91</ele>
        <time>2018-03-29T11:00:35Z</time>
      </trkpt>
      <trkpt lat="62.650914970847" lon="17.852748620092">
        <ele>91</ele>
        <time>2018-03-29T11:00:36Z</time>
      </trkpt>
      <trkpt lat="62.650958640546" lon="17.852728922627">
        <ele>90.8</ele>
        <time>2018-03-29T11:00:37Z</time>
      </trkpt>
      <trkpt lat="62.650990743223" lon="17.8527010109">
        <ele>90.8</ele>
        <time>2018-03-29T11:00:38Z</time>
      </trkpt>
      <trkpt lat="62.651025947203" lon="17.852694808294">
        <ele>90.6</ele>
        <time>2018-03-29T11:00:39Z</time>
      </trkpt>
      <trkpt lat="62.651061318821" lon="17.852686426394">
        <ele>90.6</ele>
        <time>2018-03-29T11:00:40Z</time>
      </trkpt>
      <trkpt lat="62.6510899011" lon="17.852685588204">
        <ele>90.6</ele>
        <time>2018-03-29T11:00:41Z</time>
      </trkpt>
      <trkpt lat="62.65111839956" lon="17.852692880457">
        <ele>90.6</ele>
        <time>2018-03-29T11:00:42Z</time>
      </trkpt>
      <trkpt lat="62.651152932988" lon="17.852698915425">
        <ele>90.8</ele>
        <time>2018-03-29T11:00:43Z</time>
      </trkpt>
      <trkpt lat="62.651186544407" lon="17.852703274013">
        <ele>90.8</ele>
        <time>2018-03-29T11:00:44Z</time>
      </trkpt>
      <trkpt lat="62.651213534125" lon="17.85270268728">
        <ele>91</ele>
        <time>2018-03-29T11:00:45Z</time>
      </trkpt>
      <trkpt lat="62.651244295698" lon="17.852702268185">
        <ele>91.2</ele>
        <time>2018-03-29T11:00:46Z</time>
      </trkpt>
      <trkpt lat="62.651266088638" lon="17.852690868801">
        <ele>91.4</ele>
        <time>2018-03-29T11:00:47Z</time>
      </trkpt>
      <trkpt lat="62.651296012021" lon="17.852676871028">
        <ele>91.6</ele>
        <time>2018-03-29T11:00:48Z</time>
      </trkpt>
      <trkpt lat="62.651322750282" lon="17.852658598486">
        <ele>91.6</ele>
        <time>2018-03-29T11:00:49Z</time>
      </trkpt>
      <trkpt lat="62.651347057792" lon="17.852642672876">
        <ele>91.6</ele>
        <time>2018-03-29T11:00:50Z</time>
      </trkpt>
      <trkpt lat="62.651372706406" lon="17.852624148877">
        <ele>91.6</ele>
        <time>2018-03-29T11:00:51Z</time>
      </trkpt>
      <trkpt lat="62.651400785771" lon="17.85259456077">
        <ele>91.6</ele>
        <time>2018-03-29T11:00:52Z</time>
      </trkpt>
      <trkpt lat="62.651425763833" lon="17.852572432554">
        <ele>91.6</ele>
        <time>2018-03-29T11:00:53Z</time>
      </trkpt>
      <trkpt lat="62.651452585913" lon="17.852536977117">
        <ele>91.8</ele>
        <time>2018-03-29T11:00:54Z</time>
      </trkpt>
      <trkpt lat="62.651477563975" lon="17.852514262168">
        <ele>91.8</ele>
        <time>2018-03-29T11:00:55Z</time>
      </trkpt>
      <trkpt lat="62.651501117114" lon="17.852491547219">
        <ele>91.6</ele>
        <time>2018-03-29T11:00:56Z</time>
      </trkpt>
      <trkpt lat="62.651521736588" lon="17.852475873066">
        <ele>91.8</ele>
        <time>2018-03-29T11:00:57Z</time>
      </trkpt>
      <trkpt lat="62.651541517872" lon="17.85245039209">
        <ele>91.8</ele>
        <time>2018-03-29T11:00:58Z</time>
      </trkpt>
      <trkpt lat="62.651566160658" lon="17.852435975222">
        <ele>91.8</ele>
        <time>2018-03-29T11:00:59Z</time>
      </trkpt>
      <trkpt lat="62.651590468168" lon="17.852422564182">
        <ele>91.8</ele>
        <time>2018-03-29T11:01:00Z</time>
      </trkpt>
      <trkpt lat="62.651608070158" lon="17.852402196165">
        <ele>92</ele>
        <time>2018-03-29T11:01:01Z</time>
      </trkpt>
      <trkpt lat="62.651631539478" lon="17.852388198392">
        <ele>92.2</ele>
        <time>2018-03-29T11:01:02Z</time>
      </trkpt>
      <trkpt lat="62.651652997142" lon="17.852377721017">
        <ele>92.2</ele>
        <time>2018-03-29T11:01:03Z</time>
      </trkpt>
      <trkpt lat="62.651677891385" lon="17.852363304149">
        <ele>92.4</ele>
        <time>2018-03-29T11:01:04Z</time>
      </trkpt>
      <trkpt lat="62.651704797284" lon="17.852349976928">
        <ele>92.4</ele>
        <time>2018-03-29T11:01:05Z</time>
      </trkpt>
      <trkpt lat="62.651728937156" lon="17.852334302775">
        <ele>92.6</ele>
        <time>2018-03-29T11:01:06Z</time>
      </trkpt>
      <trkpt lat="62.651753915218" lon="17.852325837056">
        <ele>92.6</ele>
        <time>2018-03-29T11:01:07Z</time>
      </trkpt>
      <trkpt lat="62.651775791977" lon="17.852313683301">
        <ele>92.8</ele>
        <time>2018-03-29T11:01:08Z</time>
      </trkpt>
      <trkpt lat="62.651801608229" lon="17.852306642505">
        <ele>92.8</ele>
        <time>2018-03-29T11:01:09Z</time>
      </trkpt>
      <trkpt lat="62.651822646798" lon="17.852288202325">
        <ele>92.8</ele>
        <time>2018-03-29T11:01:10Z</time>
      </trkpt>
      <trkpt lat="62.651841170797" lon="17.852269426869">
        <ele>92.8</ele>
        <time>2018-03-29T11:01:11Z</time>
      </trkpt>
      <trkpt lat="62.651860868262" lon="17.852260458236">
        <ele>93</ele>
        <time>2018-03-29T11:01:12Z</time>
      </trkpt>
      <trkpt lat="62.651879643718" lon="17.852240676952">
        <ele>93.2</ele>
        <time>2018-03-29T11:01:13Z</time>
      </trkpt>
      <trkpt lat="62.651899005907" lon="17.852224835161">
        <ele>93.4</ele>
        <time>2018-03-29T11:01:14Z</time>
      </trkpt>
      <trkpt lat="62.651913255137" lon="17.852211172664">
        <ele>93.6</ele>
        <time>2018-03-29T11:01:15Z</time>
      </trkpt>
      <trkpt lat="62.651932952602" lon="17.852196839615">
        <ele>93.8</ele>
        <time>2018-03-29T11:01:16Z</time>
      </trkpt>
      <trkpt lat="62.651946615099" lon="17.852176136322">
        <ele>93.8</ele>
        <time>2018-03-29T11:01:17Z</time>
      </trkpt>
      <trkpt lat="62.651963546537" lon="17.852160545988">
        <ele>94</ele>
        <time>2018-03-29T11:01:18Z</time>
      </trkpt>
      <trkpt lat="62.651978969233" lon="17.85213439446">
        <ele>94.2</ele>
        <time>2018-03-29T11:01:19Z</time>
      </trkpt>
      <trkpt lat="62.65199682268" lon="17.852114948452">
        <ele>94.4</ele>
        <time>2018-03-29T11:01:20Z</time>
      </trkpt>
      <trkpt lat="62.652015933412" lon="17.852091311494">
        <ele>94.4</ele>
        <time>2018-03-29T11:01:21Z</time>
      </trkpt>
      <trkpt lat="62.65203286485" lon="17.852061388111">
        <ele>94.8</ele>
        <time>2018-03-29T11:01:22Z</time>
      </trkpt>
      <trkpt lat="62.65204962865" lon="17.852034398393">
        <ele>94.8</ele>
        <time>2018-03-29T11:01:23Z</time>
      </trkpt>
      <trkpt lat="62.652064967527" lon="17.852003553001">
        <ele>94.8</ele>
        <time>2018-03-29T11:01:24Z</time>
      </trkpt>
      <trkpt lat="62.652082234241" lon="17.851976144188">
        <ele>95</ele>
        <time>2018-03-29T11:01:25Z</time>
      </trkpt>
      <trkpt lat="62.652098578946" lon="17.851952758687">
        <ele>95</ele>
        <time>2018-03-29T11:01:26Z</time>
      </trkpt>
      <trkpt lat="62.652113834004" lon="17.851930127557">
        <ele>95.2</ele>
        <time>2018-03-29T11:01:27Z</time>
      </trkpt>
      <trkpt lat="62.652135040211" lon="17.85190137764">
        <ele>95.2</ele>
        <time>2018-03-29T11:01:28Z</time>
      </trkpt>
      <trkpt lat="62.652156330237" lon="17.851873633551">
        <ele>95.4</ele>
        <time>2018-03-29T11:01:29Z</time>
      </trkpt>
      <trkpt lat="62.652172339666" lon="17.851841447055">
        <ele>95.6</ele>
        <time>2018-03-29T11:01:30Z</time>
      </trkpt>
      <trkpt lat="62.652185750706" lon="17.851813954423">
        <ele>95.8</ele>
        <time>2018-03-29T11:01:31Z</time>
      </trkpt>
      <trkpt lat="62.652202849782" lon="17.851790652741">
        <ele>95.8</ele>
        <time>2018-03-29T11:01:32Z</time>
      </trkpt>
      <trkpt lat="62.652213997709" lon="17.851770368543">
        <ele>96</ele>
        <time>2018-03-29T11:01:33Z</time>
      </trkpt>
      <trkpt lat="62.652227660206" lon="17.851742792092">
        <ele>96.2</ele>
        <time>2018-03-29T11:01:34Z</time>
      </trkpt>
      <trkpt lat="62.652236293563" lon="17.8517203286">
        <ele>96.4</ele>
        <time>2018-03-29T11:01:35Z</time>
      </trkpt>
      <trkpt lat="62.652249285508" lon="17.851695518176">
        <ele>96.6</ele>
        <time>2018-03-29T11:01:36Z</time>
      </trkpt>
      <trkpt lat="62.652262948005" lon="17.851669953381">
        <ele>97.2</ele>
        <time>2018-03-29T11:01:37Z</time>
      </trkpt>
      <trkpt lat="62.652271329905" lon="17.851639191808">
        <ele>97.4</ele>
        <time>2018-03-29T11:01:38Z</time>
      </trkpt>
      <trkpt lat="62.652282729289" lon="17.851614968117">
        <ele>97.8</ele>
        <time>2018-03-29T11:01:39Z</time>
      </trkpt>
      <trkpt lat="62.652296140329" lon="17.851595019195">
        <ele>98</ele>
        <time>2018-03-29T11:01:40Z</time>
      </trkpt>
      <trkpt lat="62.652308126446" lon="17.851555875722">
        <ele>98.4</ele>
        <time>2018-03-29T11:01:41Z</time>
      </trkpt>
      <trkpt lat="62.652320866934" lon="17.851532825497">
        <ele>98.2</ele>
        <time>2018-03-29T11:01:42Z</time>
      </trkpt>
      <trkpt lat="62.652333020689" lon="17.851509020901">
        <ele>98.4</ele>
        <time>2018-03-29T11:01:43Z</time>
      </trkpt>
      <trkpt lat="62.652343581883" lon="17.851471721446">
        <ele>98.4</ele>
        <time>2018-03-29T11:01:44Z</time>
      </trkpt>
      <trkpt lat="62.652357412018" lon="17.851445569918">
        <ele>98.8</ele>
        <time>2018-03-29T11:01:45Z</time>
      </trkpt>
      <trkpt lat="62.652376438931" lon="17.851422435874">
        <ele>98.8</ele>
        <time>2018-03-29T11:01:46Z</time>
      </trkpt>
      <trkpt lat="62.65238993379" lon="17.851391422844">
        <ele>99</ele>
        <time>2018-03-29T11:01:47Z</time>
      </trkpt>
      <trkpt lat="62.652406781409" lon="17.851365522773">
        <ele>99.2</ele>
        <time>2018-03-29T11:01:48Z</time>
      </trkpt>
      <trkpt lat="62.65242178501" lon="17.851328474775">
        <ele>99.6</ele>
        <time>2018-03-29T11:01:49Z</time>
      </trkpt>
      <trkpt lat="62.652435112231" lon="17.851298802849">
        <ele>99.8</ele>
        <time>2018-03-29T11:01:50Z</time>
      </trkpt>
      <trkpt lat="62.652448523271" lon="17.851273070416">
        <ele>100</ele>
        <time>2018-03-29T11:01:51Z</time>
      </trkpt>
      <trkpt lat="62.652461347578" lon="17.851237614979">
        <ele>100</ele>
        <time>2018-03-29T11:01:52Z</time>
      </trkpt>
      <trkpt lat="62.652479787758" lon="17.851211463451">
        <ele>100.2</ele>
        <time>2018-03-29T11:01:53Z</time>
      </trkpt>
      <trkpt lat="62.652493701712" lon="17.851170140684">
        <ele>100.4</ele>
        <time>2018-03-29T11:01:54Z</time>
      </trkpt>
      <trkpt lat="62.652515997566" lon="17.851145833174">
        <ele>100.4</ele>
        <time>2018-03-29T11:01:55Z</time>
      </trkpt>
      <trkpt lat="62.652534353927" lon="17.851114065773">
        <ele>100.6</ele>
        <time>2018-03-29T11:01:56Z</time>
      </trkpt>
      <trkpt lat="62.652556146867" lon="17.851093278661">
        <ele>100.6</ele>
        <time>2018-03-29T11:01:57Z</time>
      </trkpt>
      <trkpt lat="62.652598140186" lon="17.85108246601">
        <ele>100.8</ele>
        <time>2018-03-29T11:01:58Z</time>
      </trkpt>
      <trkpt lat="62.652625129904" lon="17.851059164328">
        <ele>100.8</ele>
        <time>2018-03-29T11:01:59Z</time>
      </trkpt>
      <trkpt lat="62.652644827369" lon="17.851032677524">
        <ele>100.8</ele>
        <time>2018-03-29T11:02:00Z</time>
      </trkpt>
      <trkpt lat="62.652665111567" lon="17.851011555136">
        <ele>101</ele>
        <time>2018-03-29T11:02:01Z</time>
      </trkpt>
      <trkpt lat="62.652691179276" lon="17.850982553762">
        <ele>101</ele>
        <time>2018-03-29T11:02:02Z</time>
      </trkpt>
      <trkpt lat="62.652720683564" lon="17.850953803845">
        <ele>101.2</ele>
        <time>2018-03-29T11:02:03Z</time>
      </trkpt>
      <trkpt lat="62.652744655798" lon="17.850917845494">
        <ele>101.4</ele>
        <time>2018-03-29T11:02:04Z</time>
      </trkpt>
      <trkpt lat="62.652755719906" lon="17.850900494961">
        <ele>101.4</ele>
        <time>2018-03-29T11:02:05Z</time>
      </trkpt>
      <trkpt lat="62.652770304412" lon="17.850864704248">
        <ele>101.4</ele>
        <time>2018-03-29T11:02:06Z</time>
      </trkpt>
      <trkpt lat="62.652780278873" lon="17.850800163618">
        <ele>101.6</ele>
        <time>2018-03-29T11:02:07Z</time>
      </trkpt>
      <trkpt lat="62.652788996049" lon="17.850746770915">
        <ele>101.8</ele>
        <time>2018-03-29T11:02:08Z</time>
      </trkpt>
      <trkpt lat="62.652802993822" lon="17.850687762339">
        <ele>101.8</ele>
        <time>2018-03-29T11:02:09Z</time>
      </trkpt>
      <trkpt lat="62.652814393206" lon="17.85062481427">
        <ele>102</ele>
        <time>2018-03-29T11:02:10Z</time>
      </trkpt>
      <trkpt lat="62.652823194201" lon="17.850570248101">
        <ele>102.2</ele>
        <time>2018-03-29T11:02:11Z</time>
      </trkpt>
      <trkpt lat="62.652835180318" lon="17.850511239525">
        <ele>102.2</ele>
        <time>2018-03-29T11:02:12Z</time>
      </trkpt>
      <trkpt lat="62.652843143123" lon="17.850445273972">
        <ele>102.4</ele>
        <time>2018-03-29T11:02:13Z</time>
      </trkpt>
      <trkpt lat="62.652849429548" lon="17.850368998682">
        <ele>102.2</ele>
        <time>2018-03-29T11:02:14Z</time>
      </trkpt>
      <trkpt lat="62.652858062905" lon="17.850301775844">
        <ele>102.2</ele>
        <time>2018-03-29T11:02:15Z</time>
      </trkpt>
      <trkpt lat="62.652863930235" lon="17.850232625169">
        <ele>102</ele>
        <time>2018-03-29T11:02:16Z</time>
      </trkpt>
      <trkpt lat="62.652866612443" lon="17.850165653788">
        <ele>101.6</ele>
        <time>2018-03-29T11:02:17Z</time>
      </trkpt>
      <trkpt lat="62.652872395954" lon="17.850093066534">
        <ele>101.6</ele>
        <time>2018-03-29T11:02:18Z</time>
      </trkpt>
      <trkpt lat="62.652878766198" lon="17.850021652746">
        <ele>101.4</ele>
        <time>2018-03-29T11:02:19Z</time>
      </trkpt>
      <trkpt lat="62.652882621872" lon="17.849951160967">
        <ele>101.2</ele>
        <time>2018-03-29T11:02:20Z</time>
      </trkpt>
      <trkpt lat="62.652884214433" lon="17.849882932301">
        <ele>101.2</ele>
        <time>2018-03-29T11:02:21Z</time>
      </trkpt>
      <trkpt lat="62.652893937437" lon="17.849825516286">
        <ele>101.4</ele>
        <time>2018-03-29T11:02:22Z</time>
      </trkpt>
      <trkpt lat="62.652902738432" lon="17.849765082787">
        <ele>101.4</ele>
        <time>2018-03-29T11:02:23Z</time>
      </trkpt>
      <trkpt lat="62.652908438124" lon="17.849698279044">
        <ele>101.4</ele>
        <time>2018-03-29T11:02:24Z</time>
      </trkpt>
      <trkpt lat="62.652911958522" lon="17.849638767554">
        <ele>101.4</ele>
        <time>2018-03-29T11:02:25Z</time>
      </trkpt>
      <trkpt lat="62.652924447553" lon="17.849566096481">
        <ele>101.2</ele>
        <time>2018-03-29T11:02:26Z</time>
      </trkpt>
      <trkpt lat="62.652929895788" lon="17.849513458149">
        <ele>101.4</ele>
        <time>2018-03-29T11:02:27Z</time>
      </trkpt>
      <trkpt lat="62.652941127534" lon="17.849442211999">
        <ele>101.4</ele>
        <time>2018-03-29T11:02:28Z</time>
      </trkpt>
      <trkpt lat="62.652945821398" lon="17.849381107948">
        <ele>101.4</ele>
        <time>2018-03-29T11:02:29Z</time>
      </trkpt>
      <trkpt lat="62.652956969325" lon="17.849316232042">
        <ele>101.4</ele>
        <time>2018-03-29T11:02:30Z</time>
      </trkpt>
      <trkpt lat="62.652961998465" lon="17.849257055828">
        <ele>101.6</ele>
        <time>2018-03-29T11:02:31Z</time>
      </trkpt>
      <trkpt lat="62.652967865795" lon="17.849203579306">
        <ele>101.6</ele>
        <time>2018-03-29T11:02:32Z</time>
      </trkpt>
      <trkpt lat="62.652975325686" lon="17.849139876866">
        <ele>101.8</ele>
        <time>2018-03-29T11:02:33Z</time>
      </trkpt>
      <trkpt lat="62.652976415333" lon="17.849070558553">
        <ele>101.8</ele>
        <time>2018-03-29T11:02:34Z</time>
      </trkpt>
      <trkpt lat="62.652982701758" lon="17.848994115625">
        <ele>101.8</ele>
        <time>2018-03-29T11:02:35Z</time>
      </trkpt>
      <trkpt lat="62.652979935731" lon="17.848921109276">
        <ele>101.8</ele>
        <time>2018-03-29T11:02:36Z</time>
      </trkpt>
      <trkpt lat="62.652984797233" lon="17.848851371868">
        <ele>101.8</ele>
        <time>2018-03-29T11:02:37Z</time>
      </trkpt>
      <trkpt lat="62.652991502753" lon="17.848781718279">
        <ele>101.6</ele>
        <time>2018-03-29T11:02:38Z</time>
      </trkpt>
      <trkpt lat="62.652998292092" lon="17.848707957559">
        <ele>101.6</ele>
        <time>2018-03-29T11:02:39Z</time>
      </trkpt>
      <trkpt lat="62.65299762154" lon="17.848634867391">
        <ele>101.6</ele>
        <time>2018-03-29T11:02:40Z</time>
      </trkpt>
      <trkpt lat="62.652993179133" lon="17.848556496626">
        <ele>101.8</ele>
        <time>2018-03-29T11:02:41Z</time>
      </trkpt>
      <trkpt lat="62.652992843857" lon="17.848475527472">
        <ele>101.8</ele>
        <time>2018-03-29T11:02:42Z</time>
      </trkpt>
      <trkpt lat="62.652993011495" lon="17.848383326572">
        <ele>101.6</ele>
        <time>2018-03-29T11:02:43Z</time>
      </trkpt>
      <trkpt lat="62.652990496925" lon="17.848290538939">
        <ele>101.6</ele>
        <time>2018-03-29T11:02:44Z</time>
      </trkpt>
      <trkpt lat="62.652985803061" lon="17.848203534817">
        <ele>101.4</ele>
        <time>2018-03-29T11:02:45Z</time>
      </trkpt>
      <trkpt lat="62.652977924075" lon="17.848100856542">
        <ele>100.8</ele>
        <time>2018-03-29T11:02:46Z</time>
      </trkpt>
      <trkpt lat="62.652968787804" lon="17.847999100276">
        <ele>100.4</ele>
        <time>2018-03-29T11:02:47Z</time>
      </trkpt>
      <trkpt lat="62.652961160275" lon="17.847902876064">
        <ele>100.2</ele>
        <time>2018-03-29T11:02:48Z</time>
      </trkpt>
      <trkpt lat="62.65295152109" lon="17.847786535292">
        <ele>99.8</ele>
        <time>2018-03-29T11:02:49Z</time>
      </trkpt>
      <trkpt lat="62.652944145018" lon="17.847673714918">
        <ele>99.6</ele>
        <time>2018-03-29T11:02:50Z</time>
      </trkpt>
      <trkpt lat="62.652937690955" lon="17.84756877353">
        <ele>99</ele>
        <time>2018-03-29T11:02:51Z</time>
      </trkpt>
      <trkpt lat="62.652928973779" lon="17.847447822713">
        <ele>98.6</ele>
        <time>2018-03-29T11:02:52Z</time>
      </trkpt>
      <trkpt lat="62.652925872476" lon="17.847349083931">
        <ele>97.8</ele>
        <time>2018-03-29T11:02:53Z</time>
      </trkpt>
      <trkpt lat="62.652919334594" lon="17.847244813095">
        <ele>97.4</ele>
        <time>2018-03-29T11:02:54Z</time>
      </trkpt>
      <trkpt lat="62.652913299626" lon="17.847149007978">
        <ele>97</ele>
        <time>2018-03-29T11:02:55Z</time>
      </trkpt>
      <trkpt lat="62.652913970178" lon="17.847066110987">
        <ele>97.2</ele>
        <time>2018-03-29T11:02:56Z</time>
      </trkpt>
      <trkpt lat="62.652921430069" lon="17.846995954484">
        <ele>97.2</ele>
        <time>2018-03-29T11:02:57Z</time>
      </trkpt>
      <trkpt lat="62.652933332367" lon="17.84691666171">
        <ele>97.4</ele>
        <time>2018-03-29T11:02:58Z</time>
      </trkpt>
      <trkpt lat="62.652947581597" lon="17.846846756664">
        <ele>97.8</ele>
        <time>2018-03-29T11:02:59Z</time>
      </trkpt>
      <trkpt lat="62.652963926302" lon="17.846772744487">
        <ele>98</ele>
        <time>2018-03-29T11:03:00Z</time>
      </trkpt>
      <trkpt lat="62.65297834317" lon="17.846697475025">
        <ele>97.8</ele>
        <time>2018-03-29T11:03:01Z</time>
      </trkpt>
      <trkpt lat="62.652993933504" lon="17.846628575807">
        <ele>98</ele>
        <time>2018-03-29T11:03:02Z</time>
      </trkpt>
      <trkpt lat="62.653004997612" lon="17.846565208643">
        <ele>98</ele>
        <time>2018-03-29T11:03:03Z</time>
      </trkpt>
      <trkpt lat="62.65302025267" lon="17.846491196466">
        <ele>98</ele>
        <time>2018-03-29T11:03:04Z</time>
      </trkpt>
      <trkpt lat="62.65304539837" lon="17.846420872325">
        <ele>98.2</ele>
        <time>2018-03-29T11:03:05Z</time>
      </trkpt>
      <trkpt lat="62.653067526586" lon="17.846359852093">
        <ele>98.2</ele>
        <time>2018-03-29T11:03:06Z</time>
      </trkpt>
      <trkpt lat="62.653086637318" lon="17.846302938992">
        <ele>98.2</ele>
        <time>2018-03-29T11:03:07Z</time>
      </trkpt>
      <trkpt lat="62.653108765534" lon="17.846244768606">
        <ele>98</ele>
        <time>2018-03-29T11:03:08Z</time>
      </trkpt>
      <trkpt lat="62.653134330329" lon="17.846185843849">
        <ele>98</ele>
        <time>2018-03-29T11:03:09Z</time>
      </trkpt>
      <trkpt lat="62.653160649495" lon="17.846130355671">
        <ele>98</ele>
        <time>2018-03-29T11:03:10Z</time>
      </trkpt>
      <trkpt lat="62.653179592589" lon="17.846081153918">
        <ele>97.8</ele>
        <time>2018-03-29T11:03:11Z</time>
      </trkpt>
      <trkpt lat="62.653207001402" lon="17.846020804238">
        <ele>97.8</ele>
        <time>2018-03-29T11:03:12Z</time>
      </trkpt>
      <trkpt lat="62.653234410215" lon="17.845950312459">
        <ele>97.8</ele>
        <time>2018-03-29T11:03:13Z</time>
      </trkpt>
      <trkpt lat="62.653265255607" lon="17.84588904077">
        <ele>98</ele>
        <time>2018-03-29T11:03:14Z</time>
      </trkpt>
      <trkpt lat="62.653296939189" lon="17.845830535108">
        <ele>98.2</ele>
        <time>2018-03-29T11:03:15Z</time>
      </trkpt>
      <trkpt lat="62.653331053522" lon="17.845765659202">
        <ele>98</ele>
        <time>2018-03-29T11:03:16Z</time>
      </trkpt>
      <trkpt lat="62.653365167855" lon="17.845709081377">
        <ele>97.8</ele>
        <time>2018-03-29T11:03:17Z</time>
      </trkpt>
      <trkpt lat="62.65340246731" lon="17.845656945959">
        <ele>97.8</ele>
        <time>2018-03-29T11:03:18Z</time>
      </trkpt>
      <trkpt lat="62.65344772957" lon="17.845602547428">
        <ele>97.2</ele>
        <time>2018-03-29T11:03:19Z</time>
      </trkpt>
      <trkpt lat="62.653491147812" lon="17.845548567992">
        <ele>96.8</ele>
        <time>2018-03-29T11:03:20Z</time>
      </trkpt>
      <trkpt lat="62.65353573952" lon="17.84549592966">
        <ele>96.4</ele>
        <time>2018-03-29T11:03:21Z</time>
      </trkpt>
      <trkpt lat="62.653584438359" lon="17.845422504216">
        <ele>96</ele>
        <time>2018-03-29T11:03:22Z</time>
      </trkpt>
      <trkpt lat="62.653623162737" lon="17.84532996804">
        <ele>95.8</ele>
        <time>2018-03-29T11:03:23Z</time>
      </trkpt>
      <trkpt lat="62.653657528527" lon="17.845211447974">
        <ele>95.2</ele>
        <time>2018-03-29T11:03:24Z</time>
      </trkpt>
      <trkpt lat="62.65368912829" lon="17.845096615944">
        <ele>94.8</ele>
        <time>2018-03-29T11:03:25Z</time>
      </trkpt>
      <trkpt lat="62.653719219311" lon="17.844987232149">
        <ele>94.2</ele>
        <time>2018-03-29T11:03:26Z</time>
      </trkpt>
      <trkpt lat="62.653746460486" lon="17.844888996281">
        <ele>94</ele>
        <time>2018-03-29T11:03:27Z</time>
      </trkpt>
      <trkpt lat="62.653778730801" lon="17.844784390169">
        <ele>93.6</ele>
        <time>2018-03-29T11:03:28Z</time>
      </trkpt>
      <trkpt lat="62.653808402727" lon="17.844690931984">
        <ele>93</ele>
        <time>2018-03-29T11:03:29Z</time>
      </trkpt>
      <trkpt lat="62.653838074653" lon="17.844613147952">
        <ele>92.6</ele>
        <time>2018-03-29T11:03:30Z</time>
      </trkpt>
      <trkpt lat="62.653866656932" lon="17.844542237078">
        <ele>92.4</ele>
        <time>2018-03-29T11:03:31Z</time>
      </trkpt>
      <trkpt lat="62.653897167048" lon="17.844473254041">
        <ele>92.2</ele>
        <time>2018-03-29T11:03:32Z</time>
      </trkpt>
      <trkpt lat="62.653926503698" lon="17.844417262949">
        <ele>91.8</ele>
        <time>2018-03-29T11:03:33Z</time>
      </trkpt>
      <trkpt lat="62.653962545868" lon="17.844352051767">
        <ele>91.6</ele>
        <time>2018-03-29T11:03:34Z</time>
      </trkpt>
      <trkpt lat="62.653994397088" lon="17.844298826702">
        <ele>91.4</ele>
        <time>2018-03-29T11:03:35Z</time>
      </trkpt>
      <trkpt lat="62.654024571928" lon="17.844255073184">
        <ele>91</ele>
        <time>2018-03-29T11:03:36Z</time>
      </trkpt>
      <trkpt lat="62.654050807275" lon="17.844222467593">
        <ele>90.4</ele>
        <time>2018-03-29T11:03:37Z</time>
      </trkpt>
      <trkpt lat="62.654079557192" lon="17.84419422059">
        <ele>90</ele>
        <time>2018-03-29T11:03:38Z</time>
      </trkpt>
      <trkpt lat="62.654106295453" lon="17.844172176193">
        <ele>89.6</ele>
        <time>2018-03-29T11:03:39Z</time>
      </trkpt>
      <trkpt lat="62.65414426546" lon="17.844142839543">
        <ele>89.2</ele>
        <time>2018-03-29T11:03:40Z</time>
      </trkpt>
      <trkpt lat="62.654176451956" lon="17.844123225897">
        <ele>88.8</ele>
        <time>2018-03-29T11:03:41Z</time>
      </trkpt>
      <trkpt lat="62.654206542977" lon="17.844104366622">
        <ele>88.4</ele>
        <time>2018-03-29T11:03:42Z</time>
      </trkpt>
      <trkpt lat="62.654240154396" lon="17.844086177899">
        <ele>87.8</ele>
        <time>2018-03-29T11:03:43Z</time>
      </trkpt>
      <trkpt lat="62.654279130231" lon="17.84406933028">
        <ele>87.2</ele>
        <time>2018-03-29T11:03:44Z</time>
      </trkpt>
      <trkpt lat="62.654314166573" lon="17.844059355819">
        <ele>86.4</ele>
        <time>2018-03-29T11:03:45Z</time>
      </trkpt>
      <trkpt lat="62.654349286734" lon="17.844049968091">
        <ele>85.6</ele>
        <time>2018-03-29T11:03:46Z</time>
      </trkpt>
      <trkpt lat="62.654383568705" lon="17.844035467404">
        <ele>84.8</ele>
        <time>2018-03-29T11:03:47Z</time>
      </trkpt>
      <trkpt lat="62.654422209264" lon="17.844025576762">
        <ele>84.2</ele>
        <time>2018-03-29T11:03:48Z</time>
      </trkpt>
      <trkpt lat="62.654471075741" lon="17.844021218174">
        <ele>83.6</ele>
        <time>2018-03-29T11:03:49Z</time>
      </trkpt>
      <trkpt lat="62.654520361313" lon="17.844016775767">
        <ele>82.8</ele>
        <time>2018-03-29T11:03:50Z</time>
      </trkpt>
      <trkpt lat="62.65456503684" lon="17.844010573161">
        <ele>82.2</ele>
        <time>2018-03-29T11:03:51Z</time>
      </trkpt>
      <trkpt lat="62.654614741507" lon="17.84400730422">
        <ele>81.2</ele>
        <time>2018-03-29T11:03:52Z</time>
      </trkpt>
      <trkpt lat="62.654652543876" lon="17.844005041107">
        <ele>80.6</ele>
        <time>2018-03-29T11:03:53Z</time>
      </trkpt>
      <trkpt lat="62.654697973774" lon="17.843994312275">
        <ele>80</ele>
        <time>2018-03-29T11:03:54Z</time>
      </trkpt>
      <trkpt lat="62.654738877446" lon="17.843980901235">
        <ele>79.2</ele>
        <time>2018-03-29T11:03:55Z</time>
      </trkpt>
      <trkpt lat="62.654772572684" lon="17.843973357525">
        <ele>78.6</ele>
        <time>2018-03-29T11:03:56Z</time>
      </trkpt>
      <trkpt lat="62.654802579886" lon="17.843962628693">
        <ele>78</ele>
        <time>2018-03-29T11:03:57Z</time>
      </trkpt>
      <trkpt lat="62.654840466074" lon="17.843952738051">
        <ele>77.6</ele>
        <time>2018-03-29T11:03:58Z</time>
      </trkpt>
      <trkpt lat="62.654884554868" lon="17.843941003391">
        <ele>77.2</ele>
        <time>2018-03-29T11:03:59Z</time>
      </trkpt>
      <trkpt lat="62.654931661146" lon="17.843934800785">
        <ele>76.8</ele>
        <time>2018-03-29T11:04:00Z</time>
      </trkpt>
      <trkpt lat="62.654973654465" lon="17.843922982306">
        <ele>76.2</ele>
        <time>2018-03-29T11:04:01Z</time>
      </trkpt>
      <trkpt lat="62.655018078535" lon="17.843903703936">
        <ele>75.6</ele>
        <time>2018-03-29T11:04:02Z</time>
      </trkpt>
      <trkpt lat="62.65505705437" lon="17.8438832521">
        <ele>74.8</ele>
        <time>2018-03-29T11:04:03Z</time>
      </trkpt>
      <trkpt lat="62.655106423761" lon="17.843858274038">
        <ele>74.2</ele>
        <time>2018-03-29T11:04:04Z</time>
      </trkpt>
      <trkpt lat="62.655151686021" lon="17.843843354256">
        <ele>73.6</ele>
        <time>2018-03-29T11:04:05Z</time>
      </trkpt>
      <trkpt lat="62.655196864462" lon="17.8438329607">
        <ele>73</ele>
        <time>2018-03-29T11:04:06Z</time>
      </trkpt>
      <trkpt lat="62.655244389835" lon="17.843828266836">
        <ele>72.6</ele>
        <time>2018-03-29T11:04:07Z</time>
      </trkpt>
      <trkpt lat="62.655287808077" lon="17.843837235469">
        <ele>72.2</ele>
        <time>2018-03-29T11:04:08Z</time>
      </trkpt>
      <trkpt lat="62.655333740889" lon="17.843858190219">
        <ele>72</ele>
        <time>2018-03-29T11:04:09Z</time>
      </trkpt>
      <trkpt lat="62.655384954298" lon="17.843891885457">
        <ele>72</ele>
        <time>2018-03-29T11:04:10Z</time>
      </trkpt>
      <trkpt lat="62.655435664793" lon="17.843929604007">
        <ele>72</ele>
        <time>2018-03-29T11:04:11Z</time>
      </trkpt>
      <trkpt lat="62.655487129659" lon="17.84397210024">
        <ele>72</ele>
        <time>2018-03-29T11:04:12Z</time>
      </trkpt>
      <trkpt lat="62.65554488095" lon="17.844023984201">
        <ele>71.8</ele>
        <time>2018-03-29T11:04:13Z</time>
      </trkpt>
      <trkpt lat="62.655608751028" lon="17.844083495691">
        <ele>71.2</ele>
        <time>2018-03-29T11:04:14Z</time>
      </trkpt>
      <trkpt lat="62.655667675785" lon="17.844150215615">
        <ele>70.6</ele>
        <time>2018-03-29T11:04:15Z</time>
      </trkpt>
      <trkpt lat="62.655735233899" lon="17.844238896117">
        <ele>69.6</ele>
        <time>2018-03-29T11:04:16Z</time>
      </trkpt>
      <trkpt lat="62.655797846692" lon="17.844329672094">
        <ele>69</ele>
        <time>2018-03-29T11:04:17Z</time>
      </trkpt>
      <trkpt lat="62.655855681802" lon="17.844418687872">
        <ele>68.4</ele>
        <time>2018-03-29T11:04:18Z</time>
      </trkpt>
      <trkpt lat="62.65591619912" lon="17.844514576808">
        <ele>67.2</ele>
        <time>2018-03-29T11:04:19Z</time>
      </trkpt>
      <trkpt lat="62.655974118049" lon="17.844604430776">
        <ele>66.4</ele>
        <time>2018-03-29T11:04:20Z</time>
      </trkpt>
      <trkpt lat="62.656026337286" lon="17.844685316111">
        <ele>65.8</ele>
        <time>2018-03-29T11:04:21Z</time>
      </trkpt>
      <trkpt lat="62.656083501844" lon="17.844771817319">
        <ele>64.8</ele>
        <time>2018-03-29T11:04:22Z</time>
      </trkpt>
      <trkpt lat="62.656133038873" lon="17.844846835324">
        <ele>64.6</ele>
        <time>2018-03-29T11:04:23Z</time>
      </trkpt>
      <trkpt lat="62.656186850671" lon="17.844926128098">
        <ele>64.4</ele>
        <time>2018-03-29T11:04:24Z</time>
      </trkpt>
      <trkpt lat="62.656236639157" lon="17.845000391732">
        <ele>64.2</ele>
        <time>2018-03-29T11:04:25Z</time>
      </trkpt>
      <trkpt lat="62.65628584091" lon="17.845073062805">
        <ele>64</ele>
        <time>2018-03-29T11:04:26Z</time>
      </trkpt>
      <trkpt lat="62.656328840057" lon="17.845136262331">
        <ele>63.8</ele>
        <time>2018-03-29T11:04:27Z</time>
      </trkpt>
      <trkpt lat="62.656375191964" lon="17.845204742454">
        <ele>63.8</ele>
        <time>2018-03-29T11:04:28Z</time>
      </trkpt>
      <trkpt lat="62.656420957138" lon="17.845271713835">
        <ele>63.6</ele>
        <time>2018-03-29T11:04:29Z</time>
      </trkpt>
      <trkpt lat="62.656462950457" lon="17.84533415899">
        <ele>63.4</ele>
        <time>2018-03-29T11:04:30Z</time>
      </trkpt>
      <trkpt lat="62.656503854129" lon="17.845393251385">
        <ele>63.2</ele>
        <time>2018-03-29T11:04:31Z</time>
      </trkpt>
      <trkpt lat="62.656546350362" lon="17.845450835038">
        <ele>63.2</ele>
        <time>2018-03-29T11:04:32Z</time>
      </trkpt>
      <trkpt lat="62.656584739464" lon="17.845502970456">
        <ele>63</ele>
        <time>2018-03-29T11:04:33Z</time>
      </trkpt>
      <trkpt lat="62.656636874882" lon="17.845567091991">
        <ele>63</ele>
        <time>2018-03-29T11:04:34Z</time>
      </trkpt>
      <trkpt lat="62.656679287296" lon="17.845620400875">
        <ele>63.2</ele>
        <time>2018-03-29T11:04:35Z</time>
      </trkpt>
      <trkpt lat="62.656721448253" lon="17.845686617885">
        <ele>63.4</ele>
        <time>2018-03-29T11:04:36Z</time>
      </trkpt>
      <trkpt lat="62.656759669717" lon="17.845750487963">
        <ele>63.4</ele>
        <time>2018-03-29T11:04:37Z</time>
      </trkpt>
      <trkpt lat="62.656795292792" lon="17.845807149607">
        <ele>63.6</ele>
        <time>2018-03-29T11:04:38Z</time>
      </trkpt>
      <trkpt lat="62.656839130129" lon="17.845858782111">
        <ele>63.6</ele>
        <time>2018-03-29T11:04:39Z</time>
      </trkpt>
      <trkpt lat="62.656883135104" lon="17.845889292227">
        <ele>63.6</ele>
        <time>2018-03-29T11:04:40Z</time>
      </trkpt>
      <trkpt lat="62.656925715156" lon="17.845915946669">
        <ele>63.2</ele>
        <time>2018-03-29T11:04:41Z</time>
      </trkpt>
      <trkpt lat="62.65696896576" lon="17.84592675932">
        <ele>63.2</ele>
        <time>2018-03-29T11:04:42Z</time>
      </trkpt>
      <trkpt lat="62.657012467821" lon="17.845923490379">
        <ele>63</ele>
        <time>2018-03-29T11:04:43Z</time>
      </trkpt>
      <trkpt lat="62.657054125864" lon="17.845921311085">
        <ele>62.8</ele>
        <time>2018-03-29T11:04:44Z</time>
      </trkpt>
      <trkpt lat="62.657094191346" lon="17.845928016605">
        <ele>62.6</ele>
        <time>2018-03-29T11:04:45Z</time>
      </trkpt>
      <trkpt lat="62.657134173009" lon="17.84594100855">
        <ele>62.6</ele>
        <time>2018-03-29T11:04:46Z</time>
      </trkpt>
      <trkpt lat="62.657163593478" lon="17.845958945816">
        <ele>62.6</ele>
        <time>2018-03-29T11:04:47Z</time>
      </trkpt>
      <trkpt lat="62.657193433042" lon="17.845982834231">
        <ele>62.6</ele>
        <time>2018-03-29T11:04:48Z</time>
      </trkpt>
      <trkpt lat="62.657225200443" lon="17.846012003243">
        <ele>62.6</ele>
        <time>2018-03-29T11:04:49Z</time>
      </trkpt>
      <trkpt lat="62.65725311217" lon="17.846039244418">
        <ele>62.6</ele>
        <time>2018-03-29T11:04:50Z</time>
      </trkpt>
      <trkpt lat="62.657278509327" lon="17.846074867493">
        <ele>62.8</ele>
        <time>2018-03-29T11:04:51Z</time>
      </trkpt>
      <trkpt lat="62.657301811009" lon="17.846103701229">
        <ele>62.8</ele>
        <time>2018-03-29T11:04:52Z</time>
      </trkpt>
      <trkpt lat="62.657323352492" lon="17.84614133596">
        <ele>63</ele>
        <time>2018-03-29T11:04:53Z</time>
      </trkpt>
      <trkpt lat="62.657347324726" lon="17.846196405043">
        <ele>63</ele>
        <time>2018-03-29T11:04:54Z</time>
      </trkpt>
      <trkpt lat="62.65737297334" lon="17.846254743067">
        <ele>63.4</ele>
        <time>2018-03-29T11:04:55Z</time>
      </trkpt>
      <trkpt lat="62.657392838443" lon="17.846320038068">
        <ele>63.4</ele>
        <time>2018-03-29T11:04:56Z</time>
      </trkpt>
      <trkpt lat="62.657420331075" lon="17.846380471567">
        <ele>63.4</ele>
        <time>2018-03-29T11:04:57Z</time>
      </trkpt>
      <trkpt lat="62.657444973861" lon="17.846457752685">
        <ele>63.4</ele>
        <time>2018-03-29T11:04:58Z</time>
      </trkpt>
      <trkpt lat="62.657464503688" lon="17.846535955812">
        <ele>63.6</ele>
        <time>2018-03-29T11:04:59Z</time>
      </trkpt>
      <trkpt lat="62.65748696718" lon="17.84660317865">
        <ele>63.6</ele>
        <time>2018-03-29T11:05:00Z</time>
      </trkpt>
      <trkpt lat="62.657507167559" lon="17.846689679858">
        <ele>63.6</ele>
        <time>2018-03-29T11:05:01Z</time>
      </trkpt>
      <trkpt lat="62.657528625223" lon="17.846773666496">
        <ele>63.4</ele>
        <time>2018-03-29T11:05:02Z</time>
      </trkpt>
      <trkpt lat="62.657547652136" lon="17.846847846311">
        <ele>63.4</ele>
        <time>2018-03-29T11:05:03Z</time>
      </trkpt>
      <trkpt lat="62.657570618542" lon="17.846939125202">
        <ele>63.2</ele>
        <time>2018-03-29T11:05:04Z</time>
      </trkpt>
      <trkpt lat="62.657594004043" lon="17.847015651949">
        <ele>63</ele>
        <time>2018-03-29T11:05:05Z</time>
      </trkpt>
      <trkpt lat="62.657613617689" lon="17.84711279817">
        <ele>63</ele>
        <time>2018-03-29T11:05:06Z</time>
      </trkpt>
      <trkpt lat="62.657635997362" lon="17.847206507812">
        <ele>62.8</ele>
        <time>2018-03-29T11:05:07Z</time>
      </trkpt>
      <trkpt lat="62.65765879613" lon="17.847292757563">
        <ele>62.6</ele>
        <time>2018-03-29T11:05:08Z</time>
      </trkpt>
      <trkpt lat="62.65767975088" lon="17.847393256544">
        <ele>62.4</ele>
        <time>2018-03-29T11:05:09Z</time>
      </trkpt>
      <trkpt lat="62.657705818589" lon="17.847481015037">
        <ele>62</ele>
        <time>2018-03-29T11:05:10Z</time>
      </trkpt>
      <trkpt lat="62.657734484687" lon="17.847556535956">
        <ele>62</ele>
        <time>2018-03-29T11:05:11Z</time>
      </trkpt>
      <trkpt lat="62.657748231003" lon="17.84763582873">
        <ele>61.8</ele>
        <time>2018-03-29T11:05:12Z</time>
      </trkpt>
      <trkpt lat="62.657777483834" lon="17.847713612762">
        <ele>61.8</ele>
        <time>2018-03-29T11:05:13Z</time>
      </trkpt>
      <trkpt lat="62.657801875163" lon="17.847804388739">
        <ele>61.6</ele>
        <time>2018-03-29T11:05:14Z</time>
      </trkpt>
      <trkpt lat="62.657827104682" lon="17.847881586038">
        <ele>61.6</ele>
        <time>2018-03-29T11:05:15Z</time>
      </trkpt>
      <trkpt lat="62.657853340029" lon="17.847956184948">
        <ele>61.6</ele>
        <time>2018-03-29T11:05:16Z</time>
      </trkpt>
      <trkpt lat="62.657873540408" lon="17.848038327568">
        <ele>61.6</ele>
        <time>2018-03-29T11:05:17Z</time>
      </trkpt>
      <trkpt lat="62.657897596461" lon="17.848112255926">
        <ele>61.6</ele>
        <time>2018-03-29T11:05:18Z</time>
      </trkpt>
      <trkpt lat="62.657924334722" lon="17.848190459053">
        <ele>61.6</ele>
        <time>2018-03-29T11:05:19Z</time>
      </trkpt>
      <trkpt lat="62.657949145146" lon="17.848263549221">
        <ele>61.6</ele>
        <time>2018-03-29T11:05:20Z</time>
      </trkpt>
      <trkpt lat="62.657981834556" lon="17.848315265544">
        <ele>61.4</ele>
        <time>2018-03-29T11:05:21Z</time>
      </trkpt>
      <trkpt lat="62.658011506482" lon="17.848378213613">
        <ele>61.4</ele>
        <time>2018-03-29T11:05:22Z</time>
      </trkpt>
      <trkpt lat="62.65803681982" lon="17.848434037067">
        <ele>61.2</ele>
        <time>2018-03-29T11:05:23Z</time>
      </trkpt>
      <trkpt lat="62.658068335764" lon="17.848487094494">
        <ele>61.2</ele>
        <time>2018-03-29T11:05:24Z</time>
      </trkpt>
      <trkpt lat="62.658099516432" lon="17.848555909893">
        <ele>61</ele>
        <time>2018-03-29T11:05:25Z</time>
      </trkpt>
      <trkpt lat="62.658130948557" lon="17.848636376133">
        <ele>60.8</ele>
        <time>2018-03-29T11:05:26Z</time>
      </trkpt>
      <trkpt lat="62.658158105913" lon="17.848711394138">
        <ele>60.8</ele>
        <time>2018-03-29T11:05:27Z</time>
      </trkpt>
      <trkpt lat="62.658191549694" lon="17.848798062984">
        <ele>60.6</ele>
        <time>2018-03-29T11:05:28Z</time>
      </trkpt>
      <trkpt lat="62.658224155285" lon="17.848875176464">
        <ele>60.4</ele>
        <time>2018-03-29T11:05:29Z</time>
      </trkpt>
      <trkpt lat="62.65825391103" lon="17.848940471465">
        <ele>60.2</ele>
        <time>2018-03-29T11:05:30Z</time>
      </trkpt>
      <trkpt lat="62.658280146377" lon="17.849006353199">
        <ele>60</ele>
        <time>2018-03-29T11:05:31Z</time>
      </trkpt>
      <trkpt lat="62.658311410864" lon="17.84905739897">
        <ele>59.8</ele>
        <time>2018-03-29T11:05:32Z</time>
      </trkpt>
      <trkpt lat="62.658337981487" lon="17.849109031474">
        <ele>59.8</ele>
        <time>2018-03-29T11:05:33Z</time>
      </trkpt>
      <trkpt lat="62.65836790487" lon="17.849174997027">
        <ele>59.8</ele>
        <time>2018-03-29T11:05:34Z</time>
      </trkpt>
      <trkpt lat="62.65839305057" lon="17.849227635359">
        <ele>59.8</ele>
        <time>2018-03-29T11:05:35Z</time>
      </trkpt>
      <trkpt lat="62.6584156817" lon="17.849283877908">
        <ele>59.6</ele>
        <time>2018-03-29T11:05:36Z</time>
      </trkpt>
      <trkpt lat="62.658438731925" lon="17.849346825977">
        <ele>59.6</ele>
        <time>2018-03-29T11:05:37Z</time>
      </trkpt>
      <trkpt lat="62.658462117426" lon="17.849408265304">
        <ele>59.6</ele>
        <time>2018-03-29T11:05:38Z</time>
      </trkpt>
      <trkpt lat="62.658481479615" lon="17.849477918893">
        <ele>59.4</ele>
        <time>2018-03-29T11:05:39Z</time>
      </trkpt>
      <trkpt lat="62.658497656682" lon="17.849555451468">
        <ele>59.4</ele>
        <time>2018-03-29T11:05:40Z</time>
      </trkpt>
      <trkpt lat="62.658499165424" lon="17.849636504441">
        <ele>59.4</ele>
        <time>2018-03-29T11:05:41Z</time>
      </trkpt>
      <trkpt lat="62.658487849859" lon="17.849714959025">
        <ele>59.2</ele>
        <time>2018-03-29T11:05:42Z</time>
      </trkpt>
      <trkpt lat="62.658464129082" lon="17.849786372813">
        <ele>59.2</ele>
        <time>2018-03-29T11:05:43Z</time>
      </trkpt>
      <trkpt lat="62.658434540975" lon="17.849845465208">
        <ele>59.2</ele>
        <time>2018-03-29T11:05:44Z</time>
      </trkpt>
      <trkpt lat="62.658406796886" lon="17.849874047487">
        <ele>59.2</ele>
        <time>2018-03-29T11:05:45Z</time>
      </trkpt>
      <trkpt lat="62.658377208779" lon="17.849888967269">
        <ele>59</ele>
        <time>2018-03-29T11:05:46Z</time>
      </trkpt>
      <trkpt lat="62.658354829106" lon="17.849890727468">
        <ele>59.2</ele>
        <time>2018-03-29T11:05:47Z</time>
      </trkpt>
      <trkpt lat="62.658332114157" lon="17.849891314201">
        <ele>59.2</ele>
        <time>2018-03-29T11:05:48Z</time>
      </trkpt>
      <trkpt lat="62.658306633181" lon="17.849891733296">
        <ele>59.2</ele>
        <time>2018-03-29T11:05:49Z</time>
      </trkpt>
      <trkpt lat="62.658288360639" lon="17.849895002237">
        <ele>59.4</ele>
        <time>2018-03-29T11:05:50Z</time>
      </trkpt>
      <trkpt lat="62.658269501364" lon="17.849891984753">
        <ele>59.4</ele>
        <time>2018-03-29T11:05:51Z</time>
      </trkpt>
      <trkpt lat="62.658243601293" lon="17.849890978925">
        <ele>59.4</ele>
        <time>2018-03-29T11:05:52Z</time>
      </trkpt>
      <trkpt lat="62.658221724534" lon="17.849895002237">
        <ele>59.6</ele>
        <time>2018-03-29T11:05:53Z</time>
      </trkpt>
      <trkpt lat="62.658196662653" lon="17.849893661133">
        <ele>59.8</ele>
        <time>2018-03-29T11:05:54Z</time>
      </trkpt>
      <trkpt lat="62.658172858057" lon="17.849899277006">
        <ele>60</ele>
        <time>2018-03-29T11:05:55Z</time>
      </trkpt>
      <trkpt lat="62.658151903307" lon="17.849904306146">
        <ele>60.2</ele>
        <time>2018-03-29T11:05:56Z</time>
      </trkpt>
      <trkpt lat="62.658126422331" lon="17.849914951159">
        <ele>60.4</ele>
        <time>2018-03-29T11:05:57Z</time>
      </trkpt>
      <trkpt lat="62.658103455925" lon="17.849927775466">
        <ele>60.6</ele>
        <time>2018-03-29T11:05:58Z</time>
      </trkpt>
      <trkpt lat="62.6580804057" lon="17.84993163114">
        <ele>60.6</ele>
        <time>2018-03-29T11:05:59Z</time>
      </trkpt>
      <trkpt lat="62.658054505629" lon="17.849936492642">
        <ele>60.8</ele>
        <time>2018-03-29T11:06:00Z</time>
      </trkpt>
      <trkpt lat="62.65802843792" lon="17.849939258669">
        <ele>60.8</ele>
        <time>2018-03-29T11:06:01Z</time>
      </trkpt>
      <trkpt lat="62.65799993946" lon="17.849941521782">
        <ele>60.8</ele>
        <time>2018-03-29T11:06:02Z</time>
      </trkpt>
      <trkpt lat="62.657979152348" lon="17.84994755675">
        <ele>60.8</ele>
        <time>2018-03-29T11:06:03Z</time>
      </trkpt>
      <trkpt lat="62.657949396603" lon="17.849950741872">
        <ele>60.8</ele>
        <time>2018-03-29T11:06:04Z</time>
      </trkpt>
      <trkpt lat="62.657918886487" lon="17.849950490415">
        <ele>61</ele>
        <time>2018-03-29T11:06:05Z</time>
      </trkpt>
      <trkpt lat="62.657894578977" lon="17.849952921166">
        <ele>60.8</ele>
        <time>2018-03-29T11:06:06Z</time>
      </trkpt>
      <trkpt lat="62.65786918182" lon="17.849953004985">
        <ele>61</ele>
        <time>2018-03-29T11:06:07Z</time>
      </trkpt>
      <trkpt lat="62.657849316717" lon="17.849955351917">
        <ele>61</ele>
        <time>2018-03-29T11:06:08Z</time>
      </trkpt>
      <trkpt lat="62.657830792718" lon="17.849958285582">
        <ele>61</ele>
        <time>2018-03-29T11:06:09Z</time>
      </trkpt>
      <trkpt lat="62.657813358366" lon="17.849962141256">
        <ele>61.4</ele>
        <time>2018-03-29T11:06:10Z</time>
      </trkpt>
      <trkpt lat="62.657795085824" lon="17.849960716333">
        <ele>61.6</ele>
        <time>2018-03-29T11:06:11Z</time>
      </trkpt>
      <trkpt lat="62.657778322024" lon="17.849957866487">
        <ele>62</ele>
        <time>2018-03-29T11:06:12Z</time>
      </trkpt>
      <trkpt lat="62.657761222948" lon="17.849954346089">
        <ele>62.2</ele>
        <time>2018-03-29T11:06:13Z</time>
      </trkpt>
      <trkpt lat="62.657743034225" lon="17.849951999157">
        <ele>62.4</ele>
        <time>2018-03-29T11:06:14Z</time>
      </trkpt>
      <trkpt lat="62.657723923493" lon="17.849948143483">
        <ele>62.4</ele>
        <time>2018-03-29T11:06:15Z</time>
      </trkpt>
      <trkpt lat="62.657703136381" lon="17.84994671856">
        <ele>62.8</ele>
        <time>2018-03-29T11:06:16Z</time>
      </trkpt>
      <trkpt lat="62.657682013993" lon="17.849943617257">
        <ele>63</ele>
        <time>2018-03-29T11:06:17Z</time>
      </trkpt>
      <trkpt lat="62.657658293216" lon="17.849945964189">
        <ele>63</ele>
        <time>2018-03-29T11:06:18Z</time>
      </trkpt>
      <trkpt lat="62.657636165" lon="17.849951999157">
        <ele>63.2</ele>
        <time>2018-03-29T11:06:19Z</time>
      </trkpt>
      <trkpt lat="62.657614539698" lon="17.849956190107">
        <ele>63.2</ele>
        <time>2018-03-29T11:06:20Z</time>
      </trkpt>
      <trkpt lat="62.657593501129" lon="17.849959123772">
        <ele>63.4</ele>
        <time>2018-03-29T11:06:21Z</time>
      </trkpt>
      <trkpt lat="62.657570618542" lon="17.849968008586">
        <ele>63.4</ele>
        <time>2018-03-29T11:06:22Z</time>
      </trkpt>
      <trkpt lat="62.657550501982" lon="17.849976558124">
        <ele>63.4</ele>
        <time>2018-03-29T11:06:23Z</time>
      </trkpt>
      <trkpt lat="62.657528625223" lon="17.849984856205">
        <ele>63.8</ele>
        <time>2018-03-29T11:06:24Z</time>
      </trkpt>
      <trkpt lat="62.657511777604" lon="17.849998434883">
        <ele>63.8</ele>
        <time>2018-03-29T11:06:25Z</time>
      </trkpt>
      <trkpt lat="62.657496103451" lon="17.850009918086">
        <ele>63.8</ele>
        <time>2018-03-29T11:06:26Z</time>
      </trkpt>
      <trkpt lat="62.657480932212" lon="17.850018048529">
        <ele>64</ele>
        <time>2018-03-29T11:06:27Z</time>
      </trkpt>
      <trkpt lat="62.657463162584" lon="17.8500271848">
        <ele>64.2</ele>
        <time>2018-03-29T11:06:28Z</time>
      </trkpt>
      <trkpt lat="62.657449164811" lon="17.850039003279">
        <ele>64.2</ele>
        <time>2018-03-29T11:06:29Z</time>
      </trkpt>
      <trkpt lat="62.657435753771" lon="17.850046714627">
        <ele>64.4</ele>
        <time>2018-03-29T11:06:30Z</time>
      </trkpt>
      <trkpt lat="62.657423432378" lon="17.850050905577">
        <ele>64.8</ele>
        <time>2018-03-29T11:06:31Z</time>
      </trkpt>
      <trkpt lat="62.657414128469" lon="17.85005903602">
        <ele>65.2</ele>
        <time>2018-03-29T11:06:32Z</time>
      </trkpt>
      <trkpt lat="62.657403902551" lon="17.850064568074">
        <ele>65.4</ele>
        <time>2018-03-29T11:06:33Z</time>
      </trkpt>
      <trkpt lat="62.65739057533" lon="17.850068926662">
        <ele>65.6</ele>
        <time>2018-03-29T11:06:34Z</time>
      </trkpt>
      <trkpt lat="62.657379008308" lon="17.850076218915">
        <ele>66</ele>
        <time>2018-03-29T11:06:35Z</time>
      </trkpt>
      <trkpt lat="62.6573679442" lon="17.850082672978">
        <ele>66.2</ele>
        <time>2018-03-29T11:06:36Z</time>
      </trkpt>
      <trkpt lat="62.657353275875" lon="17.850087199204">
        <ele>66.4</ele>
        <time>2018-03-29T11:06:37Z</time>
      </trkpt>
      <trkpt lat="62.657338775188" lon="17.850091809249">
        <ele>66.6</ele>
        <time>2018-03-29T11:06:38Z</time>
      </trkpt>
      <trkpt lat="62.657327627261" lon="17.850103376271">
        <ele>67</ele>
        <time>2018-03-29T11:06:39Z</time>
      </trkpt>
      <trkpt lat="62.657314970592" lon="17.850110752343">
        <ele>67</ele>
        <time>2018-03-29T11:06:40Z</time>
      </trkpt>
      <trkpt lat="62.657298039154" lon="17.850117541682">
        <ele>67.2</ele>
        <time>2018-03-29T11:06:41Z</time>
      </trkpt>
      <trkpt lat="62.657286053037" lon="17.850125085392">
        <ele>67.6</ele>
        <time>2018-03-29T11:06:42Z</time>
      </trkpt>
      <trkpt lat="62.657272977273" lon="17.850130198351">
        <ele>67.6</ele>
        <time>2018-03-29T11:06:43Z</time>
      </trkpt>
      <trkpt lat="62.657261913165" lon="17.850141597735">
        <ele>67.8</ele>
        <time>2018-03-29T11:06:44Z</time>
      </trkpt>
      <trkpt lat="62.657249088858" lon="17.850150985463">
        <ele>68</ele>
        <time>2018-03-29T11:06:45Z</time>
      </trkpt>
      <trkpt lat="62.657233917619" lon="17.850157355707">
        <ele>68.2</ele>
        <time>2018-03-29T11:06:46Z</time>
      </trkpt>
      <trkpt lat="62.657219416932" lon="17.850165234693">
        <ele>68.4</ele>
        <time>2018-03-29T11:06:47Z</time>
      </trkpt>
      <trkpt lat="62.657210196842" lon="17.850175963525">
        <ele>68.6</ele>
        <time>2018-03-29T11:06:48Z</time>
      </trkpt>
      <trkpt lat="62.657195863793" lon="17.850189877479">
        <ele>68.6</ele>
        <time>2018-03-29T11:06:49Z</time>
      </trkpt>
      <trkpt lat="62.657179938183" lon="17.850203037062">
        <ele>68.8</ele>
        <time>2018-03-29T11:06:50Z</time>
      </trkpt>
      <trkpt lat="62.657165605134" lon="17.85021493936">
        <ele>69</ele>
        <time>2018-03-29T11:06:51Z</time>
      </trkpt>
      <trkpt lat="62.657151188266" lon="17.850228769495">
        <ele>69.2</ele>
        <time>2018-03-29T11:06:52Z</time>
      </trkpt>
      <trkpt lat="62.657136939036" lon="17.850237821947">
        <ele>69.6</ele>
        <time>2018-03-29T11:06:53Z</time>
      </trkpt>
      <trkpt lat="62.657123527996" lon="17.850253160824">
        <ele>70</ele>
        <time>2018-03-29T11:06:54Z</time>
      </trkpt>
      <trkpt lat="62.657112128612" lon="17.850268164425">
        <ele>70.2</ele>
        <time>2018-03-29T11:06:55Z</time>
      </trkpt>
      <trkpt lat="62.657098969029" lon="17.850281659284">
        <ele>70.4</ele>
        <time>2018-03-29T11:06:56Z</time>
      </trkpt>
      <trkpt lat="62.657087066731" lon="17.850290544098">
        <ele>70.6</ele>
        <time>2018-03-29T11:06:57Z</time>
      </trkpt>
      <trkpt lat="62.657073907148" lon="17.850298590722">
        <ele>70.8</ele>
        <time>2018-03-29T11:06:58Z</time>
      </trkpt>
      <trkpt lat="62.657061921031" lon="17.850310995934">
        <ele>71</ele>
        <time>2018-03-29T11:06:59Z</time>
      </trkpt>
      <trkpt lat="62.657048929086" lon="17.850320718938">
        <ele>71.2</ele>
        <time>2018-03-29T11:07:00Z</time>
      </trkpt>
      <trkpt lat="62.657035601865" lon="17.850327675915">
        <ele>71.6</ele>
        <time>2018-03-29T11:07:01Z</time>
      </trkpt>
      <trkpt lat="62.657021352635" lon="17.850337482738">
        <ele>71.8</ele>
        <time>2018-03-29T11:07:02Z</time>
      </trkpt>
      <trkpt lat="62.657009617975" lon="17.850347289561">
        <ele>72</ele>
        <time>2018-03-29T11:07:03Z</time>
      </trkpt>
      <trkpt lat="62.656991429252" lon="17.850357347841">
        <ele>72.2</ele>
        <time>2018-03-29T11:07:04Z</time>
      </trkpt>
      <trkpt lat="62.656973408167" lon="17.850362628438">
        <ele>72.4</ele>
        <time>2018-03-29T11:07:05Z</time>
      </trkpt>
      <trkpt lat="62.656957147281" lon="17.850373105813">
        <ele>72.8</ele>
        <time>2018-03-29T11:07:06Z</time>
      </trkpt>
      <trkpt lat="62.656939377653" lon="17.850379895152">
        <ele>73</ele>
        <time>2018-03-29T11:07:07Z</time>
      </trkpt>
      <trkpt lat="62.656922446215" lon="17.850380314247">
        <ele>73.2</ele>
        <time>2018-03-29T11:07:08Z</time>
      </trkpt>
      <trkpt lat="62.656905766234" lon="17.850382996455">
        <ele>73.4</ele>
        <time>2018-03-29T11:07:09Z</time>
      </trkpt>
      <trkpt lat="62.656885482036" lon="17.850380230428">
        <ele>73.6</ele>
        <time>2018-03-29T11:07:10Z</time>
      </trkpt>
      <trkpt lat="62.656867460951" lon="17.850376290935">
        <ele>73.8</ele>
        <time>2018-03-29T11:07:11Z</time>
      </trkpt>
      <trkpt lat="62.656851954436" lon="17.85037503365">
        <ele>73.8</ele>
        <time>2018-03-29T11:07:12Z</time>
      </trkpt>
      <trkpt lat="62.656833681894" lon="17.850372854356">
        <ele>74</ele>
        <time>2018-03-29T11:07:13Z</time>
      </trkpt>
      <trkpt lat="62.656811134583" lon="17.85036832813">
        <ele>74.2</ele>
        <time>2018-03-29T11:07:14Z</time>
      </trkpt>
      <trkpt lat="62.656795544249" lon="17.850366316474">
        <ele>74.4</ele>
        <time>2018-03-29T11:07:15Z</time>
      </trkpt>
      <trkpt lat="62.656776601155" lon="17.850361371153">
        <ele>74.6</ele>
        <time>2018-03-29T11:07:16Z</time>
      </trkpt>
      <trkpt lat="62.656759502079" lon="17.850352737796">
        <ele>74.6</ele>
        <time>2018-03-29T11:07:17Z</time>
      </trkpt>
      <trkpt lat="62.656746342496" lon="17.850349720312">
        <ele>74.8</ele>
        <time>2018-03-29T11:07:18Z</time>
      </trkpt>
      <trkpt lat="62.656729159601" lon="17.850342595697">
        <ele>74.8</ele>
        <time>2018-03-29T11:07:19Z</time>
      </trkpt>
      <trkpt lat="62.656710719421" lon="17.850338488566">
        <ele>75</ele>
        <time>2018-03-29T11:07:20Z</time>
      </trkpt>
      <trkpt lat="62.656692949793" lon="17.850336560729">
        <ele>75.2</ele>
        <time>2018-03-29T11:07:21Z</time>
      </trkpt>
      <trkpt lat="62.656671911224" lon="17.850329268476">
        <ele>75.4</ele>
        <time>2018-03-29T11:07:22Z</time>
      </trkpt>
      <trkpt lat="62.656652046121" lon="17.850330693399">
        <ele>75.6</ele>
        <time>2018-03-29T11:07:23Z</time>
      </trkpt>
      <trkpt lat="62.656628409163" lon="17.850328346467">
        <ele>75.6</ele>
        <time>2018-03-29T11:07:24Z</time>
      </trkpt>
      <trkpt lat="62.656606280947" lon="17.850320886576">
        <ele>75.8</ele>
        <time>2018-03-29T11:07:25Z</time>
      </trkpt>
      <trkpt lat="62.656587840767" lon="17.850319796929">
        <ele>75.8</ele>
        <time>2018-03-29T11:07:26Z</time>
      </trkpt>
      <trkpt lat="62.65656998732" lon="17.850322814413">
        <ele>75.8</ele>
        <time>2018-03-29T11:07:27Z</time>
      </trkpt>
      <trkpt lat="62.656550457493" lon="17.850318791101">
        <ele>75.8</ele>
        <time>2018-03-29T11:07:28Z</time>
      </trkpt>
      <trkpt lat="62.656531765856" lon="17.850324658431">
        <ele>75.8</ele>
        <time>2018-03-29T11:07:29Z</time>
      </trkpt>
      <trkpt lat="62.656511816934" lon="17.850322814413">
        <ele>76</ele>
        <time>2018-03-29T11:07:30Z</time>
      </trkpt>
      <trkpt lat="62.656490862184" lon="17.850327340639">
        <ele>76</ele>
        <time>2018-03-29T11:07:31Z</time>
      </trkpt>
      <trkpt lat="62.656468398692" lon="17.850332872693">
        <ele>76</ele>
        <time>2018-03-29T11:07:32Z</time>
      </trkpt>
      <trkpt lat="62.656445432286" lon="17.850340332584">
        <ele>76.2</ele>
        <time>2018-03-29T11:07:33Z</time>
      </trkpt>
      <trkpt lat="62.656422298242" lon="17.850356342013">
        <ele>76.4</ele>
        <time>2018-03-29T11:07:34Z</time>
      </trkpt>
      <trkpt lat="62.656397152542" lon="17.850369250139">
        <ele>76.6</ele>
        <time>2018-03-29T11:07:35Z</time>
      </trkpt>
      <trkpt lat="62.65637468905" lon="17.850382744998">
        <ele>76.6</ele>
        <time>2018-03-29T11:07:36Z</time>
      </trkpt>
      <trkpt lat="62.656356081232" lon="17.850399592617">
        <ele>76.8</ele>
        <time>2018-03-29T11:07:37Z</time>
      </trkpt>
      <trkpt lat="62.656334707387" lon="17.850414260942">
        <ele>76.8</ele>
        <time>2018-03-29T11:07:38Z</time>
      </trkpt>
      <trkpt lat="62.6563118248" lon="17.850430689466">
        <ele>76.8</ele>
        <time>2018-03-29T11:07:39Z</time>
      </trkpt>
      <trkpt lat="62.656293552258" lon="17.850448962008">
        <ele>77</ele>
        <time>2018-03-29T11:07:40Z</time>
      </trkpt>
      <trkpt lat="62.65627578263" lon="17.850462875962">
        <ele>77.2</ele>
        <time>2018-03-29T11:07:41Z</time>
      </trkpt>
      <trkpt lat="62.656260108477" lon="17.850474107708">
        <ele>77.2</ele>
        <time>2018-03-29T11:07:42Z</time>
      </trkpt>
      <trkpt lat="62.656250972206" lon="17.850488943671">
        <ele>77.4</ele>
        <time>2018-03-29T11:07:43Z</time>
      </trkpt>
      <trkpt lat="62.656238818451" lon="17.850503025263">
        <ele>77.6</ele>
        <time>2018-03-29T11:07:44Z</time>
      </trkpt>
      <trkpt lat="62.65622884399" lon="17.850512329172">
        <ele>77.8</ele>
        <time>2018-03-29T11:07:45Z</time>
      </trkpt>
      <trkpt lat="62.656218366615" lon="17.850526662221">
        <ele>78</ele>
        <time>2018-03-29T11:07:46Z</time>
      </trkpt>
      <trkpt lat="62.656208895068" lon="17.850543258383">
        <ele>78.2</ele>
        <time>2018-03-29T11:07:47Z</time>
      </trkpt>
      <trkpt lat="62.656197998598" lon="17.850554490129">
        <ele>78.4</ele>
        <time>2018-03-29T11:07:48Z</time>
      </trkpt>
      <trkpt lat="62.656186683033" lon="17.850563039667">
        <ele>78.4</ele>
        <time>2018-03-29T11:07:49Z</time>
      </trkpt>
      <trkpt lat="62.656178720228" lon="17.850575612517">
        <ele>78.6</ele>
        <time>2018-03-29T11:07:50Z</time>
      </trkpt>
      <trkpt lat="62.656168578129" lon="17.850584664969">
        <ele>79</ele>
        <time>2018-03-29T11:07:51Z</time>
      </trkpt>
      <trkpt lat="62.65615675965" lon="17.850591873403">
        <ele>79.2</ele>
        <time>2018-03-29T11:07:52Z</time>
      </trkpt>
      <trkpt lat="62.65614586318" lon="17.850605368262">
        <ele>79.4</ele>
        <time>2018-03-29T11:07:53Z</time>
      </trkpt>
      <trkpt lat="62.656133877063" lon="17.85061894694">
        <ele>79.6</ele>
        <time>2018-03-29T11:07:54Z</time>
      </trkpt>
      <trkpt lat="62.65611987929" lon="17.850630597781">
        <ele>79.8</ele>
        <time>2018-03-29T11:07:55Z</time>
      </trkpt>
      <trkpt lat="62.656108647544" lon="17.850643086812">
        <ele>80</ele>
        <time>2018-03-29T11:07:56Z</time>
      </trkpt>
      <trkpt lat="62.65609724816" lon="17.850656414033">
        <ele>80.2</ele>
        <time>2018-03-29T11:07:57Z</time>
      </trkpt>
      <trkpt lat="62.65608132255" lon="17.850668064874">
        <ele>80.4</ele>
        <time>2018-03-29T11:07:58Z</time>
      </trkpt>
      <trkpt lat="62.656067240958" lon="17.850683655208">
        <ele>80.6</ele>
        <time>2018-03-29T11:07:59Z</time>
      </trkpt>
      <trkpt lat="62.656049974244" lon="17.850702849759">
        <ele>81</ele>
        <time>2018-03-29T11:08:00Z</time>
      </trkpt>
      <trkpt lat="62.656031114969" lon="17.850722966319">
        <ele>81.2</ele>
        <time>2018-03-29T11:08:01Z</time>
      </trkpt>
      <trkpt lat="62.656016865739" lon="17.850741406499">
        <ele>81.4</ele>
        <time>2018-03-29T11:08:02Z</time>
      </trkpt>
      <trkpt lat="62.656002867966" lon="17.850755488091">
        <ele>81.6</ele>
        <time>2018-03-29T11:08:03Z</time>
      </trkpt>
      <trkpt lat="62.655987026175" lon="17.850777532488">
        <ele>81.8</ele>
        <time>2018-03-29T11:08:04Z</time>
      </trkpt>
      <trkpt lat="62.655969424185" lon="17.850799493066">
        <ele>82</ele>
        <time>2018-03-29T11:08:05Z</time>
      </trkpt>
      <trkpt lat="62.655950732548" lon="17.850820699273">
        <ele>82</ele>
        <time>2018-03-29T11:08:06Z</time>
      </trkpt>
      <trkpt lat="62.655920306251" lon="17.850859256013">
        <ele>82.4</ele>
        <time>2018-03-29T11:08:08Z</time>
      </trkpt>
      <trkpt lat="62.655905218831" lon="17.850881887143">
        <ele>82.6</ele>
        <time>2018-03-29T11:08:09Z</time>
      </trkpt>
      <trkpt lat="62.655888874126" lon="17.850905775558">
        <ele>82.8</ele>
        <time>2018-03-29T11:08:10Z</time>
      </trkpt>
      <trkpt lat="62.655871858869" lon="17.850927652317">
        <ele>83</ele>
        <time>2018-03-29T11:08:11Z</time>
      </trkpt>
      <trkpt lat="62.655857693458" lon="17.850953887664">
        <ele>83.2</ele>
        <time>2018-03-29T11:08:12Z</time>
      </trkpt>
      <trkpt lat="62.655845539703" lon="17.850973082215">
        <ele>83.4</ele>
        <time>2018-03-29T11:08:13Z</time>
      </trkpt>
      <trkpt lat="62.65583238012" lon="17.85099026511">
        <ele>83.4</ele>
        <time>2018-03-29T11:08:14Z</time>
      </trkpt>
      <trkpt lat="62.655820561641" lon="17.851010800765">
        <ele>83.6</ele>
        <time>2018-03-29T11:08:15Z</time>
      </trkpt>
      <trkpt lat="62.655806480049" lon="17.851033431895">
        <ele>84</ele>
        <time>2018-03-29T11:08:16Z</time>
      </trkpt>
      <trkpt lat="62.655791727905" lon="17.851053799912">
        <ele>84.4</ele>
        <time>2018-03-29T11:08:17Z</time>
      </trkpt>
      <trkpt lat="62.655781753444" lon="17.851073832653">
        <ele>84.6</ele>
        <time>2018-03-29T11:08:18Z</time>
      </trkpt>
      <trkpt lat="62.655771695164" lon="17.851098223982">
        <ele>85.2</ele>
        <time>2018-03-29T11:08:19Z</time>
      </trkpt>
      <trkpt lat="62.655760044323" lon="17.851127560632">
        <ele>85.4</ele>
        <time>2018-03-29T11:08:20Z</time>
      </trkpt>
      <trkpt lat="62.655746381826" lon="17.851147258097">
        <ele>85.6</ele>
        <time>2018-03-29T11:08:21Z</time>
      </trkpt>
      <trkpt lat="62.655736994098" lon="17.851172571435">
        <ele>86</ele>
        <time>2018-03-29T11:08:22Z</time>
      </trkpt>
      <trkpt lat="62.655724505067" lon="17.851191095434">
        <ele>86.2</ele>
        <time>2018-03-29T11:08:23Z</time>
      </trkpt>
      <trkpt lat="62.655708663276" lon="17.851207440139">
        <ele>86.4</ele>
        <time>2018-03-29T11:08:24Z</time>
      </trkpt>
      <trkpt lat="62.655698856453" lon="17.85122747288">
        <ele>86.6</ele>
        <time>2018-03-29T11:08:25Z</time>
      </trkpt>
      <trkpt lat="62.655682427929" lon="17.851244404318">
        <ele>86.8</ele>
        <time>2018-03-29T11:08:26Z</time>
      </trkpt>
      <trkpt lat="62.655668011061" lon="17.851262509222">
        <ele>87</ele>
        <time>2018-03-29T11:08:27Z</time>
      </trkpt>
      <trkpt lat="62.655653175098" lon="17.851280697945">
        <ele>87.2</ele>
        <time>2018-03-29T11:08:28Z</time>
      </trkpt>
      <trkpt lat="62.655633477633" lon="17.851305089274">
        <ele>87.4</ele>
        <time>2018-03-29T11:08:29Z</time>
      </trkpt>
      <trkpt lat="62.655618893127" lon="17.851331156983">
        <ele>87.6</ele>
        <time>2018-03-29T11:08:30Z</time>
      </trkpt>
      <trkpt lat="62.655596681092" lon="17.851351692638">
        <ele>87.6</ele>
        <time>2018-03-29T11:08:31Z</time>
      </trkpt>
      <trkpt lat="62.655580168749" lon="17.851381616021">
        <ele>87.6</ele>
        <time>2018-03-29T11:08:32Z</time>
      </trkpt>
      <trkpt lat="62.655560555103" lon="17.851399637106">
        <ele>87.6</ele>
        <time>2018-03-29T11:08:33Z</time>
      </trkpt>
      <trkpt lat="62.65553733724" lon="17.851425788634">
        <ele>87.6</ele>
        <time>2018-03-29T11:08:34Z</time>
      </trkpt>
      <trkpt lat="62.655518561784" lon="17.851454203275">
        <ele>87.6</ele>
        <time>2018-03-29T11:08:35Z</time>
      </trkpt>
      <trkpt lat="62.655498445224" lon="17.851476247672">
        <ele>87.6</ele>
        <time>2018-03-29T11:08:36Z</time>
      </trkpt>
      <trkpt lat="62.655477993388" lon="17.851505081408">
        <ele>87.6</ele>
        <time>2018-03-29T11:08:37Z</time>
      </trkpt>
      <trkpt lat="62.65546441471" lon="17.851527209624">
        <ele>87.8</ele>
        <time>2018-03-29T11:08:38Z</time>
      </trkpt>
      <trkpt lat="62.655449662566" lon="17.851545565985">
        <ele>87.8</ele>
        <time>2018-03-29T11:08:39Z</time>
      </trkpt>
      <trkpt lat="62.655432144395" lon="17.851567526563">
        <ele>88</ele>
        <time>2018-03-29T11:08:40Z</time>
      </trkpt>
      <trkpt lat="62.655418481898" lon="17.851594013367">
        <ele>88.2</ele>
        <time>2018-03-29T11:08:41Z</time>
      </trkpt>
      <trkpt lat="62.655403981211" lon="17.851620751628">
        <ele>88.4</ele>
        <time>2018-03-29T11:08:42Z</time>
      </trkpt>
      <trkpt lat="62.655385960126" lon="17.851641035826">
        <ele>88.6</ele>
        <time>2018-03-29T11:08:43Z</time>
      </trkpt>
      <trkpt lat="62.655369950697" lon="17.851667019716">
        <ele>89</ele>
        <time>2018-03-29T11:08:44Z</time>
      </trkpt>
      <trkpt lat="62.655356874933" lon="17.851688728837">
        <ele>89.2</ele>
        <time>2018-03-29T11:08:45Z</time>
      </trkpt>
      <trkpt lat="62.655338518572" lon="17.851713790718">
        <ele>89.4</ele>
        <time>2018-03-29T11:08:46Z</time>
      </trkpt>
      <trkpt lat="62.655322257686" lon="17.851739020237">
        <ele>89.8</ele>
        <time>2018-03-29T11:08:47Z</time>
      </trkpt>
      <trkpt lat="62.655309601017" lon="17.851763411566">
        <ele>90</ele>
        <time>2018-03-29T11:08:48Z</time>
      </trkpt>
      <trkpt lat="62.655289316819" lon="17.851795178967">
        <ele>90</ele>
        <time>2018-03-29T11:08:49Z</time>
      </trkpt>
      <trkpt lat="62.65527330739" lon="17.851832310784">
        <ele>90.2</ele>
        <time>2018-03-29T11:08:50Z</time>
      </trkpt>
      <trkpt lat="62.655250340984" lon="17.851863910547">
        <ele>90.2</ele>
        <time>2018-03-29T11:08:51Z</time>
      </trkpt>
      <trkpt lat="62.655230056786" lon="17.851903976029">
        <ele>90.4</ele>
        <time>2018-03-29T11:08:52Z</time>
      </trkpt>
      <trkpt lat="62.655207677113" lon="17.85193993438">
        <ele>90.2</ele>
        <time>2018-03-29T11:08:53Z</time>
      </trkpt>
      <trkpt lat="62.655190242761" lon="17.85197597655">
        <ele>90.2</ele>
        <time>2018-03-29T11:08:54Z</time>
      </trkpt>
      <trkpt lat="62.655169455649" lon="17.852013108367">
        <ele>90.2</ele>
        <time>2018-03-29T11:08:55Z</time>
      </trkpt>
      <trkpt lat="62.655151266926" lon="17.852060549921">
        <ele>90</ele>
        <time>2018-03-29T11:08:56Z</time>
      </trkpt>
      <trkpt lat="62.655138442619" lon="17.852091227675">
        <ele>90</ele>
        <time>2018-03-29T11:08:57Z</time>
      </trkpt>
      <trkpt lat="62.655124863941" lon="17.852134729736">
        <ele>90</ele>
        <time>2018-03-29T11:08:58Z</time>
      </trkpt>
      <trkpt lat="62.655108519236" lon="17.852186613697">
        <ele>90</ele>
        <time>2018-03-29T11:08:59Z</time>
      </trkpt>
      <trkpt lat="62.65509561111" lon="17.852244448807">
        <ele>90.2</ele>
        <time>2018-03-29T11:09:00Z</time>
      </trkpt>
      <trkpt lat="62.655094102368" lon="17.852298344424">
        <ele>90.4</ele>
        <time>2018-03-29T11:09:01Z</time>
      </trkpt>
      <trkpt lat="62.655084882278" lon="17.852354167878">
        <ele>90.4</ele>
        <time>2018-03-29T11:09:02Z</time>
      </trkpt>
      <trkpt lat="62.65508220007" lon="17.852407560581">
        <ele>90.4</ele>
        <time>2018-03-29T11:09:03Z</time>
      </trkpt>
      <trkpt lat="62.655076668016" lon="17.85246883227">
        <ele>90.6</ele>
        <time>2018-03-29T11:09:04Z</time>
      </trkpt>
      <trkpt lat="62.65506878903" lon="17.852541503343">
        <ele>90.6</ele>
        <time>2018-03-29T11:09:05Z</time>
      </trkpt>
      <trkpt lat="62.655067028831" lon="17.852615264063">
        <ele>90.6</ele>
        <time>2018-03-29T11:09:06Z</time>
      </trkpt>
      <trkpt lat="62.655061915872" lon="17.852699837434">
        <ele>90.6</ele>
        <time>2018-03-29T11:09:07Z</time>
      </trkpt>
      <trkpt lat="62.655064262804" lon="17.852781309502">
        <ele>90.6</ele>
        <time>2018-03-29T11:09:08Z</time>
      </trkpt>
      <trkpt lat="62.655065855365" lon="17.852861608104">
        <ele>90.2</ele>
        <time>2018-03-29T11:09:09Z</time>
      </trkpt>
      <trkpt lat="62.655063592252" lon="17.852936709928">
        <ele>90.2</ele>
        <time>2018-03-29T11:09:10Z</time>
      </trkpt>
      <trkpt lat="62.655056635275" lon="17.853011560295">
        <ele>90</ele>
        <time>2018-03-29T11:09:11Z</time>
      </trkpt>
      <trkpt lat="62.655053450153" lon="17.853078699314">
        <ele>89.8</ele>
        <time>2018-03-29T11:09:12Z</time>
      </trkpt>
      <trkpt lat="62.655046493176" lon="17.853134858044">
        <ele>89.8</ele>
        <time>2018-03-29T11:09:13Z</time>
      </trkpt>
      <trkpt lat="62.65503358505" lon="17.853200153045">
        <ele>89.8</ele>
        <time>2018-03-29T11:09:14Z</time>
      </trkpt>
      <trkpt lat="62.65501598306" lon="17.853250695902">
        <ele>89.8</ele>
        <time>2018-03-29T11:09:15Z</time>
      </trkpt>
      <trkpt lat="62.654999805993" lon="17.853297885999">
        <ele>89.8</ele>
        <time>2018-03-29T11:09:16Z</time>
      </trkpt>
      <trkpt lat="62.654987736057" lon="17.853334933997">
        <ele>89.8</ele>
        <time>2018-03-29T11:09:17Z</time>
      </trkpt>
      <trkpt lat="62.654975833759" lon="17.853367791045">
        <ele>90</ele>
        <time>2018-03-29T11:09:18Z</time>
      </trkpt>
      <trkpt lat="62.654962841814" lon="17.853406599242">
        <ele>90</ele>
        <time>2018-03-29T11:09:19Z</time>
      </trkpt>
      <trkpt lat="62.654954627552" lon="17.853447754371">
        <ele>90.2</ele>
        <time>2018-03-29T11:09:20Z</time>
      </trkpt>
      <trkpt lat="62.654941048874" lon="17.853484970007">
        <ele>90.4</ele>
        <time>2018-03-29T11:09:21Z</time>
      </trkpt>
      <trkpt lat="62.654928559843" lon="17.853536518692">
        <ele>90.8</ele>
        <time>2018-03-29T11:09:22Z</time>
      </trkpt>
      <trkpt lat="62.654912382776" lon="17.853570800663">
        <ele>91.2</ele>
        <time>2018-03-29T11:09:23Z</time>
      </trkpt>
      <trkpt lat="62.654899977564" lon="17.853617404027">
        <ele>91.4</ele>
        <time>2018-03-29T11:09:24Z</time>
      </trkpt>
      <trkpt lat="62.654884303411" lon="17.853658475337">
        <ele>91.6</ele>
        <time>2018-03-29T11:09:25Z</time>
      </trkpt>
      <trkpt lat="62.654878184624" lon="17.853700887751">
        <ele>91.6</ele>
        <time>2018-03-29T11:09:26Z</time>
      </trkpt>
      <trkpt lat="62.654864103032" lon="17.853740617957">
        <ele>91.6</ele>
        <time>2018-03-29T11:09:27Z</time>
      </trkpt>
      <trkpt lat="62.654853541838" lon="17.85378646695">
        <ele>91.8</ele>
        <time>2018-03-29T11:09:28Z</time>
      </trkpt>
      <trkpt lat="62.654840466074" lon="17.853833824685">
        <ele>92</ele>
        <time>2018-03-29T11:09:29Z</time>
      </trkpt>
      <trkpt lat="62.654829318147" lon="17.853884032266">
        <ele>91.8</ele>
        <time>2018-03-29T11:09:30Z</time>
      </trkpt>
      <trkpt lat="62.654819930419" lon="17.853924684481">
        <ele>91.8</ele>
        <time>2018-03-29T11:09:31Z</time>
      </trkpt>
      <trkpt lat="62.654804340085" lon="17.853975646433">
        <ele>91.8</ele>
        <time>2018-03-29T11:09:32Z</time>
      </trkpt>
      <trkpt lat="62.654801238782" lon="17.854020992512">
        <ele>91.8</ele>
        <time>2018-03-29T11:09:33Z</time>
      </trkpt>
      <trkpt lat="62.654785396991" lon="17.854072373559">
        <ele>91.8</ele>
        <time>2018-03-29T11:09:34Z</time>
      </trkpt>
      <trkpt lat="62.654771818313" lon="17.854124928072">
        <ele>92</ele>
        <time>2018-03-29T11:09:35Z</time>
      </trkpt>
      <trkpt lat="62.654756060341" lon="17.854169435961">
        <ele>92</ele>
        <time>2018-03-29T11:09:36Z</time>
      </trkpt>
      <trkpt lat="62.654737033428" lon="17.854213692393">
        <ele>92</ele>
        <time>2018-03-29T11:09:37Z</time>
      </trkpt>
      <trkpt lat="62.654722951836" lon="17.854250069839">
        <ele>92</ele>
        <time>2018-03-29T11:09:38Z</time>
      </trkpt>
      <trkpt lat="62.654703505828" lon="17.854285441457">
        <ele>92</ele>
        <time>2018-03-29T11:09:39Z</time>
      </trkpt>
      <trkpt lat="62.65468070706" lon="17.854319052876">
        <ele>92.2</ele>
        <time>2018-03-29T11:09:40Z</time>
      </trkpt>
      <trkpt lat="62.654662183061" lon="17.854352915752">
        <ele>92.4</ele>
        <time>2018-03-29T11:09:41Z</time>
      </trkpt>
      <trkpt lat="62.654637372637" lon="17.854376971805">
        <ele>92.4</ele>
        <time>2018-03-29T11:09:42Z</time>
      </trkpt>
      <trkpt lat="62.654613148946" lon="17.854397256003">
        <ele>92.4</ele>
        <time>2018-03-29T11:09:43Z</time>
      </trkpt>
      <trkpt lat="62.654586326866" lon="17.854422066427">
        <ele>92.4</ele>
        <time>2018-03-29T11:09:44Z</time>
      </trkpt>
      <trkpt lat="62.654564869202" lon="17.854445619566">
        <ele>92.4</ele>
        <time>2018-03-29T11:09:45Z</time>
      </trkpt>
      <trkpt lat="62.654542154253" lon="17.854476213501">
        <ele>92.6</ele>
        <time>2018-03-29T11:09:46Z</time>
      </trkpt>
      <trkpt lat="62.654512985241" lon="17.854514183508">
        <ele>92.6</ele>
        <time>2018-03-29T11:09:47Z</time>
      </trkpt>
      <trkpt lat="62.654486582256" lon="17.854551902058">
        <ele>92.6</ele>
        <time>2018-03-29T11:09:48Z</time>
      </trkpt>
      <trkpt lat="62.654455736864" lon="17.854600852354">
        <ele>92.8</ele>
        <time>2018-03-29T11:09:49Z</time>
      </trkpt>
      <trkpt lat="62.654431261716" lon="17.854638570904">
        <ele>92.6</ele>
        <time>2018-03-29T11:09:50Z</time>
      </trkpt>
      <trkpt lat="62.65441500083" lon="17.854665476803">
        <ele>92.6</ele>
        <time>2018-03-29T11:09:51Z</time>
      </trkpt>
      <trkpt lat="62.654390441863" lon="17.854704871733">
        <ele>92.4</ele>
        <time>2018-03-29T11:09:52Z</time>
      </trkpt>
      <trkpt lat="62.654369151837" lon="17.854738064057">
        <ele>92.2</ele>
        <time>2018-03-29T11:09:53Z</time>
      </trkpt>
      <trkpt lat="62.654346688345" lon="17.854775279693">
        <ele>92.2</ele>
        <time>2018-03-29T11:09:54Z</time>
      </trkpt>
      <trkpt lat="62.65431944717" lon="17.854816267184">
        <ele>92.2</ele>
        <time>2018-03-29T11:09:55Z</time>
      </trkpt>
      <trkpt lat="62.654299917343" lon="17.854856248847">
        <ele>92.2</ele>
        <time>2018-03-29T11:09:56Z</time>
      </trkpt>
      <trkpt lat="62.654275945109" lon="17.854898409804">
        <ele>92.2</ele>
        <time>2018-03-29T11:09:57Z</time>
      </trkpt>
      <trkpt lat="62.654255241816" lon="17.854942498598">
        <ele>92.4</ele>
        <time>2018-03-29T11:09:58Z</time>
      </trkpt>
      <trkpt lat="62.654237723645" lon="17.854981893528">
        <ele>92.4</ele>
        <time>2018-03-29T11:09:59Z</time>
      </trkpt>
      <trkpt lat="62.654212326488" lon="17.855026736693">
        <ele>92.4</ele>
        <time>2018-03-29T11:10:00Z</time>
      </trkpt>
      <trkpt lat="62.654193467213" lon="17.855065293433">
        <ele>92.6</ele>
        <time>2018-03-29T11:10:01Z</time>
      </trkpt>
      <trkpt lat="62.654171674273" lon="17.855102341431">
        <ele>92.4</ele>
        <time>2018-03-29T11:10:02Z</time>
      </trkpt>
      <trkpt lat="62.654148121134" lon="17.855124888742">
        <ele>92.4</ele>
        <time>2018-03-29T11:10:03Z</time>
      </trkpt>
      <trkpt lat="62.654118952122" lon="17.855160595636">
        <ele>92.4</ele>
        <time>2018-03-29T11:10:04Z</time>
      </trkpt>
      <trkpt lat="62.654098081191" lon="17.855195212883">
        <ele>92.4</ele>
        <time>2018-03-29T11:10:05Z</time>
      </trkpt>
      <trkpt lat="62.654072264939" lon="17.855231338872">
        <ele>92.2</ele>
        <time>2018-03-29T11:10:06Z</time>
      </trkpt>
      <trkpt lat="62.654048292705" lon="17.855276014399">
        <ele>92.2</ele>
        <time>2018-03-29T11:10:07Z</time>
      </trkpt>
      <trkpt lat="62.654025326299" lon="17.855316415157">
        <ele>92.2</ele>
        <time>2018-03-29T11:10:08Z</time>
      </trkpt>
      <trkpt lat="62.653999174771" lon="17.855351032404">
        <ele>92.2</ele>
        <time>2018-03-29T11:10:09Z</time>
      </trkpt>
      <trkpt lat="62.653977549469" lon="17.855378860312">
        <ele>92.4</ele>
        <time>2018-03-29T11:10:10Z</time>
      </trkpt>
      <trkpt lat="62.653955756529" lon="17.855409286609">
        <ele>92.6</ele>
        <time>2018-03-29T11:10:11Z</time>
      </trkpt>
      <trkpt lat="62.653930946105" lon="17.855436443965">
        <ele>92.6</ele>
        <time>2018-03-29T11:10:12Z</time>
      </trkpt>
      <trkpt lat="62.653909404622" lon="17.855465612977">
        <ele>92.8</ele>
        <time>2018-03-29T11:10:13Z</time>
      </trkpt>
      <trkpt lat="62.653895155392" lon="17.855491680686">
        <ele>93</ele>
        <time>2018-03-29T11:10:14Z</time>
      </trkpt>
      <trkpt lat="62.65388275018" lon="17.855511797246">
        <ele>93</ele>
        <time>2018-03-29T11:10:15Z</time>
      </trkpt>
      <trkpt lat="62.653861879249" lon="17.855532081444">
        <ele>93.2</ele>
        <time>2018-03-29T11:10:16Z</time>
      </trkpt>
      <trkpt lat="62.653841175956" lon="17.855559657895">
        <ele>93.4</ele>
        <time>2018-03-29T11:10:17Z</time>
      </trkpt>
      <trkpt lat="62.653827764916" lon="17.855588910726">
        <ele>93.6</ele>
        <time>2018-03-29T11:10:18Z</time>
      </trkpt>
      <trkpt lat="62.65380982765" lon="17.855615229892">
        <ele>93.8</ele>
        <time>2018-03-29T11:10:19Z</time>
      </trkpt>
      <trkpt lat="62.653789375814" lon="17.85564557237">
        <ele>94</ele>
        <time>2018-03-29T11:10:20Z</time>
      </trkpt>
      <trkpt lat="62.653772025281" lon="17.855675914848">
        <ele>94.2</ele>
        <time>2018-03-29T11:10:21Z</time>
      </trkpt>
      <trkpt lat="62.653751405807" lon="17.855707346973">
        <ele>94.2</ele>
        <time>2018-03-29T11:10:22Z</time>
      </trkpt>
      <trkpt lat="62.653734222912" lon="17.855735091062">
        <ele>94.4</ele>
        <time>2018-03-29T11:10:23Z</time>
      </trkpt>
      <trkpt lat="62.65371762675" lon="17.855768618662">
        <ele>94.4</ele>
        <time>2018-03-29T11:10:24Z</time>
      </trkpt>
      <trkpt lat="62.653698180742" lon="17.855796865665">
        <ele>94.6</ele>
        <time>2018-03-29T11:10:25Z</time>
      </trkpt>
      <trkpt lat="62.653678399458" lon="17.855821173175">
        <ele>94.6</ele>
        <time>2018-03-29T11:10:26Z</time>
      </trkpt>
      <trkpt lat="62.653667083893" lon="17.85583835607">
        <ele>94.8</ele>
        <time>2018-03-29T11:10:27Z</time>
      </trkpt>
      <trkpt lat="62.653645290953" lon="17.855861657752">
        <ele>95</ele>
        <time>2018-03-29T11:10:28Z</time>
      </trkpt>
      <trkpt lat="62.653623833289" lon="17.855877248086">
        <ele>95.4</ele>
        <time>2018-03-29T11:10:29Z</time>
      </trkpt>
      <trkpt lat="62.653610086973" lon="17.855894263343">
        <ele>95.6</ele>
        <time>2018-03-29T11:10:30Z</time>
      </trkpt>
      <trkpt lat="62.65359022187" lon="17.855905243632">
        <ele>95.8</ele>
        <time>2018-03-29T11:10:31Z</time>
      </trkpt>
      <trkpt lat="62.653572284604" lon="17.855904992175">
        <ele>96</ele>
        <time>2018-03-29T11:10:32Z</time>
      </trkpt>
      <trkpt lat="62.653557029546" lon="17.855911865333">
        <ele>96</ele>
        <time>2018-03-29T11:10:33Z</time>
      </trkpt>
      <trkpt lat="62.653537583538" lon="17.855926701296">
        <ele>96.2</ele>
        <time>2018-03-29T11:10:34Z</time>
      </trkpt>
      <trkpt lat="62.653513778942" lon="17.855932820083">
        <ele>96.4</ele>
        <time>2018-03-29T11:10:35Z</time>
      </trkpt>
      <trkpt lat="62.653494081477" lon="17.855941956354">
        <ele>96.6</ele>
        <time>2018-03-29T11:10:36Z</time>
      </trkpt>
      <trkpt lat="62.653471869442" lon="17.855948913331">
        <ele>96.8</ele>
        <time>2018-03-29T11:10:37Z</time>
      </trkpt>
      <trkpt lat="62.653450830873" lon="17.855943884191">
        <ele>97</ele>
        <time>2018-03-29T11:10:38Z</time>
      </trkpt>
      <trkpt lat="62.65343012758" lon="17.85593977706">
        <ele>97.2</ele>
        <time>2018-03-29T11:10:39Z</time>
      </trkpt>
      <trkpt lat="62.653407747907" lon="17.855935502291">
        <ele>97.4</ele>
        <time>2018-03-29T11:10:40Z</time>
      </trkpt>
      <trkpt lat="62.653390816469" lon="17.855923767631">
        <ele>97.4</ele>
        <time>2018-03-29T11:10:41Z</time>
      </trkpt>
      <trkpt lat="62.65337313066" lon="17.855917816482">
        <ele>97.8</ele>
        <time>2018-03-29T11:10:42Z</time>
      </trkpt>
      <trkpt lat="62.653354355204" lon="17.855905830365">
        <ele>97.8</ele>
        <time>2018-03-29T11:10:43Z</time>
      </trkpt>
      <trkpt lat="62.653334657739" lon="17.855887976918">
        <ele>98</ele>
        <time>2018-03-29T11:10:44Z</time>
      </trkpt>
      <trkpt lat="62.653317223387" lon="17.85587439824">
        <ele>98.2</ele>
        <time>2018-03-29T11:10:45Z</time>
      </trkpt>
      <trkpt lat="62.653298028836" lon="17.855856460974">
        <ele>98.4</ele>
        <time>2018-03-29T11:10:46Z</time>
      </trkpt>
      <trkpt lat="62.653278750466" lon="17.855841122097">
        <ele>98.6</ele>
        <time>2018-03-29T11:10:47Z</time>
      </trkpt>
      <trkpt lat="62.653263243951" lon="17.85582829779">
        <ele>99</ele>
        <time>2018-03-29T11:10:48Z</time>
      </trkpt>
      <trkpt lat="62.653243043572" lon="17.855802732995">
        <ele>99.2</ele>
        <time>2018-03-29T11:10:49Z</time>
      </trkpt>
      <trkpt lat="62.653222507917" lon="17.855784041358">
        <ele>99.4</ele>
        <time>2018-03-29T11:10:50Z</time>
      </trkpt>
      <trkpt lat="62.653208593963" lon="17.855768451024">
        <ele>99.6</ele>
        <time>2018-03-29T11:10:51Z</time>
      </trkpt>
      <trkpt lat="62.653193003629" lon="17.855749424111">
        <ele>99.6</ele>
        <time>2018-03-29T11:10:52Z</time>
      </trkpt>
      <trkpt lat="62.653178586761" lon="17.855732408854">
        <ele>99.8</ele>
        <time>2018-03-29T11:10:53Z</time>
      </trkpt>
      <trkpt lat="62.653167187377" lon="17.855719249271">
        <ele>99.8</ele>
        <time>2018-03-29T11:10:54Z</time>
      </trkpt>
      <trkpt lat="62.653155368898" lon="17.855705754412">
        <ele>100</ele>
        <time>2018-03-29T11:10:55Z</time>
      </trkpt>
      <trkpt lat="62.653142712229" lon="17.855691505182">
        <ele>100</ele>
        <time>2018-03-29T11:10:56Z</time>
      </trkpt>
      <trkpt lat="62.653131815759" lon="17.855677339771">
        <ele>100.4</ele>
        <time>2018-03-29T11:10:57Z</time>
      </trkpt>
      <trkpt lat="62.653119829642" lon="17.855669712242">
        <ele>100.4</ele>
        <time>2018-03-29T11:10:58Z</time>
      </trkpt>
      <trkpt lat="62.653104406946" lon="17.855656720297">
        <ele>100.6</ele>
        <time>2018-03-29T11:10:59Z</time>
      </trkpt>
      <trkpt lat="62.65309233701" lon="17.855646662017">
        <ele>100.8</ele>
        <time>2018-03-29T11:11:00Z</time>
      </trkpt>
      <trkpt lat="62.653079931798" lon="17.855640040316">
        <ele>101.2</ele>
        <time>2018-03-29T11:11:01Z</time>
      </trkpt>
      <trkpt lat="62.653066939853" lon="17.855627635104">
        <ele>101.6</ele>
        <time>2018-03-29T11:11:02Z</time>
      </trkpt>
      <trkpt lat="62.653053277356" lon="17.855617995919">
        <ele>101.8</ele>
        <time>2018-03-29T11:11:03Z</time>
      </trkpt>
      <trkpt lat="62.653039028126" lon="17.855609865476">
        <ele>102</ele>
        <time>2018-03-29T11:11:04Z</time>
      </trkpt>
      <trkpt lat="62.653023689249" lon="17.855598298454">
        <ele>102.2</ele>
        <time>2018-03-29T11:11:05Z</time>
      </trkpt>
      <trkpt lat="62.653006338716" lon="17.855582624301">
        <ele>102.6</ele>
        <time>2018-03-29T11:11:06Z</time>
      </trkpt>
      <trkpt lat="62.652988988183" lon="17.855574661496">
        <ele>103</ele>
        <time>2018-03-29T11:11:07Z</time>
      </trkpt>
      <trkpt lat="62.65297331403" lon="17.855566531053">
        <ele>103.4</ele>
        <time>2018-03-29T11:11:08Z</time>
      </trkpt>
      <trkpt lat="62.65295571204" lon="17.855556975687">
        <ele>103.6</ele>
        <time>2018-03-29T11:11:09Z</time>
      </trkpt>
      <trkpt lat="62.652937523317" lon="17.855547420321">
        <ele>104</ele>
        <time>2018-03-29T11:11:10Z</time>
      </trkpt>
      <trkpt lat="62.652924615191" lon="17.855537948774">
        <ele>104.2</ele>
        <time>2018-03-29T11:11:11Z</time>
      </trkpt>
      <trkpt lat="62.652910617418" lon="17.855524537734">
        <ele>104.4</ele>
        <time>2018-03-29T11:11:12Z</time>
      </trkpt>
      <trkpt lat="62.65289536236" lon="17.855524370096">
        <ele>104.8</ele>
        <time>2018-03-29T11:11:13Z</time>
      </trkpt>
      <trkpt lat="62.652875078162" lon="17.85552319663">
        <ele>104.8</ele>
        <time>2018-03-29T11:11:14Z</time>
      </trkpt>
      <trkpt lat="62.652855548335" lon="17.855519760051">
        <ele>105</ele>
        <time>2018-03-29T11:11:15Z</time>
      </trkpt>
      <trkpt lat="62.652834342128" lon="17.855517496938">
        <ele>105.2</ele>
        <time>2018-03-29T11:11:16Z</time>
      </trkpt>
      <trkpt lat="62.652815315215" lon="17.855518418947">
        <ele>105.4</ele>
        <time>2018-03-29T11:11:17Z</time>
      </trkpt>
      <trkpt lat="62.652792684085" lon="17.855520179146">
        <ele>105.4</ele>
        <time>2018-03-29T11:11:18Z</time>
      </trkpt>
      <trkpt lat="62.652773405715" lon="17.855526381752">
        <ele>106</ele>
        <time>2018-03-29T11:11:19Z</time>
      </trkpt>
      <trkpt lat="62.652750439309" lon="17.855515317644">
        <ele>106</ele>
        <time>2018-03-29T11:11:20Z</time>
      </trkpt>
      <trkpt lat="62.652730155111" lon="17.855510288504">
        <ele>106.4</ele>
        <time>2018-03-29T11:11:21Z</time>
      </trkpt>
      <trkpt lat="62.652707859257" lon="17.855510372323">
        <ele>106.4</ele>
        <time>2018-03-29T11:11:22Z</time>
      </trkpt>
      <trkpt lat="62.652685395765" lon="17.855506349011">
        <ele>106.4</ele>
        <time>2018-03-29T11:11:23Z</time>
      </trkpt>
      <trkpt lat="62.652664189558" lon="17.855507103382">
        <ele>106.4</ele>
        <time>2018-03-29T11:11:24Z</time>
      </trkpt>
      <trkpt lat="62.652640804057" lon="17.855504253536">
        <ele>106.6</ele>
        <time>2018-03-29T11:11:25Z</time>
      </trkpt>
      <trkpt lat="62.652618592022" lon="17.855500146405">
        <ele>106.6</ele>
        <time>2018-03-29T11:11:26Z</time>
      </trkpt>
      <trkpt lat="62.652597553453" lon="17.855500397862">
        <ele>106.8</ele>
        <time>2018-03-29T11:11:27Z</time>
      </trkpt>
      <trkpt lat="62.652572826848" lon="17.855498805301">
        <ele>107</ele>
        <time>2018-03-29T11:11:28Z</time>
      </trkpt>
      <trkpt lat="62.652549776623" lon="17.855504253536">
        <ele>107.2</ele>
        <time>2018-03-29T11:11:29Z</time>
      </trkpt>
      <trkpt lat="62.652526223484" lon="17.855507187201">
        <ele>107.4</ele>
        <time>2018-03-29T11:11:30Z</time>
      </trkpt>
      <trkpt lat="62.652508621494" lon="17.855506851925">
        <ele>107.4</ele>
        <time>2018-03-29T11:11:31Z</time>
      </trkpt>
      <trkpt lat="62.65248716383" lon="17.855520095327">
        <ele>107.6</ele>
        <time>2018-03-29T11:11:32Z</time>
      </trkpt>
      <trkpt lat="62.652466292899" lon="17.855538367869">
        <ele>107.6</ele>
        <time>2018-03-29T11:11:33Z</time>
      </trkpt>
      <trkpt lat="62.652445170511" lon="17.855568961804">
        <ele>107.6</ele>
        <time>2018-03-29T11:11:34Z</time>
      </trkpt>
      <trkpt lat="62.652424634856" lon="17.855598382273">
        <ele>107.8</ele>
        <time>2018-03-29T11:11:35Z</time>
      </trkpt>
      <trkpt lat="62.652406529952" lon="17.855642135791">
        <ele>108</ele>
        <time>2018-03-29T11:11:36Z</time>
      </trkpt>
      <trkpt lat="62.652389347057" lon="17.855681111626">
        <ele>108</ele>
        <time>2018-03-29T11:11:37Z</time>
      </trkpt>
      <trkpt lat="62.652376271293" lon="17.855725368058">
        <ele>108</ele>
        <time>2018-03-29T11:11:38Z</time>
      </trkpt>
      <trkpt lat="62.652363866081" lon="17.855768199567">
        <ele>107.8</ele>
        <time>2018-03-29T11:11:39Z</time>
      </trkpt>
      <trkpt lat="62.652347940471" lon="17.85582075408">
        <ele>108</ele>
        <time>2018-03-29T11:11:40Z</time>
      </trkpt>
      <trkpt lat="62.65233377506" lon="17.855869452919">
        <ele>108</ele>
        <time>2018-03-29T11:11:41Z</time>
      </trkpt>
      <trkpt lat="62.65231282031" lon="17.855916391559">
        <ele>108</ele>
        <time>2018-03-29T11:11:42Z</time>
      </trkpt>
      <trkpt lat="62.652293206664" lon="17.855962659647">
        <ele>107.8</ele>
        <time>2018-03-29T11:11:43Z</time>
      </trkpt>
      <trkpt lat="62.652276861959" lon="17.856004569147">
        <ele>108</ele>
        <time>2018-03-29T11:11:44Z</time>
      </trkpt>
      <trkpt lat="62.652262948005" lon="17.856042371516">
        <ele>108</ele>
        <time>2018-03-29T11:11:45Z</time>
      </trkpt>
      <trkpt lat="62.652246854757" lon="17.856084616292">
        <ele>108</ele>
        <time>2018-03-29T11:11:46Z</time>
      </trkpt>
      <trkpt lat="62.652231264423" lon="17.856121915747">
        <ele>108</ele>
        <time>2018-03-29T11:11:47Z</time>
      </trkpt>
      <trkpt lat="62.652212656605" lon="17.856159969573">
        <ele>108.2</ele>
        <time>2018-03-29T11:11:48Z</time>
      </trkpt>
      <trkpt lat="62.652192540045" lon="17.856200118874">
        <ele>108.2</ele>
        <time>2018-03-29T11:11:49Z</time>
      </trkpt>
      <trkpt lat="62.652178877548" lon="17.856233562655">
        <ele>108.4</ele>
        <time>2018-03-29T11:11:50Z</time>
      </trkpt>
      <trkpt lat="62.652160521187" lon="17.856261306744">
        <ele>108.6</ele>
        <time>2018-03-29T11:11:51Z</time>
      </trkpt>
      <trkpt lat="62.652135375487" lon="17.856288967014">
        <ele>108.6</ele>
        <time>2018-03-29T11:11:52Z</time>
      </trkpt>
      <trkpt lat="62.652114756013" lon="17.856313442162">
        <ele>108.8</ele>
        <time>2018-03-29T11:11:53Z</time>
      </trkpt>
      <trkpt lat="62.652085251725" lon="17.856341605346">
        <ele>109</ele>
        <time>2018-03-29T11:11:54Z</time>
      </trkpt>
      <trkpt lat="62.652058429645" lon="17.856365745218">
        <ele>109.2</ele>
        <time>2018-03-29T11:11:55Z</time>
      </trkpt>
      <trkpt lat="62.652026662244" lon="17.856377647516">
        <ele>109.2</ele>
        <time>2018-03-29T11:11:56Z</time>
      </trkpt>
      <trkpt lat="62.651986177667" lon="17.856395333325">
        <ele>109.4</ele>
        <time>2018-03-29T11:11:57Z</time>
      </trkpt>
      <trkpt lat="62.651949967859" lon="17.856412851496">
        <ele>109.2</ele>
        <time>2018-03-29T11:11:58Z</time>
      </trkpt>
      <trkpt lat="62.651913590413" lon="17.856444870354">
        <ele>109</ele>
        <time>2018-03-29T11:11:59Z</time>
      </trkpt>
      <trkpt lat="62.651881739193" lon="17.856485522569">
        <ele>108.6</ele>
        <time>2018-03-29T11:12:00Z</time>
      </trkpt>
      <trkpt lat="62.651848379231" lon="17.856544363507">
        <ele>108.4</ele>
        <time>2018-03-29T11:12:01Z</time>
      </trkpt>
      <trkpt lat="62.65181242088" lon="17.856625751756">
        <ele>108</ele>
        <time>2018-03-29T11:12:02Z</time>
      </trkpt>
      <trkpt lat="62.651782162221" lon="17.856714683715">
        <ele>108</ele>
        <time>2018-03-29T11:12:03Z</time>
      </trkpt>
      <trkpt lat="62.651747125879" lon="17.856820044198">
        <ele>107.6</ele>
        <time>2018-03-29T11:12:04Z</time>
      </trkpt>
      <trkpt lat="62.651737235237" lon="17.856902438275">
        <ele>107.2</ele>
        <time>2018-03-29T11:12:05Z</time>
      </trkpt>
      <trkpt lat="62.651726422586" lon="17.856982820696">
        <ele>106.6</ele>
        <time>2018-03-29T11:12:06Z</time>
      </trkpt>
      <trkpt lat="62.651710077881" lon="17.857058425434">
        <ele>106.4</ele>
        <time>2018-03-29T11:12:07Z</time>
      </trkpt>
      <trkpt lat="62.651687027656" lon="17.857131012688">
        <ele>106</ele>
        <time>2018-03-29T11:12:08Z</time>
      </trkpt>
      <trkpt lat="62.651657774825" lon="17.857212903851">
        <ele>105.6</ele>
        <time>2018-03-29T11:12:09Z</time>
      </trkpt>
      <trkpt lat="62.651636317161" lon="17.857290436426">
        <ele>105.4</ele>
        <time>2018-03-29T11:12:10Z</time>
      </trkpt>
      <trkpt lat="62.651609495081" lon="17.857361682576">
        <ele>105.2</ele>
        <time>2018-03-29T11:12:11Z</time>
      </trkpt>
      <trkpt lat="62.651580912802" lon="17.857431252346">
        <ele>105</ele>
        <time>2018-03-29T11:12:12Z</time>
      </trkpt>
      <trkpt lat="62.651551073238" lon="17.857506018894">
        <ele>104.6</ele>
        <time>2018-03-29T11:12:13Z</time>
      </trkpt>
      <trkpt lat="62.651524586434" lon="17.85758682041">
        <ele>104.6</ele>
        <time>2018-03-29T11:12:14Z</time>
      </trkpt>
      <trkpt lat="62.651499189277" lon="17.857653624153">
        <ele>104.2</ele>
        <time>2018-03-29T11:12:15Z</time>
      </trkpt>
      <trkpt lat="62.651470774636" lon="17.857728893615">
        <ele>104.2</ele>
        <time>2018-03-29T11:12:16Z</time>
      </trkpt>
      <trkpt lat="62.651446383307" lon="17.857786058173">
        <ele>104.4</ele>
        <time>2018-03-29T11:12:17Z</time>
      </trkpt>
      <trkpt lat="62.651421237607" lon="17.857838445048">
        <ele>104.2</ele>
        <time>2018-03-29T11:12:18Z</time>
      </trkpt>
      <trkpt lat="62.651392152414" lon="17.857896196339">
        <ele>104.2</ele>
        <time>2018-03-29T11:12:19Z</time>
      </trkpt>
      <trkpt lat="62.651361307022" lon="17.857953444716">
        <ele>104</ele>
        <time>2018-03-29T11:12:20Z</time>
      </trkpt>
      <trkpt lat="62.651325013395" lon="17.858017985346">
        <ele>103.8</ele>
        <time>2018-03-29T11:12:21Z</time>
      </trkpt>
      <trkpt lat="62.651290899062" lon="17.858093590084">
        <ele>103.6</ele>
        <time>2018-03-29T11:12:22Z</time>
      </trkpt>
      <trkpt lat="62.651264412258" lon="17.858152011927">
        <ele>103.4</ele>
        <time>2018-03-29T11:12:23Z</time>
      </trkpt>
      <trkpt lat="62.651224262957" lon="17.858213367435">
        <ele>103.2</ele>
        <time>2018-03-29T11:12:24Z</time>
      </trkpt>
      <trkpt lat="62.651189310434" lon="17.858294504227">
        <ele>103.2</ele>
        <time>2018-03-29T11:12:25Z</time>
      </trkpt>
      <trkpt lat="62.651159219413" lon="17.858349405672">
        <ele>103</ele>
        <time>2018-03-29T11:12:26Z</time>
      </trkpt>
      <trkpt lat="62.651127535831" lon="17.858406821687">
        <ele>103</ele>
        <time>2018-03-29T11:12:27Z</time>
      </trkpt>
      <trkpt lat="62.651094594964" lon="17.858461639313">
        <ele>103</ele>
        <time>2018-03-29T11:12:28Z</time>
      </trkpt>
      <trkpt lat="62.651058301337" lon="17.858514529102">
        <ele>103</ele>
        <time>2018-03-29T11:12:29Z</time>
      </trkpt>
      <trkpt lat="62.651018403493" lon="17.858556690059">
        <ele>102.8</ele>
        <time>2018-03-29T11:12:30Z</time>
      </trkpt>
      <trkpt lat="62.650975823441" lon="17.858590552935">
        <ele>102.8</ele>
        <time>2018-03-29T11:12:31Z</time>
      </trkpt>
      <trkpt lat="62.650935003588" lon="17.858613435522">
        <ele>102.4</ele>
        <time>2018-03-29T11:12:32Z</time>
      </trkpt>
      <trkpt lat="62.650901056893" lon="17.858626595105">
        <ele>102</ele>
        <time>2018-03-29T11:12:33Z</time>
      </trkpt>
      <trkpt lat="62.65086778075" lon="17.858629025856">
        <ele>101.4</ele>
        <time>2018-03-29T11:12:34Z</time>
      </trkpt>
      <trkpt lat="62.650838779376" lon="17.858629277313">
        <ele>101.2</ele>
        <time>2018-03-29T11:12:35Z</time>
      </trkpt>
      <trkpt lat="62.650807766346" lon="17.85861779411">
        <ele>101</ele>
        <time>2018-03-29T11:12:36Z</time>
      </trkpt>
      <trkpt lat="62.650771724176" lon="17.858601365586">
        <ele>101.4</ele>
        <time>2018-03-29T11:12:37Z</time>
      </trkpt>
      <trkpt lat="62.650744734458" lon="17.858589463288">
        <ele>101.4</ele>
        <time>2018-03-29T11:12:38Z</time>
      </trkpt>
      <trkpt lat="62.650721851871" lon="17.858569514366">
        <ele>101.6</ele>
        <time>2018-03-29T11:12:39Z</time>
      </trkpt>
      <trkpt lat="62.650695281248" lon="17.858542105553">
        <ele>101.8</ele>
        <time>2018-03-29T11:12:40Z</time>
      </trkpt>
      <trkpt lat="62.65066745334" lon="17.858506650116">
        <ele>102</ele>
        <time>2018-03-29T11:12:41Z</time>
      </trkpt>
      <trkpt lat="62.650638535785" lon="17.858448731187">
        <ele>101.8</ele>
        <time>2018-03-29T11:12:42Z</time>
      </trkpt>
      <trkpt lat="62.650612468076" lon="17.858378490865">
        <ele>101.8</ele>
        <time>2018-03-29T11:12:43Z</time>
      </trkpt>
      <trkpt lat="62.650584975444" lon="17.858285200318">
        <ele>101.6</ele>
        <time>2018-03-29T11:12:44Z</time>
      </trkpt>
      <trkpt lat="62.650564942703" lon="17.858193418513">
        <ele>101</ele>
        <time>2018-03-29T11:12:45Z</time>
      </trkpt>
      <trkpt lat="62.6505450776" lon="17.858081603967">
        <ele>100.2</ele>
        <time>2018-03-29T11:12:46Z</time>
      </trkpt>
      <trkpt lat="62.650528481438" lon="17.857966771937">
        <ele>99.4</ele>
        <time>2018-03-29T11:12:47Z</time>
      </trkpt>
      <trkpt lat="62.650514567484" lon="17.857855125029">
        <ele>98.6</ele>
        <time>2018-03-29T11:12:48Z</time>
      </trkpt>
      <trkpt lat="62.650497803684" lon="17.857719757344">
        <ele>97.6</ele>
        <time>2018-03-29T11:12:49Z</time>
      </trkpt>
      <trkpt lat="62.650476429839" lon="17.857586401315">
        <ele>96.8</ele>
        <time>2018-03-29T11:12:50Z</time>
      </trkpt>
      <trkpt lat="62.65045036213" lon="17.85746360648">
        <ele>96.4</ele>
        <time>2018-03-29T11:12:51Z</time>
      </trkpt>
      <trkpt lat="62.650419013824" lon="17.857334609039">
        <ele>96.2</ele>
        <time>2018-03-29T11:12:52Z</time>
      </trkpt>
      <trkpt lat="62.650382636378" lon="17.857216088973">
        <ele>96.2</ele>
        <time>2018-03-29T11:12:53Z</time>
      </trkpt>
      <trkpt lat="62.65033804467" lon="17.857093377957">
        <ele>96.4</ele>
        <time>2018-03-29T11:12:54Z</time>
      </trkpt>
      <trkpt lat="62.650296638084" lon="17.856985167628">
        <ele>96.2</ele>
        <time>2018-03-29T11:12:55Z</time>
      </trkpt>
      <trkpt lat="62.650254309489" lon="17.856886847941">
        <ele>95.4</ele>
        <time>2018-03-29T11:12:56Z</time>
      </trkpt>
      <trkpt lat="62.650205359193" lon="17.856795149955">
        <ele>94.8</ele>
        <time>2018-03-29T11:12:57Z</time>
      </trkpt>
      <trkpt lat="62.65015280468" lon="17.856718539389">
        <ele>94</ele>
        <time>2018-03-29T11:12:58Z</time>
      </trkpt>
      <trkpt lat="62.650094466656" lon="17.856660871917">
        <ele>93.4</ele>
        <time>2018-03-29T11:12:59Z</time>
      </trkpt>
      <trkpt lat="62.650048785301" lon="17.856620890254">
        <ele>92.8</ele>
        <time>2018-03-29T11:13:00Z</time>
      </trkpt>
      <trkpt lat="62.650008300724" lon="17.856585602455">
        <ele>92.6</ele>
        <time>2018-03-29T11:13:01Z</time>
      </trkpt>
      <trkpt lat="62.649964547206" lon="17.856570682673">
        <ele>92.6</ele>
        <time>2018-03-29T11:13:02Z</time>
      </trkpt>
      <trkpt lat="62.649934707642" lon="17.856566240266">
        <ele>92.4</ele>
        <time>2018-03-29T11:13:03Z</time>
      </trkpt>
      <trkpt lat="62.649899755119" lon="17.856563306601">
        <ele>92</ele>
        <time>2018-03-29T11:13:04Z</time>
      </trkpt>
      <trkpt lat="62.649868909727" lon="17.856564312429">
        <ele>92</ele>
        <time>2018-03-29T11:13:05Z</time>
      </trkpt>
      <trkpt lat="62.64984351257" lon="17.856561546402">
        <ele>92.2</ele>
        <time>2018-03-29T11:13:06Z</time>
      </trkpt>
      <trkpt lat="62.649818785965" lon="17.856553080683">
        <ele>91.8</ele>
        <time>2018-03-29T11:13:07Z</time>
      </trkpt>
      <trkpt lat="62.64979573574" lon="17.856545034059">
        <ele>92</ele>
        <time>2018-03-29T11:13:08Z</time>
      </trkpt>
      <trkpt lat="62.64977226642" lon="17.856545536973">
        <ele>92.4</ele>
        <time>2018-03-29T11:13:09Z</time>
      </trkpt>
      <trkpt lat="62.649745695797" lon="17.856547967724">
        <ele>92.6</ele>
        <time>2018-03-29T11:13:10Z</time>
      </trkpt>
      <trkpt lat="62.649719292812" lon="17.856549057371">
        <ele>92.8</ele>
        <time>2018-03-29T11:13:11Z</time>
      </trkpt>
      <trkpt lat="62.649695236759" lon="17.85655333214">
        <ele>92.8</ele>
        <time>2018-03-29T11:13:12Z</time>
      </trkpt>
      <trkpt lat="62.649673946733" lon="17.856559618565">
        <ele>93</ele>
        <time>2018-03-29T11:13:13Z</time>
      </trkpt>
      <trkpt lat="62.649651064146" lon="17.856563977153">
        <ele>93.2</ele>
        <time>2018-03-29T11:13:14Z</time>
      </trkpt>
      <trkpt lat="62.649633881251" lon="17.856568587198">
        <ele>93.4</ele>
        <time>2018-03-29T11:13:15Z</time>
      </trkpt>
      <trkpt lat="62.649614351424" lon="17.856570263578">
        <ele>93.8</ele>
        <time>2018-03-29T11:13:16Z</time>
      </trkpt>
      <trkpt lat="62.64959373195" lon="17.856571604682">
        <ele>94.2</ele>
        <time>2018-03-29T11:13:17Z</time>
      </trkpt>
      <trkpt lat="62.64957445358" lon="17.856571856139">
        <ele>94.6</ele>
        <time>2018-03-29T11:13:18Z</time>
      </trkpt>
      <trkpt lat="62.649553079735" lon="17.856579232211">
        <ele>95</ele>
        <time>2018-03-29T11:13:19Z</time>
      </trkpt>
      <trkpt lat="62.649532292623" lon="17.856581914419">
        <ele>95.2</ele>
        <time>2018-03-29T11:13:20Z</time>
      </trkpt>
      <trkpt lat="62.649509661493" lon="17.856584512808">
        <ele>95.6</ele>
        <time>2018-03-29T11:13:21Z</time>
      </trkpt>
      <trkpt lat="62.649488287648" lon="17.856590631595">
        <ele>95.8</ele>
        <time>2018-03-29T11:13:22Z</time>
      </trkpt>
      <trkpt lat="62.649469176916" lon="17.856592978527">
        <ele>96</ele>
        <time>2018-03-29T11:13:23Z</time>
      </trkpt>
      <trkpt lat="62.649445875234" lon="17.856597923848">
        <ele>96</ele>
        <time>2018-03-29T11:13:24Z</time>
      </trkpt>
      <trkpt lat="62.649422825009" lon="17.856594235812">
        <ele>96.2</ele>
        <time>2018-03-29T11:13:25Z</time>
      </trkpt>
      <trkpt lat="62.649398266042" lon="17.856587614111">
        <ele>96.4</ele>
        <time>2018-03-29T11:13:26Z</time>
      </trkpt>
      <trkpt lat="62.649378233301" lon="17.856581411505">
        <ele>96.6</ele>
        <time>2018-03-29T11:13:27Z</time>
      </trkpt>
      <trkpt lat="62.649356272723" lon="17.856566240266">
        <ele>96.6</ele>
        <time>2018-03-29T11:13:28Z</time>
      </trkpt>
      <trkpt lat="62.64932383477" lon="17.856536652159">
        <ele>96.8</ele>
        <time>2018-03-29T11:13:29Z</time>
      </trkpt>
      <trkpt lat="62.649301538916" lon="17.856514607762">
        <ele>97</ele>
        <time>2018-03-29T11:13:30Z</time>
      </trkpt>
      <trkpt lat="62.649281841451" lon="17.856491389899">
        <ele>97.2</ele>
        <time>2018-03-29T11:13:31Z</time>
      </trkpt>
      <trkpt lat="62.649261473434" lon="17.856455431548">
        <ele>97.2</ele>
        <time>2018-03-29T11:13:32Z</time>
      </trkpt>
      <trkpt lat="62.649242949435" lon="17.856425172889">
        <ele>97.2</ele>
        <time>2018-03-29T11:13:33Z</time>
      </trkpt>
      <trkpt lat="62.649217803735" lon="17.856373456566">
        <ele>97.4</ele>
        <time>2018-03-29T11:13:34Z</time>
      </trkpt>
      <trkpt lat="62.649197687175" lon="17.856333558722">
        <ele>97.6</ele>
        <time>2018-03-29T11:13:35Z</time>
      </trkpt>
      <trkpt lat="62.6491788279" lon="17.856286703901">
        <ele>97.6</ele>
        <time>2018-03-29T11:13:36Z</time>
      </trkpt>
      <trkpt lat="62.649155945313" lon="17.85625242193">
        <ele>97.6</ele>
        <time>2018-03-29T11:13:37Z</time>
      </trkpt>
      <trkpt lat="62.649138259504" lon="17.856208249317">
        <ele>97.6</ele>
        <time>2018-03-29T11:13:38Z</time>
      </trkpt>
      <trkpt lat="62.649118142944" lon="17.856158628469">
        <ele>97.6</ele>
        <time>2018-03-29T11:13:39Z</time>
      </trkpt>
      <trkpt lat="62.649092913425" lon="17.856123675946">
        <ele>97.4</ele>
        <time>2018-03-29T11:13:40Z</time>
      </trkpt>
      <trkpt lat="62.649070030838" lon="17.85608646031">
        <ele>97.4</ele>
        <time>2018-03-29T11:13:41Z</time>
      </trkpt>
      <trkpt lat="62.649045388052" lon="17.85605293271">
        <ele>97.4</ele>
        <time>2018-03-29T11:13:42Z</time>
      </trkpt>
      <trkpt lat="62.649027618424" lon="17.856021752042">
        <ele>97.4</ele>
        <time>2018-03-29T11:13:43Z</time>
      </trkpt>
      <trkpt lat="62.649003394733" lon="17.855989146451">
        <ele>97.6</ele>
        <time>2018-03-29T11:13:44Z</time>
      </trkpt>
      <trkpt lat="62.648983781087" lon="17.855956289403">
        <ele>97.8</ele>
        <time>2018-03-29T11:13:45Z</time>
      </trkpt>
      <trkpt lat="62.648962993975" lon="17.855917565025">
        <ele>97.8</ele>
        <time>2018-03-29T11:13:46Z</time>
      </trkpt>
      <trkpt lat="62.648947571279" lon="17.855891497316">
        <ele>98</ele>
        <time>2018-03-29T11:13:47Z</time>
      </trkpt>
      <trkpt lat="62.648931142755" lon="17.855864926693">
        <ele>98</ele>
        <time>2018-03-29T11:13:48Z</time>
      </trkpt>
      <trkpt lat="62.648910104186" lon="17.85583500331">
        <ele>98</ele>
        <time>2018-03-29T11:13:49Z</time>
      </trkpt>
      <trkpt lat="62.648888311246" lon="17.855815473483">
        <ele>98.4</ele>
        <time>2018-03-29T11:13:50Z</time>
      </trkpt>
      <trkpt lat="62.648870793075" lon="17.855796278932">
        <ele>98.6</ele>
        <time>2018-03-29T11:13:51Z</time>
      </trkpt>
      <trkpt lat="62.648852604352" lon="17.855768283386">
        <ele>98.8</ele>
        <time>2018-03-29T11:13:52Z</time>
      </trkpt>
      <trkpt lat="62.648837433113" lon="17.855746322808">
        <ele>99</ele>
        <time>2018-03-29T11:13:53Z</time>
      </trkpt>
      <trkpt lat="62.648817651829" lon="17.855711370285">
        <ele>99.2</ele>
        <time>2018-03-29T11:13:54Z</time>
      </trkpt>
      <trkpt lat="62.648803402599" lon="17.855678010323">
        <ele>99.2</ele>
        <time>2018-03-29T11:13:55Z</time>
      </trkpt>
      <trkpt lat="62.648783872772" lon="17.855655798288">
        <ele>99.4</ele>
        <time>2018-03-29T11:13:56Z</time>
      </trkpt>
      <trkpt lat="62.648766606058" lon="17.855623360335">
        <ele>99.8</ele>
        <time>2018-03-29T11:13:57Z</time>
      </trkpt>
      <trkpt lat="62.648750261353" lon="17.855588072536">
        <ele>99.8</ele>
        <time>2018-03-29T11:13:58Z</time>
      </trkpt>
      <trkpt lat="62.648733329915" lon="17.855556640411">
        <ele>100</ele>
        <time>2018-03-29T11:13:59Z</time>
      </trkpt>
      <trkpt lat="62.648717152848" lon="17.855512383979">
        <ele>100.2</ele>
        <time>2018-03-29T11:14:00Z</time>
      </trkpt>
      <trkpt lat="62.648697539202" lon="17.855476006533">
        <ele>100.2</ele>
        <time>2018-03-29T11:14:01Z</time>
      </trkpt>
      <trkpt lat="62.64868010485" lon="17.855446669883">
        <ele>100.2</ele>
        <time>2018-03-29T11:14:02Z</time>
      </trkpt>
      <trkpt lat="62.648663005774" lon="17.855427056237">
        <ele>100.4</ele>
        <time>2018-03-29T11:14:03Z</time>
      </trkpt>
      <trkpt lat="62.648638865902" lon="17.855416914138">
        <ele>100.4</ele>
        <time>2018-03-29T11:14:04Z</time>
      </trkpt>
      <trkpt lat="62.648613971659" lon="17.855406772039">
        <ele>100.2</ele>
        <time>2018-03-29T11:14:05Z</time>
      </trkpt>
      <trkpt lat="62.648592430176" lon="17.855405179478">
        <ele>100.4</ele>
        <time>2018-03-29T11:14:06Z</time>
      </trkpt>
      <trkpt lat="62.648568709399" lon="17.855400317976">
        <ele>100.2</ele>
        <time>2018-03-29T11:14:07Z</time>
      </trkpt>
      <trkpt lat="62.648541719681" lon="17.855407191134">
        <ele>100.2</ele>
        <time>2018-03-29T11:14:08Z</time>
      </trkpt>
      <trkpt lat="62.648517244533" lon="17.855419847803">
        <ele>100</ele>
        <time>2018-03-29T11:14:09Z</time>
      </trkpt>
      <trkpt lat="62.648486818236" lon="17.855437114517">
        <ele>100.2</ele>
        <time>2018-03-29T11:14:10Z</time>
      </trkpt>
      <trkpt lat="62.648462091631" lon="17.855466115891">
        <ele>100.2</ele>
        <time>2018-03-29T11:14:11Z</time>
      </trkpt>
      <trkpt lat="62.648434431361" lon="17.855482795872">
        <ele>100</ele>
        <time>2018-03-29T11:14:12Z</time>
      </trkpt>
      <trkpt lat="62.648406435815" lon="17.855502996251">
        <ele>100</ele>
        <time>2018-03-29T11:14:13Z</time>
      </trkpt>
      <trkpt lat="62.64837835645" lon="17.855520179146">
        <ele>100</ele>
        <time>2018-03-29T11:14:14Z</time>
      </trkpt>
      <trkpt lat="62.648349941809" lon="17.855532835815">
        <ele>100</ele>
        <time>2018-03-29T11:14:15Z</time>
      </trkpt>
      <trkpt lat="62.648321862444" lon="17.855550353986">
        <ele>99.8</ele>
        <time>2018-03-29T11:14:16Z</time>
      </trkpt>
      <trkpt lat="62.648289089215" lon="17.855558316791">
        <ele>99.8</ele>
        <time>2018-03-29T11:14:17Z</time>
      </trkpt>
      <trkpt lat="62.64826184804" lon="17.855567536881">
        <ele>99.6</ele>
        <time>2018-03-29T11:14:18Z</time>
      </trkpt>
      <trkpt lat="62.648228571897" lon="17.855563094474">
        <ele>99.6</ele>
        <time>2018-03-29T11:14:19Z</time>
      </trkpt>
      <trkpt lat="62.648199738161" lon="17.855559741714">
        <ele>99.4</ele>
        <time>2018-03-29T11:14:20Z</time>
      </trkpt>
      <trkpt lat="62.648172748443" lon="17.85555253328">
        <ele>99.4</ele>
        <time>2018-03-29T11:14:21Z</time>
      </trkpt>
      <trkpt lat="62.648140226671" lon="17.855550773081">
        <ele>99.6</ele>
        <time>2018-03-29T11:14:22Z</time>
      </trkpt>
      <trkpt lat="62.648115080971" lon="17.855553958203">
        <ele>99.6</ele>
        <time>2018-03-29T11:14:23Z</time>
      </trkpt>
      <trkpt lat="62.648086498692" lon="17.855560160809">
        <ele>99.8</ele>
        <time>2018-03-29T11:14:24Z</time>
      </trkpt>
      <trkpt lat="62.648061101535" lon="17.855582205206">
        <ele>100</ele>
        <time>2018-03-29T11:14:25Z</time>
      </trkpt>
      <trkpt lat="62.648037632215" lon="17.855602070309">
        <ele>100</ele>
        <time>2018-03-29T11:14:26Z</time>
      </trkpt>
      <trkpt lat="62.648015168723" lon="17.855622019231">
        <ele>100</ele>
        <time>2018-03-29T11:14:27Z</time>
      </trkpt>
      <trkpt lat="62.64799698" lon="17.855644901818">
        <ele>100</ele>
        <time>2018-03-29T11:14:28Z</time>
      </trkpt>
      <trkpt lat="62.647973175404" lon="17.855673903192">
        <ele>100</ele>
        <time>2018-03-29T11:14:29Z</time>
      </trkpt>
      <trkpt lat="62.647950795731" lon="17.855702317833">
        <ele>100.2</ele>
        <time>2018-03-29T11:14:30Z</time>
      </trkpt>
      <trkpt lat="62.647933026103" lon="17.855734504329">
        <ele>100.4</ele>
        <time>2018-03-29T11:14:31Z</time>
      </trkpt>
      <trkpt lat="62.64791902833" lon="17.855761913142">
        <ele>100.6</ele>
        <time>2018-03-29T11:14:32Z</time>
      </trkpt>
      <trkpt lat="62.647906287842" lon="17.855781778245">
        <ele>100.6</ele>
        <time>2018-03-29T11:14:33Z</time>
      </trkpt>
      <trkpt lat="62.647888266757" lon="17.855812036904">
        <ele>100.8</ele>
        <time>2018-03-29T11:14:34Z</time>
      </trkpt>
      <trkpt lat="62.647871000043" lon="17.85585009073">
        <ele>100.8</ele>
        <time>2018-03-29T11:14:35Z</time>
      </trkpt>
      <trkpt lat="62.647858427193" lon="17.855882025769">
        <ele>101.2</ele>
        <time>2018-03-29T11:14:36Z</time>
      </trkpt>
      <trkpt lat="62.647844094144" lon="17.855913290256">
        <ele>101.4</ele>
        <time>2018-03-29T11:14:37Z</time>
      </trkpt>
      <trkpt lat="62.647833113855" lon="17.855945728209">
        <ele>101.6</ele>
        <time>2018-03-29T11:14:38Z</time>
      </trkpt>
      <trkpt lat="62.647818696987" lon="17.855978166162">
        <ele>101.8</ele>
        <time>2018-03-29T11:14:39Z</time>
      </trkpt>
      <trkpt lat="62.647802687558" lon="17.856015130341">
        <ele>102</ele>
        <time>2018-03-29T11:14:40Z</time>
      </trkpt>
      <trkpt lat="62.647794305658" lon="17.856050837235">
        <ele>102.4</ele>
        <time>2018-03-29T11:14:41Z</time>
      </trkpt>
      <trkpt lat="62.647782906274" lon="17.856085119206">
        <ele>102.6</ele>
        <time>2018-03-29T11:14:42Z</time>
      </trkpt>
      <trkpt lat="62.647770081967" lon="17.85611831153">
        <ele>102.8</ele>
        <time>2018-03-29T11:14:43Z</time>
      </trkpt>
      <trkpt lat="62.647757425298" lon="17.856155946261">
        <ele>103</ele>
        <time>2018-03-29T11:14:44Z</time>
      </trkpt>
      <trkpt lat="62.647750049226" lon="17.856198610132">
        <ele>103.2</ele>
        <time>2018-03-29T11:14:45Z</time>
      </trkpt>
      <trkpt lat="62.647743511344" lon="17.856246806057">
        <ele>103.4</ele>
        <time>2018-03-29T11:14:46Z</time>
      </trkpt>
      <trkpt lat="62.647731441408" lon="17.856292152136">
        <ele>103.6</ele>
        <time>2018-03-29T11:14:47Z</time>
      </trkpt>
      <trkpt lat="62.647719455291" lon="17.856333223446">
        <ele>103.8</ele>
        <time>2018-03-29T11:14:48Z</time>
      </trkpt>
      <trkpt lat="62.647708391183" lon="17.85637982681">
        <ele>104</ele>
        <time>2018-03-29T11:14:49Z</time>
      </trkpt>
      <trkpt lat="62.64769942255" lon="17.856425005251">
        <ele>104.2</ele>
        <time>2018-03-29T11:14:50Z</time>
      </trkpt>
      <trkpt lat="62.647695399238" lon="17.856465573647">
        <ele>104.4</ele>
        <time>2018-03-29T11:14:51Z</time>
      </trkpt>
      <trkpt lat="62.647689951003" lon="17.856511087364">
        <ele>104.6</ele>
        <time>2018-03-29T11:14:52Z</time>
      </trkpt>
      <trkpt lat="62.647682574931" lon="17.856548889733">
        <ele>104.6</ele>
        <time>2018-03-29T11:14:53Z</time>
      </trkpt>
      <trkpt lat="62.647677294334" lon="17.856588871396">
        <ele>104.8</ele>
        <time>2018-03-29T11:14:54Z</time>
      </trkpt>
      <trkpt lat="62.647673606298" lon="17.856627595774">
        <ele>105</ele>
        <time>2018-03-29T11:14:55Z</time>
      </trkpt>
      <trkpt lat="62.647666146407" lon="17.856667996532">
        <ele>105.2</ele>
        <time>2018-03-29T11:14:56Z</time>
      </trkpt>
      <trkpt lat="62.647668996253" lon="17.856706385634">
        <ele>105.4</ele>
        <time>2018-03-29T11:14:57Z</time>
      </trkpt>
      <trkpt lat="62.647667319873" lon="17.856757179948">
        <ele>105.4</ele>
        <time>2018-03-29T11:14:58Z</time>
      </trkpt>
      <trkpt lat="62.647671007909" lon="17.856809315366">
        <ele>105.6</ele>
        <time>2018-03-29T11:14:59Z</time>
      </trkpt>
      <trkpt lat="62.647675869411" lon="17.856858349481">
        <ele>105.6</ele>
        <time>2018-03-29T11:15:00Z</time>
      </trkpt>
      <trkpt lat="62.647678719257" lon="17.856913921478">
        <ele>105.8</ele>
        <time>2018-03-29T11:15:01Z</time>
      </trkpt>
      <trkpt lat="62.647680311818" lon="17.856961949765">
        <ele>106</ele>
        <time>2018-03-29T11:15:02Z</time>
      </trkpt>
      <trkpt lat="62.647676204687" lon="17.857012073527">
        <ele>106</ele>
        <time>2018-03-29T11:15:03Z</time>
      </trkpt>
      <trkpt lat="62.647674947402" lon="17.857072004112">
        <ele>106.2</ele>
        <time>2018-03-29T11:15:04Z</time>
      </trkpt>
      <trkpt lat="62.647675785592" lon="17.857122882245">
        <ele>106.2</ele>
        <time>2018-03-29T11:15:05Z</time>
      </trkpt>
      <trkpt lat="62.64765499848" lon="17.85720041482">
        <ele>106</ele>
        <time>2018-03-29T11:15:06Z</time>
      </trkpt>
      <trkpt lat="62.647644437286" lon="17.857270738961">
        <ele>106</ele>
        <time>2018-03-29T11:15:07Z</time>
      </trkpt>
      <trkpt lat="62.647631696798" lon="17.857331256279">
        <ele>105.8</ele>
        <time>2018-03-29T11:15:08Z</time>
      </trkpt>
      <trkpt lat="62.647617782844" lon="17.8573948749">
        <ele>105.2</ele>
        <time>2018-03-29T11:15:09Z</time>
      </trkpt>
      <trkpt lat="62.647604539442" lon="17.857473832398">
        <ele>105.2</ele>
        <time>2018-03-29T11:15:10Z</time>
      </trkpt>
      <trkpt lat="62.647590541669" lon="17.857556729389">
        <ele>104.8</ele>
        <time>2018-03-29T11:15:11Z</time>
      </trkpt>
      <trkpt lat="62.647581992131" lon="17.857633339955">
        <ele>104.2</ele>
        <time>2018-03-29T11:15:12Z</time>
      </trkpt>
      <trkpt lat="62.647584758158" lon="17.857687906124">
        <ele>104</ele>
        <time>2018-03-29T11:15:13Z</time>
      </trkpt>
      <trkpt lat="62.64758542871" lon="17.857774658789">
        <ele>104</ele>
        <time>2018-03-29T11:15:14Z</time>
      </trkpt>
      <trkpt lat="62.647578052638" lon="17.857844312378">
        <ele>104</ele>
        <time>2018-03-29T11:15:15Z</time>
      </trkpt>
      <trkpt lat="62.647579309923" lon="17.857913882148">
        <ele>104.2</ele>
        <time>2018-03-29T11:15:16Z</time>
      </trkpt>
      <trkpt lat="62.647574951335" lon="17.85798915161">
        <ele>104.4</ele>
        <time>2018-03-29T11:15:17Z</time>
      </trkpt>
      <trkpt lat="62.647583584692" lon="17.858051261489">
        <ele>104.4</ele>
        <time>2018-03-29T11:15:18Z</time>
      </trkpt>
      <trkpt lat="62.647587356547" lon="17.858116891766">
        <ele>104.4</ele>
        <time>2018-03-29T11:15:19Z</time>
      </trkpt>
      <trkpt lat="62.647582411226" lon="17.85817858255">
        <ele>104.4</ele>
        <time>2018-03-29T11:15:20Z</time>
      </trkpt>
      <trkpt lat="62.647581489217" lon="17.858232729624">
        <ele>104.4</ele>
        <time>2018-03-29T11:15:21Z</time>
      </trkpt>
      <trkpt lat="62.647574196964" lon="17.858298024625">
        <ele>104.4</ele>
        <time>2018-03-29T11:15:22Z</time>
      </trkpt>
      <trkpt lat="62.647566317978" lon="17.858362732893">
        <ele>104.4</ele>
        <time>2018-03-29T11:15:23Z</time>
      </trkpt>
      <trkpt lat="62.647563216675" lon="17.858417634338">
        <ele>104.6</ele>
        <time>2018-03-29T11:15:24Z</time>
      </trkpt>
      <trkpt lat="62.647557684621" lon="17.858487790841">
        <ele>104.6</ele>
        <time>2018-03-29T11:15:25Z</time>
      </trkpt>
      <trkpt lat="62.64755944482" lon="17.858546715598">
        <ele>104.8</ele>
        <time>2018-03-29T11:15:26Z</time>
      </trkpt>
      <trkpt lat="62.647560702105" lon="17.858601197948">
        <ele>104.8</ele>
        <time>2018-03-29T11:15:27Z</time>
      </trkpt>
      <trkpt lat="62.647560534467" lon="17.858669510433">
        <ele>104.8</ele>
        <time>2018-03-29T11:15:28Z</time>
      </trkpt>
      <trkpt lat="62.647559780096" lon="17.858737403823">
        <ele>104.8</ele>
        <time>2018-03-29T11:15:29Z</time>
      </trkpt>
      <trkpt lat="62.647554667137" lon="17.858799932797">
        <ele>104.8</ele>
        <time>2018-03-29T11:15:30Z</time>
      </trkpt>
      <trkpt lat="62.647544525038" lon="17.858868915834">
        <ele>104.8</ele>
        <time>2018-03-29T11:15:31Z</time>
      </trkpt>
      <trkpt lat="62.647542345744" lon="17.858923984917">
        <ele>104.8</ele>
        <time>2018-03-29T11:15:32Z</time>
      </trkpt>
      <trkpt lat="62.647536394595" lon="17.858981149475">
        <ele>104.8</ele>
        <time>2018-03-29T11:15:33Z</time>
      </trkpt>
      <trkpt lat="62.647528934704" lon="17.859059184964">
        <ele>104.8</ele>
        <time>2018-03-29T11:15:34Z</time>
      </trkpt>
      <trkpt lat="62.64752424084" lon="17.859121462481">
        <ele>105</ele>
        <time>2018-03-29T11:15:35Z</time>
      </trkpt>
      <trkpt lat="62.647515523664" lon="17.859191283708">
        <ele>105</ele>
        <time>2018-03-29T11:15:36Z</time>
      </trkpt>
      <trkpt lat="62.647505633022" lon="17.85925649489">
        <ele>105</ele>
        <time>2018-03-29T11:15:37Z</time>
      </trkpt>
      <trkpt lat="62.647497334941" lon="17.859309049403">
        <ele>105</ele>
        <time>2018-03-29T11:15:38Z</time>
      </trkpt>
      <trkpt lat="62.647486019376" lon="17.859367806522">
        <ele>105</ele>
        <time>2018-03-29T11:15:39Z</time>
      </trkpt>
      <trkpt lat="62.647475709639" lon="17.859434861722">
        <ele>105</ele>
        <time>2018-03-29T11:15:40Z</time>
      </trkpt>
      <trkpt lat="62.647466824825" lon="17.859485069303">
        <ele>105.2</ele>
        <time>2018-03-29T11:15:41Z</time>
      </trkpt>
      <trkpt lat="62.647454084337" lon="17.859534522513">
        <ele>105.2</ele>
        <time>2018-03-29T11:15:42Z</time>
      </trkpt>
      <trkpt lat="62.647444026057" lon="17.859585652103">
        <ele>105.2</ele>
        <time>2018-03-29T11:15:43Z</time>
      </trkpt>
      <trkpt lat="62.647431537026" lon="17.859641140281">
        <ele>105.2</ele>
        <time>2018-03-29T11:15:44Z</time>
      </trkpt>
      <trkpt lat="62.647416868701" lon="17.859691599319">
        <ele>105.4</ele>
        <time>2018-03-29T11:15:45Z</time>
      </trkpt>
      <trkpt lat="62.64739683596" lon="17.859751194628">
        <ele>105.4</ele>
        <time>2018-03-29T11:15:46Z</time>
      </trkpt>
      <trkpt lat="62.647378647237" lon="17.859811711946">
        <ele>105.6</ele>
        <time>2018-03-29T11:15:47Z</time>
      </trkpt>
      <trkpt lat="62.647361296704" lon="17.859861919527">
        <ele>105.8</ele>
        <time>2018-03-29T11:15:48Z</time>
      </trkpt>
      <trkpt lat="62.647339755221" lon="17.859919586999">
        <ele>106</ele>
        <time>2018-03-29T11:15:49Z</time>
      </trkpt>
      <trkpt lat="62.647317459367" lon="17.859970968046">
        <ele>106</ele>
        <time>2018-03-29T11:15:50Z</time>
      </trkpt>
      <trkpt lat="62.647299941196" lon="17.860011033528">
        <ele>106.2</ele>
        <time>2018-03-29T11:15:51Z</time>
      </trkpt>
      <trkpt lat="62.647282590663" lon="17.860051518105">
        <ele>106.2</ele>
        <time>2018-03-29T11:15:52Z</time>
      </trkpt>
      <trkpt lat="62.647265826863" lon="17.860091583587">
        <ele>106.2</ele>
        <time>2018-03-29T11:15:53Z</time>
      </trkpt>
      <trkpt lat="62.647244872113" lon="17.8601441381">
        <ele>106.2</ele>
        <time>2018-03-29T11:15:54Z</time>
      </trkpt>
      <trkpt lat="62.647215703101" lon="17.860201554115">
        <ele>106.2</ele>
        <time>2018-03-29T11:15:55Z</time>
      </trkpt>
      <trkpt lat="62.647187959012" lon="17.860254946818">
        <ele>106.2</ele>
        <time>2018-03-29T11:15:56Z</time>
      </trkpt>
      <trkpt lat="62.64716465733" lon="17.860298448879">
        <ele>106.2</ele>
        <time>2018-03-29T11:15:57Z</time>
      </trkpt>
      <trkpt lat="62.647130878273" lon="17.860351087211">
        <ele>106.2</ele>
        <time>2018-03-29T11:15:58Z</time>
      </trkpt>
      <trkpt lat="62.647097099216" lon="17.860403474086">
        <ele>106.2</ele>
        <time>2018-03-29T11:15:59Z</time>
      </trkpt>
      <trkpt lat="62.647067092014" lon="17.860441276455">
        <ele>106</ele>
        <time>2018-03-29T11:16:00Z</time>
      </trkpt>
      <trkpt lat="62.64704228159" lon="17.860470696924">
        <ele>106</ele>
        <time>2018-03-29T11:16:01Z</time>
      </trkpt>
      <trkpt lat="62.647018309356" lon="17.860497519004">
        <ele>106.2</ele>
        <time>2018-03-29T11:16:02Z</time>
      </trkpt>
      <trkpt lat="62.646991403457" lon="17.860522748523">
        <ele>106.2</ele>
        <time>2018-03-29T11:16:03Z</time>
      </trkpt>
      <trkpt lat="62.646965084291" lon="17.860546553119">
        <ele>106.2</ele>
        <time>2018-03-29T11:16:04Z</time>
      </trkpt>
      <trkpt lat="62.646934657994" lon="17.860574045751">
        <ele>106.2</ele>
        <time>2018-03-29T11:16:05Z</time>
      </trkpt>
      <trkpt lat="62.646902722955" lon="17.860601119288">
        <ele>106.4</ele>
        <time>2018-03-29T11:16:06Z</time>
      </trkpt>
      <trkpt lat="62.646879421273" lon="17.860626516445">
        <ele>106.4</ele>
        <time>2018-03-29T11:16:07Z</time>
      </trkpt>
      <trkpt lat="62.64684949789" lon="17.860663145348">
        <ele>106.4</ele>
        <time>2018-03-29T11:16:08Z</time>
      </trkpt>
      <trkpt lat="62.646817311394" lon="17.860704132839">
        <ele>106.4</ele>
        <time>2018-03-29T11:16:09Z</time>
      </trkpt>
      <trkpt lat="62.646788980572" lon="17.860746545253">
        <ele>106.4</ele>
        <time>2018-03-29T11:16:10Z</time>
      </trkpt>
      <trkpt lat="62.646758302818" lon="17.860787532744">
        <ele>106.2</ele>
        <time>2018-03-29T11:16:11Z</time>
      </trkpt>
      <trkpt lat="62.646735084955" lon="17.860821982353">
        <ele>106</ele>
        <time>2018-03-29T11:16:12Z</time>
      </trkpt>
      <trkpt lat="62.646708514332" lon="17.860860036179">
        <ele>106</ele>
        <time>2018-03-29T11:16:13Z</time>
      </trkpt>
      <trkpt lat="62.646678255673" lon="17.86090270005">
        <ele>105.8</ele>
        <time>2018-03-29T11:16:14Z</time>
      </trkpt>
      <trkpt lat="62.646653445249" lon="17.860938155487">
        <ele>105.6</ele>
        <time>2018-03-29T11:16:15Z</time>
      </trkpt>
      <trkpt lat="62.6466223484" lon="17.860975706399">
        <ele>105.8</ele>
        <time>2018-03-29T11:16:16Z</time>
      </trkpt>
      <trkpt lat="62.646594017578" lon="17.861008060533">
        <ele>105.8</ele>
        <time>2018-03-29T11:16:17Z</time>
      </trkpt>
      <trkpt lat="62.646572308457" lon="17.861025997799">
        <ele>105.8</ele>
        <time>2018-03-29T11:16:18Z</time>
      </trkpt>
      <trkpt lat="62.646545570196" lon="17.861042091047">
        <ele>106</ele>
        <time>2018-03-29T11:16:19Z</time>
      </trkpt>
      <trkpt lat="62.646517909926" lon="17.861058519571">
        <ele>106</ele>
        <time>2018-03-29T11:16:20Z</time>
      </trkpt>
      <trkpt lat="62.646495362615" lon="17.861086012203">
        <ele>106.2</ele>
        <time>2018-03-29T11:16:21Z</time>
      </trkpt>
      <trkpt lat="62.646466528879" lon="17.861109984437">
        <ele>106.2</ele>
        <time>2018-03-29T11:16:22Z</time>
      </trkpt>
      <trkpt lat="62.646445657948" lon="17.861147535349">
        <ele>106.4</ele>
        <time>2018-03-29T11:16:23Z</time>
      </trkpt>
      <trkpt lat="62.646418500592" lon="17.861182906967">
        <ele>106.2</ele>
        <time>2018-03-29T11:16:24Z</time>
      </trkpt>
      <trkpt lat="62.646393857806" lon="17.861213249445">
        <ele>106.2</ele>
        <time>2018-03-29T11:16:25Z</time>
      </trkpt>
      <trkpt lat="62.646372651599" lon="17.861244933027">
        <ele>106.2</ele>
        <time>2018-03-29T11:16:26Z</time>
      </trkpt>
      <trkpt lat="62.646350858659" lon="17.861281813387">
        <ele>106.4</ele>
        <time>2018-03-29T11:16:27Z</time>
      </trkpt>
      <trkpt lat="62.646330239185" lon="17.861308970743">
        <ele>106.6</ele>
        <time>2018-03-29T11:16:28Z</time>
      </trkpt>
      <trkpt lat="62.646305009666" lon="17.861340654325">
        <ele>106.6</ele>
        <time>2018-03-29T11:16:29Z</time>
      </trkpt>
      <trkpt lat="62.646286904762" lon="17.86136621912">
        <ele>106.8</ele>
        <time>2018-03-29T11:16:30Z</time>
      </trkpt>
      <trkpt lat="62.646269386591" lon="17.861391448639">
        <ele>107</ele>
        <time>2018-03-29T11:16:31Z</time>
      </trkpt>
      <trkpt lat="62.64624935385" lon="17.861424221868">
        <ele>107.4</ele>
        <time>2018-03-29T11:16:32Z</time>
      </trkpt>
      <trkpt lat="62.646232925326" lon="17.861451630681">
        <ele>107.6</ele>
        <time>2018-03-29T11:16:33Z</time>
      </trkpt>
      <trkpt lat="62.646211886757" lon="17.861486583204">
        <ele>107.8</ele>
        <time>2018-03-29T11:16:34Z</time>
      </trkpt>
      <trkpt lat="62.646187243971" lon="17.861531007274">
        <ele>108.2</ele>
        <time>2018-03-29T11:16:35Z</time>
      </trkpt>
      <trkpt lat="62.646169977257" lon="17.861581214855">
        <ele>108.4</ele>
        <time>2018-03-29T11:16:36Z</time>
      </trkpt>
      <trkpt lat="62.646143322815" lon="17.861637205947">
        <ele>108.4</ele>
        <time>2018-03-29T11:16:37Z</time>
      </trkpt>
      <trkpt lat="62.646119518219" lon="17.861699399645">
        <ele>108.4</ele>
        <time>2018-03-29T11:16:38Z</time>
      </trkpt>
      <trkpt lat="62.646094456338" lon="17.861761090429">
        <ele>108.4</ele>
        <time>2018-03-29T11:16:39Z</time>
      </trkpt>
      <trkpt lat="62.64606579024" lon="17.861828229448">
        <ele>108.4</ele>
        <time>2018-03-29T11:16:40Z</time>
      </trkpt>
      <trkpt lat="62.646044416395" lon="17.861887824757">
        <ele>108.2</ele>
        <time>2018-03-29T11:16:41Z</time>
      </trkpt>
      <trkpt lat="62.646019522152" lon="17.861944318763">
        <ele>108</ele>
        <time>2018-03-29T11:16:42Z</time>
      </trkpt>
      <trkpt lat="62.645998818859" lon="17.861996202724">
        <ele>107.8</ele>
        <time>2018-03-29T11:16:43Z</time>
      </trkpt>
      <trkpt lat="62.645971326227" lon="17.86205772587">
        <ele>107.8</ele>
        <time>2018-03-29T11:16:44Z</time>
      </trkpt>
      <trkpt lat="62.645943079224" lon="17.862119584292">
        <ele>107.6</ele>
        <time>2018-03-29T11:16:45Z</time>
      </trkpt>
      <trkpt lat="62.645918771714" lon="17.862185298388">
        <ele>107.4</ele>
        <time>2018-03-29T11:16:46Z</time>
      </trkpt>
      <trkpt lat="62.645893374557" lon="17.86225386233">
        <ele>107.2</ele>
        <time>2018-03-29T11:16:47Z</time>
      </trkpt>
      <trkpt lat="62.645873174178" lon="17.86232259391">
        <ele>107</ele>
        <time>2018-03-29T11:16:48Z</time>
      </trkpt>
      <trkpt lat="62.645855488369" lon="17.862392079861">
        <ele>106.8</ele>
        <time>2018-03-29T11:16:49Z</time>
      </trkpt>
      <trkpt lat="62.645832689601" lon="17.862526860813">
        <ele>106.6</ele>
        <time>2018-03-29T11:16:51Z</time>
      </trkpt>
      <trkpt lat="62.6458260679" lon="17.862607997605">
        <ele>106.8</ele>
        <time>2018-03-29T11:16:52Z</time>
      </trkpt>
      <trkpt lat="62.645819278561" lon="17.862676729185">
        <ele>106.6</ele>
        <time>2018-03-29T11:16:53Z</time>
      </trkpt>
      <trkpt lat="62.645812153946" lon="17.862752753018">
        <ele>106.6</ele>
        <time>2018-03-29T11:16:54Z</time>
      </trkpt>
      <trkpt lat="62.645808298272" lon="17.862823328616">
        <ele>106.6</ele>
        <time>2018-03-29T11:16:55Z</time>
      </trkpt>
      <trkpt lat="62.645809555557" lon="17.862891892558">
        <ele>106.4</ele>
        <time>2018-03-29T11:16:56Z</time>
      </trkpt>
      <trkpt lat="62.64580846591" lon="17.862962551975">
        <ele>106.2</ele>
        <time>2018-03-29T11:16:57Z</time>
      </trkpt>
      <trkpt lat="62.645816261077" lon="17.863040168369">
        <ele>106.2</ele>
        <time>2018-03-29T11:16:58Z</time>
      </trkpt>
      <trkpt lat="62.645825900262" lon="17.863110157234">
        <ele>106.2</ele>
        <time>2018-03-29T11:16:59Z</time>
      </trkpt>
      <trkpt lat="62.645834533619" lon="17.863179894642">
        <ele>106.2</ele>
        <time>2018-03-29T11:17:00Z</time>
      </trkpt>
      <trkpt lat="62.645845513908" lon="17.863239825227">
        <ele>106.2</ele>
        <time>2018-03-29T11:17:01Z</time>
      </trkpt>
      <trkpt lat="62.645856661835" lon="17.863285422763">
        <ele>106.2</ele>
        <time>2018-03-29T11:17:02Z</time>
      </trkpt>
      <trkpt lat="62.645860768966" lon="17.863336971448">
        <ele>106.2</ele>
        <time>2018-03-29T11:17:03Z</time>
      </trkpt>
      <trkpt lat="62.645866217201" lon="17.863401176802">
        <ele>106.2</ele>
        <time>2018-03-29T11:17:04Z</time>
      </trkpt>
      <trkpt lat="62.645875018196" lon="17.863466890898">
        <ele>106.2</ele>
        <time>2018-03-29T11:17:05Z</time>
      </trkpt>
      <trkpt lat="62.645883735372" lon="17.863534532831">
        <ele>106.4</ele>
        <time>2018-03-29T11:17:06Z</time>
      </trkpt>
      <trkpt lat="62.645888513055" lon="17.863590859199">
        <ele>106.2</ele>
        <time>2018-03-29T11:17:07Z</time>
      </trkpt>
      <trkpt lat="62.645891614358" lon="17.863651879431">
        <ele>106.2</ele>
        <time>2018-03-29T11:17:08Z</time>
      </trkpt>
      <trkpt lat="62.645897481688" lon="17.86372237121">
        <ele>106.2</ele>
        <time>2018-03-29T11:17:09Z</time>
      </trkpt>
      <trkpt lat="62.645905025398" lon="17.863782301795">
        <ele>106.2</ele>
        <time>2018-03-29T11:17:10Z</time>
      </trkpt>
      <trkpt lat="62.645920699551" lon="17.863848015891">
        <ele>106.2</ele>
        <time>2018-03-29T11:17:11Z</time>
      </trkpt>
      <trkpt lat="62.645943246862" lon="17.863905431906">
        <ele>106.4</ele>
        <time>2018-03-29T11:17:12Z</time>
      </trkpt>
      <trkpt lat="62.645962776689" lon="17.863942479904">
        <ele>106.4</ele>
        <time>2018-03-29T11:17:13Z</time>
      </trkpt>
      <trkpt lat="62.645983563801" lon="17.863988412716">
        <ele>106.4</ele>
        <time>2018-03-29T11:17:14Z</time>
      </trkpt>
      <trkpt lat="62.645999237954" lon="17.864027891465">
        <ele>106.4</ele>
        <time>2018-03-29T11:17:15Z</time>
      </trkpt>
      <trkpt lat="62.6460188516" lon="17.864054881183">
        <ele>106.6</ele>
        <time>2018-03-29T11:17:16Z</time>
      </trkpt>
      <trkpt lat="62.646042069463" lon="17.864080026883">
        <ele>106.6</ele>
        <time>2018-03-29T11:17:17Z</time>
      </trkpt>
      <trkpt lat="62.646065706421" lon="17.864101903642">
        <ele>106.8</ele>
        <time>2018-03-29T11:17:18Z</time>
      </trkpt>
      <trkpt lat="62.646094372519" lon="17.864122774573">
        <ele>107</ele>
        <time>2018-03-29T11:17:19Z</time>
      </trkpt>
      <trkpt lat="62.646121529875" lon="17.864143394047">
        <ele>107</ele>
        <time>2018-03-29T11:17:20Z</time>
      </trkpt>
      <trkpt lat="62.646143322815" lon="17.86415739182">
        <ele>107.2</ele>
        <time>2018-03-29T11:17:21Z</time>
      </trkpt>
      <trkpt lat="62.646167043592" lon="17.864177089285">
        <ele>107.4</ele>
        <time>2018-03-29T11:17:22Z</time>
      </trkpt>
      <trkpt lat="62.646190932007" lon="17.864185806461">
        <ele>107.6</ele>
        <time>2018-03-29T11:17:23Z</time>
      </trkpt>
      <trkpt lat="62.646212054395" lon="17.864201312976">
        <ele>107.6</ele>
        <time>2018-03-29T11:17:24Z</time>
      </trkpt>
      <trkpt lat="62.646233344421" lon="17.864210030152">
        <ele>107.8</ele>
        <time>2018-03-29T11:17:25Z</time>
      </trkpt>
      <trkpt lat="62.646258154845" lon="17.864226039581">
        <ele>107.8</ele>
        <time>2018-03-29T11:17:26Z</time>
      </trkpt>
      <trkpt lat="62.64627952869" lon="17.864232661282">
        <ele>107.8</ele>
        <time>2018-03-29T11:17:27Z</time>
      </trkpt>
      <trkpt lat="62.646304171476" lon="17.864241713734">
        <ele>108</ele>
        <time>2018-03-29T11:17:28Z</time>
      </trkpt>
      <trkpt lat="62.646330993556" lon="17.864241294639">
        <ele>108</ele>
        <time>2018-03-29T11:17:29Z</time>
      </trkpt>
      <trkpt lat="62.646357145084" lon="17.864241713734">
        <ele>108</ele>
        <time>2018-03-29T11:17:30Z</time>
      </trkpt>
      <trkpt lat="62.646383715707" lon="17.864237941879">
        <ele>108.2</ele>
        <time>2018-03-29T11:17:31Z</time>
      </trkpt>
      <trkpt lat="62.646408023217" lon="17.864232493644">
        <ele>108.4</ele>
        <time>2018-03-29T11:17:32Z</time>
      </trkpt>
      <trkpt lat="62.646434510021" lon="17.864229727617">
        <ele>108.4</ele>
        <time>2018-03-29T11:17:33Z</time>
      </trkpt>
      <trkpt lat="62.646467115612" lon="17.864231655454">
        <ele>108.6</ele>
        <time>2018-03-29T11:17:34Z</time>
      </trkpt>
      <trkpt lat="62.646495111158" lon="17.864235846404">
        <ele>108.6</ele>
        <time>2018-03-29T11:17:35Z</time>
      </trkpt>
      <trkpt lat="62.646522100876" lon="17.864244312123">
        <ele>108.6</ele>
        <time>2018-03-29T11:17:36Z</time>
      </trkpt>
      <trkpt lat="62.646554371191" lon="17.864255627688">
        <ele>108.8</ele>
        <time>2018-03-29T11:17:37Z</time>
      </trkpt>
      <trkpt lat="62.646585970954" lon="17.864274654601">
        <ele>108.8</ele>
        <time>2018-03-29T11:17:38Z</time>
      </trkpt>
      <trkpt lat="62.646623689504" lon="17.864294100609">
        <ele>108.8</ele>
        <time>2018-03-29T11:17:39Z</time>
      </trkpt>
      <trkpt lat="62.64666677247" lon="17.86431916249">
        <ele>108.8</ele>
        <time>2018-03-29T11:17:40Z</time>
      </trkpt>
      <trkpt lat="62.646714130205" lon="17.864350259339">
        <ele>108.6</ele>
        <time>2018-03-29T11:17:41Z</time>
      </trkpt>
      <trkpt lat="62.646757129352" lon="17.864379260713">
        <ele>108.2</ele>
        <time>2018-03-29T11:17:42Z</time>
      </trkpt>
      <trkpt lat="62.646798787395" lon="17.864405831336">
        <ele>108</ele>
        <time>2018-03-29T11:17:43Z</time>
      </trkpt>
      <trkpt lat="62.646848492062" lon="17.864435754719">
        <ele>107.8</ele>
        <time>2018-03-29T11:17:44Z</time>
      </trkpt>
      <trkpt lat="62.646890904476" lon="17.864460481324">
        <ele>107.6</ele>
        <time>2018-03-29T11:17:45Z</time>
      </trkpt>
      <trkpt lat="62.646939938591" lon="17.864489398879">
        <ele>107.2</ele>
        <time>2018-03-29T11:17:46Z</time>
      </trkpt>
      <trkpt lat="62.64698779924" lon="17.864525021954">
        <ele>106.8</ele>
        <time>2018-03-29T11:17:47Z</time>
      </trkpt>
      <trkpt lat="62.647038174459" lon="17.864559806839">
        <ele>106.6</ele>
        <time>2018-03-29T11:17:48Z</time>
      </trkpt>
      <trkpt lat="62.647097434492" lon="17.864599872321">
        <ele>106.2</ele>
        <time>2018-03-29T11:17:49Z</time>
      </trkpt>
      <trkpt lat="62.647151749204" lon="17.864642452373">
        <ele>105.8</ele>
        <time>2018-03-29T11:17:50Z</time>
      </trkpt>
      <trkpt lat="62.647201202414" lon="17.864673800679">
        <ele>105</ele>
        <time>2018-03-29T11:17:51Z</time>
      </trkpt>
      <trkpt lat="62.647254678936" lon="17.86470808265">
        <ele>104.2</ele>
        <time>2018-03-29T11:17:52Z</time>
      </trkpt>
      <trkpt lat="62.647305221793" lon="17.86473406654">
        <ele>103.2</ele>
        <time>2018-03-29T11:17:53Z</time>
      </trkpt>
      <trkpt lat="62.647354842641" lon="17.864763319371">
        <ele>102.2</ele>
        <time>2018-03-29T11:17:54Z</time>
      </trkpt>
      <trkpt lat="62.647401781281" lon="17.864786453415">
        <ele>101.4</ele>
        <time>2018-03-29T11:17:55Z</time>
      </trkpt>
      <trkpt lat="62.647456850364" lon="17.86481620916">
        <ele>100.6</ele>
        <time>2018-03-29T11:17:56Z</time>
      </trkpt>
      <trkpt lat="62.647510997438" lon="17.864842612145">
        <ele>99.8</ele>
        <time>2018-03-29T11:17:57Z</time>
      </trkpt>
      <trkpt lat="62.647570592747" lon="17.864879408686">
        <ele>99.4</ele>
        <time>2018-03-29T11:17:58Z</time>
      </trkpt>
      <trkpt lat="62.647629601323" lon="17.864944619868">
        <ele>98.8</ele>
        <time>2018-03-29T11:17:59Z</time>
      </trkpt>
      <trkpt lat="62.64767930599" lon="17.865032210723">
        <ele>98</ele>
        <time>2018-03-29T11:18:00Z</time>
      </trkpt>
      <trkpt lat="62.647720209662" lon="17.86512047213">
        <ele>97.4</ele>
        <time>2018-03-29T11:18:01Z</time>
      </trkpt>
      <trkpt lat="62.647757341479" lon="17.865202950026">
        <ele>96.6</ele>
        <time>2018-03-29T11:18:02Z</time>
      </trkpt>
      <trkpt lat="62.647794054201" lon="17.865264976086">
        <ele>96.2</ele>
        <time>2018-03-29T11:18:03Z</time>
      </trkpt>
      <trkpt lat="62.647829761095" lon="17.865341670471">
        <ele>95.6</ele>
        <time>2018-03-29T11:18:04Z</time>
      </trkpt>
      <trkpt lat="62.647863623971" lon="17.865403528893">
        <ele>95.8</ele>
        <time>2018-03-29T11:18:05Z</time>
      </trkpt>
      <trkpt lat="62.647898492675" lon="17.865480223278">
        <ele>95.8</ele>
        <time>2018-03-29T11:18:06Z</time>
      </trkpt>
      <trkpt lat="62.647945431315" lon="17.865545518279">
        <ele>96</ele>
        <time>2018-03-29T11:18:07Z</time>
      </trkpt>
      <trkpt lat="62.647998237285" lon="17.865598827163">
        <ele>96.2</ele>
        <time>2018-03-29T11:18:08Z</time>
      </trkpt>
      <trkpt lat="62.648039979147" lon="17.865649453839">
        <ele>96.4</ele>
        <time>2018-03-29T11:18:09Z</time>
      </trkpt>
      <trkpt lat="62.648081218095" lon="17.865699912877">
        <ele>96.2</ele>
        <time>2018-03-29T11:18:10Z</time>
      </trkpt>
      <trkpt lat="62.648117930817" lon="17.865751545381">
        <ele>96.4</ele>
        <time>2018-03-29T11:18:11Z</time>
      </trkpt>
      <trkpt lat="62.648155565548" lon="17.865799238392">
        <ele>96.4</ele>
        <time>2018-03-29T11:18:12Z</time>
      </trkpt>
      <trkpt lat="62.64819730741" lon="17.865846428489">
        <ele>96.2</ele>
        <time>2018-03-29T11:18:13Z</time>
      </trkpt>
      <trkpt lat="62.648242402032" lon="17.865905688522">
        <ele>96.4</ele>
        <time>2018-03-29T11:18:14Z</time>
      </trkpt>
      <trkpt lat="62.648282383695" lon="17.865960087053">
        <ele>96</ele>
        <time>2018-03-29T11:18:15Z</time>
      </trkpt>
      <trkpt lat="62.648323371186" lon="17.866029573004">
        <ele>95.4</ele>
        <time>2018-03-29T11:18:16Z</time>
      </trkpt>
      <trkpt lat="62.64836326903" lon="17.866110458339">
        <ele>95</ele>
        <time>2018-03-29T11:18:17Z</time>
      </trkpt>
      <trkpt lat="62.64839595844" lon="17.8662042518">
        <ele>94.4</ele>
        <time>2018-03-29T11:18:18Z</time>
      </trkpt>
      <trkpt lat="62.648427306746" lon="17.866324699703">
        <ele>93.6</ele>
        <time>2018-03-29T11:18:19Z</time>
      </trkpt>
      <trkpt lat="62.648451781894" lon="17.866444728511">
        <ele>93.2</ele>
        <time>2018-03-29T11:18:20Z</time>
      </trkpt>
      <trkpt lat="62.648470389712" lon="17.866564086767">
        <ele>92.8</ele>
        <time>2018-03-29T11:18:21Z</time>
      </trkpt>
      <trkpt lat="62.648491176824" lon="17.866702891031">
        <ele>92.4</ele>
        <time>2018-03-29T11:18:22Z</time>
      </trkpt>
      <trkpt lat="62.648512550669" lon="17.866829290083">
        <ele>92</ele>
        <time>2018-03-29T11:18:23Z</time>
      </trkpt>
      <trkpt lat="62.648536439084" lon="17.866950743814">
        <ele>91.4</ele>
        <time>2018-03-29T11:18:24Z</time>
      </trkpt>
      <trkpt lat="62.648557477653" lon="17.86707094026">
        <ele>91</ele>
        <time>2018-03-29T11:18:25Z</time>
      </trkpt>
      <trkpt lat="62.648578432403" lon="17.867207816687">
        <ele>90.6</ele>
        <time>2018-03-29T11:18:26Z</time>
      </trkpt>
      <trkpt lat="62.648595950574" lon="17.867323319269">
        <ele>90.2</ele>
        <time>2018-03-29T11:18:27Z</time>
      </trkpt>
      <trkpt lat="62.648614642211" lon="17.867440498231">
        <ele>89.8</ele>
        <time>2018-03-29T11:18:28Z</time>
      </trkpt>
      <trkpt lat="62.648628053251" lon="17.867545439619">
        <ele>89.4</ele>
        <time>2018-03-29T11:18:29Z</time>
      </trkpt>
      <trkpt lat="62.648639704092" lon="17.867643926944">
        <ele>89.2</ele>
        <time>2018-03-29T11:18:30Z</time>
      </trkpt>
      <trkpt lat="62.648657808996" lon="17.867719447863">
        <ele>89</ele>
        <time>2018-03-29T11:18:31Z</time>
      </trkpt>
      <trkpt lat="62.648681026859" lon="17.867801674302">
        <ele>89</ele>
        <time>2018-03-29T11:18:32Z</time>
      </trkpt>
      <trkpt lat="62.648709692957" lon="17.867885828578">
        <ele>89.4</ele>
        <time>2018-03-29T11:18:33Z</time>
      </trkpt>
      <trkpt lat="62.648752105371" lon="17.867980041134">
        <ele>89.8</ele>
        <time>2018-03-29T11:18:34Z</time>
      </trkpt>
      <trkpt lat="62.648774736501" lon="17.868055981148">
        <ele>90.2</ele>
        <time>2018-03-29T11:18:35Z</time>
      </trkpt>
      <trkpt lat="62.648786638799" lon="17.868123539262">
        <ele>90.4</ele>
        <time>2018-03-29T11:18:36Z</time>
      </trkpt>
      <trkpt lat="62.648804324608" lon="17.868195707421">
        <ele>90.4</ele>
        <time>2018-03-29T11:18:37Z</time>
      </trkpt>
      <trkpt lat="62.648824524987" lon="17.868276006023">
        <ele>90.2</ele>
        <time>2018-03-29T11:18:38Z</time>
      </trkpt>
      <trkpt lat="62.648853945456" lon="17.868364518887">
        <ele>90</ele>
        <time>2018-03-29T11:18:39Z</time>
      </trkpt>
      <trkpt lat="62.648879258794" lon="17.868454372855">
        <ele>90</ele>
        <time>2018-03-29T11:18:40Z</time>
      </trkpt>
      <trkpt lat="62.648903566304" lon="17.868544226823">
        <ele>89.8</ele>
        <time>2018-03-29T11:18:41Z</time>
      </trkpt>
      <trkpt lat="62.64893240004" lon="17.868628045823">
        <ele>89.6</ele>
        <time>2018-03-29T11:18:42Z</time>
      </trkpt>
      <trkpt lat="62.648966095278" lon="17.868696442127">
        <ele>89.6</ele>
        <time>2018-03-29T11:18:43Z</time>
      </trkpt>
      <trkpt lat="62.648996689213" lon="17.868767101544">
        <ele>89.6</ele>
        <time>2018-03-29T11:18:44Z</time>
      </trkpt>
      <trkpt lat="62.649022756922" lon="17.868841281359">
        <ele>89.6</ele>
        <time>2018-03-29T11:18:45Z</time>
      </trkpt>
      <trkpt lat="62.64905812854" lon="17.868909258568">
        <ele>89.4</ele>
        <time>2018-03-29T11:18:46Z</time>
      </trkpt>
      <trkpt lat="62.649086459362" lon="17.86899458631">
        <ele>89.2</ele>
        <time>2018-03-29T11:18:47Z</time>
      </trkpt>
      <trkpt lat="62.649111940338" lon="17.869071029238">
        <ele>89</ele>
        <time>2018-03-29T11:18:48Z</time>
      </trkpt>
      <trkpt lat="62.64913608021" lon="17.869152417487">
        <ele>88.8</ele>
        <time>2018-03-29T11:18:49Z</time>
      </trkpt>
      <trkpt lat="62.649164159575" lon="17.869238751057">
        <ele>88.8</ele>
        <time>2018-03-29T11:18:50Z</time>
      </trkpt>
      <trkpt lat="62.64919894446" lon="17.869306895904">
        <ele>88.6</ele>
        <time>2018-03-29T11:18:51Z</time>
      </trkpt>
      <trkpt lat="62.649228784024" lon="17.86938518285">
        <ele>88.4</ele>
        <time>2018-03-29T11:18:52Z</time>
      </trkpt>
      <trkpt lat="62.649257282484" lon="17.869461709597">
        <ele>88.2</ele>
        <time>2018-03-29T11:18:53Z</time>
      </trkpt>
      <trkpt lat="62.649295420129" lon="17.86953102791">
        <ele>88.2</ele>
        <time>2018-03-29T11:18:54Z</time>
      </trkpt>
      <trkpt lat="62.649319392363" lon="17.869596742006">
        <ele>87.8</ele>
        <time>2018-03-29T11:18:55Z</time>
      </trkpt>
      <trkpt lat="62.64936071513" lon="17.869675280409">
        <ele>87.8</ele>
        <time>2018-03-29T11:18:56Z</time>
      </trkpt>
      <trkpt lat="62.649393488359" lon="17.869735713908">
        <ele>87.4</ele>
        <time>2018-03-29T11:18:57Z</time>
      </trkpt>
      <trkpt lat="62.649428357063" lon="17.869807211515">
        <ele>87.4</ele>
        <time>2018-03-29T11:18:58Z</time>
      </trkpt>
      <trkpt lat="62.649464483052" lon="17.869884241176">
        <ele>87.2</ele>
        <time>2018-03-29T11:18:59Z</time>
      </trkpt>
      <trkpt lat="62.649502704516" lon="17.869959343">
        <ele>86.8</ele>
        <time>2018-03-29T11:19:00Z</time>
      </trkpt>
      <trkpt lat="62.64954092598" lon="17.870038468136">
        <ele>86.2</ele>
        <time>2018-03-29T11:19:01Z</time>
      </trkpt>
      <trkpt lat="62.649576046141" lon="17.87011692272">
        <ele>85.8</ele>
        <time>2018-03-29T11:19:02Z</time>
      </trkpt>
      <trkpt lat="62.649606053343" lon="17.870191018716">
        <ele>85</ele>
        <time>2018-03-29T11:19:03Z</time>
      </trkpt>
      <trkpt lat="62.649647962843" lon="17.870291014783">
        <ele>84.4</ele>
        <time>2018-03-29T11:19:04Z</time>
      </trkpt>
      <trkpt lat="62.649685513755" lon="17.870386316986">
        <ele>84</ele>
        <time>2018-03-29T11:19:05Z</time>
      </trkpt>
      <trkpt lat="62.649716275328" lon="17.870485307225">
        <ele>83.6</ele>
        <time>2018-03-29T11:19:06Z</time>
      </trkpt>
      <trkpt lat="62.649746114892" lon="17.870583040179">
        <ele>83.2</ele>
        <time>2018-03-29T11:19:07Z</time>
      </trkpt>
      <trkpt lat="62.649771931144" lon="17.870667278274">
        <ele>83</ele>
        <time>2018-03-29T11:19:08Z</time>
      </trkpt>
      <trkpt lat="62.649795651921" lon="17.870769118359">
        <ele>82.8</ele>
        <time>2018-03-29T11:19:09Z</time>
      </trkpt>
      <trkpt lat="62.649812164264" lon="17.870866935132">
        <ele>82.8</ele>
        <time>2018-03-29T11:19:10Z</time>
      </trkpt>
      <trkpt lat="62.649827922236" lon="17.870974558728">
        <ele>82.6</ele>
        <time>2018-03-29T11:19:11Z</time>
      </trkpt>
      <trkpt lat="62.649858516171" lon="17.871073548967">
        <ele>82.4</ele>
        <time>2018-03-29T11:19:12Z</time>
      </trkpt>
      <trkpt lat="62.649876369618" lon="17.871167342428">
        <ele>82.6</ele>
        <time>2018-03-29T11:19:13Z</time>
      </trkpt>
      <trkpt lat="62.649896821454" lon="17.871257950767">
        <ele>82.8</ele>
        <time>2018-03-29T11:19:14Z</time>
      </trkpt>
      <trkpt lat="62.649918027661" lon="17.871334058419">
        <ele>83</ele>
        <time>2018-03-29T11:19:15Z</time>
      </trkpt>
      <trkpt lat="62.649940574972" lon="17.871420727265">
        <ele>83.2</ele>
        <time>2018-03-29T11:19:16Z</time>
      </trkpt>
      <trkpt lat="62.64996169736" lon="17.871501109686">
        <ele>83.2</ele>
        <time>2018-03-29T11:19:17Z</time>
      </trkpt>
      <trkpt lat="62.649977706789" lon="17.871566739963">
        <ele>83.2</ele>
        <time>2018-03-29T11:19:18Z</time>
      </trkpt>
      <trkpt lat="62.649993129485" lon="17.871646032737">
        <ele>82.8</ele>
        <time>2018-03-29T11:19:19Z</time>
      </trkpt>
      <trkpt lat="62.650012659312" lon="17.87171786562">
        <ele>82.8</ele>
        <time>2018-03-29T11:19:20Z</time>
      </trkpt>
      <trkpt lat="62.650030848035" lon="17.871783495897">
        <ele>82.8</ele>
        <time>2018-03-29T11:19:21Z</time>
      </trkpt>
      <trkpt lat="62.650044761989" lon="17.871853484762">
        <ele>82.8</ele>
        <time>2018-03-29T11:19:22Z</time>
      </trkpt>
      <trkpt lat="62.650060519961" lon="17.871913834442">
        <ele>82.8</ele>
        <time>2018-03-29T11:19:23Z</time>
      </trkpt>
      <trkpt lat="62.650078708684" lon="17.871966472774">
        <ele>83</ele>
        <time>2018-03-29T11:19:24Z</time>
      </trkpt>
      <trkpt lat="62.650091952086" lon="17.872025229893">
        <ele>83</ele>
        <time>2018-03-29T11:19:25Z</time>
      </trkpt>
      <trkpt lat="62.650104944031" lon="17.872086082487">
        <ele>83</ele>
        <time>2018-03-29T11:19:26Z</time>
      </trkpt>
      <trkpt lat="62.650110978999" lon="17.87214031338">
        <ele>83</ele>
        <time>2018-03-29T11:19:27Z</time>
      </trkpt>
      <trkpt lat="62.650115337587" lon="17.872205524562">
        <ele>83.2</ele>
        <time>2018-03-29T11:19:28Z</time>
      </trkpt>
      <trkpt lat="62.650114834673" lon="17.872258749627">
        <ele>83.2</ele>
        <time>2018-03-29T11:19:29Z</time>
      </trkpt>
      <trkpt lat="62.650106368954" lon="17.872329073768">
        <ele>83.2</ele>
        <time>2018-03-29T11:19:30Z</time>
      </trkpt>
      <trkpt lat="62.650087761136" lon="17.872382717928">
        <ele>83.2</ele>
        <time>2018-03-29T11:19:31Z</time>
      </trkpt>
      <trkpt lat="62.650060939056" lon="17.872399733185">
        <ele>83.2</ele>
        <time>2018-03-29T11:19:32Z</time>
      </trkpt>
      <trkpt lat="62.650038224107" lon="17.872386322145">
        <ele>83.4</ele>
        <time>2018-03-29T11:19:33Z</time>
      </trkpt>
      <trkpt lat="62.650021711764" lon="17.872347513948">
        <ele>83.4</ele>
        <time>2018-03-29T11:19:34Z</time>
      </trkpt>
      <trkpt lat="62.650009977104" lon="17.872305269172">
        <ele>83.6</ele>
        <time>2018-03-29T11:19:35Z</time>
      </trkpt>
      <trkpt lat="62.650002265756" lon="17.872251708831">
        <ele>83.6</ele>
        <time>2018-03-29T11:19:36Z</time>
      </trkpt>
      <trkpt lat="62.649991536924" lon="17.872194963368">
        <ele>83.6</ele>
        <time>2018-03-29T11:19:37Z</time>
      </trkpt>
      <trkpt lat="62.649983155024" lon="17.872151042212">
        <ele>83.6</ele>
        <time>2018-03-29T11:19:38Z</time>
      </trkpt>
      <trkpt lat="62.649972342373" lon="17.872099912622">
        <ele>83.6</ele>
        <time>2018-03-29T11:19:39Z</time>
      </trkpt>
      <trkpt lat="62.64996169736" lon="17.872044172987">
        <ele>83.6</ele>
        <time>2018-03-29T11:19:40Z</time>
      </trkpt>
      <trkpt lat="62.649948956872" lon="17.87198357185">
        <ele>83.6</ele>
        <time>2018-03-29T11:19:41Z</time>
      </trkpt>
      <trkpt lat="62.649936467841" lon="17.871924982369">
        <ele>83.4</ele>
        <time>2018-03-29T11:19:42Z</time>
      </trkpt>
      <trkpt lat="62.64992062605" lon="17.8718704162">
        <ele>83.4</ele>
        <time>2018-03-29T11:19:43Z</time>
      </trkpt>
      <trkpt lat="62.649905622449" lon="17.871804450647">
        <ele>83.4</ele>
        <time>2018-03-29T11:19:44Z</time>
      </trkpt>
      <trkpt lat="62.649889277744" lon="17.871759188387">
        <ele>83.2</ele>
        <time>2018-03-29T11:19:45Z</time>
      </trkpt>
      <trkpt lat="62.649869161184" lon="17.871698000517">
        <ele>83.2</ele>
        <time>2018-03-29T11:19:46Z</time>
      </trkpt>
      <trkpt lat="62.649852984117" lon="17.87164242852">
        <ele>83.2</ele>
        <time>2018-03-29T11:19:47Z</time>
      </trkpt>
      <trkpt lat="62.649841333276" lon="17.871587610894">
        <ele>83.2</ele>
        <time>2018-03-29T11:19:48Z</time>
      </trkpt>
      <trkpt lat="62.649825407666" lon="17.871528015585">
        <ele>83.4</ele>
        <time>2018-03-29T11:19:49Z</time>
      </trkpt>
      <trkpt lat="62.649812918635" lon="17.871471773036">
        <ele>83.2</ele>
        <time>2018-03-29T11:19:50Z</time>
      </trkpt>
      <trkpt lat="62.649801183975" lon="17.871422152188">
        <ele>83.2</ele>
        <time>2018-03-29T11:19:51Z</time>
      </trkpt>
      <trkpt lat="62.649788275849" lon="17.871370603503">
        <ele>83.2</ele>
        <time>2018-03-29T11:19:52Z</time>
      </trkpt>
      <trkpt lat="62.649777630836" lon="17.871325844157">
        <ele>83.4</ele>
        <time>2018-03-29T11:19:53Z</time>
      </trkpt>
      <trkpt lat="62.649766566728" lon="17.871277983508">
        <ele>83.2</ele>
        <time>2018-03-29T11:19:54Z</time>
      </trkpt>
      <trkpt lat="62.649756508448" lon="17.871234649085">
        <ele>83.2</ele>
        <time>2018-03-29T11:19:55Z</time>
      </trkpt>
      <trkpt lat="62.649746114892" lon="17.87118561497">
        <ele>83.2</ele>
        <time>2018-03-29T11:19:56Z</time>
      </trkpt>
      <trkpt lat="62.649735805155" lon="17.87113951452">
        <ele>83.2</ele>
        <time>2018-03-29T11:19:57Z</time>
      </trkpt>
      <trkpt lat="62.64972532778" lon="17.871089055482">
        <ele>83.2</ele>
        <time>2018-03-29T11:19:58Z</time>
      </trkpt>
      <trkpt lat="62.64971275493" lon="17.871041865385">
        <ele>83.4</ele>
        <time>2018-03-29T11:19:59Z</time>
      </trkpt>
      <trkpt lat="62.649699762985" lon="17.870999117695">
        <ele>83.4</ele>
        <time>2018-03-29T11:20:00Z</time>
      </trkpt>
      <trkpt lat="62.649689788524" lon="17.870956034729">
        <ele>83.6</ele>
        <time>2018-03-29T11:20:01Z</time>
      </trkpt>
      <trkpt lat="62.649677215674" lon="17.870908676994">
        <ele>83.8</ele>
        <time>2018-03-29T11:20:02Z</time>
      </trkpt>
      <trkpt lat="62.649668163222" lon="17.870870036435">
        <ele>83.8</ele>
        <time>2018-03-29T11:20:03Z</time>
      </trkpt>
      <trkpt lat="62.649656344743" lon="17.870819409759">
        <ele>83.8</ele>
        <time>2018-03-29T11:20:04Z</time>
      </trkpt>
      <trkpt lat="62.649645364454" lon="17.870777751716">
        <ele>84</ele>
        <time>2018-03-29T11:20:05Z</time>
      </trkpt>
      <trkpt lat="62.649629271206" lon="17.87072963961">
        <ele>84</ele>
        <time>2018-03-29T11:20:06Z</time>
      </trkpt>
      <trkpt lat="62.649616027804" lon="17.870697704571">
        <ele>84.2</ele>
        <time>2018-03-29T11:20:07Z</time>
      </trkpt>
      <trkpt lat="62.649603203497" lon="17.87065671708">
        <ele>84.4</ele>
        <time>2018-03-29T11:20:08Z</time>
      </trkpt>
      <trkpt lat="62.649589121905" lon="17.870624614403">
        <ele>84.6</ele>
        <time>2018-03-29T11:20:09Z</time>
      </trkpt>
      <trkpt lat="62.649574788856" lon="17.8705879855">
        <ele>84.4</ele>
        <time>2018-03-29T11:20:10Z</time>
      </trkpt>
      <trkpt lat="62.64955685159" lon="17.870547165647">
        <ele>84.6</ele>
        <time>2018-03-29T11:20:11Z</time>
      </trkpt>
      <trkpt lat="62.649540339247" lon="17.870519673015">
        <ele>84.6</ele>
        <time>2018-03-29T11:20:12Z</time>
      </trkpt>
      <trkpt lat="62.649523156352" lon="17.870487654157">
        <ele>84.8</ele>
        <time>2018-03-29T11:20:13Z</time>
      </trkpt>
      <trkpt lat="62.649503458887" lon="17.87045219872">
        <ele>84.8</ele>
        <time>2018-03-29T11:20:14Z</time>
      </trkpt>
      <trkpt lat="62.649488203829" lon="17.870427723572">
        <ele>84.8</ele>
        <time>2018-03-29T11:20:15Z</time>
      </trkpt>
      <trkpt lat="62.649471272391" lon="17.870392771049">
        <ele>85</ele>
        <time>2018-03-29T11:20:16Z</time>
      </trkpt>
      <trkpt lat="62.64945291603" lon="17.870364104951">
        <ele>85</ele>
        <time>2018-03-29T11:20:17Z</time>
      </trkpt>
      <trkpt lat="62.649437996248" lon="17.87033988126">
        <ele>85</ele>
        <time>2018-03-29T11:20:18Z</time>
      </trkpt>
      <trkpt lat="62.649421819181" lon="17.870308784411">
        <ele>85.2</ele>
        <time>2018-03-29T11:20:19Z</time>
      </trkpt>
      <trkpt lat="62.649403043725" lon="17.870279783037">
        <ele>85.2</ele>
        <time>2018-03-29T11:20:20Z</time>
      </trkpt>
      <trkpt lat="62.649387956305" lon="17.870257654821">
        <ele>85.6</ele>
        <time>2018-03-29T11:20:21Z</time>
      </trkpt>
      <trkpt lat="62.64936825884" lon="17.870226809429">
        <ele>85.6</ele>
        <time>2018-03-29T11:20:22Z</time>
      </trkpt>
      <trkpt lat="62.649350824488" lon="17.870202501919">
        <ele>85.8</ele>
        <time>2018-03-29T11:20:23Z</time>
      </trkpt>
      <trkpt lat="62.649333557774" lon="17.870177440038">
        <ele>86</ele>
        <time>2018-03-29T11:20:24Z</time>
      </trkpt>
      <trkpt lat="62.64931880563" lon="17.870147684293">
        <ele>86.2</ele>
        <time>2018-03-29T11:20:25Z</time>
      </trkpt>
      <trkpt lat="62.649301287459" lon="17.870117090358">
        <ele>86</ele>
        <time>2018-03-29T11:20:26Z</time>
      </trkpt>
      <trkpt lat="62.64928611622" lon="17.870092363753">
        <ele>86.2</ele>
        <time>2018-03-29T11:20:27Z</time>
      </trkpt>
      <trkpt lat="62.649269268601" lon="17.870056992135">
        <ele>86.2</ele>
        <time>2018-03-29T11:20:28Z</time>
      </trkpt>
      <trkpt lat="62.649250409326" lon="17.870021955793">
        <ele>86.4</ele>
        <time>2018-03-29T11:20:29Z</time>
      </trkpt>
      <trkpt lat="62.649233813164" lon="17.869988092917">
        <ele>86.4</ele>
        <time>2018-03-29T11:20:30Z</time>
      </trkpt>
      <trkpt lat="62.649217719916" lon="17.86996353395">
        <ele>86.4</ele>
        <time>2018-03-29T11:20:31Z</time>
      </trkpt>
      <trkpt lat="62.649199112098" lon="17.869931179816">
        <ele>86.4</ele>
        <time>2018-03-29T11:20:32Z</time>
      </trkpt>
      <trkpt lat="62.649182096841" lon="17.869904190098">
        <ele>86.6</ele>
        <time>2018-03-29T11:20:33Z</time>
      </trkpt>
      <trkpt lat="62.649165249222" lon="17.869863034969">
        <ele>86.4</ele>
        <time>2018-03-29T11:20:34Z</time>
      </trkpt>
      <trkpt lat="62.64914865306" lon="17.869824562048">
        <ele>86.6</ele>
        <time>2018-03-29T11:20:35Z</time>
      </trkpt>
      <trkpt lat="62.64913440383" lon="17.869791621181">
        <ele>86.6</ele>
        <time>2018-03-29T11:20:36Z</time>
      </trkpt>
      <trkpt lat="62.649119986962" lon="17.86975147188">
        <ele>86.8</ele>
        <time>2018-03-29T11:20:37Z</time>
      </trkpt>
      <trkpt lat="62.649106408284" lon="17.869715010615">
        <ele>86.8</ele>
        <time>2018-03-29T11:20:38Z</time>
      </trkpt>
      <trkpt lat="62.649091069407" lon="17.869682321205">
        <ele>86.8</ele>
        <time>2018-03-29T11:20:39Z</time>
      </trkpt>
      <trkpt lat="62.649074640883" lon="17.869647703958">
        <ele>87</ele>
        <time>2018-03-29T11:20:40Z</time>
      </trkpt>
      <trkpt lat="62.649060391653" lon="17.869616104195">
        <ele>87.2</ele>
        <time>2018-03-29T11:20:41Z</time>
      </trkpt>
      <trkpt lat="62.649046226242" lon="17.869573524143">
        <ele>87.4</ele>
        <time>2018-03-29T11:20:42Z</time>
      </trkpt>
      <trkpt lat="62.649031557917" lon="17.869544606588">
        <ele>87.6</ele>
        <time>2018-03-29T11:20:43Z</time>
      </trkpt>
      <trkpt lat="62.64901538085" lon="17.869503786735">
        <ele>87.8</ele>
        <time>2018-03-29T11:20:44Z</time>
      </trkpt>
      <trkpt lat="62.649001047801" lon="17.869466990194">
        <ele>88</ele>
        <time>2018-03-29T11:20:45Z</time>
      </trkpt>
      <trkpt lat="62.648985457467" lon="17.869426170341">
        <ele>88</ele>
        <time>2018-03-29T11:20:46Z</time>
      </trkpt>
      <trkpt lat="62.648970872961" lon="17.869379734615">
        <ele>88</ele>
        <time>2018-03-29T11:20:47Z</time>
      </trkpt>
      <trkpt lat="62.648957210464" lon="17.869346793748">
        <ele>88</ele>
        <time>2018-03-29T11:20:48Z</time>
      </trkpt>
      <trkpt lat="62.648940530483" lon="17.869297843452">
        <ele>88.2</ele>
        <time>2018-03-29T11:20:49Z</time>
      </trkpt>
      <trkpt lat="62.648924688692" lon="17.869264651128">
        <ele>88.2</ele>
        <time>2018-03-29T11:20:50Z</time>
      </trkpt>
      <trkpt lat="62.648910271824" lon="17.869226513483">
        <ele>88.2</ele>
        <time>2018-03-29T11:20:51Z</time>
      </trkpt>
      <trkpt lat="62.648896190232" lon="17.869186615639">
        <ele>88.4</ele>
        <time>2018-03-29T11:20:52Z</time>
      </trkpt>
      <trkpt lat="62.648884539391" lon="17.869148310356">
        <ele>88.4</ele>
        <time>2018-03-29T11:20:53Z</time>
      </trkpt>
      <trkpt lat="62.648871882722" lon="17.869102880458">
        <ele>88.6</ele>
        <time>2018-03-29T11:20:54Z</time>
      </trkpt>
      <trkpt lat="62.648860483338" lon="17.869070191048">
        <ele>88.6</ele>
        <time>2018-03-29T11:20:55Z</time>
      </trkpt>
      <trkpt lat="62.648845144461" lon="17.8690289521">
        <ele>88.8</ele>
        <time>2018-03-29T11:20:56Z</time>
      </trkpt>
      <trkpt lat="62.648834834724" lon="17.868999280174">
        <ele>88.8</ele>
        <time>2018-03-29T11:20:57Z</time>
      </trkpt>
      <trkpt lat="62.648823854435" lon="17.868956532484">
        <ele>88.8</ele>
        <time>2018-03-29T11:20:58Z</time>
      </trkpt>
      <trkpt lat="62.648812119775" lon="17.868919316848">
        <ele>89</ele>
        <time>2018-03-29T11:20:59Z</time>
      </trkpt>
      <trkpt lat="62.648800385115" lon="17.868875144235">
        <ele>89</ele>
        <time>2018-03-29T11:21:00Z</time>
      </trkpt>
      <trkpt lat="62.648784124229" lon="17.868839940255">
        <ele>89.2</ele>
        <time>2018-03-29T11:21:01Z</time>
      </trkpt>
      <trkpt lat="62.64877230575" lon="17.868798617488">
        <ele>89.2</ele>
        <time>2018-03-29T11:21:02Z</time>
      </trkpt>
      <trkpt lat="62.648762079832" lon="17.868759390196">
        <ele>89.4</ele>
        <time>2018-03-29T11:21:03Z</time>
      </trkpt>
      <trkpt lat="62.648749423163" lon="17.86871463085">
        <ele>89.4</ele>
        <time>2018-03-29T11:21:04Z</time>
      </trkpt>
      <trkpt lat="62.648738275236" lon="17.868663417441">
        <ele>89.4</ele>
        <time>2018-03-29T11:21:05Z</time>
      </trkpt>
      <trkpt lat="62.648728133137" lon="17.868626117986">
        <ele>89.6</ele>
        <time>2018-03-29T11:21:06Z</time>
      </trkpt>
      <trkpt lat="62.648716063201" lon="17.868576245681">
        <ele>89.6</ele>
        <time>2018-03-29T11:21:07Z</time>
      </trkpt>
      <trkpt lat="62.648704579998" lon="17.868535509647">
        <ele>89.6</ele>
        <time>2018-03-29T11:21:08Z</time>
      </trkpt>
      <trkpt lat="62.648696114279" lon="17.868487229903">
        <ele>89.6</ele>
        <time>2018-03-29T11:21:09Z</time>
      </trkpt>
      <trkpt lat="62.648688822026" lon="17.86843467539">
        <ele>89.6</ele>
        <time>2018-03-29T11:21:10Z</time>
      </trkpt>
      <trkpt lat="62.648679434298" lon="17.868390418958">
        <ele>89.6</ele>
        <time>2018-03-29T11:21:11Z</time>
      </trkpt>
      <trkpt lat="62.648673818425" lon="17.868341217205">
        <ele>89.6</ele>
        <time>2018-03-29T11:21:12Z</time>
      </trkpt>
      <trkpt lat="62.648668286371" lon="17.868295452031">
        <ele>89.8</ele>
        <time>2018-03-29T11:21:13Z</time>
      </trkpt>
      <trkpt lat="62.648660155928" lon="17.868246837011">
        <ele>89.8</ele>
        <time>2018-03-29T11:21:14Z</time>
      </trkpt>
      <trkpt lat="62.648651522571" lon="17.868196545611">
        <ele>89.8</ele>
        <time>2018-03-29T11:21:15Z</time>
      </trkpt>
      <trkpt lat="62.648642805395" lon="17.868149104057">
        <ele>90</ele>
        <time>2018-03-29T11:21:16Z</time>
      </trkpt>
      <trkpt lat="62.64863232802" lon="17.868093699698">
        <ele>90</ele>
        <time>2018-03-29T11:21:17Z</time>
      </trkpt>
      <trkpt lat="62.64861975517" lon="17.868046258144">
        <ele>90</ele>
        <time>2018-03-29T11:21:18Z</time>
      </trkpt>
      <trkpt lat="62.648611792365" lon="17.867993033079">
        <ele>90.4</ele>
        <time>2018-03-29T11:21:19Z</time>
      </trkpt>
      <trkpt lat="62.648600979714" lon="17.867942406403">
        <ele>90.4</ele>
        <time>2018-03-29T11:21:20Z</time>
      </trkpt>
      <trkpt lat="62.648596118212" lon="17.867894797211">
        <ele>90.4</ele>
        <time>2018-03-29T11:21:21Z</time>
      </trkpt>
      <trkpt lat="62.648582539534" lon="17.867844505811">
        <ele>90.4</ele>
        <time>2018-03-29T11:21:22Z</time>
      </trkpt>
      <trkpt lat="62.648577594213" lon="17.867796728981">
        <ele>90.4</ele>
        <time>2018-03-29T11:21:23Z</time>
      </trkpt>
      <trkpt lat="62.648569128494" lon="17.867738390957">
        <ele>90.2</ele>
        <time>2018-03-29T11:21:24Z</time>
      </trkpt>
      <trkpt lat="62.648562255336" lon="17.867682064589">
        <ele>90.2</ele>
        <time>2018-03-29T11:21:25Z</time>
      </trkpt>
      <trkpt lat="62.648549682486" lon="17.867630180628">
        <ele>90.2</ele>
        <time>2018-03-29T11:21:26Z</time>
      </trkpt>
      <trkpt lat="62.64854096531" lon="17.867574357174">
        <ele>90.4</ele>
        <time>2018-03-29T11:21:27Z</time>
      </trkpt>
      <trkpt lat="62.648530404116" lon="17.867516186788">
        <ele>90.4</ele>
        <time>2018-03-29T11:21:28Z</time>
      </trkpt>
      <trkpt lat="62.648519423827" lon="17.867451143244">
        <ele>90.6</ele>
        <time>2018-03-29T11:21:29Z</time>
      </trkpt>
      <trkpt lat="62.648509700823" lon="17.867396744713">
        <ele>90.4</ele>
        <time>2018-03-29T11:21:30Z</time>
      </trkpt>
      <trkpt lat="62.648500396914" lon="17.867339077241">
        <ele>90.6</ele>
        <time>2018-03-29T11:21:31Z</time>
      </trkpt>
      <trkpt lat="62.648489919539" lon="17.867283169968">
        <ele>90.6</ele>
        <time>2018-03-29T11:21:32Z</time>
      </trkpt>
      <trkpt lat="62.648480364173" lon="17.867233800577">
        <ele>90.8</ele>
        <time>2018-03-29T11:21:33Z</time>
      </trkpt>
      <trkpt lat="62.648468126599" lon="17.867182587168">
        <ele>90.8</ele>
        <time>2018-03-29T11:21:34Z</time>
      </trkpt>
      <trkpt lat="62.648456894853" lon="17.867132211949">
        <ele>90.6</ele>
        <time>2018-03-29T11:21:35Z</time>
      </trkpt>
      <trkpt lat="62.648450356971" lon="17.86709021863">
        <ele>90.8</ele>
        <time>2018-03-29T11:21:36Z</time>
      </trkpt>
      <trkpt lat="62.648443819089" lon="17.867047973854">
        <ele>90.8</ele>
        <time>2018-03-29T11:21:37Z</time>
      </trkpt>
      <trkpt lat="62.648436610655" lon="17.867010842037">
        <ele>91</ele>
        <time>2018-03-29T11:21:38Z</time>
      </trkpt>
      <trkpt lat="62.64843032423" lon="17.866970189822">
        <ele>91</ele>
        <time>2018-03-29T11:21:39Z</time>
      </trkpt>
      <trkpt lat="62.648425462728" lon="17.86692174244">
        <ele>91</ele>
        <time>2018-03-29T11:21:40Z</time>
      </trkpt>
      <trkpt lat="62.648421607054" lon="17.866886706098">
        <ele>91.2</ele>
        <time>2018-03-29T11:21:41Z</time>
      </trkpt>
      <trkpt lat="62.648416661733" lon="17.866844377503">
        <ele>91.2</ele>
        <time>2018-03-29T11:21:42Z</time>
      </trkpt>
      <trkpt lat="62.648409956213" lon="17.866804479659">
        <ele>91.4</ele>
        <time>2018-03-29T11:21:43Z</time>
      </trkpt>
      <trkpt lat="62.648404927073" lon="17.866769359498">
        <ele>91.6</ele>
        <time>2018-03-29T11:21:44Z</time>
      </trkpt>
      <trkpt lat="62.648400065571" lon="17.866732982052">
        <ele>91.8</ele>
        <time>2018-03-29T11:21:45Z</time>
      </trkpt>
      <trkpt lat="62.64839679663" lon="17.866690318181">
        <ele>92.2</ele>
        <time>2018-03-29T11:21:46Z</time>
      </trkpt>
      <trkpt lat="62.648390594024" lon="17.86665938897">
        <ele>92.4</ele>
        <time>2018-03-29T11:21:47Z</time>
      </trkpt>
      <trkpt lat="62.64838422378" lon="17.866617311832">
        <ele>92.8</ele>
        <time>2018-03-29T11:21:48Z</time>
      </trkpt>
      <trkpt lat="62.64838087102" lon="17.866572971581">
        <ele>93</ele>
        <time>2018-03-29T11:21:49Z</time>
      </trkpt>
      <trkpt lat="62.64837500369" lon="17.866539443981">
        <ele>93</ele>
        <time>2018-03-29T11:21:50Z</time>
      </trkpt>
      <trkpt lat="62.648370645102" lon="17.866502312164">
        <ele>93.2</ele>
        <time>2018-03-29T11:21:51Z</time>
      </trkpt>
      <trkpt lat="62.648361676469" lon="17.866463755424">
        <ele>93.2</ele>
        <time>2018-03-29T11:21:52Z</time>
      </trkpt>
      <trkpt lat="62.648351282913" lon="17.866432910032">
        <ele>93.4</ele>
        <time>2018-03-29T11:21:53Z</time>
      </trkpt>
      <trkpt lat="62.648341979004" lon="17.866396029672">
        <ele>93.4</ele>
        <time>2018-03-29T11:21:54Z</time>
      </trkpt>
      <trkpt lat="62.648330244344" lon="17.866363340262">
        <ele>93.6</ele>
        <time>2018-03-29T11:21:55Z</time>
      </trkpt>
      <trkpt lat="62.648317084761" lon="17.866340206218">
        <ele>93.6</ele>
        <time>2018-03-29T11:21:56Z</time>
      </trkpt>
      <trkpt lat="62.648304428092" lon="17.866314138509">
        <ele>93.6</ele>
        <time>2018-03-29T11:21:57Z</time>
      </trkpt>
      <trkpt lat="62.64828867012" lon="17.866289244266">
        <ele>93.8</ele>
        <time>2018-03-29T11:21:58Z</time>
      </trkpt>
      <trkpt lat="62.648272995967" lon="17.866272731923">
        <ele>94.2</ele>
        <time>2018-03-29T11:21:59Z</time>
      </trkpt>
      <trkpt lat="62.64825262795" lon="17.866264350023">
        <ele>94.4</ele>
        <time>2018-03-29T11:22:00Z</time>
      </trkpt>
      <trkpt lat="62.648232427571" lon="17.866253118277">
        <ele>94.4</ele>
        <time>2018-03-29T11:22:01Z</time>
      </trkpt>
      <trkpt lat="62.648215244676" lon="17.866253788829">
        <ele>94.6</ele>
        <time>2018-03-29T11:22:02Z</time>
      </trkpt>
      <trkpt lat="62.648195295754" lon="17.866258398874">
        <ele>95</ele>
        <time>2018-03-29T11:22:03Z</time>
      </trkpt>
      <trkpt lat="62.648174173366" lon="17.866257728322">
        <ele>95</ele>
        <time>2018-03-29T11:22:04Z</time>
      </trkpt>
      <trkpt lat="62.648159505041" lon="17.866260745806">
        <ele>95</ele>
        <time>2018-03-29T11:22:05Z</time>
      </trkpt>
      <trkpt lat="62.648144752897" lon="17.866269462982">
        <ele>95.2</ele>
        <time>2018-03-29T11:22:06Z</time>
      </trkpt>
      <trkpt lat="62.648126815631" lon="17.866278934529">
        <ele>95.4</ele>
        <time>2018-03-29T11:22:07Z</time>
      </trkpt>
      <trkpt lat="62.648111560573" lon="17.866287986981">
        <ele>95.8</ele>
        <time>2018-03-29T11:22:08Z</time>
      </trkpt>
      <trkpt lat="62.648100580284" lon="17.866301565659">
        <ele>96</ele>
        <time>2018-03-29T11:22:09Z</time>
      </trkpt>
      <trkpt lat="62.648084906131" lon="17.866314976699">
        <ele>96.2</ele>
        <time>2018-03-29T11:22:10Z</time>
      </trkpt>
      <trkpt lat="62.648066046856" lon="17.866331824318">
        <ele>96.6</ele>
        <time>2018-03-29T11:22:11Z</time>
      </trkpt>
      <trkpt lat="62.648050540341" lon="17.866349761584">
        <ele>96.8</ele>
        <time>2018-03-29T11:22:12Z</time>
      </trkpt>
      <trkpt lat="62.648036123473" lon="17.866366525384">
        <ele>97</ele>
        <time>2018-03-29T11:22:13Z</time>
      </trkpt>
      <trkpt lat="62.648017264198" lon="17.866386055211">
        <ele>97</ele>
        <time>2018-03-29T11:22:14Z</time>
      </trkpt>
      <trkpt lat="62.648004607529" lon="17.866403154287">
        <ele>97.4</ele>
        <time>2018-03-29T11:22:15Z</time>
      </trkpt>
      <trkpt lat="62.647989771566" lon="17.866422684114">
        <ele>97.4</ele>
        <time>2018-03-29T11:22:16Z</time>
      </trkpt>
      <trkpt lat="62.647976192888" lon="17.866436765706">
        <ele>97.6</ele>
        <time>2018-03-29T11:22:17Z</time>
      </trkpt>
      <trkpt lat="62.64796177602" lon="17.86645319423">
        <ele>97.8</ele>
        <time>2018-03-29T11:22:18Z</time>
      </trkpt>
      <trkpt lat="62.647949538446" lon="17.866474819532">
        <ele>98.2</ele>
        <time>2018-03-29T11:22:19Z</time>
      </trkpt>
      <trkpt lat="62.647935959768" lon="17.86649342735">
        <ele>98.2</ele>
        <time>2018-03-29T11:22:20Z</time>
      </trkpt>
      <trkpt lat="62.647923554556" lon="17.866512286625">
        <ele>98.4</ele>
        <time>2018-03-29T11:22:21Z</time>
      </trkpt>
      <trkpt lat="62.647910814068" lon="17.866533492832">
        <ele>98.6</ele>
        <time>2018-03-29T11:22:22Z</time>
      </trkpt>
      <trkpt lat="62.647897486847" lon="17.866548496433">
        <ele>98.6</ele>
        <time>2018-03-29T11:22:23Z</time>
      </trkpt>
      <trkpt lat="62.647885752187" lon="17.866574396504">
        <ele>98.8</ele>
        <time>2018-03-29T11:22:24Z</time>
      </trkpt>
      <trkpt lat="62.647875107174" lon="17.866601470041">
        <ele>98.8</ele>
        <time>2018-03-29T11:22:25Z</time>
      </trkpt>
      <trkpt lat="62.647861528496" lon="17.866624771723">
        <ele>99</ele>
        <time>2018-03-29T11:22:26Z</time>
      </trkpt>
      <trkpt lat="62.647849961474" lon="17.866646564663">
        <ele>99.4</ele>
        <time>2018-03-29T11:22:27Z</time>
      </trkpt>
      <trkpt lat="62.647839903194" lon="17.866670788354">
        <ele>99.6</ele>
        <time>2018-03-29T11:22:28Z</time>
      </trkpt>
      <trkpt lat="62.647830264009" lon="17.866689228534">
        <ele>100</ele>
        <time>2018-03-29T11:22:29Z</time>
      </trkpt>
      <trkpt lat="62.647821043919" lon="17.866717475537">
        <ele>100.2</ele>
        <time>2018-03-29T11:22:30Z</time>
      </trkpt>
      <trkpt lat="62.647812913476" lon="17.866740609581">
        <ele>100.6</ele>
        <time>2018-03-29T11:22:31Z</time>
      </trkpt>
      <trkpt lat="62.647806040318" lon="17.866758211571">
        <ele>100.8</ele>
        <time>2018-03-29T11:22:32Z</time>
      </trkpt>
      <trkpt lat="62.647800172988" lon="17.866778831045">
        <ele>101</ele>
        <time>2018-03-29T11:22:33Z</time>
      </trkpt>
      <trkpt lat="62.647789276518" lon="17.866805653125">
        <ele>101.2</ele>
        <time>2018-03-29T11:22:34Z</time>
      </trkpt>
      <trkpt lat="62.647778296229" lon="17.866829960635">
        <ele>101.4</ele>
        <time>2018-03-29T11:22:35Z</time>
      </trkpt>
      <trkpt lat="62.647768824682" lon="17.866854771059">
        <ele>101.8</ele>
        <time>2018-03-29T11:22:36Z</time>
      </trkpt>
      <trkpt lat="62.647758431126" lon="17.866882850424">
        <ele>102</ele>
        <time>2018-03-29T11:22:37Z</time>
      </trkpt>
      <trkpt lat="62.647749630131" lon="17.866909672504">
        <ele>102.2</ele>
        <time>2018-03-29T11:22:38Z</time>
      </trkpt>
      <trkpt lat="62.647742673154" lon="17.866939260611">
        <ele>102.6</ele>
        <time>2018-03-29T11:22:39Z</time>
      </trkpt>
      <trkpt lat="62.647731525227" lon="17.866972536754">
        <ele>102.8</ele>
        <time>2018-03-29T11:22:40Z</time>
      </trkpt>
      <trkpt lat="62.647725909354" lon="17.867010758218">
        <ele>103</ele>
        <time>2018-03-29T11:22:41Z</time>
      </trkpt>
      <trkpt lat="62.647715515798" lon="17.867053086813">
        <ele>103</ele>
        <time>2018-03-29T11:22:42Z</time>
      </trkpt>
      <trkpt lat="62.647707469174" lon="17.867091811191">
        <ele>103.2</ele>
        <time>2018-03-29T11:22:43Z</time>
      </trkpt>
      <trkpt lat="62.64770109893" lon="17.867130870845">
        <ele>103</ele>
        <time>2018-03-29T11:22:44Z</time>
      </trkpt>
      <trkpt lat="62.647692549392" lon="17.867164901359">
        <ele>103</ele>
        <time>2018-03-29T11:22:45Z</time>
      </trkpt>
      <trkpt lat="62.647686262967" lon="17.867200356796">
        <ele>103</ele>
        <time>2018-03-29T11:22:46Z</time>
      </trkpt>
      <trkpt lat="62.647683664578" lon="17.86723019636">
        <ele>103</ele>
        <time>2018-03-29T11:22:47Z</time>
      </trkpt>
      <trkpt lat="62.647678719257" lon="17.867265819435">
        <ele>103</ele>
        <time>2018-03-29T11:22:48Z</time>
      </trkpt>
      <trkpt lat="62.647670672633" lon="17.867299514673">
        <ele>103.2</ele>
        <time>2018-03-29T11:22:49Z</time>
      </trkpt>
      <trkpt lat="62.647666146407" lon="17.867332120264">
        <ele>103.4</ele>
        <time>2018-03-29T11:22:50Z</time>
      </trkpt>
      <trkpt lat="62.647663045104" lon="17.867363384751">
        <ele>103.8</ele>
        <time>2018-03-29T11:22:51Z</time>
      </trkpt>
      <trkpt lat="62.647657429231" lon="17.867397247627">
        <ele>104</ele>
        <time>2018-03-29T11:22:52Z</time>
      </trkpt>
      <trkpt lat="62.647657177774" lon="17.867427673924">
        <ele>104.2</ele>
        <time>2018-03-29T11:22:53Z</time>
      </trkpt>
      <trkpt lat="62.647651310444" lon="17.867463632275">
        <ele>104.4</ele>
        <time>2018-03-29T11:22:54Z</time>
      </trkpt>
      <trkpt lat="62.647645946028" lon="17.867495148219">
        <ele>104.6</ele>
        <time>2018-03-29T11:22:55Z</time>
      </trkpt>
      <trkpt lat="62.647643347639" lon="17.867524736326">
        <ele>104.8</ele>
        <time>2018-03-29T11:22:56Z</time>
      </trkpt>
      <trkpt lat="62.647635552472" lon="17.86755289951">
        <ele>105</ele>
        <time>2018-03-29T11:22:57Z</time>
      </trkpt>
      <trkpt lat="62.647626164744" lon="17.867582655255">
        <ele>105.2</ele>
        <time>2018-03-29T11:22:58Z</time>
      </trkpt>
      <trkpt lat="62.647622560527" lon="17.867616434312">
        <ele>105.4</ele>
        <time>2018-03-29T11:22:59Z</time>
      </trkpt>
      <trkpt lat="62.647614262446" lon="17.867650045731">
        <ele>105.6</ele>
        <time>2018-03-29T11:23:00Z</time>
      </trkpt>
      <trkpt lat="62.647608143659" lon="17.867681477856">
        <ele>105.8</ele>
        <time>2018-03-29T11:23:01Z</time>
      </trkpt>
      <trkpt lat="62.647602276329" lon="17.867712071791">
        <ele>106</ele>
        <time>2018-03-29T11:23:02Z</time>
      </trkpt>
      <trkpt lat="62.647594145886" lon="17.86774149226">
        <ele>106.2</ele>
        <time>2018-03-29T11:23:03Z</time>
      </trkpt>
      <trkpt lat="62.64758794328" lon="17.867779965181">
        <ele>106.4</ele>
        <time>2018-03-29T11:23:04Z</time>
      </trkpt>
      <trkpt lat="62.647576376258" lon="17.867810642935">
        <ele>106.6</ele>
        <time>2018-03-29T11:23:05Z</time>
      </trkpt>
      <trkpt lat="62.647561540295" lon="17.86784291325">
        <ele>106.8</ele>
        <time>2018-03-29T11:23:06Z</time>
      </trkpt>
      <trkpt lat="62.647552823119" lon="17.867873004271">
        <ele>107</ele>
        <time>2018-03-29T11:23:07Z</time>
      </trkpt>
      <trkpt lat="62.6475359755" lon="17.867899742532">
        <ele>107</ele>
        <time>2018-03-29T11:23:08Z</time>
      </trkpt>
      <trkpt lat="62.647523486469" lon="17.867923798585">
        <ele>107.2</ele>
        <time>2018-03-29T11:23:09Z</time>
      </trkpt>
      <trkpt lat="62.647505968298" lon="17.867942490222">
        <ele>107.2</ele>
        <time>2018-03-29T11:23:10Z</time>
      </trkpt>
      <trkpt lat="62.647486354652" lon="17.867959170203">
        <ele>107.4</ele>
        <time>2018-03-29T11:23:11Z</time>
      </trkpt>
      <trkpt lat="62.647469087938" lon="17.867977442745">
        <ele>107.6</ele>
        <time>2018-03-29T11:23:12Z</time>
      </trkpt>
      <trkpt lat="62.647445786256" lon="17.867988423034">
        <ele>107.6</ele>
        <time>2018-03-29T11:23:13Z</time>
      </trkpt>
      <trkpt lat="62.647422316936" lon="17.868000912065">
        <ele>107.8</ele>
        <time>2018-03-29T11:23:14Z</time>
      </trkpt>
      <trkpt lat="62.647397590331" lon="17.868003678092">
        <ele>108</ele>
        <time>2018-03-29T11:23:15Z</time>
      </trkpt>
      <trkpt lat="62.647368086043" lon="17.867999151866">
        <ele>108.2</ele>
        <time>2018-03-29T11:23:16Z</time>
      </trkpt>
      <trkpt lat="62.647347215112" lon="17.867995128554">
        <ele>108.4</ele>
        <time>2018-03-29T11:23:17Z</time>
      </trkpt>
      <trkpt lat="62.647327182371" lon="17.867975934003">
        <ele>108.4</ele>
        <time>2018-03-29T11:23:18Z</time>
      </trkpt>
      <trkpt lat="62.647308239277" lon="17.867952883778">
        <ele>108.6</ele>
        <time>2018-03-29T11:23:19Z</time>
      </trkpt>
      <trkpt lat="62.647278148256" lon="17.867949111923">
        <ele>108.6</ele>
        <time>2018-03-29T11:23:20Z</time>
      </trkpt>
      <trkpt lat="62.647253756927" lon="17.867929833553">
        <ele>108.6</ele>
        <time>2018-03-29T11:23:21Z</time>
      </trkpt>
      <trkpt lat="62.647229281779" lon="17.867910471364">
        <ele>108.6</ele>
        <time>2018-03-29T11:23:22Z</time>
      </trkpt>
      <trkpt lat="62.647200280405" lon="17.86786302981">
        <ele>108.6</ele>
        <time>2018-03-29T11:23:24Z</time>
      </trkpt>
      <trkpt lat="62.647184522433" lon="17.86783704592">
        <ele>108.6</ele>
        <time>2018-03-29T11:23:25Z</time>
      </trkpt>
      <trkpt lat="62.647165244063" lon="17.867805949071">
        <ele>108.8</ele>
        <time>2018-03-29T11:23:26Z</time>
      </trkpt>
      <trkpt lat="62.64714537896" lon="17.86777501986">
        <ele>109</ele>
        <time>2018-03-29T11:23:27Z</time>
      </trkpt>
      <trkpt lat="62.647124759486" lon="17.867732942722">
        <ele>109.2</ele>
        <time>2018-03-29T11:23:28Z</time>
      </trkpt>
      <trkpt lat="62.647101457804" lon="17.867691955231">
        <ele>109.2</ele>
        <time>2018-03-29T11:23:29Z</time>
      </trkpt>
      <trkpt lat="62.647080586873" lon="17.86764677679">
        <ele>109.2</ele>
        <time>2018-03-29T11:23:30Z</time>
      </trkpt>
      <trkpt lat="62.647062733426" lon="17.867606040756">
        <ele>109.2</ele>
        <time>2018-03-29T11:23:31Z</time>
      </trkpt>
      <trkpt lat="62.647044628522" lon="17.867566142912">
        <ele>109.2</ele>
        <time>2018-03-29T11:23:32Z</time>
      </trkpt>
      <trkpt lat="62.647027613265" lon="17.867530519837">
        <ele>109.2</ele>
        <time>2018-03-29T11:23:33Z</time>
      </trkpt>
      <trkpt lat="62.647007831981" lon="17.867487604509">
        <ele>109.4</ele>
        <time>2018-03-29T11:23:34Z</time>
      </trkpt>
      <trkpt lat="62.646998947167" lon="17.867439408584">
        <ele>109.6</ele>
        <time>2018-03-29T11:23:35Z</time>
      </trkpt>
      <trkpt lat="62.646979752616" lon="17.867410910124">
        <ele>109.8</ele>
        <time>2018-03-29T11:23:36Z</time>
      </trkpt>
      <trkpt lat="62.646962234445" lon="17.867367240425">
        <ele>110</ele>
        <time>2018-03-29T11:23:37Z</time>
      </trkpt>
      <trkpt lat="62.646948320491" lon="17.867328851323">
        <ele>110</ele>
        <time>2018-03-29T11:23:38Z</time>
      </trkpt>
      <trkpt lat="62.646938262211" lon="17.867285349262">
        <ele>110</ele>
        <time>2018-03-29T11:23:39Z</time>
      </trkpt>
      <trkpt lat="62.646922588058" lon="17.867227430333">
        <ele>110</ele>
        <time>2018-03-29T11:23:40Z</time>
      </trkpt>
      <trkpt lat="62.646908506466" lon="17.867182922444">
        <ele>109.8</ele>
        <time>2018-03-29T11:23:41Z</time>
      </trkpt>
      <trkpt lat="62.646897526177" lon="17.867126596076">
        <ele>109.8</ele>
        <time>2018-03-29T11:23:42Z</time>
      </trkpt>
      <trkpt lat="62.6468905692" lon="17.867079992712">
        <ele>109.8</ele>
        <time>2018-03-29T11:23:43Z</time>
      </trkpt>
      <trkpt lat="62.646886797345" lon="17.86701813429">
        <ele>109.8</ele>
        <time>2018-03-29T11:23:44Z</time>
      </trkpt>
      <trkpt lat="62.646885288603" lon="17.866963484302">
        <ele>109.8</ele>
        <time>2018-03-29T11:23:45Z</time>
      </trkpt>
      <trkpt lat="62.646885372422" lon="17.866896010007">
        <ele>109.8</ele>
        <time>2018-03-29T11:23:46Z</time>
      </trkpt>
      <trkpt lat="62.646883612223" lon="17.866844209865">
        <ele>110</ele>
        <time>2018-03-29T11:23:47Z</time>
      </trkpt>
      <trkpt lat="62.646880091825" lon="17.866780758882">
        <ele>110</ele>
        <time>2018-03-29T11:23:48Z</time>
      </trkpt>
      <trkpt lat="62.64687883454" lon="17.866705237963">
        <ele>110</ele>
        <time>2018-03-29T11:23:49Z</time>
      </trkpt>
      <trkpt lat="62.646875733237" lon="17.866650001242">
        <ele>110</ele>
        <time>2018-03-29T11:23:50Z</time>
      </trkpt>
      <trkpt lat="62.646873889219" lon="17.866601470041">
        <ele>110.2</ele>
        <time>2018-03-29T11:23:51Z</time>
      </trkpt>
      <trkpt lat="62.646866680785" lon="17.866515807023">
        <ele>110.2</ele>
        <time>2018-03-29T11:23:52Z</time>
      </trkpt>
      <trkpt lat="62.646855616677" lon="17.866445231425">
        <ele>110</ele>
        <time>2018-03-29T11:23:53Z</time>
      </trkpt>
      <trkpt lat="62.646846564225" lon="17.866364429909">
        <ele>110</ele>
        <time>2018-03-29T11:23:54Z</time>
      </trkpt>
      <trkpt lat="62.64683441047" lon="17.8662796889">
        <ele>109.8</ele>
        <time>2018-03-29T11:23:55Z</time>
      </trkpt>
      <trkpt lat="62.646826280027" lon="17.866222440523">
        <ele>109.8</ele>
        <time>2018-03-29T11:23:56Z</time>
      </trkpt>
      <trkpt lat="62.646816221747" lon="17.866156307332">
        <ele>109.6</ele>
        <time>2018-03-29T11:23:57Z</time>
      </trkpt>
      <trkpt lat="62.646802140155" lon="17.866084642087">
        <ele>109.6</ele>
        <time>2018-03-29T11:23:58Z</time>
      </trkpt>
      <trkpt lat="62.64678831002" lon="17.86601733543">
        <ele>109.4</ele>
        <time>2018-03-29T11:23:59Z</time>
      </trkpt>
      <trkpt lat="62.64676903165" lon="17.865940724864">
        <ele>109.4</ele>
        <time>2018-03-29T11:24:00Z</time>
      </trkpt>
      <trkpt lat="62.646745059416" lon="17.865869562533">
        <ele>109.4</ele>
        <time>2018-03-29T11:24:01Z</time>
      </trkpt>
      <trkpt lat="62.646720081354" lon="17.865813068527">
        <ele>109.4</ele>
        <time>2018-03-29T11:24:02Z</time>
      </trkpt>
      <trkpt lat="62.646699294242" lon="17.865749449906">
        <ele>109.2</ele>
        <time>2018-03-29T11:24:03Z</time>
      </trkpt>
      <trkpt lat="62.64667766894" lon="17.86568289762">
        <ele>109.2</ele>
        <time>2018-03-29T11:24:04Z</time>
      </trkpt>
      <trkpt lat="62.646658977303" lon="17.865634617876">
        <ele>109</ele>
        <time>2018-03-29T11:24:05Z</time>
      </trkpt>
      <trkpt lat="62.646632574318" lon="17.865572424178">
        <ele>108.8</ele>
        <time>2018-03-29T11:24:06Z</time>
      </trkpt>
      <trkpt lat="62.646612038663" lon="17.865516684543">
        <ele>108.8</ele>
        <time>2018-03-29T11:24:07Z</time>
      </trkpt>
      <trkpt lat="62.646592341198" lon="17.865462537469">
        <ele>108.8</ele>
        <time>2018-03-29T11:24:08Z</time>
      </trkpt>
      <trkpt lat="62.646570967353" lon="17.865399757038">
        <ele>108.8</ele>
        <time>2018-03-29T11:24:09Z</time>
      </trkpt>
      <trkpt lat="62.646542636531" lon="17.865327840336">
        <ele>108.6</ele>
        <time>2018-03-29T11:24:10Z</time>
      </trkpt>
      <trkpt lat="62.646518915754" lon="17.86527218452">
        <ele>108.6</ele>
        <time>2018-03-29T11:24:11Z</time>
      </trkpt>
      <trkpt lat="62.646497374271" lon="17.865223653319">
        <ele>108.6</ele>
        <time>2018-03-29T11:24:12Z</time>
      </trkpt>
      <trkpt lat="62.646471809476" lon="17.865177971964">
        <ele>108.6</ele>
        <time>2018-03-29T11:24:13Z</time>
      </trkpt>
      <trkpt lat="62.646444233025" lon="17.86512801584">
        <ele>108.8</ele>
        <time>2018-03-29T11:24:14Z</time>
      </trkpt>
      <trkpt lat="62.646421266619" lon="17.865093733869">
        <ele>108.6</ele>
        <time>2018-03-29T11:24:15Z</time>
      </trkpt>
      <trkpt lat="62.646400730964" lon="17.865056266776">
        <ele>108.8</ele>
        <time>2018-03-29T11:24:16Z</time>
      </trkpt>
      <trkpt lat="62.646371142857" lon="17.865005891557">
        <ele>108.8</ele>
        <time>2018-03-29T11:24:17Z</time>
      </trkpt>
      <trkpt lat="62.646340632741" lon="17.864963143867">
        <ele>108.8</ele>
        <time>2018-03-29T11:24:18Z</time>
      </trkpt>
      <trkpt lat="62.646310625539" lon="17.86492601205">
        <ele>108.8</ele>
        <time>2018-03-29T11:24:19Z</time>
      </trkpt>
      <trkpt lat="62.64627952869" lon="17.864897094495">
        <ele>109</ele>
        <time>2018-03-29T11:24:20Z</time>
      </trkpt>
      <trkpt lat="62.646251533144" lon="17.864869266587">
        <ele>108.8</ele>
        <time>2018-03-29T11:24:21Z</time>
      </trkpt>
      <trkpt lat="62.646221106847" lon="17.864844959077">
        <ele>108.8</ele>
        <time>2018-03-29T11:24:22Z</time>
      </trkpt>
      <trkpt lat="62.646185986686" lon="17.864830626028">
        <ele>108.8</ele>
        <time>2018-03-29T11:24:23Z</time>
      </trkpt>
      <trkpt lat="62.646146507937" lon="17.864834314064">
        <ele>108.6</ele>
        <time>2018-03-29T11:24:24Z</time>
      </trkpt>
      <trkpt lat="62.646106107179" lon="17.864853005701">
        <ele>108.6</ele>
        <time>2018-03-29T11:24:25Z</time>
      </trkpt>
      <trkpt lat="62.646073082493" lon="17.864881923256">
        <ele>108.8</ele>
        <time>2018-03-29T11:24:26Z</time>
      </trkpt>
      <trkpt lat="62.646046176594" lon="17.864924084213">
        <ele>108.8</ele>
        <time>2018-03-29T11:24:27Z</time>
      </trkpt>
      <trkpt lat="62.646019186876" lon="17.864977476916">
        <ele>108.6</ele>
        <time>2018-03-29T11:24:28Z</time>
      </trkpt>
      <trkpt lat="62.645992951529" lon="17.865035898759">
        <ele>108.6</ele>
        <time>2018-03-29T11:24:29Z</time>
      </trkpt>
      <trkpt lat="62.645968308743" lon="17.86509029729">
        <ele>108.6</ele>
        <time>2018-03-29T11:24:30Z</time>
      </trkpt>
      <trkpt lat="62.645940397016" lon="17.865155173196">
        <ele>108.4</ele>
        <time>2018-03-29T11:24:31Z</time>
      </trkpt>
      <trkpt lat="62.645902091733" lon="17.865229520649">
        <ele>108.2</ele>
        <time>2018-03-29T11:24:32Z</time>
      </trkpt>
      <trkpt lat="62.645865630468" lon="17.865293809822">
        <ele>108</ele>
        <time>2018-03-29T11:24:33Z</time>
      </trkpt>
      <trkpt lat="62.645819110923" lon="17.86536941456">
        <ele>107.6</ele>
        <time>2018-03-29T11:24:34Z</time>
      </trkpt>
      <trkpt lat="62.645776949966" lon="17.865430853887">
        <ele>106.6</ele>
        <time>2018-03-29T11:24:35Z</time>
      </trkpt>
      <trkpt lat="62.645732861172" lon="17.865501178028">
        <ele>105.8</ele>
        <time>2018-03-29T11:24:36Z</time>
      </trkpt>
      <trkpt lat="62.645687515093" lon="17.865579632612">
        <ele>105.4</ele>
        <time>2018-03-29T11:24:37Z</time>
      </trkpt>
      <trkpt lat="62.645649461267" lon="17.865647442183">
        <ele>104.8</ele>
        <time>2018-03-29T11:24:38Z</time>
      </trkpt>
      <trkpt lat="62.645610820708" lon="17.865722879283">
        <ele>103.8</ele>
        <time>2018-03-29T11:24:39Z</time>
      </trkpt>
      <trkpt lat="62.645567318647" lon="17.865813822898">
        <ele>103.6</ele>
        <time>2018-03-29T11:24:40Z</time>
      </trkpt>
      <trkpt lat="62.645529013364" lon="17.865893115672">
        <ele>103.6</ele>
        <time>2018-03-29T11:24:41Z</time>
      </trkpt>
      <trkpt lat="62.645489534615" lon="17.865977605224">
        <ele>103</ele>
        <time>2018-03-29T11:24:42Z</time>
      </trkpt>
      <trkpt lat="62.645445781097" lon="17.866065196079">
        <ele>102.2</ele>
        <time>2018-03-29T11:24:43Z</time>
      </trkpt>
      <trkpt lat="62.645395489697" lon="17.866160749739">
        <ele>102</ele>
        <time>2018-03-29T11:24:44Z</time>
      </trkpt>
      <trkpt lat="62.645348131962" lon="17.866247418585">
        <ele>101.2</ele>
        <time>2018-03-29T11:24:45Z</time>
      </trkpt>
      <trkpt lat="62.64529214087" lon="17.866350432136">
        <ele>100.4</ele>
        <time>2018-03-29T11:24:46Z</time>
      </trkpt>
      <trkpt lat="62.645243358212" lon="17.866444644692">
        <ele>99.6</ele>
        <time>2018-03-29T11:24:47Z</time>
      </trkpt>
      <trkpt lat="62.645191306613" lon="17.866545646587">
        <ele>98.6</ele>
        <time>2018-03-29T11:24:48Z</time>
      </trkpt>
      <trkpt lat="62.645146882543" lon="17.866648660138">
        <ele>98</ele>
        <time>2018-03-29T11:24:49Z</time>
      </trkpt>
      <trkpt lat="62.645110672735" lon="17.866753350069">
        <ele>97.6</ele>
        <time>2018-03-29T11:24:50Z</time>
      </trkpt>
      <trkpt lat="62.645072115995" lon="17.866867763004">
        <ele>97</ele>
        <time>2018-03-29T11:24:51Z</time>
      </trkpt>
      <trkpt lat="62.645030541771" lon="17.867008159829">
        <ele>96.6</ele>
        <time>2018-03-29T11:24:52Z</time>
      </trkpt>
      <trkpt lat="62.644996427438" lon="17.867147969921">
        <ele>96.2</ele>
        <time>2018-03-29T11:24:53Z</time>
      </trkpt>
      <trkpt lat="62.644959714716" lon="17.867310159686">
        <ele>95.8</ele>
        <time>2018-03-29T11:24:54Z</time>
      </trkpt>
      <trkpt lat="62.644918978682" lon="17.867476288944">
        <ele>95.6</ele>
        <time>2018-03-29T11:24:55Z</time>
      </trkpt>
      <trkpt lat="62.644877069182" lon="17.867621295814">
        <ele>94.6</ele>
        <time>2018-03-29T11:24:56Z</time>
      </trkpt>
      <trkpt lat="62.644839602089" lon="17.867757334051">
        <ele>93.8</ele>
        <time>2018-03-29T11:24:57Z</time>
      </trkpt>
      <trkpt lat="62.644799452788" lon="17.867892869374">
        <ele>92.8</ele>
        <time>2018-03-29T11:24:58Z</time>
      </trkpt>
      <trkpt lat="62.644764667903" lon="17.86801725677">
        <ele>91.8</ele>
        <time>2018-03-29T11:24:59Z</time>
      </trkpt>
      <trkpt lat="62.644746730637" lon="17.868115325">
        <ele>91.2</ele>
        <time>2018-03-29T11:25:00Z</time>
      </trkpt>
      <trkpt lat="62.644728625733" lon="17.868218590008">
        <ele>90.6</ele>
        <time>2018-03-29T11:25:01Z</time>
      </trkpt>
      <trkpt lat="62.644709179725" lon="17.868302660465">
        <ele>90</ele>
        <time>2018-03-29T11:25:02Z</time>
      </trkpt>
      <trkpt lat="62.644699289083" lon="17.868387652931">
        <ele>89.8</ele>
        <time>2018-03-29T11:25:03Z</time>
      </trkpt>
      <trkpt lat="62.644685710405" lon="17.868491504672">
        <ele>89.4</ele>
        <time>2018-03-29T11:25:04Z</time>
      </trkpt>
      <trkpt lat="62.644687051509" lon="17.868582615925">
        <ele>89.2</ele>
        <time>2018-03-29T11:25:05Z</time>
      </trkpt>
      <trkpt lat="62.64468110036" lon="17.868666937839">
        <ele>88.8</ele>
        <time>2018-03-29T11:25:06Z</time>
      </trkpt>
      <trkpt lat="62.644665342388" lon="17.868759809291">
        <ele>88.8</ele>
        <time>2018-03-29T11:25:07Z</time>
      </trkpt>
      <trkpt lat="62.644657463402" lon="17.86884538849">
        <ele>89</ele>
        <time>2018-03-29T11:25:08Z</time>
      </trkpt>
      <trkpt lat="62.644659139782" lon="17.868926273825">
        <ele>88.8</ele>
        <time>2018-03-29T11:25:09Z</time>
      </trkpt>
      <trkpt lat="62.644658888325" lon="17.869030293204">
        <ele>88.8</ele>
        <time>2018-03-29T11:25:10Z</time>
      </trkpt>
      <trkpt lat="62.644662911637" lon="17.869124170484">
        <ele>89</ele>
        <time>2018-03-29T11:25:11Z</time>
      </trkpt>
      <trkpt lat="62.644672467003" lon="17.869202122154">
        <ele>89</ele>
        <time>2018-03-29T11:25:12Z</time>
      </trkpt>
      <trkpt lat="62.644675652125" lon="17.869297256719">
        <ele>88.6</ele>
        <time>2018-03-29T11:25:13Z</time>
      </trkpt>
      <trkpt lat="62.64467858579" lon="17.86940446122">
        <ele>88.6</ele>
        <time>2018-03-29T11:25:14Z</time>
      </trkpt>
      <trkpt lat="62.644678669609" lon="17.869487274392">
        <ele>88.6</ele>
        <time>2018-03-29T11:25:15Z</time>
      </trkpt>
      <trkpt lat="62.644673808107" lon="17.869605794458">
        <ele>88.4</ele>
        <time>2018-03-29T11:25:16Z</time>
      </trkpt>
      <trkpt lat="62.644669700976" lon="17.869719117746">
        <ele>88.4</ele>
        <time>2018-03-29T11:25:17Z</time>
      </trkpt>
      <trkpt lat="62.644665258569" lon="17.869811989198">
        <ele>88.2</ele>
        <time>2018-03-29T11:25:18Z</time>
      </trkpt>
      <trkpt lat="62.644655619384" lon="17.869916092396">
        <ele>88.2</ele>
        <time>2018-03-29T11:25:19Z</time>
      </trkpt>
      <trkpt lat="62.644642375982" lon="17.870019022128">
        <ele>87.6</ele>
        <time>2018-03-29T11:25:20Z</time>
      </trkpt>
      <trkpt lat="62.6446190743" lon="17.870117509453">
        <ele>87</ele>
        <time>2018-03-29T11:25:21Z</time>
      </trkpt>
      <trkpt lat="62.64460063412" lon="17.870233934044">
        <ele>86.4</ele>
        <time>2018-03-29T11:25:22Z</time>
      </trkpt>
      <trkpt lat="62.644593677143" lon="17.870325296754">
        <ele>86.4</ele>
        <time>2018-03-29T11:25:23Z</time>
      </trkpt>
      <trkpt lat="62.644602645776" lon="17.870424873726">
        <ele>86</ele>
        <time>2018-03-29T11:25:24Z</time>
      </trkpt>
      <trkpt lat="62.644601053215" lon="17.870536436815">
        <ele>86.2</ele>
        <time>2018-03-29T11:25:25Z</time>
      </trkpt>
      <trkpt lat="62.644587977451" lon="17.870631152285">
        <ele>86.4</ele>
        <time>2018-03-29T11:25:26Z</time>
      </trkpt>
      <trkpt lat="62.644577332438" lon="17.87073299237">
        <ele>86.2</ele>
        <time>2018-03-29T11:25:27Z</time>
      </trkpt>
      <trkpt lat="62.644568363805" lon="17.870855284291">
        <ele>85.4</ele>
        <time>2018-03-29T11:25:28Z</time>
      </trkpt>
      <trkpt lat="62.644554701308" lon="17.870980342239">
        <ele>84.8</ele>
        <time>2018-03-29T11:25:29Z</time>
      </trkpt>
      <trkpt lat="62.64453860806" lon="17.871100706323">
        <ele>84</ele>
        <time>2018-03-29T11:25:30Z</time>
      </trkpt>
      <trkpt lat="62.644521592803" lon="17.871225596633">
        <ele>83.2</ele>
        <time>2018-03-29T11:25:31Z</time>
      </trkpt>
      <trkpt lat="62.644502733528" lon="17.871339674292">
        <ele>82.8</ele>
        <time>2018-03-29T11:25:32Z</time>
      </trkpt>
      <trkpt lat="62.644479180389" lon="17.871434138305">
        <ele>82.6</ele>
        <time>2018-03-29T11:25:33Z</time>
      </trkpt>
      <trkpt lat="62.644457387449" lon="17.871554837665">
        <ele>82.6</ele>
        <time>2018-03-29T11:25:34Z</time>
      </trkpt>
      <trkpt lat="62.644447580626" lon="17.871673357731">
        <ele>82.4</ele>
        <time>2018-03-29T11:25:35Z</time>
      </trkpt>
      <trkpt lat="62.644430230093" lon="17.871779137309">
        <ele>82.6</ele>
        <time>2018-03-29T11:25:36Z</time>
      </trkpt>
      <trkpt lat="62.644409442981" lon="17.8718787981">
        <ele>82.8</ele>
        <time>2018-03-29T11:25:37Z</time>
      </trkpt>
      <trkpt lat="62.644390751344" lon="17.871973178294">
        <ele>83</ele>
        <time>2018-03-29T11:25:38Z</time>
      </trkpt>
      <trkpt lat="62.644373233173" lon="17.872054398905">
        <ele>83.2</ele>
        <time>2018-03-29T11:25:39Z</time>
      </trkpt>
      <trkpt lat="62.644355966459" lon="17.872159927026">
        <ele>83.2</ele>
        <time>2018-03-29T11:25:40Z</time>
      </trkpt>
      <trkpt lat="62.644336520451" lon="17.872269310821">
        <ele>83.2</ele>
        <time>2018-03-29T11:25:41Z</time>
      </trkpt>
      <trkpt lat="62.644316152434" lon="17.872364529205">
        <ele>83.2</ele>
        <time>2018-03-29T11:25:42Z</time>
      </trkpt>
      <trkpt lat="62.644287402517" lon="17.872456143372">
        <ele>83.2</ele>
        <time>2018-03-29T11:25:43Z</time>
      </trkpt>
      <trkpt lat="62.644260664256" lon="17.872567455004">
        <ele>83</ele>
        <time>2018-03-29T11:25:44Z</time>
      </trkpt>
      <trkpt lat="62.644238787497" lon="17.872659488266">
        <ele>82.8</ele>
        <time>2018-03-29T11:25:45Z</time>
      </trkpt>
      <trkpt lat="62.644210289037" lon="17.872770883717">
        <ele>82.6</ele>
        <time>2018-03-29T11:25:46Z</time>
      </trkpt>
      <trkpt lat="62.644191848857" lon="17.872872556164">
        <ele>82.4</ele>
        <time>2018-03-29T11:25:47Z</time>
      </trkpt>
      <trkpt lat="62.644172570487" lon="17.872979928303">
        <ele>82</ele>
        <time>2018-03-29T11:25:48Z</time>
      </trkpt>
      <trkpt lat="62.644156141963" lon="17.873098616007">
        <ele>81.4</ele>
        <time>2018-03-29T11:25:49Z</time>
      </trkpt>
      <trkpt lat="62.644137366507" lon="17.873221243204">
        <ele>80.8</ele>
        <time>2018-03-29T11:25:50Z</time>
      </trkpt>
      <trkpt lat="62.64411867487" lon="17.873335069406">
        <ele>80.4</ele>
        <time>2018-03-29T11:25:51Z</time>
      </trkpt>
      <trkpt lat="62.644092188066" lon="17.873469012168">
        <ele>79.8</ele>
        <time>2018-03-29T11:25:52Z</time>
      </trkpt>
      <trkpt lat="62.644067629099" lon="17.873582083999">
        <ele>79.4</ele>
        <time>2018-03-29T11:25:53Z</time>
      </trkpt>
      <trkpt lat="62.644042231942" lon="17.873696664572">
        <ele>79.2</ele>
        <time>2018-03-29T11:25:54Z</time>
      </trkpt>
      <trkpt lat="62.64402144483" lon="17.873803617616">
        <ele>78.6</ele>
        <time>2018-03-29T11:25:55Z</time>
      </trkpt>
      <trkpt lat="62.644003926659" lon="17.873909397194">
        <ele>78.4</ele>
        <time>2018-03-29T11:25:56Z</time>
      </trkpt>
      <trkpt lat="62.643988001049" lon="17.874010482908">
        <ele>78.2</ele>
        <time>2018-03-29T11:25:57Z</time>
      </trkpt>
      <trkpt lat="62.643962268616" lon="17.874119363789">
        <ele>78.2</ele>
        <time>2018-03-29T11:25:58Z</time>
      </trkpt>
      <trkpt lat="62.643933937794" lon="17.874234363457">
        <ele>78.2</ele>
        <time>2018-03-29T11:25:59Z</time>
      </trkpt>
      <trkpt lat="62.643910300836" lon="17.874339053388">
        <ele>77.8</ele>
        <time>2018-03-29T11:26:00Z</time>
      </trkpt>
      <trkpt lat="62.643890854828" lon="17.874443575681">
        <ele>77.6</ele>
        <time>2018-03-29T11:26:01Z</time>
      </trkpt>
      <trkpt lat="62.643872498467" lon="17.874551115458">
        <ele>77.4</ele>
        <time>2018-03-29T11:26:02Z</time>
      </trkpt>
      <trkpt lat="62.643859925617" lon="17.874639125408">
        <ele>77.4</ele>
        <time>2018-03-29T11:26:03Z</time>
      </trkpt>
      <trkpt lat="62.64384291036" lon="17.874749347393">
        <ele>77.2</ele>
        <time>2018-03-29T11:26:04Z</time>
      </trkpt>
      <trkpt lat="62.643823548171" lon="17.874856384256">
        <ele>77.6</ele>
        <time>2018-03-29T11:26:05Z</time>
      </trkpt>
      <trkpt lat="62.643807454923" lon="17.874966019508">
        <ele>77.6</ele>
        <time>2018-03-29T11:26:06Z</time>
      </trkpt>
      <trkpt lat="62.64379513353" lon="17.875056292571">
        <ele>77.4</ele>
        <time>2018-03-29T11:26:07Z</time>
      </trkpt>
      <trkpt lat="62.643776525712" lon="17.875155450448">
        <ele>77</ele>
        <time>2018-03-29T11:26:08Z</time>
      </trkpt>
      <trkpt lat="62.643763617586" lon="17.875262068216">
        <ele>77.2</ele>
        <time>2018-03-29T11:26:09Z</time>
      </trkpt>
      <trkpt lat="62.643753894582" lon="17.875361393731">
        <ele>76.8</ele>
        <time>2018-03-29T11:26:10Z</time>
      </trkpt>
      <trkpt lat="62.643740232085" lon="17.875455019554">
        <ele>76.4</ele>
        <time>2018-03-29T11:26:11Z</time>
      </trkpt>
      <trkpt lat="62.643724306475" lon="17.875548561558">
        <ele>76.4</ele>
        <time>2018-03-29T11:26:12Z</time>
      </trkpt>
      <trkpt lat="62.643709973426" lon="17.875632045282">
        <ele>76.6</ele>
        <time>2018-03-29T11:26:13Z</time>
      </trkpt>
      <trkpt lat="62.643692790531" lon="17.875733214815">
        <ele>76.4</ele>
        <time>2018-03-29T11:26:14Z</time>
      </trkpt>
      <trkpt lat="62.643678541301" lon="17.875816195625">
        <ele>76.4</ele>
        <time>2018-03-29T11:26:15Z</time>
      </trkpt>
      <trkpt lat="62.643662867148" lon="17.875906887783">
        <ele>76.4</ele>
        <time>2018-03-29T11:26:16Z</time>
      </trkpt>
      <trkpt lat="62.643647779728" lon="17.875992299344">
        <ele>76.4</ele>
        <time>2018-03-29T11:26:17Z</time>
      </trkpt>
      <trkpt lat="62.643635625973" lon="17.876062539666">
        <ele>76</ele>
        <time>2018-03-29T11:26:18Z</time>
      </trkpt>
      <trkpt lat="62.643614755042" lon="17.876150717254">
        <ele>76</ele>
        <time>2018-03-29T11:26:19Z</time>
      </trkpt>
      <trkpt lat="62.643612240472" lon="17.876231099675">
        <ele>75.8</ele>
        <time>2018-03-29T11:26:20Z</time>
      </trkpt>
      <trkpt lat="62.643603690934" lon="17.876304106024">
        <ele>75.6</ele>
        <time>2018-03-29T11:26:21Z</time>
      </trkpt>
      <trkpt lat="62.643591872455" lon="17.87637484926">
        <ele>75.4</ele>
        <time>2018-03-29T11:26:22Z</time>
      </trkpt>
      <trkpt lat="62.643575695388" lon="17.876466295789">
        <ele>75.4</ele>
        <time>2018-03-29T11:26:23Z</time>
      </trkpt>
      <trkpt lat="62.64355541119" lon="17.876538463948">
        <ele>75.2</ele>
        <time>2018-03-29T11:26:24Z</time>
      </trkpt>
      <trkpt lat="62.643520458667" lon="17.876615242152">
        <ele>75.2</ele>
        <time>2018-03-29T11:26:25Z</time>
      </trkpt>
      <trkpt lat="62.643485757601" lon="17.876666287923">
        <ele>75.2</ele>
        <time>2018-03-29T11:26:26Z</time>
      </trkpt>
      <trkpt lat="62.643451056535" lon="17.876696378944">
        <ele>74.8</ele>
        <time>2018-03-29T11:26:27Z</time>
      </trkpt>
      <trkpt lat="62.64341040432" lon="17.876709957622">
        <ele>74.4</ele>
        <time>2018-03-29T11:26:28Z</time>
      </trkpt>
      <trkpt lat="62.643370674114" lon="17.876714483848">
        <ele>74.2</ele>
        <time>2018-03-29T11:26:29Z</time>
      </trkpt>
      <trkpt lat="62.643333626116" lon="17.876720099721">
        <ele>74.4</ele>
        <time>2018-03-29T11:26:30Z</time>
      </trkpt>
      <trkpt lat="62.643288363856" lon="17.876719680626">
        <ele>74</ele>
        <time>2018-03-29T11:26:31Z</time>
      </trkpt>
      <trkpt lat="62.643245532347" lon="17.876714148572">
        <ele>74.2</ele>
        <time>2018-03-29T11:26:32Z</time>
      </trkpt>
      <trkpt lat="62.643208149073" lon="17.876701659541">
        <ele>74.2</ele>
        <time>2018-03-29T11:26:33Z</time>
      </trkpt>
      <trkpt lat="62.643160204605" lon="17.876686823578">
        <ele>74.2</ele>
        <time>2018-03-29T11:26:34Z</time>
      </trkpt>
      <trkpt lat="62.643118630381" lon="17.876679782782">
        <ele>74</ele>
        <time>2018-03-29T11:26:35Z</time>
      </trkpt>
      <trkpt lat="62.64308602479" lon="17.87667156852">
        <ele>74</ele>
        <time>2018-03-29T11:26:36Z</time>
      </trkpt>
      <trkpt lat="62.643048557697" lon="17.876663102801">
        <ele>74</ele>
        <time>2018-03-29T11:26:37Z</time>
      </trkpt>
      <trkpt lat="62.643013688993" lon="17.876667712846">
        <ele>74</ele>
        <time>2018-03-29T11:26:38Z</time>
      </trkpt>
      <trkpt lat="62.64298208923" lon="17.876677687307">
        <ele>74</ele>
        <time>2018-03-29T11:26:39Z</time>
      </trkpt>
      <trkpt lat="62.642948393992" lon="17.876661677878">
        <ele>74.2</ele>
        <time>2018-03-29T11:26:40Z</time>
      </trkpt>
      <trkpt lat="62.642919057342" lon="17.876656062005">
        <ele>74</ele>
        <time>2018-03-29T11:26:41Z</time>
      </trkpt>
      <trkpt lat="62.642898186411" lon="17.876654637082">
        <ele>74.2</ele>
        <time>2018-03-29T11:26:42Z</time>
      </trkpt>
      <trkpt lat="62.642879997688" lon="17.876654469444">
        <ele>74.4</ele>
        <time>2018-03-29T11:26:43Z</time>
      </trkpt>
      <trkpt lat="62.642860635499" lon="17.876657151652">
        <ele>75</ele>
        <time>2018-03-29T11:26:44Z</time>
      </trkpt>
      <trkpt lat="62.642842782052" lon="17.876659079489">
        <ele>75.2</ele>
        <time>2018-03-29T11:26:45Z</time>
      </trkpt>
      <trkpt lat="62.642824174234" lon="17.876660755869">
        <ele>75.6</ele>
        <time>2018-03-29T11:26:46Z</time>
      </trkpt>
      <trkpt lat="62.642809002995" lon="17.876664863">
        <ele>75.8</ele>
        <time>2018-03-29T11:26:47Z</time>
      </trkpt>
      <trkpt lat="62.642793077385" lon="17.876672239072">
        <ele>76.2</ele>
        <time>2018-03-29T11:26:48Z</time>
      </trkpt>
      <trkpt lat="62.642773212282" lon="17.876682967904">
        <ele>76.4</ele>
        <time>2018-03-29T11:26:49Z</time>
      </trkpt>
      <trkpt lat="62.642753347179" lon="17.876690260157">
        <ele>76.8</ele>
        <time>2018-03-29T11:26:50Z</time>
      </trkpt>
      <trkpt lat="62.642735996646" lon="17.876698055324">
        <ele>77.2</ele>
        <time>2018-03-29T11:26:51Z</time>
      </trkpt>
      <trkpt lat="62.642719065208" lon="17.876710711993">
        <ele>77.6</ele>
        <time>2018-03-29T11:26:52Z</time>
      </trkpt>
      <trkpt lat="62.642696517897" lon="17.876714400029">
        <ele>77.8</ele>
        <time>2018-03-29T11:26:53Z</time>
      </trkpt>
      <trkpt lat="62.642672545663" lon="17.876725883232">
        <ele>77.8</ele>
        <time>2018-03-29T11:26:54Z</time>
      </trkpt>
      <trkpt lat="62.642651423275" lon="17.876740216281">
        <ele>78.2</ele>
        <time>2018-03-29T11:26:55Z</time>
      </trkpt>
      <trkpt lat="62.642628540688" lon="17.876756058072">
        <ele>78.2</ele>
        <time>2018-03-29T11:26:56Z</time>
      </trkpt>
      <trkpt lat="62.642605155187" lon="17.876773240967">
        <ele>78.4</ele>
        <time>2018-03-29T11:26:57Z</time>
      </trkpt>
      <trkpt lat="62.642588726663" lon="17.87678891512">
        <ele>78.4</ele>
        <time>2018-03-29T11:26:58Z</time>
      </trkpt>
      <trkpt lat="62.642568442465" lon="17.876809786051">
        <ele>78.4</ele>
        <time>2018-03-29T11:26:59Z</time>
      </trkpt>
      <trkpt lat="62.642545895154" lon="17.876829315878">
        <ele>78.6</ele>
        <time>2018-03-29T11:27:00Z</time>
      </trkpt>
      <trkpt lat="62.642528879897" lon="17.876857395243">
        <ele>78.6</ele>
        <time>2018-03-29T11:27:01Z</time>
      </trkpt>
      <trkpt lat="62.642510858812" lon="17.876889665558">
        <ele>79</ele>
        <time>2018-03-29T11:27:02Z</time>
      </trkpt>
      <trkpt lat="62.642494178831" lon="17.876914978896">
        <ele>79</ele>
        <time>2018-03-29T11:27:03Z</time>
      </trkpt>
      <trkpt lat="62.642471966796" lon="17.876953032722">
        <ele>79.4</ele>
        <time>2018-03-29T11:27:04Z</time>
      </trkpt>
      <trkpt lat="62.642456376462" lon="17.876989577806">
        <ele>79.8</ele>
        <time>2018-03-29T11:27:05Z</time>
      </trkpt>
      <trkpt lat="62.642433661513" lon="17.877028386003">
        <ele>80</ele>
        <time>2018-03-29T11:27:06Z</time>
      </trkpt>
      <trkpt lat="62.642412706763" lon="17.877067110381">
        <ele>80.2</ele>
        <time>2018-03-29T11:27:07Z</time>
      </trkpt>
      <trkpt lat="62.642396948791" lon="17.877101811447">
        <ele>80.4</ele>
        <time>2018-03-29T11:27:08Z</time>
      </trkpt>
      <trkpt lat="62.642374317661" lon="17.877134668495">
        <ele>80.4</ele>
        <time>2018-03-29T11:27:09Z</time>
      </trkpt>
      <trkpt lat="62.642350010151" lon="17.877167106448">
        <ele>80.4</ele>
        <time>2018-03-29T11:27:10Z</time>
      </trkpt>
      <trkpt lat="62.642334084541" lon="17.877208261577">
        <ele>80.8</ele>
        <time>2018-03-29T11:27:11Z</time>
      </trkpt>
      <trkpt lat="62.642308938841" lon="17.877255367855">
        <ele>80.8</ele>
        <time>2018-03-29T11:27:12Z</time>
      </trkpt>
      <trkpt lat="62.642281697666" lon="17.877303731418">
        <ele>80.8</ele>
        <time>2018-03-29T11:27:13Z</time>
      </trkpt>
      <trkpt lat="62.642260659097" lon="17.877353687542">
        <ele>80.8</ele>
        <time>2018-03-29T11:27:14Z</time>
      </trkpt>
      <trkpt lat="62.642229897524" lon="17.877402134924">
        <ele>80.8</ele>
        <time>2018-03-29T11:27:15Z</time>
      </trkpt>
      <trkpt lat="62.642199638865" lon="17.877459802396">
        <ele>80.4</ele>
        <time>2018-03-29T11:27:16Z</time>
      </trkpt>
      <trkpt lat="62.642182623608" lon="17.877510261434">
        <ele>80.2</ele>
        <time>2018-03-29T11:27:17Z</time>
      </trkpt>
      <trkpt lat="62.642160327754" lon="17.877560720472">
        <ele>80</ele>
        <time>2018-03-29T11:27:18Z</time>
      </trkpt>
      <trkpt lat="62.64212462086" lon="17.877617968849">
        <ele>79.8</ele>
        <time>2018-03-29T11:27:19Z</time>
      </trkpt>
      <trkpt lat="62.642089249242" lon="17.877681084556">
        <ele>79.8</ele>
        <time>2018-03-29T11:27:20Z</time>
      </trkpt>
      <trkpt lat="62.64205505109" lon="17.87774948086">
        <ele>79.4</ele>
        <time>2018-03-29T11:27:21Z</time>
      </trkpt>
      <trkpt lat="62.642019511834" lon="17.877835898249">
        <ele>78.8</ele>
        <time>2018-03-29T11:27:22Z</time>
      </trkpt>
      <trkpt lat="62.641988079709" lon="17.877924494932">
        <ele>78.2</ele>
        <time>2018-03-29T11:27:23Z</time>
      </trkpt>
      <trkpt lat="62.641955977032" lon="17.878034046365">
        <ele>77.6</ele>
        <time>2018-03-29T11:27:24Z</time>
      </trkpt>
      <trkpt lat="62.641922197975" lon="17.878165390738">
        <ele>76.6</ele>
        <time>2018-03-29T11:27:25Z</time>
      </trkpt>
      <trkpt lat="62.641892526049" lon="17.87829346617">
        <ele>75.8</ele>
        <time>2018-03-29T11:27:26Z</time>
      </trkpt>
      <trkpt lat="62.641865117236" lon="17.87842003286">
        <ele>75.2</ele>
        <time>2018-03-29T11:27:27Z</time>
      </trkpt>
      <trkpt lat="62.641837037871" lon="17.878558837124">
        <ele>74.4</ele>
        <time>2018-03-29T11:27:28Z</time>
      </trkpt>
      <trkpt lat="62.641809545239" lon="17.878709376048">
        <ele>73.6</ele>
        <time>2018-03-29T11:27:29Z</time>
      </trkpt>
      <trkpt lat="62.641790769783" lon="17.878846755389">
        <ele>73</ele>
        <time>2018-03-29T11:27:30Z</time>
      </trkpt>
      <trkpt lat="62.641780208589" lon="17.878987068395">
        <ele>72.2</ele>
        <time>2018-03-29T11:27:31Z</time>
      </trkpt>
      <trkpt lat="62.64178012477" lon="17.87912997979">
        <ele>71.8</ele>
        <time>2018-03-29T11:27:32Z</time>
      </trkpt>
      <trkpt lat="62.641784567177" lon="17.879260234516">
        <ele>71.6</ele>
        <time>2018-03-29T11:27:33Z</time>
      </trkpt>
      <trkpt lat="62.641793871086" lon="17.879433069294">
        <ele>71.4</ele>
        <time>2018-03-29T11:27:34Z</time>
      </trkpt>
      <trkpt lat="62.64180359409" lon="17.879583105304">
        <ele>71.2</ele>
        <time>2018-03-29T11:27:35Z</time>
      </trkpt>
      <trkpt lat="62.641813903827" lon="17.879728195993">
        <ele>71.2</ele>
        <time>2018-03-29T11:27:36Z</time>
      </trkpt>
      <trkpt lat="62.641823123917" lon="17.879865742972">
        <ele>71</ele>
        <time>2018-03-29T11:27:37Z</time>
      </trkpt>
      <trkpt lat="62.641827650143" lon="17.879986274694">
        <ele>70.6</ele>
        <time>2018-03-29T11:27:38Z</time>
      </trkpt>
      <trkpt lat="62.641829913256" lon="17.880109237167">
        <ele>70.4</ele>
        <time>2018-03-29T11:27:39Z</time>
      </trkpt>
      <trkpt lat="62.641826560496" lon="17.880257261521">
        <ele>70.2</ele>
        <time>2018-03-29T11:27:40Z</time>
      </trkpt>
      <trkpt lat="62.641817675682" lon="17.880390869007">
        <ele>69.8</ele>
        <time>2018-03-29T11:27:41Z</time>
      </trkpt>
      <trkpt lat="62.641803091176" lon="17.880523722122">
        <ele>69.6</ele>
        <time>2018-03-29T11:27:42Z</time>
      </trkpt>
      <trkpt lat="62.641786746471" lon="17.880639224704">
        <ele>69.4</ele>
        <time>2018-03-29T11:27:43Z</time>
      </trkpt>
      <trkpt lat="62.641764618255" lon="17.880753889096">
        <ele>68.8</ele>
        <time>2018-03-29T11:27:44Z</time>
      </trkpt>
      <trkpt lat="62.641747100084" lon="17.880843910702">
        <ele>68.4</ele>
        <time>2018-03-29T11:27:45Z</time>
      </trkpt>
      <trkpt lat="62.64172983337" lon="17.880934770498">
        <ele>68</ele>
        <time>2018-03-29T11:27:46Z</time>
      </trkpt>
      <trkpt lat="62.641712063742" lon="17.881017835127">
        <ele>67.8</ele>
        <time>2018-03-29T11:27:47Z</time>
      </trkpt>
      <trkpt lat="62.641700329082" lon="17.881080950834">
        <ele>67.6</ele>
        <time>2018-03-29T11:27:48Z</time>
      </trkpt>
      <trkpt lat="62.641686079852" lon="17.881148173672">
        <ele>68</ele>
        <time>2018-03-29T11:27:49Z</time>
      </trkpt>
      <trkpt lat="62.641670824794" lon="17.881224281324">
        <ele>68</ele>
        <time>2018-03-29T11:27:50Z</time>
      </trkpt>
      <trkpt lat="62.641658419582" lon="17.881306004849">
        <ele>68.2</ele>
        <time>2018-03-29T11:27:51Z</time>
      </trkpt>
      <trkpt lat="62.641647104017" lon="17.881409186038">
        <ele>68.2</ele>
        <time>2018-03-29T11:27:52Z</time>
      </trkpt>
      <trkpt lat="62.641638303022" lon="17.881504739698">
        <ele>68</ele>
        <time>2018-03-29T11:27:53Z</time>
      </trkpt>
      <trkpt lat="62.641625730172" lon="17.881603394661">
        <ele>67.6</ele>
        <time>2018-03-29T11:27:54Z</time>
      </trkpt>
      <trkpt lat="62.641605194517" lon="17.881691236973">
        <ele>67.2</ele>
        <time>2018-03-29T11:27:55Z</time>
      </trkpt>
      <trkpt lat="62.641582395749" lon="17.881753011576">
        <ele>66.6</ele>
        <time>2018-03-29T11:27:56Z</time>
      </trkpt>
      <trkpt lat="62.641556411859" lon="17.881795675447">
        <ele>66.2</ele>
        <time>2018-03-29T11:27:57Z</time>
      </trkpt>
      <trkpt lat="62.641528416313" lon="17.881820653509">
        <ele>66</ele>
        <time>2018-03-29T11:27:58Z</time>
      </trkpt>
      <trkpt lat="62.641495810722" lon="17.881840267155">
        <ele>66</ele>
        <time>2018-03-29T11:27:59Z</time>
      </trkpt>
      <trkpt lat="62.641469323918" lon="17.881855941308">
        <ele>66</ele>
        <time>2018-03-29T11:28:00Z</time>
      </trkpt>
      <trkpt lat="62.641441579829" lon="17.881873291841">
        <ele>66.2</ele>
        <time>2018-03-29T11:28:01Z</time>
      </trkpt>
      <trkpt lat="62.641410399161" lon="17.881889217451">
        <ele>66.6</ele>
        <time>2018-03-29T11:28:02Z</time>
      </trkpt>
      <trkpt lat="62.641381397787" lon="17.881904640147">
        <ele>66.6</ele>
        <time>2018-03-29T11:28:03Z</time>
      </trkpt>
      <trkpt lat="62.641353150784" lon="17.881928528562">
        <ele>66.8</ele>
        <time>2018-03-29T11:28:04Z</time>
      </trkpt>
      <trkpt lat="62.641320629012" lon="17.881947723113">
        <ele>66.8</ele>
        <time>2018-03-29T11:28:05Z</time>
      </trkpt>
      <trkpt lat="62.64129313638" lon="17.881964822189">
        <ele>67</ele>
        <time>2018-03-29T11:28:06Z</time>
      </trkpt>
      <trkpt lat="62.641261536617" lon="17.881980580161">
        <ele>67.2</ele>
        <time>2018-03-29T11:28:07Z</time>
      </trkpt>
      <trkpt lat="62.641231613234" lon="17.881990303165">
        <ele>67.4</ele>
        <time>2018-03-29T11:28:08Z</time>
      </trkpt>
      <trkpt lat="62.641202108946" lon="17.882005139128">
        <ele>67.6</ele>
        <time>2018-03-29T11:28:09Z</time>
      </trkpt>
      <trkpt lat="62.641165982957" lon="17.882048305913">
        <ele>67.8</ele>
        <time>2018-03-29T11:28:10Z</time>
      </trkpt>
      <trkpt lat="62.641133461185" lon="17.882108236498">
        <ele>67.6</ele>
        <time>2018-03-29T11:28:11Z</time>
      </trkpt>
      <trkpt lat="62.641101274689" lon="17.882187613091">
        <ele>67.8</ele>
        <time>2018-03-29T11:28:12Z</time>
      </trkpt>
      <trkpt lat="62.641070345478" lon="17.882278808163">
        <ele>67.4</ele>
        <time>2018-03-29T11:28:13Z</time>
      </trkpt>
      <trkpt lat="62.641040338276" lon="17.88238802432">
        <ele>67.2</ele>
        <time>2018-03-29T11:28:14Z</time>
      </trkpt>
      <trkpt lat="62.641013264739" lon="17.882499671228">
        <ele>66.8</ele>
        <time>2018-03-29T11:28:15Z</time>
      </trkpt>
      <trkpt lat="62.640994405464" lon="17.88261768838">
        <ele>66.4</ele>
        <time>2018-03-29T11:28:16Z</time>
      </trkpt>
      <trkpt lat="62.640983928089" lon="17.882740818491">
        <ele>65.6</ele>
        <time>2018-03-29T11:28:17Z</time>
      </trkpt>
      <trkpt lat="62.640976384379" lon="17.882845424603">
        <ele>65.4</ele>
        <time>2018-03-29T11:28:18Z</time>
      </trkpt>
      <trkpt lat="62.64096624228" lon="17.882953718751">
        <ele>64.8</ele>
        <time>2018-03-29T11:28:19Z</time>
      </trkpt>
      <trkpt lat="62.640956016362" lon="17.883040806692">
        <ele>64.4</ele>
        <time>2018-03-29T11:28:20Z</time>
      </trkpt>
      <trkpt lat="62.640948556471" lon="17.883118842181">
        <ele>64</ele>
        <time>2018-03-29T11:28:21Z</time>
      </trkpt>
      <trkpt lat="62.640936486535" lon="17.883215401669">
        <ele>63.8</ele>
        <time>2018-03-29T11:28:22Z</time>
      </trkpt>
      <trkpt lat="62.640928607549" lon="17.883306177646">
        <ele>63.6</ele>
        <time>2018-03-29T11:28:23Z</time>
      </trkpt>
      <trkpt lat="62.640929529558" lon="17.883415729079">
        <ele>63.6</ele>
        <time>2018-03-29T11:28:24Z</time>
      </trkpt>
      <trkpt lat="62.640940174571" lon="17.883530644928">
        <ele>63.6</ele>
        <time>2018-03-29T11:28:25Z</time>
      </trkpt>
      <trkpt lat="62.640958279475" lon="17.883641705103">
        <ele>63.4</ele>
        <time>2018-03-29T11:28:26Z</time>
      </trkpt>
      <trkpt lat="62.64097965332" lon="17.883729044501">
        <ele>63.2</ele>
        <time>2018-03-29T11:28:27Z</time>
      </trkpt>
      <trkpt lat="62.641011001626" lon="17.883818395555">
        <ele>63</ele>
        <time>2018-03-29T11:28:28Z</time>
      </trkpt>
      <trkpt lat="62.641051067108" lon="17.883903974754">
        <ele>62.4</ele>
        <time>2018-03-29T11:28:29Z</time>
      </trkpt>
      <trkpt lat="62.641090797314" lon="17.883998690224">
        <ele>62</ele>
        <time>2018-03-29T11:28:30Z</time>
      </trkpt>
      <trkpt lat="62.641117787032" lon="17.884083179776">
        <ele>61.4</ele>
        <time>2018-03-29T11:28:31Z</time>
      </trkpt>
      <trkpt lat="62.641148464786" lon="17.884183594938">
        <ele>60.2</ele>
        <time>2018-03-29T11:28:32Z</time>
      </trkpt>
      <trkpt lat="62.641173191391" lon="17.884271772526">
        <ele>59.2</ele>
        <time>2018-03-29T11:28:33Z</time>
      </trkpt>
      <trkpt lat="62.641207808638" lon="17.884383670891">
        <ele>58.4</ele>
        <time>2018-03-29T11:28:34Z</time>
      </trkpt>
      <trkpt lat="62.641244353722" lon="17.88447763199">
        <ele>57.4</ele>
        <time>2018-03-29T11:28:35Z</time>
      </trkpt>
      <trkpt lat="62.641280144435" lon="17.884554661651">
        <ele>56.6</ele>
        <time>2018-03-29T11:28:36Z</time>
      </trkpt>
      <trkpt lat="62.641326412523" lon="17.8846444318">
        <ele>56.4</ele>
        <time>2018-03-29T11:28:37Z</time>
      </trkpt>
      <trkpt lat="62.641367232376" lon="17.884724562764">
        <ele>56</ele>
        <time>2018-03-29T11:28:38Z</time>
      </trkpt>
      <trkpt lat="62.641415009206" lon="17.884816512207">
        <ele>55.8</ele>
        <time>2018-03-29T11:28:39Z</time>
      </trkpt>
      <trkpt lat="62.641463540407" lon="17.884911479134">
        <ele>55.4</ele>
        <time>2018-03-29T11:28:40Z</time>
      </trkpt>
      <trkpt lat="62.641508970305" lon="17.88500150074">
        <ele>55</ele>
        <time>2018-03-29T11:28:41Z</time>
      </trkpt>
      <trkpt lat="62.641554735479" lon="17.885093282545">
        <ele>54.6</ele>
        <time>2018-03-29T11:28:42Z</time>
      </trkpt>
      <trkpt lat="62.641600668291" lon="17.885183136513">
        <ele>54.4</ele>
        <time>2018-03-29T11:28:43Z</time>
      </trkpt>
      <trkpt lat="62.641656827021" lon="17.885290173376">
        <ele>54</ele>
        <time>2018-03-29T11:28:44Z</time>
      </trkpt>
      <trkpt lat="62.641708291887" lon="17.885386984321">
        <ele>53.4</ele>
        <time>2018-03-29T11:28:45Z</time>
      </trkpt>
      <trkpt lat="62.64176419916" lon="17.885490249329">
        <ele>53</ele>
        <time>2018-03-29T11:28:46Z</time>
      </trkpt>
      <trkpt lat="62.64182454884" lon="17.885605500454">
        <ele>52.6</ele>
        <time>2018-03-29T11:28:47Z</time>
      </trkpt>
      <trkpt lat="62.641876265163" lon="17.885703652503">
        <ele>52</ele>
        <time>2018-03-29T11:28:48Z</time>
      </trkpt>
      <trkpt lat="62.641930663694" lon="17.885807588063">
        <ele>51.6</ele>
        <time>2018-03-29T11:28:49Z</time>
      </trkpt>
      <trkpt lat="62.641975925954" lon="17.885898280221">
        <ele>51.4</ele>
        <time>2018-03-29T11:28:50Z</time>
      </trkpt>
      <trkpt lat="62.642015488522" lon="17.885977070081">
        <ele>51</ele>
        <time>2018-03-29T11:28:51Z</time>
      </trkpt>
      <trkpt lat="62.64206008023" lon="17.886062565461">
        <ele>50.8</ele>
        <time>2018-03-29T11:28:52Z</time>
      </trkpt>
      <trkpt lat="62.642097714961" lon="17.88613473362">
        <ele>50.8</ele>
        <time>2018-03-29T11:28:53Z</time>
      </trkpt>
      <trkpt lat="62.642137109891" lon="17.88621017072">
        <ele>50.8</ele>
        <time>2018-03-29T11:28:54Z</time>
      </trkpt>
      <trkpt lat="62.642177929744" lon="17.886287451838">
        <ele>50.8</ele>
        <time>2018-03-29T11:28:55Z</time>
      </trkpt>
      <trkpt lat="62.642217408493" lon="17.886370935562">
        <ele>50.4</ele>
        <time>2018-03-29T11:28:56Z</time>
      </trkpt>
      <trkpt lat="62.6422553785" lon="17.88645659858">
        <ele>50.2</ele>
        <time>2018-03-29T11:28:57Z</time>
      </trkpt>
      <trkpt lat="62.642293516145" lon="17.88655634319">
        <ele>49.6</ele>
        <time>2018-03-29T11:28:58Z</time>
      </trkpt>
      <trkpt lat="62.642325618822" lon="17.886657345085">
        <ele>48.8</ele>
        <time>2018-03-29T11:28:59Z</time>
      </trkpt>
      <trkpt lat="62.642352692359" lon="17.886747366691">
        <ele>48</ele>
        <time>2018-03-29T11:29:00Z</time>
      </trkpt>
      <trkpt lat="62.64237356329" lon="17.886831353329">
        <ele>47.2</ele>
        <time>2018-03-29T11:29:01Z</time>
      </trkpt>
      <trkpt lat="62.642389656538" lon="17.886929170102">
        <ele>46.6</ele>
        <time>2018-03-29T11:29:02Z</time>
      </trkpt>
      <trkpt lat="62.642395523868" lon="17.887014330206">
        <ele>46.2</ele>
        <time>2018-03-29T11:29:03Z</time>
      </trkpt>
      <trkpt lat="62.642388063977" lon="17.887119690689">
        <ele>46</ele>
        <time>2018-03-29T11:29:04Z</time>
      </trkpt>
      <trkpt lat="62.642367779779" lon="17.887201162757">
        <ele>45.8</ele>
        <time>2018-03-29T11:29:05Z</time>
      </trkpt>
      <trkpt lat="62.642339281319" lon="17.887267463586">
        <ele>45.6</ele>
        <time>2018-03-29T11:29:06Z</time>
      </trkpt>
      <trkpt lat="62.642305502262" lon="17.887331585121">
        <ele>45.2</ele>
        <time>2018-03-29T11:29:07Z</time>
      </trkpt>
      <trkpt lat="62.642271052653" lon="17.887392186258">
        <ele>45</ele>
        <time>2018-03-29T11:29:08Z</time>
      </trkpt>
      <trkpt lat="62.642230819533" lon="17.88745991201">
        <ele>44.8</ele>
        <time>2018-03-29T11:29:09Z</time>
      </trkpt>
      <trkpt lat="62.642179019391" lon="17.887537444585">
        <ele>44.6</ele>
        <time>2018-03-29T11:29:10Z</time>
      </trkpt>
      <trkpt lat="62.642125039955" lon="17.887611205305">
        <ele>44.2</ele>
        <time>2018-03-29T11:29:11Z</time>
      </trkpt>
      <trkpt lat="62.642070389967" lon="17.887680523618">
        <ele>43.6</ele>
        <time>2018-03-29T11:29:12Z</time>
      </trkpt>
      <trkpt lat="62.642038035833" lon="17.887739196918">
        <ele>43</ele>
        <time>2018-03-29T11:29:13Z</time>
      </trkpt>
      <trkpt lat="62.641996293971" lon="17.887821842452">
        <ele>42.2</ele>
        <time>2018-03-29T11:29:14Z</time>
      </trkpt>
      <trkpt lat="62.641970896814" lon="17.88788655072">
        <ele>41.8</ele>
        <time>2018-03-29T11:29:15Z</time>
      </trkpt>
      <trkpt lat="62.641946756942" lon="17.887965005304">
        <ele>41.6</ele>
        <time>2018-03-29T11:29:16Z</time>
      </trkpt>
      <trkpt lat="62.641927562391" lon="17.888050081589">
        <ele>42</ele>
        <time>2018-03-29T11:29:17Z</time>
      </trkpt>
      <trkpt lat="62.641905937089" lon="17.888121495377">
        <ele>42.2</ele>
        <time>2018-03-29T11:29:18Z</time>
      </trkpt>
      <trkpt lat="62.64188573671" lon="17.888207912766">
        <ele>42.4</ele>
        <time>2018-03-29T11:29:19Z</time>
      </trkpt>
      <trkpt lat="62.641867715625" lon="17.888274800328">
        <ele>42.4</ele>
        <time>2018-03-29T11:29:20Z</time>
      </trkpt>
      <trkpt lat="62.64184215083" lon="17.888346297935">
        <ele>42.4</ele>
        <time>2018-03-29T11:29:21Z</time>
      </trkpt>
      <trkpt lat="62.641821279899" lon="17.888431206582">
        <ele>42.2</ele>
        <time>2018-03-29T11:29:22Z</time>
      </trkpt>
      <trkpt lat="62.641799235502" lon="17.888501698361">
        <ele>41.8</ele>
        <time>2018-03-29T11:29:23Z</time>
      </trkpt>
      <trkpt lat="62.641771910508" lon="17.88858979213">
        <ele>41.8</ele>
        <time>2018-03-29T11:29:24Z</time>
      </trkpt>
      <trkpt lat="62.641755481984" lon="17.888672018569">
        <ele>41.6</ele>
        <time>2018-03-29T11:29:25Z</time>
      </trkpt>
      <trkpt lat="62.641739221098" lon="17.888739073769">
        <ele>41.4</ele>
        <time>2018-03-29T11:29:26Z</time>
      </trkpt>
      <trkpt lat="62.64172480423" lon="17.888792382653">
        <ele>41.6</ele>
        <time>2018-03-29T11:29:27Z</time>
      </trkpt>
      <trkpt lat="62.641714243036" lon="17.888837980189">
        <ele>41.4</ele>
        <time>2018-03-29T11:29:28Z</time>
      </trkpt>
      <trkpt lat="62.641705358222" lon="17.888876285472">
        <ele>41.4</ele>
        <time>2018-03-29T11:29:29Z</time>
      </trkpt>
      <trkpt lat="62.641700245263" lon="17.888904867751">
        <ele>41.6</ele>
        <time>2018-03-29T11:29:30Z</time>
      </trkpt>
      <trkpt lat="62.641694210295" lon="17.888932779478">
        <ele>41.8</ele>
        <time>2018-03-29T11:29:31Z</time>
      </trkpt>
      <trkpt lat="62.641686582766" lon="17.888963541051">
        <ele>42</ele>
        <time>2018-03-29T11:29:32Z</time>
      </trkpt>
      <trkpt lat="62.641681553626" lon="17.888986926552">
        <ele>42.4</ele>
        <time>2018-03-29T11:29:33Z</time>
      </trkpt>
      <trkpt lat="62.641674345192" lon="17.889018023401">
        <ele>43</ele>
        <time>2018-03-29T11:29:34Z</time>
      </trkpt>
      <trkpt lat="62.641669986604" lon="17.88904409111">
        <ele>43.6</ele>
        <time>2018-03-29T11:29:35Z</time>
      </trkpt>
      <trkpt lat="62.641666214749" lon="17.889070158819">
        <ele>44</ele>
        <time>2018-03-29T11:29:36Z</time>
      </trkpt>
      <trkpt lat="62.641661185609" lon="17.889093963415">
        <ele>44.4</ele>
        <time>2018-03-29T11:29:37Z</time>
      </trkpt>
      <trkpt lat="62.641655318279" lon="17.889113744699">
        <ele>44.8</ele>
        <time>2018-03-29T11:29:38Z</time>
      </trkpt>
      <trkpt lat="62.6416518817" lon="17.889134531811">
        <ele>45</ele>
        <time>2018-03-29T11:29:39Z</time>
      </trkpt>
      <trkpt lat="62.641648780397" lon="17.889160180425">
        <ele>45.2</ele>
        <time>2018-03-29T11:29:40Z</time>
      </trkpt>
      <trkpt lat="62.641644673266" lon="17.889179961709">
        <ele>45.4</ele>
        <time>2018-03-29T11:29:41Z</time>
      </trkpt>
      <trkpt lat="62.641640230859" lon="17.889199575355">
        <ele>45.6</ele>
        <time>2018-03-29T11:29:42Z</time>
      </trkpt>
      <trkpt lat="62.641638638298" lon="17.889218853725">
        <ele>46</ele>
        <time>2018-03-29T11:29:43Z</time>
      </trkpt>
      <trkpt lat="62.6416351179" lon="17.889242490683">
        <ele>46</ele>
        <time>2018-03-29T11:29:44Z</time>
      </trkpt>
      <trkpt lat="62.641631262226" lon="17.889260008854">
        <ele>46.2</ele>
        <time>2018-03-29T11:29:45Z</time>
      </trkpt>
      <trkpt lat="62.641626149267" lon="17.889283142898">
        <ele>46.6</ele>
        <time>2018-03-29T11:29:46Z</time>
      </trkpt>
      <trkpt lat="62.641621287765" lon="17.889306612218">
        <ele>46.8</ele>
        <time>2018-03-29T11:29:47Z</time>
      </trkpt>
      <trkpt lat="62.641617348272" lon="17.889324968579">
        <ele>46.8</ele>
        <time>2018-03-29T11:29:48Z</time>
      </trkpt>
      <trkpt lat="62.64161416315" lon="17.889344498406">
        <ele>47.2</ele>
        <time>2018-03-29T11:29:49Z</time>
      </trkpt>
      <trkpt lat="62.641609636924" lon="17.889359082912">
        <ele>47.4</ele>
        <time>2018-03-29T11:29:50Z</time>
      </trkpt>
      <trkpt lat="62.641606284164" lon="17.889375092341">
        <ele>47.6</ele>
        <time>2018-03-29T11:29:51Z</time>
      </trkpt>
      <trkpt lat="62.641604607784" lon="17.889399567489">
        <ele>47.8</ele>
        <time>2018-03-29T11:29:52Z</time>
      </trkpt>
      <trkpt lat="62.641602931404" lon="17.889423036809">
        <ele>48.2</ele>
        <time>2018-03-29T11:29:53Z</time>
      </trkpt>
      <trkpt lat="62.641601338843" lon="17.889447092862">
        <ele>48.6</ele>
        <time>2018-03-29T11:29:54Z</time>
      </trkpt>
      <trkpt lat="62.641599830101" lon="17.889468550526">
        <ele>48.6</ele>
        <time>2018-03-29T11:29:55Z</time>
      </trkpt>
      <trkpt lat="62.641600416834" lon="17.889491014018">
        <ele>49</ele>
        <time>2018-03-29T11:29:56Z</time>
      </trkpt>
      <trkpt lat="62.641600081558" lon="17.889510208569">
        <ele>49.4</ele>
        <time>2018-03-29T11:29:57Z</time>
      </trkpt>
      <trkpt lat="62.641600500653" lon="17.889527978197">
        <ele>49.6</ele>
        <time>2018-03-29T11:29:58Z</time>
      </trkpt>
      <trkpt lat="62.641599494825" lon="17.889543484712">
        <ele>49.8</ele>
        <time>2018-03-29T11:29:59Z</time>
      </trkpt>
      <trkpt lat="62.641598824273" lon="17.88956125434">
        <ele>50.4</ele>
        <time>2018-03-29T11:30:00Z</time>
      </trkpt>
      <trkpt lat="62.641597231712" lon="17.889583634013">
        <ele>50.6</ele>
        <time>2018-03-29T11:30:01Z</time>
      </trkpt>
      <trkpt lat="62.641596477341" lon="17.889609198808">
        <ele>50.8</ele>
        <time>2018-03-29T11:30:02Z</time>
      </trkpt>
      <trkpt lat="62.64159572297" lon="17.889629315368">
        <ele>51</ele>
        <time>2018-03-29T11:30:03Z</time>
      </trkpt>
      <trkpt lat="62.641595806789" lon="17.889655718353">
        <ele>51.2</ele>
        <time>2018-03-29T11:30:04Z</time>
      </trkpt>
      <trkpt lat="62.641597902264" lon="17.889680947872">
        <ele>51.4</ele>
        <time>2018-03-29T11:30:05Z</time>
      </trkpt>
      <trkpt lat="62.641599243368" lon="17.88970542302">
        <ele>51.4</ele>
        <time>2018-03-29T11:30:06Z</time>
      </trkpt>
      <trkpt lat="62.641600081558" lon="17.889721013354">
        <ele>51.6</ele>
        <time>2018-03-29T11:30:07Z</time>
      </trkpt>
      <trkpt lat="62.641601674119" lon="17.889740459362">
        <ele>51.8</ele>
        <time>2018-03-29T11:30:08Z</time>
      </trkpt>
      <trkpt lat="62.641603853413" lon="17.889764012501">
        <ele>52</ele>
        <time>2018-03-29T11:30:09Z</time>
      </trkpt>
      <trkpt lat="62.641605697431" lon="17.889791169857">
        <ele>52.2</ele>
        <time>2018-03-29T11:30:10Z</time>
      </trkpt>
      <trkpt lat="62.641608044363" lon="17.889814639177">
        <ele>52.4</ele>
        <time>2018-03-29T11:30:11Z</time>
      </trkpt>
      <trkpt lat="62.641608798734" lon="17.889841377438">
        <ele>52.6</ele>
        <time>2018-03-29T11:30:12Z</time>
      </trkpt>
      <trkpt lat="62.641611564761" lon="17.889866774595">
        <ele>52.8</ele>
        <time>2018-03-29T11:30:13Z</time>
      </trkpt>
      <trkpt lat="62.641614749883" lon="17.889895775969">
        <ele>53.2</ele>
        <time>2018-03-29T11:30:14Z</time>
      </trkpt>
      <trkpt lat="62.641617935005" lon="17.889917652728">
        <ele>53.4</ele>
        <time>2018-03-29T11:30:15Z</time>
      </trkpt>
      <trkpt lat="62.641620784851" lon="17.889958221124">
        <ele>53.4</ele>
        <time>2018-03-29T11:30:16Z</time>
      </trkpt>
      <trkpt lat="62.641626400724" lon="17.890006500868">
        <ele>53.6</ele>
        <time>2018-03-29T11:30:17Z</time>
      </trkpt>
      <trkpt lat="62.641632770968" lon="17.890048410368">
        <ele>53.8</ele>
        <time>2018-03-29T11:30:18Z</time>
      </trkpt>
      <trkpt lat="62.641639811764" lon="17.890095600465">
        <ele>54.2</ele>
        <time>2018-03-29T11:30:19Z</time>
      </trkpt>
      <trkpt lat="62.641650456777" lon="17.890134324843">
        <ele>54.4</ele>
        <time>2018-03-29T11:30:20Z</time>
      </trkpt>
      <trkpt lat="62.641661017971" lon="17.890171708117">
        <ele>54.6</ele>
        <time>2018-03-29T11:30:21Z</time>
      </trkpt>
      <trkpt lat="62.641677195038" lon="17.890215713092">
        <ele>54.6</ele>
        <time>2018-03-29T11:30:22Z</time>
      </trkpt>
      <trkpt lat="62.641695719037" lon="17.890252006719">
        <ele>54.6</ele>
        <time>2018-03-29T11:30:23Z</time>
      </trkpt>
      <trkpt lat="62.641719188357" lon="17.890298693902">
        <ele>54.4</ele>
        <time>2018-03-29T11:30:24Z</time>
      </trkpt>
      <trkpt lat="62.641745256066" lon="17.890343956162">
        <ele>54.4</ele>
        <time>2018-03-29T11:30:25Z</time>
      </trkpt>
      <trkpt lat="62.641776855829" lon="17.890386452395">
        <ele>54.4</ele>
        <time>2018-03-29T11:30:26Z</time>
      </trkpt>
      <trkpt lat="62.641808539411" lon="17.890419309443">
        <ele>54.2</ele>
        <time>2018-03-29T11:30:27Z</time>
      </trkpt>
      <trkpt lat="62.6418614292" lon="17.89046482316">
        <ele>53.6</ele>
        <time>2018-03-29T11:30:28Z</time>
      </trkpt>
      <trkpt lat="62.641919431948" lon="17.890509833963">
        <ele>53.2</ele>
        <time>2018-03-29T11:30:29Z</time>
      </trkpt>
      <trkpt lat="62.641983385845" lon="17.890556102051">
        <ele>52.6</ele>
        <time>2018-03-29T11:30:30Z</time>
      </trkpt>
      <trkpt lat="62.642051279235" lon="17.890605387623">
        <ele>52</ele>
        <time>2018-03-29T11:30:31Z</time>
      </trkpt>
      <trkpt lat="62.642133338036" lon="17.890663725647">
        <ele>51</ele>
        <time>2018-03-29T11:30:32Z</time>
      </trkpt>
      <trkpt lat="62.642204500367" lon="17.8907129274">
        <ele>50.4</ele>
        <time>2018-03-29T11:30:33Z</time>
      </trkpt>
      <trkpt lat="62.642291001575" lon="17.890775037279">
        <ele>49.6</ele>
        <time>2018-03-29T11:30:34Z</time>
      </trkpt>
      <trkpt lat="62.642357721499" lon="17.890826585964">
        <ele>48.8</ele>
        <time>2018-03-29T11:30:35Z</time>
      </trkpt>
      <trkpt lat="62.642410778926" lon="17.890881235952">
        <ele>47.8</ele>
        <time>2018-03-29T11:30:36Z</time>
      </trkpt>
      <trkpt lat="62.642447994562" lon="17.890931778809">
        <ele>46.6</ele>
        <time>2018-03-29T11:30:37Z</time>
      </trkpt>
      <trkpt lat="62.642477750307" lon="17.890981483476">
        <ele>45.8</ele>
        <time>2018-03-29T11:30:38Z</time>
      </trkpt>
      <trkpt lat="62.642501303446" lon="17.891035295274">
        <ele>45.8</ele>
        <time>2018-03-29T11:30:39Z</time>
      </trkpt>
      <trkpt lat="62.642516474685" lon="17.891090615814">
        <ele>46</ele>
        <time>2018-03-29T11:30:40Z</time>
      </trkpt>
      <trkpt lat="62.642525108042" lon="17.89114459525">
        <ele>46.8</ele>
        <time>2018-03-29T11:30:41Z</time>
      </trkpt>
      <trkpt lat="62.642529131354" lon="17.891197485039">
        <ele>47.8</ele>
        <time>2018-03-29T11:30:42Z</time>
      </trkpt>
      <trkpt lat="62.642526532965" lon="17.891249369">
        <ele>48.4</ele>
        <time>2018-03-29T11:30:43Z</time>
      </trkpt>
      <trkpt lat="62.642517815789" lon="17.891313322897">
        <ele>48.6</ele>
        <time>2018-03-29T11:30:44Z</time>
      </trkpt>
      <trkpt lat="62.642505494396" lon="17.891374929862">
        <ele>48.6</ele>
        <time>2018-03-29T11:30:45Z</time>
      </trkpt>
      <trkpt lat="62.642490658433" lon="17.891442487976">
        <ele>48.8</ele>
        <time>2018-03-29T11:30:46Z</time>
      </trkpt>
      <trkpt lat="62.642465345095" lon="17.891515410506">
        <ele>48.8</ele>
        <time>2018-03-29T11:30:47Z</time>
      </trkpt>
      <trkpt lat="62.642441540499" lon="17.89157710129">
        <ele>48.8</ele>
        <time>2018-03-29T11:30:48Z</time>
      </trkpt>
      <trkpt lat="62.642406671795" lon="17.891646168146">
        <ele>48.6</ele>
        <time>2018-03-29T11:30:49Z</time>
      </trkpt>
      <trkpt lat="62.642372808919" lon="17.891704841446">
        <ele>48.4</ele>
        <time>2018-03-29T11:30:50Z</time>
      </trkpt>
      <trkpt lat="62.64234338845" lon="17.891761335452">
        <ele>48</ele>
        <time>2018-03-29T11:30:51Z</time>
      </trkpt>
      <trkpt lat="62.64231321361" lon="17.891817242725">
        <ele>47.8</ele>
        <time>2018-03-29T11:30:52Z</time>
      </trkpt>
      <trkpt lat="62.642290079566" lon="17.891852362886">
        <ele>47.6</ele>
        <time>2018-03-29T11:30:53Z</time>
      </trkpt>
      <trkpt lat="62.642264933866" lon="17.89188052607">
        <ele>47.6</ele>
        <time>2018-03-29T11:30:54Z</time>
      </trkpt>
      <trkpt lat="62.642246493686" lon="17.89189728987">
        <ele>47.6</ele>
        <time>2018-03-29T11:30:55Z</time>
      </trkpt>
      <trkpt lat="62.642229059334" lon="17.891908018702">
        <ele>48</ele>
        <time>2018-03-29T11:30:56Z</time>
      </trkpt>
      <trkpt lat="62.642213049905" lon="17.891917909344">
        <ele>48</ele>
        <time>2018-03-29T11:30:57Z</time>
      </trkpt>
      <trkpt lat="62.642198213942" lon="17.891925620692">
        <ele>48.2</ele>
        <time>2018-03-29T11:30:58Z</time>
      </trkpt>
      <trkpt lat="62.642180528133" lon="17.891939450827">
        <ele>48.4</ele>
        <time>2018-03-29T11:30:59Z</time>
      </trkpt>
      <trkpt lat="62.642165943627" lon="17.891945821071">
        <ele>48.6</ele>
        <time>2018-03-29T11:31:00Z</time>
      </trkpt>
      <trkpt lat="62.64215311932" lon="17.89195177222">
        <ele>48.8</ele>
        <time>2018-03-29T11:31:01Z</time>
      </trkpt>
      <trkpt lat="62.642137948081" lon="17.8919618305">
        <ele>49.4</ele>
        <time>2018-03-29T11:31:02Z</time>
      </trkpt>
      <trkpt lat="62.64212462086" lon="17.891971553504">
        <ele>49.6</ele>
        <time>2018-03-29T11:31:03Z</time>
      </trkpt>
      <trkpt lat="62.642108359974" lon="17.891980522137">
        <ele>50</ele>
        <time>2018-03-29T11:31:04Z</time>
      </trkpt>
      <trkpt lat="62.642097463504" lon="17.891991083331">
        <ele>50.4</ele>
        <time>2018-03-29T11:31:05Z</time>
      </trkpt>
      <trkpt lat="62.642076508754" lon="17.891991753883">
        <ele>50.6</ele>
        <time>2018-03-29T11:31:06Z</time>
      </trkpt>
      <trkpt lat="62.642054464357" lon="17.891999884326">
        <ele>50.8</ele>
        <time>2018-03-29T11:31:07Z</time>
      </trkpt>
      <trkpt lat="62.642035185987" lon="17.892007847131">
        <ele>51</ele>
        <time>2018-03-29T11:31:08Z</time>
      </trkpt>
      <trkpt lat="62.642013393047" lon="17.892013965918">
        <ele>51.2</ele>
        <time>2018-03-29T11:31:09Z</time>
      </trkpt>
      <trkpt lat="62.641991683926" lon="17.892025281483">
        <ele>51.4</ele>
        <time>2018-03-29T11:31:10Z</time>
      </trkpt>
      <trkpt lat="62.641977686153" lon="17.892042045283">
        <ele>51.6</ele>
        <time>2018-03-29T11:31:11Z</time>
      </trkpt>
      <trkpt lat="62.641958407783" lon="17.892046236233">
        <ele>51.8</ele>
        <time>2018-03-29T11:31:12Z</time>
      </trkpt>
      <trkpt lat="62.641938626499" lon="17.89205822235">
        <ele>52</ele>
        <time>2018-03-29T11:31:13Z</time>
      </trkpt>
      <trkpt lat="62.641919683405" lon="17.892070459924">
        <ele>52</ele>
        <time>2018-03-29T11:31:14Z</time>
      </trkpt>
      <trkpt lat="62.641905182718" lon="17.892078003634">
        <ele>52.2</ele>
        <time>2018-03-29T11:31:15Z</time>
      </trkpt>
      <trkpt lat="62.641889424746" lon="17.892092169045">
        <ele>52.4</ele>
        <time>2018-03-29T11:31:16Z</time>
      </trkpt>
      <trkpt lat="62.641874169688" lon="17.892111698872">
        <ele>52.4</ele>
        <time>2018-03-29T11:31:17Z</time>
      </trkpt>
      <trkpt lat="62.641863440856" lon="17.892134162364">
        <ele>52.4</ele>
        <time>2018-03-29T11:31:18Z</time>
      </trkpt>
      <trkpt lat="62.641853550214" lon="17.892158972788">
        <ele>52.6</ele>
        <time>2018-03-29T11:31:19Z</time>
      </trkpt>
      <trkpt lat="62.641847431427" lon="17.892185375773">
        <ele>53</ele>
        <time>2018-03-29T11:31:20Z</time>
      </trkpt>
      <trkpt lat="62.641843575753" lon="17.892215047699">
        <ele>53.2</ele>
        <time>2018-03-29T11:31:21Z</time>
      </trkpt>
      <trkpt lat="62.641838714251" lon="17.892248659118">
        <ele>53.6</ele>
        <time>2018-03-29T11:31:22Z</time>
      </trkpt>
      <trkpt lat="62.641834774758" lon="17.892276906121">
        <ele>54</ele>
        <time>2018-03-29T11:31:23Z</time>
      </trkpt>
      <trkpt lat="62.641834523301" lon="17.892312864472">
        <ele>54.4</ele>
        <time>2018-03-29T11:31:24Z</time>
      </trkpt>
      <trkpt lat="62.641836115862" lon="17.892342787855">
        <ele>54.6</ele>
        <time>2018-03-29T11:31:25Z</time>
      </trkpt>
      <trkpt lat="62.641843491934" lon="17.892376399274">
        <ele>54.8</ele>
        <time>2018-03-29T11:31:26Z</time>
      </trkpt>
      <trkpt lat="62.641850868006" lon="17.892404646277">
        <ele>55</ele>
        <time>2018-03-29T11:31:27Z</time>
      </trkpt>
      <trkpt lat="62.641851622377" lon="17.89244043699">
        <ele>55.2</ele>
        <time>2018-03-29T11:31:28Z</time>
      </trkpt>
      <trkpt lat="62.641857154431" lon="17.892476898255">
        <ele>55.2</ele>
        <time>2018-03-29T11:31:29Z</time>
      </trkpt>
      <trkpt lat="62.641862351209" lon="17.892519059212">
        <ele>55.4</ele>
        <time>2018-03-29T11:31:30Z</time>
      </trkpt>
      <trkpt lat="62.641863608494" lon="17.892558454142">
        <ele>55.6</ele>
        <time>2018-03-29T11:31:31Z</time>
      </trkpt>
      <trkpt lat="62.641868721453" lon="17.892592065561">
        <ele>55.6</ele>
        <time>2018-03-29T11:31:32Z</time>
      </trkpt>
      <trkpt lat="62.641870900747" lon="17.892620396383">
        <ele>55.6</ele>
        <time>2018-03-29T11:31:33Z</time>
      </trkpt>
      <trkpt lat="62.641870733109" lon="17.892662641159">
        <ele>55.6</ele>
        <time>2018-03-29T11:31:34Z</time>
      </trkpt>
      <trkpt lat="62.641871822756" lon="17.892697090768">
        <ele>55.8</ele>
        <time>2018-03-29T11:31:35Z</time>
      </trkpt>
      <trkpt lat="62.641871068385" lon="17.892730702187">
        <ele>55.8</ele>
        <time>2018-03-29T11:31:36Z</time>
      </trkpt>
      <trkpt lat="62.641868050901" lon="17.892759871199">
        <ele>56.2</ele>
        <time>2018-03-29T11:31:37Z</time>
      </trkpt>
      <trkpt lat="62.641866290702" lon="17.892782669967">
        <ele>56.4</ele>
        <time>2018-03-29T11:31:38Z</time>
      </trkpt>
      <trkpt lat="62.641864865779" lon="17.89280672602">
        <ele>56.6</ele>
        <time>2018-03-29T11:31:39Z</time>
      </trkpt>
      <trkpt lat="62.641862015933" lon="17.892828938055">
        <ele>56.8</ele>
        <time>2018-03-29T11:31:40Z</time>
      </trkpt>
      <trkpt lat="62.641859417544" lon="17.89284947371">
        <ele>57.2</ele>
        <time>2018-03-29T11:31:41Z</time>
      </trkpt>
      <trkpt lat="62.641858244078" lon="17.892868835899">
        <ele>57.4</ele>
        <time>2018-03-29T11:31:42Z</time>
      </trkpt>
      <trkpt lat="62.641856567698" lon="17.892885012966">
        <ele>57.6</ele>
        <time>2018-03-29T11:31:43Z</time>
      </trkpt>
      <trkpt lat="62.641856902974" lon="17.892902112042">
        <ele>57.8</ele>
        <time>2018-03-29T11:31:44Z</time>
      </trkpt>
      <trkpt lat="62.641855226594" lon="17.892905883897">
        <ele>58</ele>
        <time>2018-03-29T11:31:45Z</time>
      </trkpt>
      <trkpt lat="62.641857657345" lon="17.892924407896">
        <ele>58.2</ele>
        <time>2018-03-29T11:31:46Z</time>
      </trkpt>
      <trkpt lat="62.641855980965" lon="17.892944105361">
        <ele>58.4</ele>
        <time>2018-03-29T11:31:47Z</time>
      </trkpt>
      <trkpt lat="62.641856148603" lon="17.89296095298">
        <ele>58.6</ele>
        <time>2018-03-29T11:31:48Z</time>
      </trkpt>
      <trkpt lat="62.64185556187" lon="17.892979560798">
        <ele>58.8</ele>
        <time>2018-03-29T11:31:49Z</time>
      </trkpt>
      <trkpt lat="62.641856735336" lon="17.892984003205">
        <ele>59.2</ele>
        <time>2018-03-29T11:31:50Z</time>
      </trkpt>
      <trkpt lat="62.641854220766" lon="17.892991379277">
        <ele>59.2</ele>
        <time>2018-03-29T11:31:51Z</time>
      </trkpt>
      <trkpt lat="62.641858998449" lon="17.893017530805">
        <ele>59.4</ele>
        <time>2018-03-29T11:31:52Z</time>
      </trkpt>
      <trkpt lat="62.641859417544" lon="17.893036725356">
        <ele>59.6</ele>
        <time>2018-03-29T11:31:53Z</time>
      </trkpt>
      <trkpt lat="62.641859082268" lon="17.893057680106">
        <ele>59.8</ele>
        <time>2018-03-29T11:31:54Z</time>
      </trkpt>
      <trkpt lat="62.641858998449" lon="17.893073773354">
        <ele>59.8</ele>
        <time>2018-03-29T11:31:55Z</time>
      </trkpt>
      <trkpt lat="62.641858830811" lon="17.893078886313">
        <ele>60.2</ele>
        <time>2018-03-29T11:31:56Z</time>
      </trkpt>
      <trkpt lat="62.641860842467" lon="17.893096991217">
        <ele>60.2</ele>
        <time>2018-03-29T11:31:57Z</time>
      </trkpt>
      <trkpt lat="62.641857824983" lon="17.8931185327">
        <ele>60.4</ele>
        <time>2018-03-29T11:31:58Z</time>
      </trkpt>
      <trkpt lat="62.641854472223" lon="17.893144097495">
        <ele>60.6</ele>
        <time>2018-03-29T11:31:59Z</time>
      </trkpt>
      <trkpt lat="62.64186394377" lon="17.893174942887">
        <ele>60.8</ele>
        <time>2018-03-29T11:32:00Z</time>
      </trkpt>
      <trkpt lat="62.641863021761" lon="17.893197406379">
        <ele>61</ele>
        <time>2018-03-29T11:32:01Z</time>
      </trkpt>
      <trkpt lat="62.641858327897" lon="17.893225401925">
        <ele>61.2</ele>
        <time>2018-03-29T11:32:02Z</time>
      </trkpt>
      <trkpt lat="62.64185472368" lon="17.893248535969">
        <ele>61.6</ele>
        <time>2018-03-29T11:32:03Z</time>
      </trkpt>
      <trkpt lat="62.641848269617" lon="17.893288182356">
        <ele>61.8</ele>
        <time>2018-03-29T11:32:04Z</time>
      </trkpt>
      <trkpt lat="62.641838630432" lon="17.893328499295">
        <ele>62</ele>
        <time>2018-03-29T11:32:05Z</time>
      </trkpt>
      <trkpt lat="62.641830667627" lon="17.893374599745">
        <ele>62.4</ele>
        <time>2018-03-29T11:32:06Z</time>
      </trkpt>
      <trkpt lat="62.641823962107" lon="17.893422125118">
        <ele>62.8</ele>
        <time>2018-03-29T11:32:07Z</time>
      </trkpt>
      <trkpt lat="62.641814406741" lon="17.893465124265">
        <ele>63</ele>
        <time>2018-03-29T11:32:08Z</time>
      </trkpt>
      <trkpt lat="62.641804599918" lon="17.893510051249">
        <ele>63.2</ele>
        <time>2018-03-29T11:32:09Z</time>
      </trkpt>
      <trkpt lat="62.641793871086" lon="17.89355020055">
        <ele>63.4</ele>
        <time>2018-03-29T11:32:10Z</time>
      </trkpt>
      <trkpt lat="62.641789763955" lon="17.893587416186">
        <ele>63.6</ele>
        <time>2018-03-29T11:32:11Z</time>
      </trkpt>
      <trkpt lat="62.641782387883" lon="17.893627900763">
        <ele>63.8</ele>
        <time>2018-03-29T11:32:12Z</time>
      </trkpt>
      <trkpt lat="62.641775011811" lon="17.893660171078">
        <ele>64.2</ele>
        <time>2018-03-29T11:32:13Z</time>
      </trkpt>
      <trkpt lat="62.641768054834" lon="17.893698224904">
        <ele>64.2</ele>
        <time>2018-03-29T11:32:14Z</time>
      </trkpt>
      <trkpt lat="62.641765456445" lon="17.893732171599">
        <ele>64.6</ele>
        <time>2018-03-29T11:32:15Z</time>
      </trkpt>
      <trkpt lat="62.641763277151" lon="17.893773326728">
        <ele>64.8</ele>
        <time>2018-03-29T11:32:16Z</time>
      </trkpt>
      <trkpt lat="62.641766965187" lon="17.893819343359">
        <ele>65</ele>
        <time>2018-03-29T11:32:17Z</time>
      </trkpt>
      <trkpt lat="62.641773251612" lon="17.89386116904">
        <ele>65.4</ele>
        <time>2018-03-29T11:32:18Z</time>
      </trkpt>
      <trkpt lat="62.641782974616" lon="17.893910035517">
        <ele>65.4</ele>
        <time>2018-03-29T11:32:19Z</time>
      </trkpt>
      <trkpt lat="62.64180107952" lon="17.893957644709">
        <ele>65.6</ele>
        <time>2018-03-29T11:32:20Z</time>
      </trkpt>
      <trkpt lat="62.641827650143" lon="17.893990334119">
        <ele>65.8</ele>
        <time>2018-03-29T11:32:21Z</time>
      </trkpt>
      <trkpt lat="62.641867464168" lon="17.894002739331">
        <ele>65.8</ele>
        <time>2018-03-29T11:32:22Z</time>
      </trkpt>
      <trkpt lat="62.641909373668" lon="17.893996285268">
        <ele>65.6</ele>
        <time>2018-03-29T11:32:23Z</time>
      </trkpt>
      <trkpt lat="62.64195698286" lon="17.893977845088">
        <ele>65</ele>
        <time>2018-03-29T11:32:24Z</time>
      </trkpt>
      <trkpt lat="62.642000652559" lon="17.893963092944">
        <ele>64.4</ele>
        <time>2018-03-29T11:32:25Z</time>
      </trkpt>
      <trkpt lat="62.642047675018" lon="17.893952447931">
        <ele>63.8</ele>
        <time>2018-03-29T11:32:26Z</time>
      </trkpt>
      <trkpt lat="62.642091177079" lon="17.893956303605">
        <ele>62.8</ele>
        <time>2018-03-29T11:32:27Z</time>
      </trkpt>
      <trkpt lat="62.642135098235" lon="17.893986310807">
        <ele>62</ele>
        <time>2018-03-29T11:32:28Z</time>
      </trkpt>
      <trkpt lat="62.642172565328" lon="17.894047582496">
        <ele>61.2</ele>
        <time>2018-03-29T11:32:29Z</time>
      </trkpt>
      <trkpt lat="62.642194274449" lon="17.894117068447">
        <ele>60.6</ele>
        <time>2018-03-29T11:32:30Z</time>
      </trkpt>
      <trkpt lat="62.64220676348" lon="17.894186973493">
        <ele>60.2</ele>
        <time>2018-03-29T11:32:31Z</time>
      </trkpt>
      <trkpt lat="62.642217492312" lon="17.894275905452">
        <ele>60</ele>
        <time>2018-03-29T11:32:32Z</time>
      </trkpt>
      <trkpt lat="62.642223946375" lon="17.894364250678">
        <ele>60.2</ele>
        <time>2018-03-29T11:32:33Z</time>
      </trkpt>
      <trkpt lat="62.642225538936" lon="17.894503893132">
        <ele>60.2</ele>
        <time>2018-03-29T11:32:34Z</time>
      </trkpt>
      <trkpt lat="62.642213720457" lon="17.894649822011">
        <ele>60.2</ele>
        <time>2018-03-29T11:32:35Z</time>
      </trkpt>
      <trkpt lat="62.642191592241" lon="17.894805306256">
        <ele>59.8</ele>
        <time>2018-03-29T11:32:36Z</time>
      </trkpt>
      <trkpt lat="62.642164267247" lon="17.894955928999">
        <ele>58.8</ele>
        <time>2018-03-29T11:32:37Z</time>
      </trkpt>
      <trkpt lat="62.642146749076" lon="17.895096074367">
        <ele>58</ele>
        <time>2018-03-29T11:32:38Z</time>
      </trkpt>
      <trkpt lat="62.642137528986" lon="17.89526346091">
        <ele>57.2</ele>
        <time>2018-03-29T11:32:39Z</time>
      </trkpt>
      <trkpt lat="62.642130069095" lon="17.89546043556">
        <ele>56.2</ele>
        <time>2018-03-29T11:32:40Z</time>
      </trkpt>
      <trkpt lat="62.642121016643" lon="17.895650117957">
        <ele>55.6</ele>
        <time>2018-03-29T11:32:41Z</time>
      </trkpt>
      <trkpt lat="62.642104420481" lon="17.895829993531">
        <ele>55</ele>
        <time>2018-03-29T11:32:42Z</time>
      </trkpt>
      <trkpt lat="62.642082459903" lon="17.89598765707">
        <ele>54</ele>
        <time>2018-03-29T11:32:43Z</time>
      </trkpt>
      <trkpt lat="62.642053123253" lon="17.896152612862">
        <ele>52.8</ele>
        <time>2018-03-29T11:32:44Z</time>
      </trkpt>
      <trkpt lat="62.642023618965" lon="17.896287645271">
        <ele>51.4</ele>
        <time>2018-03-29T11:32:45Z</time>
      </trkpt>
      <trkpt lat="62.64199218684" lon="17.896423264413">
        <ele>50</ele>
        <time>2018-03-29T11:32:46Z</time>
      </trkpt>
      <trkpt lat="62.641962095819" lon="17.896560057021">
        <ele>48.6</ele>
        <time>2018-03-29T11:32:47Z</time>
      </trkpt>
      <trkpt lat="62.641936195748" lon="17.896680337286">
        <ele>48.2</ele>
        <time>2018-03-29T11:32:48Z</time>
      </trkpt>
      <trkpt lat="62.641912726428" lon="17.896808077442">
        <ele>48.4</ele>
        <time>2018-03-29T11:32:49Z</time>
      </trkpt>
      <trkpt lat="62.641896297904" lon="17.896929698811">
        <ele>48.4</ele>
        <time>2018-03-29T11:32:50Z</time>
      </trkpt>
      <trkpt lat="62.641881797217" lon="17.897051068723">
        <ele>48.4</ele>
        <time>2018-03-29T11:32:51Z</time>
      </trkpt>
      <trkpt lat="62.641876348982" lon="17.897178892698">
        <ele>48.4</ele>
        <time>2018-03-29T11:32:52Z</time>
      </trkpt>
      <trkpt lat="62.641866374521" lon="17.897327252328">
        <ele>48</ele>
        <time>2018-03-29T11:32:53Z</time>
      </trkpt>
      <trkpt lat="62.641857657345" lon="17.897478377985">
        <ele>47.6</ele>
        <time>2018-03-29T11:32:54Z</time>
      </trkpt>
      <trkpt lat="62.64184801816" lon="17.897622295208">
        <ele>47</ele>
        <time>2018-03-29T11:32:55Z</time>
      </trkpt>
      <trkpt lat="62.641838043699" lon="17.897740144722">
        <ele>46.2</ele>
        <time>2018-03-29T11:32:56Z</time>
      </trkpt>
      <trkpt lat="62.641827566324" lon="17.897879535719">
        <ele>45.6</ele>
        <time>2018-03-29T11:32:57Z</time>
      </trkpt>
      <trkpt lat="62.641821363718" lon="17.897995541215">
        <ele>45</ele>
        <time>2018-03-29T11:32:58Z</time>
      </trkpt>
      <trkpt lat="62.641813233275" lon="17.898109367417">
        <ele>44.8</ele>
        <time>2018-03-29T11:32:59Z</time>
      </trkpt>
      <trkpt lat="62.641811221619" lon="17.898201233041">
        <ele>44.8</ele>
        <time>2018-03-29T11:33:00Z</time>
      </trkpt>
      <trkpt lat="62.641811556895" lon="17.898283208023">
        <ele>44.8</ele>
        <time>2018-03-29T11:33:01Z</time>
      </trkpt>
      <trkpt lat="62.641813987646" lon="17.898367697575">
        <ele>45</ele>
        <time>2018-03-29T11:33:02Z</time>
      </trkpt>
      <trkpt lat="62.641809126144" lon="17.898434417499">
        <ele>45.2</ele>
        <time>2018-03-29T11:33:03Z</time>
      </trkpt>
      <trkpt lat="62.641802001529" lon="17.898518907051">
        <ele>45.6</ele>
        <time>2018-03-29T11:33:04Z</time>
      </trkpt>
      <trkpt lat="62.64179940314" lon="17.898593673599">
        <ele>45.6</ele>
        <time>2018-03-29T11:33:05Z</time>
      </trkpt>
      <trkpt lat="62.64179269762" lon="17.898666847586">
        <ele>45.8</ele>
        <time>2018-03-29T11:33:06Z</time>
      </trkpt>
      <trkpt lat="62.641791607973" lon="17.898731220578">
        <ele>46.2</ele>
        <time>2018-03-29T11:33:07Z</time>
      </trkpt>
      <trkpt lat="62.641786327376" lon="17.898785954385">
        <ele>46.4</ele>
        <time>2018-03-29T11:33:08Z</time>
      </trkpt>
      <trkpt lat="62.641778783666" lon="17.898846639341">
        <ele>46.8</ele>
        <time>2018-03-29T11:33:09Z</time>
      </trkpt>
      <trkpt lat="62.641769144481" lon="17.89891629293">
        <ele>47</ele>
        <time>2018-03-29T11:33:10Z</time>
      </trkpt>
      <trkpt lat="62.641754224699" lon="17.898976391153">
        <ele>47.2</ele>
        <time>2018-03-29T11:33:11Z</time>
      </trkpt>
      <trkpt lat="62.641739388736" lon="17.899037998118">
        <ele>47.2</ele>
        <time>2018-03-29T11:33:12Z</time>
      </trkpt>
      <trkpt lat="62.641717176701" lon="17.899087618966">
        <ele>47.4</ele>
        <time>2018-03-29T11:33:13Z</time>
      </trkpt>
      <trkpt lat="62.641697060141" lon="17.899126427163">
        <ele>47.4</ele>
        <time>2018-03-29T11:33:14Z</time>
      </trkpt>
    </trkseg>
  </trk>
</gpx>